<?xml version="1.0" encoding="utf-8"?>
<gpx xmlns:xsi="http://www.w3.org/2001/XMLSchema-instance" xmlns:xsd="http://www.w3.org/2001/XMLSchema" version="1.1" creator="Shapelink.com" xmlns="http://www.topografix.com/GPX/1/1" xmlns:gpxtpx="http://www.garmin.com/xmlschemas/TrackPointExtension/v1">
  <metadata>
    <name>Löpning 8.80 km, 2018-02-17</name>
    <desc></desc>
    <author><name>Bengt-Åke Forslund</name></author> 
    <time>2018-02-17T13:17:23Z</time>
  </metadata>
  <trk>
    <name>Löpning 8.80 km, 2018-02-17</name>
    <trkseg>
      <trkpt lat="62.635776756533" lon="17.967440588543">
        <ele>54.4</ele>
        <time>2018-02-17T13:17:23Z</time>
      </trkpt>
      <trkpt lat="62.635884547767" lon="17.96773336831">
        <ele>55.2</ele>
        <time>2018-02-17T13:17:35Z</time>
      </trkpt>
      <trkpt lat="62.635896952979" lon="17.967776535095">
        <ele>55.2</ele>
        <time>2018-02-17T13:17:36Z</time>
      </trkpt>
      <trkpt lat="62.635910196381" lon="17.967824395744">
        <ele>55.4</ele>
        <time>2018-02-17T13:17:37Z</time>
      </trkpt>
      <trkpt lat="62.635919919385" lon="17.967867646348">
        <ele>55.4</ele>
        <time>2018-02-17T13:17:38Z</time>
      </trkpt>
      <trkpt lat="62.635930648217" lon="17.967906119269">
        <ele>55.4</ele>
        <time>2018-02-17T13:17:39Z</time>
      </trkpt>
      <trkpt lat="62.635938946298" lon="17.967937802851">
        <ele>55.4</ele>
        <time>2018-02-17T13:17:40Z</time>
      </trkpt>
      <trkpt lat="62.635948753121" lon="17.967987758975">
        <ele>55.4</ele>
        <time>2018-02-17T13:17:41Z</time>
      </trkpt>
      <trkpt lat="62.63595554246" lon="17.968028495009">
        <ele>55.4</ele>
        <time>2018-02-17T13:17:42Z</time>
      </trkpt>
      <trkpt lat="62.635962415618" lon="17.968061854971">
        <ele>55.4</ele>
        <time>2018-02-17T13:17:43Z</time>
      </trkpt>
      <trkpt lat="62.635972138622" lon="17.968101082263">
        <ele>55.6</ele>
        <time>2018-02-17T13:17:44Z</time>
      </trkpt>
      <trkpt lat="62.635982951273" lon="17.968137794985">
        <ele>55.6</ele>
        <time>2018-02-17T13:17:45Z</time>
      </trkpt>
      <trkpt lat="62.635996278494" lon="17.968172244594">
        <ele>55.6</ele>
        <time>2018-02-17T13:17:46Z</time>
      </trkpt>
      <trkpt lat="62.636009354258" lon="17.968207616212">
        <ele>55.8</ele>
        <time>2018-02-17T13:17:47Z</time>
      </trkpt>
      <trkpt lat="62.636023519669" lon="17.968244580391">
        <ele>55.8</ele>
        <time>2018-02-17T13:17:48Z</time>
      </trkpt>
      <trkpt lat="62.636037349804" lon="17.968280287285">
        <ele>55.8</ele>
        <time>2018-02-17T13:17:49Z</time>
      </trkpt>
      <trkpt lat="62.636049503559" lon="17.968319095482">
        <ele>55.8</ele>
        <time>2018-02-17T13:17:50Z</time>
      </trkpt>
      <trkpt lat="62.636063249875" lon="17.968348851227">
        <ele>55.8</ele>
        <time>2018-02-17T13:17:51Z</time>
      </trkpt>
      <trkpt lat="62.63607708001" lon="17.968374499841">
        <ele>55.8</ele>
        <time>2018-02-17T13:17:52Z</time>
      </trkpt>
      <trkpt lat="62.636093592353" lon="17.968407356889">
        <ele>56</ele>
        <time>2018-02-17T13:17:53Z</time>
      </trkpt>
      <trkpt lat="62.636111781076" lon="17.968431412942">
        <ele>56</ele>
        <time>2018-02-17T13:17:54Z</time>
      </trkpt>
      <trkpt lat="62.636132316731" lon="17.968455636633">
        <ele>56</ele>
        <time>2018-02-17T13:17:55Z</time>
      </trkpt>
      <trkpt lat="62.636153187662" lon="17.968473573899">
        <ele>56.2</ele>
        <time>2018-02-17T13:17:56Z</time>
      </trkpt>
      <trkpt lat="62.636175232059" lon="17.968490421518">
        <ele>56.2</ele>
        <time>2018-02-17T13:17:57Z</time>
      </trkpt>
      <trkpt lat="62.636197108818" lon="17.968498300504">
        <ele>56.4</ele>
        <time>2018-02-17T13:17:58Z</time>
      </trkpt>
      <trkpt lat="62.636222003061" lon="17.968513974657">
        <ele>56.6</ele>
        <time>2018-02-17T13:17:59Z</time>
      </trkpt>
      <trkpt lat="62.636249411874" lon="17.968530738457">
        <ele>56.6</ele>
        <time>2018-02-17T13:18:00Z</time>
      </trkpt>
      <trkpt lat="62.636273551746" lon="17.968545742058">
        <ele>56.6</ele>
        <time>2018-02-17T13:18:01Z</time>
      </trkpt>
      <trkpt lat="62.636296182876" lon="17.9685640146">
        <ele>56.6</ele>
        <time>2018-02-17T13:18:02Z</time>
      </trkpt>
      <trkpt lat="62.636320909481" lon="17.968588238291">
        <ele>56.6</ele>
        <time>2018-02-17T13:18:03Z</time>
      </trkpt>
      <trkpt lat="62.636345636086" lon="17.968616150018">
        <ele>56.6</ele>
        <time>2018-02-17T13:18:04Z</time>
      </trkpt>
      <trkpt lat="62.636371368519" lon="17.968648923247">
        <ele>56.6</ele>
        <time>2018-02-17T13:18:05Z</time>
      </trkpt>
      <trkpt lat="62.636392490907" lon="17.968683540494">
        <ele>56.4</ele>
        <time>2018-02-17T13:18:06Z</time>
      </trkpt>
      <trkpt lat="62.636410511992" lon="17.968720839949">
        <ele>56.4</ele>
        <time>2018-02-17T13:18:07Z</time>
      </trkpt>
      <trkpt lat="62.636429622724" lon="17.968761324526">
        <ele>56.4</ele>
        <time>2018-02-17T13:18:08Z</time>
      </trkpt>
      <trkpt lat="62.636446051248" lon="17.968799965085">
        <ele>56.4</ele>
        <time>2018-02-17T13:18:09Z</time>
      </trkpt>
      <trkpt lat="62.636462563591" lon="17.968840030567">
        <ele>56.4</ele>
        <time>2018-02-17T13:18:10Z</time>
      </trkpt>
      <trkpt lat="62.63647941121" lon="17.968879090221">
        <ele>56.4</ele>
        <time>2018-02-17T13:18:11Z</time>
      </trkpt>
      <trkpt lat="62.636495420639" lon="17.968925023033">
        <ele>56.4</ele>
        <time>2018-02-17T13:18:12Z</time>
      </trkpt>
      <trkpt lat="62.636511178611" lon="17.968964082687">
        <ele>56.4</ele>
        <time>2018-02-17T13:18:13Z</time>
      </trkpt>
      <trkpt lat="62.636524841108" lon="17.969002807065">
        <ele>56.6</ele>
        <time>2018-02-17T13:18:14Z</time>
      </trkpt>
      <trkpt lat="62.636539174157" lon="17.969048907515">
        <ele>56.6</ele>
        <time>2018-02-17T13:18:15Z</time>
      </trkpt>
      <trkpt lat="62.636551747007" lon="17.969104563331">
        <ele>56.6</ele>
        <time>2018-02-17T13:18:16Z</time>
      </trkpt>
      <trkpt lat="62.636571109196" lon="17.969138761483">
        <ele>56.6</ele>
        <time>2018-02-17T13:18:17Z</time>
      </trkpt>
      <trkpt lat="62.636586615711" lon="17.969192154186">
        <ele>56.8</ele>
        <time>2018-02-17T13:18:18Z</time>
      </trkpt>
      <trkpt lat="62.636597596" lon="17.969244457242">
        <ele>56.8</ele>
        <time>2018-02-17T13:18:19Z</time>
      </trkpt>
      <trkpt lat="62.636609582117" lon="17.969297263212">
        <ele>56.8</ele>
        <time>2018-02-17T13:18:20Z</time>
      </trkpt>
      <trkpt lat="62.636623328433" lon="17.969346800241">
        <ele>56.8</ele>
        <time>2018-02-17T13:18:21Z</time>
      </trkpt>
      <trkpt lat="62.636636068921" lon="17.969397259279">
        <ele>56.8</ele>
        <time>2018-02-17T13:18:22Z</time>
      </trkpt>
      <trkpt lat="62.63664956378" lon="17.969451741629">
        <ele>57</ele>
        <time>2018-02-17T13:18:23Z</time>
      </trkpt>
      <trkpt lat="62.636663058639" lon="17.969499686097">
        <ele>57</ele>
        <time>2018-02-17T13:18:24Z</time>
      </trkpt>
      <trkpt lat="62.636672865462" lon="17.96954637328">
        <ele>57</ele>
        <time>2018-02-17T13:18:25Z</time>
      </trkpt>
      <trkpt lat="62.63668392957" lon="17.969595658852">
        <ele>57</ele>
        <time>2018-02-17T13:18:26Z</time>
      </trkpt>
      <trkpt lat="62.636694490764" lon="17.969650392659">
        <ele>57</ele>
        <time>2018-02-17T13:18:27Z</time>
      </trkpt>
      <trkpt lat="62.63670153156" lon="17.969685931915">
        <ele>57.2</ele>
        <time>2018-02-17T13:18:28Z</time>
      </trkpt>
      <trkpt lat="62.636705554872" lon="17.969701186973">
        <ele>57.2</ele>
        <time>2018-02-17T13:18:29Z</time>
      </trkpt>
      <trkpt lat="62.636722151034" lon="17.969770756743">
        <ele>57.2</ele>
        <time>2018-02-17T13:18:30Z</time>
      </trkpt>
      <trkpt lat="62.636733969513" lon="17.969814761718">
        <ele>57.4</ele>
        <time>2018-02-17T13:18:31Z</time>
      </trkpt>
      <trkpt lat="62.636744865983" lon="17.969862119453">
        <ele>57.4</ele>
        <time>2018-02-17T13:18:32Z</time>
      </trkpt>
      <trkpt lat="62.636759115213" lon="17.96989925127">
        <ele>57.6</ele>
        <time>2018-02-17T13:18:33Z</time>
      </trkpt>
      <trkpt lat="62.636774034995" lon="17.969942250417">
        <ele>57.6</ele>
        <time>2018-02-17T13:18:34Z</time>
      </trkpt>
      <trkpt lat="62.636791720804" lon="17.969984243736">
        <ele>57.8</ele>
        <time>2018-02-17T13:18:35Z</time>
      </trkpt>
      <trkpt lat="62.636810915355" lon="17.970021375553">
        <ele>57.6</ele>
        <time>2018-02-17T13:18:36Z</time>
      </trkpt>
      <trkpt lat="62.636831031915" lon="17.970053394411">
        <ele>57.6</ele>
        <time>2018-02-17T13:18:37Z</time>
      </trkpt>
      <trkpt lat="62.636852070484" lon="17.970079294482">
        <ele>57.6</ele>
        <time>2018-02-17T13:18:38Z</time>
      </trkpt>
      <trkpt lat="62.636870343026" lon="17.970104104906">
        <ele>57.6</ele>
        <time>2018-02-17T13:18:39Z</time>
      </trkpt>
      <trkpt lat="62.636890878681" lon="17.970129837339">
        <ele>57.6</ele>
        <time>2018-02-17T13:18:40Z</time>
      </trkpt>
      <trkpt lat="62.636918538951" lon="17.970159760722">
        <ele>57.6</ele>
        <time>2018-02-17T13:18:41Z</time>
      </trkpt>
      <trkpt lat="62.636943349375" lon="17.97017669216">
        <ele>57.6</ele>
        <time>2018-02-17T13:18:42Z</time>
      </trkpt>
      <trkpt lat="62.636969417084" lon="17.970201083489">
        <ele>57.6</ele>
        <time>2018-02-17T13:18:43Z</time>
      </trkpt>
      <trkpt lat="62.636999508105" lon="17.970214997443">
        <ele>57.8</ele>
        <time>2018-02-17T13:18:44Z</time>
      </trkpt>
      <trkpt lat="62.637032365153" lon="17.970229749587">
        <ele>57.8</ele>
        <time>2018-02-17T13:18:45Z</time>
      </trkpt>
      <trkpt lat="62.637053487541" lon="17.970229246673">
        <ele>57.8</ele>
        <time>2018-02-17T13:18:46Z</time>
      </trkpt>
      <trkpt lat="62.637098498344" lon="17.970223211705">
        <ele>57.6</ele>
        <time>2018-02-17T13:18:47Z</time>
      </trkpt>
      <trkpt lat="62.637134540514" lon="17.970210387398">
        <ele>57.6</ele>
        <time>2018-02-17T13:18:48Z</time>
      </trkpt>
      <trkpt lat="62.637170498865" lon="17.970195383797">
        <ele>57.4</ele>
        <time>2018-02-17T13:18:49Z</time>
      </trkpt>
      <trkpt lat="62.637208552691" lon="17.970177362712">
        <ele>57.2</ele>
        <time>2018-02-17T13:18:50Z</time>
      </trkpt>
      <trkpt lat="62.637249037268" lon="17.970156156505">
        <ele>56.8</ele>
        <time>2018-02-17T13:18:51Z</time>
      </trkpt>
      <trkpt lat="62.63728994094" lon="17.970137967782">
        <ele>56.6</ele>
        <time>2018-02-17T13:18:52Z</time>
      </trkpt>
      <trkpt lat="62.637334616467" lon="17.970110894245">
        <ele>56.2</ele>
        <time>2018-02-17T13:18:53Z</time>
      </trkpt>
      <trkpt lat="62.637375855415" lon="17.970091112961">
        <ele>56</ele>
        <time>2018-02-17T13:18:54Z</time>
      </trkpt>
      <trkpt lat="62.637418435467" lon="17.970074600618">
        <ele>55.8</ele>
        <time>2018-02-17T13:18:55Z</time>
      </trkpt>
      <trkpt lat="62.637461015519" lon="17.970065296709">
        <ele>55.6</ele>
        <time>2018-02-17T13:18:56Z</time>
      </trkpt>
      <trkpt lat="62.637497309146" lon="17.970068146555">
        <ele>55.4</ele>
        <time>2018-02-17T13:18:57Z</time>
      </trkpt>
      <trkpt lat="62.637535027696" lon="17.970084072165">
        <ele>55.2</ele>
        <time>2018-02-17T13:18:58Z</time>
      </trkpt>
      <trkpt lat="62.637575260816" lon="17.970108882589">
        <ele>55</ele>
        <time>2018-02-17T13:18:59Z</time>
      </trkpt>
      <trkpt lat="62.637605603294" lon="17.970139979438">
        <ele>54.8</ele>
        <time>2018-02-17T13:19:00Z</time>
      </trkpt>
      <trkpt lat="62.637629826985" lon="17.97018423587">
        <ele>54.8</ele>
        <time>2018-02-17T13:19:01Z</time>
      </trkpt>
      <trkpt lat="62.63765287721" lon="17.970237125659">
        <ele>54.8</ele>
        <time>2018-02-17T13:19:02Z</time>
      </trkpt>
      <trkpt lat="62.637676933263" lon="17.970292110923">
        <ele>54.8</ele>
        <time>2018-02-17T13:19:03Z</time>
      </trkpt>
      <trkpt lat="62.637695708719" lon="17.970341983228">
        <ele>54.8</ele>
        <time>2018-02-17T13:19:04Z</time>
      </trkpt>
      <trkpt lat="62.637713813623" lon="17.970390849705">
        <ele>54.8</ele>
        <time>2018-02-17T13:19:05Z</time>
      </trkpt>
      <trkpt lat="62.6377291525" lon="17.970451450842">
        <ele>54.8</ele>
        <time>2018-02-17T13:19:06Z</time>
      </trkpt>
      <trkpt lat="62.637741306255" lon="17.970526049752">
        <ele>54.8</ele>
        <time>2018-02-17T13:19:07Z</time>
      </trkpt>
      <trkpt lat="62.637754801114" lon="17.970581370292">
        <ele>54.6</ele>
        <time>2018-02-17T13:19:08Z</time>
      </trkpt>
      <trkpt lat="62.637770307629" lon="17.970628308932">
        <ele>54.6</ele>
        <time>2018-02-17T13:19:09Z</time>
      </trkpt>
      <trkpt lat="62.637785646506" lon="17.970666446577">
        <ele>54.6</ele>
        <time>2018-02-17T13:19:10Z</time>
      </trkpt>
      <trkpt lat="62.637797213528" lon="17.970717743805">
        <ele>54.8</ele>
        <time>2018-02-17T13:19:11Z</time>
      </trkpt>
      <trkpt lat="62.637806768894" lon="17.970771974698">
        <ele>54.6</ele>
        <time>2018-02-17T13:19:12Z</time>
      </trkpt>
      <trkpt lat="62.637819425563" lon="17.970811788723">
        <ele>54.8</ele>
        <time>2018-02-17T13:19:13Z</time>
      </trkpt>
      <trkpt lat="62.637828394196" lon="17.970865600521">
        <ele>54.8</ele>
        <time>2018-02-17T13:19:14Z</time>
      </trkpt>
      <trkpt lat="62.637837362829" lon="17.970915305188">
        <ele>55</ele>
        <time>2018-02-17T13:19:15Z</time>
      </trkpt>
      <trkpt lat="62.637846163824" lon="17.970959226344">
        <ele>55</ele>
        <time>2018-02-17T13:19:16Z</time>
      </trkpt>
      <trkpt lat="62.63786242471" lon="17.971005159156">
        <ele>55</ele>
        <time>2018-02-17T13:19:17Z</time>
      </trkpt>
      <trkpt lat="62.637869381687" lon="17.971065760293">
        <ele>55.2</ele>
        <time>2018-02-17T13:19:18Z</time>
      </trkpt>
      <trkpt lat="62.637878015044" lon="17.971118147168">
        <ele>55.2</ele>
        <time>2018-02-17T13:19:19Z</time>
      </trkpt>
      <trkpt lat="62.637887654229" lon="17.971172629518">
        <ele>55.2</ele>
        <time>2018-02-17T13:19:20Z</time>
      </trkpt>
      <trkpt lat="62.637893186283" lon="17.971223088556">
        <ele>55.2</ele>
        <time>2018-02-17T13:19:21Z</time>
      </trkpt>
      <trkpt lat="62.637897377233" lon="17.971258627812">
        <ele>55.2</ele>
        <time>2018-02-17T13:19:22Z</time>
      </trkpt>
      <trkpt lat="62.637901568183" lon="17.971318558397">
        <ele>55.4</ele>
        <time>2018-02-17T13:19:23Z</time>
      </trkpt>
      <trkpt lat="62.637906764961" lon="17.971355774033">
        <ele>55.4</ele>
        <time>2018-02-17T13:19:24Z</time>
      </trkpt>
      <trkpt lat="62.637912129377" lon="17.971400617198">
        <ele>55.4</ele>
        <time>2018-02-17T13:19:25Z</time>
      </trkpt>
      <trkpt lat="62.637917996707" lon="17.971438922481">
        <ele>55.4</ele>
        <time>2018-02-17T13:19:26Z</time>
      </trkpt>
      <trkpt lat="62.637923780218" lon="17.971480748162">
        <ele>55.4</ele>
        <time>2018-02-17T13:19:27Z</time>
      </trkpt>
      <trkpt lat="62.637926630064" lon="17.971523998766">
        <ele>55.6</ele>
        <time>2018-02-17T13:19:28Z</time>
      </trkpt>
      <trkpt lat="62.637932162118" lon="17.971576050365">
        <ele>55.8</ele>
        <time>2018-02-17T13:19:29Z</time>
      </trkpt>
      <trkpt lat="62.637938783819" lon="17.971625252118">
        <ele>55.8</ele>
        <time>2018-02-17T13:19:30Z</time>
      </trkpt>
      <trkpt lat="62.637943142407" lon="17.971680153563">
        <ele>56</ele>
        <time>2018-02-17T13:19:31Z</time>
      </trkpt>
      <trkpt lat="62.637946076072" lon="17.971736731388">
        <ele>56</ele>
        <time>2018-02-17T13:19:32Z</time>
      </trkpt>
      <trkpt lat="62.637949345013" lon="17.971795069412">
        <ele>56</ele>
        <time>2018-02-17T13:19:33Z</time>
      </trkpt>
      <trkpt lat="62.637951356669" lon="17.971848462115">
        <ele>56</ele>
        <time>2018-02-17T13:19:34Z</time>
      </trkpt>
      <trkpt lat="62.637952697773" lon="17.971901519542">
        <ele>56</ele>
        <time>2018-02-17T13:19:35Z</time>
      </trkpt>
      <trkpt lat="62.637952278678" lon="17.971953571141">
        <ele>56</ele>
        <time>2018-02-17T13:19:36Z</time>
      </trkpt>
      <trkpt lat="62.637952781592" lon="17.971999084858">
        <ele>56.2</ele>
        <time>2018-02-17T13:19:37Z</time>
      </trkpt>
      <trkpt lat="62.637954206515" lon="17.972059685995">
        <ele>56</ele>
        <time>2018-02-17T13:19:38Z</time>
      </trkpt>
      <trkpt lat="62.637952613954" lon="17.972113246336">
        <ele>56.2</ele>
        <time>2018-02-17T13:19:39Z</time>
      </trkpt>
      <trkpt lat="62.637951021393" lon="17.972160184976">
        <ele>56.2</ele>
        <time>2018-02-17T13:19:40Z</time>
      </trkpt>
      <trkpt lat="62.637956385809" lon="17.97221936119">
        <ele>56.2</ele>
        <time>2018-02-17T13:19:41Z</time>
      </trkpt>
      <trkpt lat="62.637965605899" lon="17.972257415016">
        <ele>56.4</ele>
        <time>2018-02-17T13:19:42Z</time>
      </trkpt>
      <trkpt lat="62.637974993627" lon="17.972304772751">
        <ele>56.4</ele>
        <time>2018-02-17T13:19:43Z</time>
      </trkpt>
      <trkpt lat="62.637977340559" lon="17.972354393599">
        <ele>56.6</ele>
        <time>2018-02-17T13:19:44Z</time>
      </trkpt>
      <trkpt lat="62.637981531509" lon="17.972396638375">
        <ele>56.6</ele>
        <time>2018-02-17T13:19:45Z</time>
      </trkpt>
      <trkpt lat="62.637986225373" lon="17.972434021649">
        <ele>56.8</ele>
        <time>2018-02-17T13:19:46Z</time>
      </trkpt>
      <trkpt lat="62.637988488486" lon="17.972482301393">
        <ele>56.8</ele>
        <time>2018-02-17T13:19:47Z</time>
      </trkpt>
      <trkpt lat="62.63799318235" lon="17.972533598621">
        <ele>57</ele>
        <time>2018-02-17T13:19:48Z</time>
      </trkpt>
      <trkpt lat="62.637996618929" lon="17.972584392935">
        <ele>57.2</ele>
        <time>2018-02-17T13:19:49Z</time>
      </trkpt>
      <trkpt lat="62.638001731888" lon="17.97263007429">
        <ele>57.4</ele>
        <time>2018-02-17T13:19:50Z</time>
      </trkpt>
      <trkpt lat="62.638003995001" lon="17.972679108405">
        <ele>57.6</ele>
        <time>2018-02-17T13:19:51Z</time>
      </trkpt>
      <trkpt lat="62.638003156811" lon="17.972732082013">
        <ele>57.6</ele>
        <time>2018-02-17T13:19:52Z</time>
      </trkpt>
      <trkpt lat="62.638011287254" lon="17.97277005202">
        <ele>57.6</ele>
        <time>2018-02-17T13:19:53Z</time>
      </trkpt>
      <trkpt lat="62.638013969462" lon="17.972813889357">
        <ele>57.6</ele>
        <time>2018-02-17T13:19:54Z</time>
      </trkpt>
      <trkpt lat="62.638017657498" lon="17.972855463581">
        <ele>57.6</ele>
        <time>2018-02-17T13:19:55Z</time>
      </trkpt>
      <trkpt lat="62.638018579507" lon="17.972899803832">
        <ele>57.8</ele>
        <time>2018-02-17T13:19:56Z</time>
      </trkpt>
      <trkpt lat="62.638021596991" lon="17.972939869314">
        <ele>57.8</ele>
        <time>2018-02-17T13:19:57Z</time>
      </trkpt>
      <trkpt lat="62.63802670995" lon="17.972985215393">
        <ele>58</ele>
        <time>2018-02-17T13:19:58Z</time>
      </trkpt>
      <trkpt lat="62.638029559796" lon="17.973038691915">
        <ele>58.2</ele>
        <time>2018-02-17T13:19:59Z</time>
      </trkpt>
      <trkpt lat="62.638030481805" lon="17.973084457089">
        <ele>58.2</ele>
        <time>2018-02-17T13:20:00Z</time>
      </trkpt>
      <trkpt lat="62.638029475977" lon="17.973126366589">
        <ele>58.2</ele>
        <time>2018-02-17T13:20:01Z</time>
      </trkpt>
      <trkpt lat="62.638032493461" lon="17.973162827854">
        <ele>58.2</ele>
        <time>2018-02-17T13:20:02Z</time>
      </trkpt>
      <trkpt lat="62.638033918384" lon="17.97320674901">
        <ele>58.4</ele>
        <time>2018-02-17T13:20:03Z</time>
      </trkpt>
      <trkpt lat="62.638035762402" lon="17.973247233587">
        <ele>58.4</ele>
        <time>2018-02-17T13:20:04Z</time>
      </trkpt>
      <trkpt lat="62.638037103506" lon="17.973294339865">
        <ele>58.4</ele>
        <time>2018-02-17T13:20:05Z</time>
      </trkpt>
      <trkpt lat="62.638032996375" lon="17.97334253579">
        <ele>58.6</ele>
        <time>2018-02-17T13:20:06Z</time>
      </trkpt>
      <trkpt lat="62.638028553968" lon="17.973386792222">
        <ele>58.6</ele>
        <time>2018-02-17T13:20:07Z</time>
      </trkpt>
      <trkpt lat="62.638026961407" lon="17.973428198808">
        <ele>58.6</ele>
        <time>2018-02-17T13:20:08Z</time>
      </trkpt>
      <trkpt lat="62.638025536484" lon="17.97347413162">
        <ele>58.8</ele>
        <time>2018-02-17T13:20:09Z</time>
      </trkpt>
      <trkpt lat="62.638024279199" lon="17.97352023207">
        <ele>59.2</ele>
        <time>2018-02-17T13:20:10Z</time>
      </trkpt>
      <trkpt lat="62.638023273371" lon="17.973576139343">
        <ele>59.2</ele>
        <time>2018-02-17T13:20:11Z</time>
      </trkpt>
      <trkpt lat="62.638022938095" lon="17.973626430743">
        <ele>59.2</ele>
        <time>2018-02-17T13:20:12Z</time>
      </trkpt>
      <trkpt lat="62.638025117389" lon="17.973679404351">
        <ele>59.2</ele>
        <time>2018-02-17T13:20:13Z</time>
      </trkpt>
      <trkpt lat="62.638025787941" lon="17.973731791226">
        <ele>59.4</ele>
        <time>2018-02-17T13:20:14Z</time>
      </trkpt>
      <trkpt lat="62.638027631959" lon="17.973782669359">
        <ele>59.2</ele>
        <time>2018-02-17T13:20:15Z</time>
      </trkpt>
      <trkpt lat="62.638029475977" lon="17.973833044578">
        <ele>59.2</ele>
        <time>2018-02-17T13:20:16Z</time>
      </trkpt>
      <trkpt lat="62.638031990547" lon="17.973885766729">
        <ele>59.2</ele>
        <time>2018-02-17T13:20:17Z</time>
      </trkpt>
      <trkpt lat="62.638035008031" lon="17.973942344554">
        <ele>59.2</ele>
        <time>2018-02-17T13:20:18Z</time>
      </trkpt>
      <trkpt lat="62.638038276972" lon="17.97399045666">
        <ele>59.2</ele>
        <time>2018-02-17T13:20:19Z</time>
      </trkpt>
      <trkpt lat="62.638044898673" lon="17.974039406956">
        <ele>59.2</ele>
        <time>2018-02-17T13:20:20Z</time>
      </trkpt>
      <trkpt lat="62.638048921985" lon="17.974087183786">
        <ele>59.2</ele>
        <time>2018-02-17T13:20:21Z</time>
      </trkpt>
      <trkpt lat="62.638052107107" lon="17.974130099114">
        <ele>59.4</ele>
        <time>2018-02-17T13:20:22Z</time>
      </trkpt>
      <trkpt lat="62.638051268917" lon="17.974201848178">
        <ele>59.4</ele>
        <time>2018-02-17T13:20:23Z</time>
      </trkpt>
      <trkpt lat="62.638052526202" lon="17.974259348012">
        <ele>59.4</ele>
        <time>2018-02-17T13:20:24Z</time>
      </trkpt>
      <trkpt lat="62.638056633333" lon="17.974314920009">
        <ele>59.4</ele>
        <time>2018-02-17T13:20:25Z</time>
      </trkpt>
      <trkpt lat="62.638059734636" lon="17.974370743463">
        <ele>59.2</ele>
        <time>2018-02-17T13:20:26Z</time>
      </trkpt>
      <trkpt lat="62.638059147903" lon="17.97442463908">
        <ele>59.2</ele>
        <time>2018-02-17T13:20:27Z</time>
      </trkpt>
      <trkpt lat="62.638057639161" lon="17.974479875801">
        <ele>59.2</ele>
        <time>2018-02-17T13:20:28Z</time>
      </trkpt>
      <trkpt lat="62.638053280573" lon="17.974539974024">
        <ele>59.2</ele>
        <time>2018-02-17T13:20:29Z</time>
      </trkpt>
      <trkpt lat="62.63804850289" lon="17.974591019795">
        <ele>59.2</ele>
        <time>2018-02-17T13:20:30Z</time>
      </trkpt>
      <trkpt lat="62.638043138474" lon="17.974644328679">
        <ele>59.4</ele>
        <time>2018-02-17T13:20:31Z</time>
      </trkpt>
      <trkpt lat="62.638036097678" lon="17.974689088025">
        <ele>59.4</ele>
        <time>2018-02-17T13:20:32Z</time>
      </trkpt>
      <trkpt lat="62.638029727434" lon="17.974734266466">
        <ele>59.6</ele>
        <time>2018-02-17T13:20:33Z</time>
      </trkpt>
      <trkpt lat="62.638026458493" lon="17.974771901197">
        <ele>59.6</ele>
        <time>2018-02-17T13:20:34Z</time>
      </trkpt>
      <trkpt lat="62.63801916624" lon="17.974814229792">
        <ele>59.6</ele>
        <time>2018-02-17T13:20:35Z</time>
      </trkpt>
      <trkpt lat="62.63801078434" lon="17.974850858695">
        <ele>59.6</ele>
        <time>2018-02-17T13:20:36Z</time>
      </trkpt>
      <trkpt lat="62.638000223146" lon="17.97488229082">
        <ele>59.6</ele>
        <time>2018-02-17T13:20:37Z</time>
      </trkpt>
      <trkpt lat="62.637987231201" lon="17.97492336213">
        <ele>59.6</ele>
        <time>2018-02-17T13:20:38Z</time>
      </trkpt>
      <trkpt lat="62.637975412722" lon="17.974958649929">
        <ele>59.8</ele>
        <time>2018-02-17T13:20:39Z</time>
      </trkpt>
      <trkpt lat="62.637963342786" lon="17.97499041733">
        <ele>59.8</ele>
        <time>2018-02-17T13:20:40Z</time>
      </trkpt>
      <trkpt lat="62.637948674461" lon="17.975022939102">
        <ele>60</ele>
        <time>2018-02-17T13:20:41Z</time>
      </trkpt>
      <trkpt lat="62.63793450905" lon="17.975049677363">
        <ele>60</ele>
        <time>2018-02-17T13:20:42Z</time>
      </trkpt>
      <trkpt lat="62.637922187657" lon="17.975077840547">
        <ele>60.2</ele>
        <time>2018-02-17T13:20:43Z</time>
      </trkpt>
      <trkpt lat="62.637909028074" lon="17.975103321523">
        <ele>60.2</ele>
        <time>2018-02-17T13:20:44Z</time>
      </trkpt>
      <trkpt lat="62.637897461052" lon="17.97513290963">
        <ele>60.4</ele>
        <time>2018-02-17T13:20:45Z</time>
      </trkpt>
      <trkpt lat="62.637889833523" lon="17.975164341755">
        <ele>60.4</ele>
        <time>2018-02-17T13:20:46Z</time>
      </trkpt>
      <trkpt lat="62.637872147714" lon="17.975188733084">
        <ele>60.4</ele>
        <time>2018-02-17T13:20:47Z</time>
      </trkpt>
      <trkpt lat="62.637856892656" lon="17.975222344503">
        <ele>60.6</ele>
        <time>2018-02-17T13:20:48Z</time>
      </trkpt>
      <trkpt lat="62.637838703933" lon="17.975252267886">
        <ele>60.8</ele>
        <time>2018-02-17T13:20:49Z</time>
      </trkpt>
      <trkpt lat="62.637824035608" lon="17.975280766346">
        <ele>60.8</ele>
        <time>2018-02-17T13:20:50Z</time>
      </trkpt>
      <trkpt lat="62.637807690903" lon="17.975302894562">
        <ele>61</ele>
        <time>2018-02-17T13:20:51Z</time>
      </trkpt>
      <trkpt lat="62.637790172732" lon="17.975321837656">
        <ele>61</ele>
        <time>2018-02-17T13:20:52Z</time>
      </trkpt>
      <trkpt lat="62.637776342597" lon="17.975344720243">
        <ele>61.2</ele>
        <time>2018-02-17T13:20:53Z</time>
      </trkpt>
      <trkpt lat="62.63776351829" lon="17.975360981129">
        <ele>61.4</ele>
        <time>2018-02-17T13:20:54Z</time>
      </trkpt>
      <trkpt lat="62.63775094544" lon="17.975376990558">
        <ele>61.6</ele>
        <time>2018-02-17T13:20:55Z</time>
      </trkpt>
      <trkpt lat="62.637739881332" lon="17.975397610032">
        <ele>61.6</ele>
        <time>2018-02-17T13:20:56Z</time>
      </trkpt>
      <trkpt lat="62.637726554111" lon="17.975414876746">
        <ele>61.8</ele>
        <time>2018-02-17T13:20:57Z</time>
      </trkpt>
      <trkpt lat="62.637709957949" lon="17.975428287786">
        <ele>62</ele>
        <time>2018-02-17T13:20:58Z</time>
      </trkpt>
      <trkpt lat="62.637696295452" lon="17.975442788473">
        <ele>62.2</ele>
        <time>2018-02-17T13:20:59Z</time>
      </trkpt>
      <trkpt lat="62.637681459489" lon="17.975456199513">
        <ele>62.4</ele>
        <time>2018-02-17T13:21:00Z</time>
      </trkpt>
      <trkpt lat="62.637667294078" lon="17.975472963313">
        <ele>62.6</ele>
        <time>2018-02-17T13:21:01Z</time>
      </trkpt>
      <trkpt lat="62.637650781735" lon="17.975488721285">
        <ele>62.8</ele>
        <time>2018-02-17T13:21:02Z</time>
      </trkpt>
      <trkpt lat="62.637631335727" lon="17.975511603872">
        <ele>63</ele>
        <time>2018-02-17T13:21:03Z</time>
      </trkpt>
      <trkpt lat="62.637614571927" lon="17.975529708776">
        <ele>63.2</ele>
        <time>2018-02-17T13:21:04Z</time>
      </trkpt>
      <trkpt lat="62.637594623005" lon="17.975540437608">
        <ele>63.4</ele>
        <time>2018-02-17T13:21:05Z</time>
      </trkpt>
      <trkpt lat="62.637579200309" lon="17.975551753173">
        <ele>63.6</ele>
        <time>2018-02-17T13:21:06Z</time>
      </trkpt>
      <trkpt lat="62.637563526156" lon="17.975563320195">
        <ele>63.6</ele>
        <time>2018-02-17T13:21:07Z</time>
      </trkpt>
      <trkpt lat="62.637543577234" lon="17.975574132846">
        <ele>63.6</ele>
        <time>2018-02-17T13:21:08Z</time>
      </trkpt>
      <trkpt lat="62.637528992728" lon="17.975583352936">
        <ele>63.8</ele>
        <time>2018-02-17T13:21:09Z</time>
      </trkpt>
      <trkpt lat="62.637511977471" lon="17.975589136447">
        <ele>63.8</ele>
        <time>2018-02-17T13:21:10Z</time>
      </trkpt>
      <trkpt lat="62.637494794576" lon="17.975598859451">
        <ele>64</ele>
        <time>2018-02-17T13:21:11Z</time>
      </trkpt>
      <trkpt lat="62.637480377708" lon="17.975609923559">
        <ele>64</ele>
        <time>2018-02-17T13:21:12Z</time>
      </trkpt>
      <trkpt lat="62.637462021347" lon="17.975620065658">
        <ele>64.4</ele>
        <time>2018-02-17T13:21:13Z</time>
      </trkpt>
      <trkpt lat="62.637447436841" lon="17.975634398707">
        <ele>64.4</ele>
        <time>2018-02-17T13:21:14Z</time>
      </trkpt>
      <trkpt lat="62.637430253946" lon="17.975647223014">
        <ele>64.6</ele>
        <time>2018-02-17T13:21:15Z</time>
      </trkpt>
      <trkpt lat="62.637410556481" lon="17.97565594019">
        <ele>64.6</ele>
        <time>2018-02-17T13:21:16Z</time>
      </trkpt>
      <trkpt lat="62.637398151269" lon="17.975683097546">
        <ele>64.8</ele>
        <time>2018-02-17T13:21:17Z</time>
      </trkpt>
      <trkpt lat="62.637378956718" lon="17.975707572694">
        <ele>65</ele>
        <time>2018-02-17T13:21:18Z</time>
      </trkpt>
      <trkpt lat="62.637362360556" lon="17.975727689254">
        <ele>65</ele>
        <time>2018-02-17T13:21:19Z</time>
      </trkpt>
      <trkpt lat="62.637344507109" lon="17.975747051443">
        <ele>65.2</ele>
        <time>2018-02-17T13:21:20Z</time>
      </trkpt>
      <trkpt lat="62.637328162404" lon="17.975767922374">
        <ele>65.4</ele>
        <time>2018-02-17T13:21:21Z</time>
      </trkpt>
      <trkpt lat="62.637312991165" lon="17.975788290391">
        <ele>65.4</ele>
        <time>2018-02-17T13:21:22Z</time>
      </trkpt>
      <trkpt lat="62.637301172686" lon="17.975812849358">
        <ele>65.6</ele>
        <time>2018-02-17T13:21:23Z</time>
      </trkpt>
      <trkpt lat="62.637288180741" lon="17.975833301194">
        <ele>65.6</ele>
        <time>2018-02-17T13:21:24Z</time>
      </trkpt>
      <trkpt lat="62.637272758045" lon="17.975855261772">
        <ele>65.8</ele>
        <time>2018-02-17T13:21:25Z</time>
      </trkpt>
      <trkpt lat="62.637260185195" lon="17.975882754404">
        <ele>66</ele>
        <time>2018-02-17T13:21:26Z</time>
      </trkpt>
      <trkpt lat="62.637248366716" lon="17.975909492665">
        <ele>66.2</ele>
        <time>2018-02-17T13:21:27Z</time>
      </trkpt>
      <trkpt lat="62.637238643712" lon="17.975943858455">
        <ele>66.4</ele>
        <time>2018-02-17T13:21:28Z</time>
      </trkpt>
      <trkpt lat="62.637226992871" lon="17.975979732987">
        <ele>66.6</ele>
        <time>2018-02-17T13:21:29Z</time>
      </trkpt>
      <trkpt lat="62.637215761125" lon="17.976012590035">
        <ele>66.8</ele>
        <time>2018-02-17T13:21:30Z</time>
      </trkpt>
      <trkpt lat="62.637207043949" lon="17.976045279445">
        <ele>66.8</ele>
        <time>2018-02-17T13:21:31Z</time>
      </trkpt>
      <trkpt lat="62.63719774004" lon="17.97608090252">
        <ele>67</ele>
        <time>2018-02-17T13:21:32Z</time>
      </trkpt>
      <trkpt lat="62.637187597941" lon="17.976122476744">
        <ele>67</ele>
        <time>2018-02-17T13:21:33Z</time>
      </trkpt>
      <trkpt lat="62.637177120566" lon="17.976163631873">
        <ele>67.2</ele>
        <time>2018-02-17T13:21:34Z</time>
      </trkpt>
      <trkpt lat="62.637169660675" lon="17.976210486694">
        <ele>67.4</ele>
        <time>2018-02-17T13:21:35Z</time>
      </trkpt>
      <trkpt lat="62.637162116965" lon="17.976257006239">
        <ele>67.4</ele>
        <time>2018-02-17T13:21:36Z</time>
      </trkpt>
      <trkpt lat="62.637156249635" lon="17.976300173024">
        <ele>67.6</ele>
        <time>2018-02-17T13:21:37Z</time>
      </trkpt>
      <trkpt lat="62.63714912502" lon="17.976343675085">
        <ele>67.8</ele>
        <time>2018-02-17T13:21:38Z</time>
      </trkpt>
      <trkpt lat="62.637138563826" lon="17.976387177146">
        <ele>68</ele>
        <time>2018-02-17T13:21:39Z</time>
      </trkpt>
      <trkpt lat="62.637130768659" lon="17.976427577904">
        <ele>68.2</ele>
        <time>2018-02-17T13:21:40Z</time>
      </trkpt>
      <trkpt lat="62.637125236605" lon="17.976472253431">
        <ele>68.2</ele>
        <time>2018-02-17T13:21:41Z</time>
      </trkpt>
      <trkpt lat="62.637121883845" lon="17.976514414388">
        <ele>68.4</ele>
        <time>2018-02-17T13:21:42Z</time>
      </trkpt>
      <trkpt lat="62.637119704551" lon="17.97655699444">
        <ele>68.4</ele>
        <time>2018-02-17T13:21:43Z</time>
      </trkpt>
      <trkpt lat="62.637116519429" lon="17.976602005243">
        <ele>68.4</ele>
        <time>2018-02-17T13:21:44Z</time>
      </trkpt>
      <trkpt lat="62.637115094506" lon="17.976642741277">
        <ele>68.4</ele>
        <time>2018-02-17T13:21:45Z</time>
      </trkpt>
      <trkpt lat="62.637113166669" lon="17.976686997709">
        <ele>68.4</ele>
        <time>2018-02-17T13:21:46Z</time>
      </trkpt>
      <trkpt lat="62.637112328479" lon="17.976732846702">
        <ele>68.4</ele>
        <time>2018-02-17T13:21:47Z</time>
      </trkpt>
      <trkpt lat="62.637112412298" lon="17.976781964636">
        <ele>68.6</ele>
        <time>2018-02-17T13:21:48Z</time>
      </trkpt>
      <trkpt lat="62.637111574108" lon="17.976827478353">
        <ele>68.4</ele>
        <time>2018-02-17T13:21:49Z</time>
      </trkpt>
      <trkpt lat="62.637111238832" lon="17.976866705645">
        <ele>68.4</ele>
        <time>2018-02-17T13:21:50Z</time>
      </trkpt>
      <trkpt lat="62.637112160841" lon="17.976915404484">
        <ele>68.4</ele>
        <time>2018-02-17T13:21:51Z</time>
      </trkpt>
      <trkpt lat="62.637115765058" lon="17.97696686935">
        <ele>68.4</ele>
        <time>2018-02-17T13:21:52Z</time>
      </trkpt>
      <trkpt lat="62.637116687067" lon="17.97701129342">
        <ele>68.6</ele>
        <time>2018-02-17T13:21:53Z</time>
      </trkpt>
      <trkpt lat="62.637115932696" lon="17.977071475462">
        <ele>68.6</ele>
        <time>2018-02-17T13:21:54Z</time>
      </trkpt>
      <trkpt lat="62.637114423954" lon="17.977124113794">
        <ele>68.8</ele>
        <time>2018-02-17T13:21:55Z</time>
      </trkpt>
      <trkpt lat="62.637111657927" lon="17.977177674135">
        <ele>68.8</ele>
        <time>2018-02-17T13:21:56Z</time>
      </trkpt>
      <trkpt lat="62.637107550796" lon="17.977225283327">
        <ele>68.8</ele>
        <time>2018-02-17T13:21:57Z</time>
      </trkpt>
      <trkpt lat="62.637102018742" lon="17.977278592211">
        <ele>68.8</ele>
        <time>2018-02-17T13:21:58Z</time>
      </trkpt>
      <trkpt lat="62.637094810308" lon="17.977331062905">
        <ele>68.8</ele>
        <time>2018-02-17T13:21:59Z</time>
      </trkpt>
      <trkpt lat="62.637085171123" lon="17.977381019029">
        <ele>68.8</ele>
        <time>2018-02-17T13:22:00Z</time>
      </trkpt>
      <trkpt lat="62.637075280481" lon="17.977427454755">
        <ele>68.8</ele>
        <time>2018-02-17T13:22:01Z</time>
      </trkpt>
      <trkpt lat="62.637067233857" lon="17.977468526065">
        <ele>68.8</ele>
        <time>2018-02-17T13:22:02Z</time>
      </trkpt>
      <trkpt lat="62.637057091758" lon="17.977513536868">
        <ele>68.8</ele>
        <time>2018-02-17T13:22:03Z</time>
      </trkpt>
      <trkpt lat="62.637045440917" lon="17.977558296214">
        <ele>68.8</ele>
        <time>2018-02-17T13:22:04Z</time>
      </trkpt>
      <trkpt lat="62.63703596937" lon="17.977604564302">
        <ele>68.8</ele>
        <time>2018-02-17T13:22:05Z</time>
      </trkpt>
      <trkpt lat="62.637024821443" lon="17.977658292281">
        <ele>68.8</ele>
        <time>2018-02-17T13:22:06Z</time>
      </trkpt>
      <trkpt lat="62.637015601353" lon="17.977706320568">
        <ele>69</ele>
        <time>2018-02-17T13:22:07Z</time>
      </trkpt>
      <trkpt lat="62.637007806186" lon="17.977750241724">
        <ele>69</ele>
        <time>2018-02-17T13:22:08Z</time>
      </trkpt>
      <trkpt lat="62.636999256648" lon="17.977798605287">
        <ele>69</ele>
        <time>2018-02-17T13:22:09Z</time>
      </trkpt>
      <trkpt lat="62.636992970223" lon="17.977841855891">
        <ele>69</ele>
        <time>2018-02-17T13:22:10Z</time>
      </trkpt>
      <trkpt lat="62.636987438169" lon="17.977891979653">
        <ele>69</ele>
        <time>2018-02-17T13:22:11Z</time>
      </trkpt>
      <trkpt lat="62.636985342694" lon="17.977932045135">
        <ele>69.2</ele>
        <time>2018-02-17T13:22:12Z</time>
      </trkpt>
      <trkpt lat="62.63697897245" lon="17.977989544969">
        <ele>69.2</ele>
        <time>2018-02-17T13:22:13Z</time>
      </trkpt>
      <trkpt lat="62.636971344921" lon="17.978040506921">
        <ele>69.2</ele>
        <time>2018-02-17T13:22:14Z</time>
      </trkpt>
      <trkpt lat="62.63696304684" lon="17.978091217416">
        <ele>69.2</ele>
        <time>2018-02-17T13:22:15Z</time>
      </trkpt>
      <trkpt lat="62.636957347148" lon="17.978142347006">
        <ele>69.2</ele>
        <time>2018-02-17T13:22:16Z</time>
      </trkpt>
      <trkpt lat="62.636949216705" lon="17.978176461339">
        <ele>69.2</ele>
        <time>2018-02-17T13:22:17Z</time>
      </trkpt>
      <trkpt lat="62.636939409882" lon="17.978223986712">
        <ele>69.2</ele>
        <time>2018-02-17T13:22:18Z</time>
      </trkpt>
      <trkpt lat="62.636931363258" lon="17.978267237316">
        <ele>69.4</ele>
        <time>2018-02-17T13:22:19Z</time>
      </trkpt>
      <trkpt lat="62.636919209503" lon="17.978318534544">
        <ele>69.4</ele>
        <time>2018-02-17T13:22:20Z</time>
      </trkpt>
      <trkpt lat="62.63691107906" lon="17.978359689673">
        <ele>69.4</ele>
        <time>2018-02-17T13:22:21Z</time>
      </trkpt>
      <trkpt lat="62.636907977757" lon="17.978392798178">
        <ele>69.4</ele>
        <time>2018-02-17T13:22:22Z</time>
      </trkpt>
      <trkpt lat="62.636885262808" lon="17.978441497017">
        <ele>69.4</ele>
        <time>2018-02-17T13:22:23Z</time>
      </trkpt>
      <trkpt lat="62.636868666646" lon="17.978480556671">
        <ele>69.4</ele>
        <time>2018-02-17T13:22:24Z</time>
      </trkpt>
      <trkpt lat="62.63685072938" lon="17.978520789791">
        <ele>69.4</ele>
        <time>2018-02-17T13:22:25Z</time>
      </trkpt>
      <trkpt lat="62.636835390503" lon="17.978553060106">
        <ele>69.4</ele>
        <time>2018-02-17T13:22:26Z</time>
      </trkpt>
      <trkpt lat="62.636820219264" lon="17.978587425896">
        <ele>69.6</ele>
        <time>2018-02-17T13:22:27Z</time>
      </trkpt>
      <trkpt lat="62.636800857075" lon="17.978627156102">
        <ele>69.6</ele>
        <time>2018-02-17T13:22:28Z</time>
      </trkpt>
      <trkpt lat="62.636782752171" lon="17.978659929331">
        <ele>69.8</ele>
        <time>2018-02-17T13:22:29Z</time>
      </trkpt>
      <trkpt lat="62.636762467973" lon="17.9786809679">
        <ele>69.8</ele>
        <time>2018-02-17T13:22:30Z</time>
      </trkpt>
      <trkpt lat="62.636740675033" lon="17.978707203247">
        <ele>70</ele>
        <time>2018-02-17T13:22:31Z</time>
      </trkpt>
      <trkpt lat="62.636718965912" lon="17.978726984531">
        <ele>70</ele>
        <time>2018-02-17T13:22:32Z</time>
      </trkpt>
      <trkpt lat="62.636692479108" lon="17.978736707535">
        <ele>70.2</ele>
        <time>2018-02-17T13:22:33Z</time>
      </trkpt>
      <trkpt lat="62.636672278729" lon="17.978749364204">
        <ele>70.2</ele>
        <time>2018-02-17T13:22:34Z</time>
      </trkpt>
      <trkpt lat="62.636647719762" lon="17.978760260674">
        <ele>70.4</ele>
        <time>2018-02-17T13:22:35Z</time>
      </trkpt>
      <trkpt lat="62.636625591546" lon="17.978763445796">
        <ele>70.6</ele>
        <time>2018-02-17T13:22:36Z</time>
      </trkpt>
      <trkpt lat="62.636607821918" lon="17.978766714737">
        <ele>70.6</ele>
        <time>2018-02-17T13:22:37Z</time>
      </trkpt>
      <trkpt lat="62.636586950987" lon="17.978767888203">
        <ele>70.8</ele>
        <time>2018-02-17T13:22:38Z</time>
      </trkpt>
      <trkpt lat="62.636565577142" lon="17.978772833524">
        <ele>70.8</ele>
        <time>2018-02-17T13:22:39Z</time>
      </trkpt>
      <trkpt lat="62.636543784202" lon="17.978773839352">
        <ele>71</ele>
        <time>2018-02-17T13:22:40Z</time>
      </trkpt>
      <trkpt lat="62.636517632674" lon="17.978774258447">
        <ele>71</ele>
        <time>2018-02-17T13:22:41Z</time>
      </trkpt>
      <trkpt lat="62.636498354304" lon="17.978779203768">
        <ele>71.2</ele>
        <time>2018-02-17T13:22:42Z</time>
      </trkpt>
      <trkpt lat="62.636477818649" lon="17.978783897632">
        <ele>71.4</ele>
        <time>2018-02-17T13:22:43Z</time>
      </trkpt>
      <trkpt lat="62.63645845646" lon="17.978795129378">
        <ele>71.4</ele>
        <time>2018-02-17T13:22:44Z</time>
      </trkpt>
      <trkpt lat="62.636441189746" lon="17.97880502002">
        <ele>71.4</ele>
        <time>2018-02-17T13:22:45Z</time>
      </trkpt>
      <trkpt lat="62.636422749566" lon="17.978808791875">
        <ele>71.6</ele>
        <time>2018-02-17T13:22:46Z</time>
      </trkpt>
      <trkpt lat="62.636409673802" lon="17.978822789648">
        <ele>71.8</ele>
        <time>2018-02-17T13:22:47Z</time>
      </trkpt>
      <trkpt lat="62.636397352409" lon="17.978838128525">
        <ele>72</ele>
        <time>2018-02-17T13:22:48Z</time>
      </trkpt>
      <trkpt lat="62.636383186998" lon="17.97884692952">
        <ele>72.2</ele>
        <time>2018-02-17T13:22:49Z</time>
      </trkpt>
      <trkpt lat="62.636369524501" lon="17.978859167094">
        <ele>72.4</ele>
        <time>2018-02-17T13:22:50Z</time>
      </trkpt>
      <trkpt lat="62.636356448737" lon="17.978869895926">
        <ele>72.6</ele>
        <time>2018-02-17T13:22:51Z</time>
      </trkpt>
      <trkpt lat="62.636344043525" lon="17.978879367473">
        <ele>72.8</ele>
        <time>2018-02-17T13:22:52Z</time>
      </trkpt>
      <trkpt lat="62.636326944449" lon="17.978890850676">
        <ele>73</ele>
        <time>2018-02-17T13:22:53Z</time>
      </trkpt>
      <trkpt lat="62.636308001355" lon="17.978913900901">
        <ele>73</ele>
        <time>2018-02-17T13:22:54Z</time>
      </trkpt>
      <trkpt lat="62.63628914208" lon="17.978933598366">
        <ele>73.2</ele>
        <time>2018-02-17T13:22:55Z</time>
      </trkpt>
      <trkpt lat="62.636273384108" lon="17.978951284175">
        <ele>73.4</ele>
        <time>2018-02-17T13:22:56Z</time>
      </trkpt>
      <trkpt lat="62.63626064362" lon="17.978969640536">
        <ele>73.6</ele>
        <time>2018-02-17T13:22:57Z</time>
      </trkpt>
      <trkpt lat="62.636242790173" lon="17.978979614997">
        <ele>73.8</ele>
        <time>2018-02-17T13:22:58Z</time>
      </trkpt>
      <trkpt lat="62.636233234807" lon="17.978995708245">
        <ele>74</ele>
        <time>2018-02-17T13:22:59Z</time>
      </trkpt>
      <trkpt lat="62.636220997233" lon="17.979011382398">
        <ele>74.2</ele>
        <time>2018-02-17T13:23:00Z</time>
      </trkpt>
      <trkpt lat="62.636209262573" lon="17.979025212533">
        <ele>74.4</ele>
        <time>2018-02-17T13:23:01Z</time>
      </trkpt>
      <trkpt lat="62.636199204293" lon="17.979038539754">
        <ele>74.6</ele>
        <time>2018-02-17T13:23:02Z</time>
      </trkpt>
      <trkpt lat="62.636191241488" lon="17.979054046269">
        <ele>75</ele>
        <time>2018-02-17T13:23:03Z</time>
      </trkpt>
      <trkpt lat="62.636182356674" lon="17.979071480621">
        <ele>75.2</ele>
        <time>2018-02-17T13:23:04Z</time>
      </trkpt>
      <trkpt lat="62.636168358901" lon="17.979089417887">
        <ele>75.4</ele>
        <time>2018-02-17T13:23:05Z</time>
      </trkpt>
      <trkpt lat="62.636158468259" lon="17.979106852239">
        <ele>75.8</ele>
        <time>2018-02-17T13:23:06Z</time>
      </trkpt>
      <trkpt lat="62.636148409979" lon="17.979127471713">
        <ele>76</ele>
        <time>2018-02-17T13:23:07Z</time>
      </trkpt>
      <trkpt lat="62.636132316731" lon="17.979156724544">
        <ele>76.2</ele>
        <time>2018-02-17T13:23:08Z</time>
      </trkpt>
      <trkpt lat="62.636117145492" lon="17.979191257972">
        <ele>76.6</ele>
        <time>2018-02-17T13:23:09Z</time>
      </trkpt>
      <trkpt lat="62.636104321185" lon="17.979216236034">
        <ele>77</ele>
        <time>2018-02-17T13:23:10Z</time>
      </trkpt>
      <trkpt lat="62.636097615665" lon="17.979253703127">
        <ele>77.6</ele>
        <time>2018-02-17T13:23:11Z</time>
      </trkpt>
      <trkpt lat="62.636087054471" lon="17.979292762781">
        <ele>77.8</ele>
        <time>2018-02-17T13:23:12Z</time>
      </trkpt>
      <trkpt lat="62.636079846037" lon="17.97933894705">
        <ele>78</ele>
        <time>2018-02-17T13:23:13Z</time>
      </trkpt>
      <trkpt lat="62.636072553784" lon="17.979387310613">
        <ele>78.2</ele>
        <time>2018-02-17T13:23:14Z</time>
      </trkpt>
      <trkpt lat="62.636062998418" lon="17.979435925633">
        <ele>78.2</ele>
        <time>2018-02-17T13:23:15Z</time>
      </trkpt>
      <trkpt lat="62.636053945966" lon="17.979486636128">
        <ele>78</ele>
        <time>2018-02-17T13:23:16Z</time>
      </trkpt>
      <trkpt lat="62.636046234618" lon="17.979534329139">
        <ele>78</ele>
        <time>2018-02-17T13:23:17Z</time>
      </trkpt>
      <trkpt lat="62.63603936146" lon="17.979632900283">
        <ele>78</ele>
        <time>2018-02-17T13:23:18Z</time>
      </trkpt>
      <trkpt lat="62.636033577949" lon="17.979729124495">
        <ele>78</ele>
        <time>2018-02-17T13:23:19Z</time>
      </trkpt>
      <trkpt lat="62.636028632628" lon="17.979847644561">
        <ele>78</ele>
        <time>2018-02-17T13:23:20Z</time>
      </trkpt>
      <trkpt lat="62.636024357859" lon="17.97997848602">
        <ele>77.4</ele>
        <time>2018-02-17T13:23:21Z</time>
      </trkpt>
      <trkpt lat="62.636021088918" lon="17.980109998031">
        <ele>76.8</ele>
        <time>2018-02-17T13:23:22Z</time>
      </trkpt>
      <trkpt lat="62.636031733931" lon="17.980229607744">
        <ele>75.4</ele>
        <time>2018-02-17T13:23:23Z</time>
      </trkpt>
      <trkpt lat="62.636044558238" lon="17.980364807791">
        <ele>74.2</ele>
        <time>2018-02-17T13:23:24Z</time>
      </trkpt>
      <trkpt lat="62.636058891287" lon="17.980487770264">
        <ele>73</ele>
        <time>2018-02-17T13:23:25Z</time>
      </trkpt>
      <trkpt lat="62.636073056698" lon="17.980602015561">
        <ele>72.2</ele>
        <time>2018-02-17T13:23:26Z</time>
      </trkpt>
      <trkpt lat="62.636087725023" lon="17.980702933637">
        <ele>71.6</ele>
        <time>2018-02-17T13:23:27Z</time>
      </trkpt>
      <trkpt lat="62.636104237366" lon="17.980802091514">
        <ele>71.4</ele>
        <time>2018-02-17T13:23:28Z</time>
      </trkpt>
      <trkpt lat="62.636121084985" lon="17.980896220251">
        <ele>71.2</ele>
        <time>2018-02-17T13:23:29Z</time>
      </trkpt>
      <trkpt lat="62.636133490197" lon="17.980986074219">
        <ele>71</ele>
        <time>2018-02-17T13:23:30Z</time>
      </trkpt>
      <trkpt lat="62.636141536821" lon="17.981083890992">
        <ele>70.8</ele>
        <time>2018-02-17T13:23:31Z</time>
      </trkpt>
      <trkpt lat="62.63615084073" lon="17.981193107149">
        <ele>70.6</ele>
        <time>2018-02-17T13:23:32Z</time>
      </trkpt>
      <trkpt lat="62.636149918721" lon="17.981287990257">
        <ele>70.6</ele>
        <time>2018-02-17T13:23:33Z</time>
      </trkpt>
      <trkpt lat="62.636165509055" lon="17.981381532261">
        <ele>70.6</ele>
        <time>2018-02-17T13:23:34Z</time>
      </trkpt>
      <trkpt lat="62.636182859588" lon="17.981463926338">
        <ele>70.8</ele>
        <time>2018-02-17T13:23:35Z</time>
      </trkpt>
      <trkpt lat="62.636195767714" lon="17.9815559596">
        <ele>71</ele>
        <time>2018-02-17T13:23:36Z</time>
      </trkpt>
      <trkpt lat="62.636213453523" lon="17.981642460808">
        <ele>71.2</ele>
        <time>2018-02-17T13:23:37Z</time>
      </trkpt>
      <trkpt lat="62.636230217323" lon="17.98171940665">
        <ele>71.2</ele>
        <time>2018-02-17T13:23:38Z</time>
      </trkpt>
      <trkpt lat="62.636238347766" lon="17.98179987289">
        <ele>71.2</ele>
        <time>2018-02-17T13:23:39Z</time>
      </trkpt>
      <trkpt lat="62.636248489865" lon="17.981880255311">
        <ele>71</ele>
        <time>2018-02-17T13:23:40Z</time>
      </trkpt>
      <trkpt lat="62.636244466553" lon="17.981956279144">
        <ele>71</ele>
        <time>2018-02-17T13:23:41Z</time>
      </trkpt>
      <trkpt lat="62.636249998607" lon="17.982037667393">
        <ele>71</ele>
        <time>2018-02-17T13:23:42Z</time>
      </trkpt>
      <trkpt lat="62.636269528434" lon="17.982111260475">
        <ele>71</ele>
        <time>2018-02-17T13:23:43Z</time>
      </trkpt>
      <trkpt lat="62.636278664705" lon="17.982192481086">
        <ele>70.8</ele>
        <time>2018-02-17T13:23:44Z</time>
      </trkpt>
      <trkpt lat="62.636284448216" lon="17.982270348937">
        <ele>71</ele>
        <time>2018-02-17T13:23:45Z</time>
      </trkpt>
      <trkpt lat="62.636288722985" lon="17.982335727757">
        <ele>71</ele>
        <time>2018-02-17T13:23:46Z</time>
      </trkpt>
      <trkpt lat="62.636284699673" lon="17.982418038015">
        <ele>71</ele>
        <time>2018-02-17T13:23:47Z</time>
      </trkpt>
      <trkpt lat="62.636285202587" lon="17.982500432092">
        <ele>71</ele>
        <time>2018-02-17T13:23:48Z</time>
      </trkpt>
      <trkpt lat="62.636280676361" lon="17.982573270803">
        <ele>71</ele>
        <time>2018-02-17T13:23:49Z</time>
      </trkpt>
      <trkpt lat="62.636275311945" lon="17.982645858057">
        <ele>71</ele>
        <time>2018-02-17T13:23:50Z</time>
      </trkpt>
      <trkpt lat="62.636270534262" lon="17.982719870234">
        <ele>71</ele>
        <time>2018-02-17T13:23:51Z</time>
      </trkpt>
      <trkpt lat="62.636267265321" lon="17.982790194375">
        <ele>71</ele>
        <time>2018-02-17T13:23:52Z</time>
      </trkpt>
      <trkpt lat="62.636266678588" lon="17.982849035313">
        <ele>71</ele>
        <time>2018-02-17T13:23:53Z</time>
      </trkpt>
      <trkpt lat="62.636270618081" lon="17.982914497952">
        <ele>71</ele>
        <time>2018-02-17T13:23:54Z</time>
      </trkpt>
      <trkpt lat="62.636277994153" lon="17.982971243415">
        <ele>71</ele>
        <time>2018-02-17T13:23:55Z</time>
      </trkpt>
      <trkpt lat="62.636283945302" lon="17.983036622235">
        <ele>71</ele>
        <time>2018-02-17T13:23:56Z</time>
      </trkpt>
      <trkpt lat="62.636290231727" lon="17.983105856729">
        <ele>71</ele>
        <time>2018-02-17T13:23:57Z</time>
      </trkpt>
      <trkpt lat="62.636290064089" lon="17.98315941707">
        <ele>71.2</ele>
        <time>2018-02-17T13:23:58Z</time>
      </trkpt>
      <trkpt lat="62.636283107112" lon="17.983233261609">
        <ele>71.4</ele>
        <time>2018-02-17T13:23:59Z</time>
      </trkpt>
      <trkpt lat="62.636282771836" lon="17.983300316809">
        <ele>71.4</ele>
        <time>2018-02-17T13:24:00Z</time>
      </trkpt>
      <trkpt lat="62.636285705501" lon="17.983352284589">
        <ele>71.4</ele>
        <time>2018-02-17T13:24:01Z</time>
      </trkpt>
      <trkpt lat="62.636286543691" lon="17.9834083595">
        <ele>71.4</ele>
        <time>2018-02-17T13:24:02Z</time>
      </trkpt>
      <trkpt lat="62.636289561175" lon="17.983458399443">
        <ele>71.6</ele>
        <time>2018-02-17T13:24:03Z</time>
      </trkpt>
      <trkpt lat="62.636287717157" lon="17.983503661703">
        <ele>71.4</ele>
        <time>2018-02-17T13:24:04Z</time>
      </trkpt>
      <trkpt lat="62.636283693845" lon="17.983544733013">
        <ele>71.4</ele>
        <time>2018-02-17T13:24:05Z</time>
      </trkpt>
      <trkpt lat="62.636276653049" lon="17.983591336377">
        <ele>71.4</ele>
        <time>2018-02-17T13:24:06Z</time>
      </trkpt>
      <trkpt lat="62.636270366624" lon="17.983637520646">
        <ele>71.6</ele>
        <time>2018-02-17T13:24:07Z</time>
      </trkpt>
      <trkpt lat="62.636272797375" lon="17.983669288047">
        <ele>71.6</ele>
        <time>2018-02-17T13:24:08Z</time>
      </trkpt>
      <trkpt lat="62.636259386335" lon="17.983727458433">
        <ele>71.6</ele>
        <time>2018-02-17T13:24:09Z</time>
      </trkpt>
      <trkpt lat="62.636253267548" lon="17.983777330738">
        <ele>71.8</ele>
        <time>2018-02-17T13:24:10Z</time>
      </trkpt>
      <trkpt lat="62.636248992779" lon="17.983827789776">
        <ele>71.8</ele>
        <time>2018-02-17T13:24:11Z</time>
      </trkpt>
      <trkpt lat="62.636245640019" lon="17.983871291837">
        <ele>71.8</ele>
        <time>2018-02-17T13:24:12Z</time>
      </trkpt>
      <trkpt lat="62.636239437413" lon="17.983925019816">
        <ele>72</ele>
        <time>2018-02-17T13:24:13Z</time>
      </trkpt>
      <trkpt lat="62.636236503748" lon="17.983978496338">
        <ele>72</ele>
        <time>2018-02-17T13:24:14Z</time>
      </trkpt>
      <trkpt lat="62.636232899531" lon="17.984030212661">
        <ele>72.2</ele>
        <time>2018-02-17T13:24:15Z</time>
      </trkpt>
      <trkpt lat="62.636230804056" lon="17.984072708894">
        <ele>72.4</ele>
        <time>2018-02-17T13:24:16Z</time>
      </trkpt>
      <trkpt lat="62.636231139332" lon="17.984106487951">
        <ele>72.4</ele>
        <time>2018-02-17T13:24:17Z</time>
      </trkpt>
      <trkpt lat="62.636227870391" lon="17.984171531495">
        <ele>72.6</ele>
        <time>2018-02-17T13:24:18Z</time>
      </trkpt>
      <trkpt lat="62.636225188183" lon="17.984221068524">
        <ele>72.6</ele>
        <time>2018-02-17T13:24:19Z</time>
      </trkpt>
      <trkpt lat="62.636219404672" lon="17.984267671888">
        <ele>72.8</ele>
        <time>2018-02-17T13:24:20Z</time>
      </trkpt>
      <trkpt lat="62.636217476835" lon="17.984313017967">
        <ele>72.8</ele>
        <time>2018-02-17T13:24:21Z</time>
      </trkpt>
      <trkpt lat="62.636222841251" lon="17.984355681838">
        <ele>73</ele>
        <time>2018-02-17T13:24:22Z</time>
      </trkpt>
      <trkpt lat="62.636214626989" lon="17.984407062885">
        <ele>73</ele>
        <time>2018-02-17T13:24:23Z</time>
      </trkpt>
      <trkpt lat="62.636208843478" lon="17.984468753669">
        <ele>73</ele>
        <time>2018-02-17T13:24:24Z</time>
      </trkpt>
      <trkpt lat="62.636204149614" lon="17.984520721449">
        <ele>73.2</ele>
        <time>2018-02-17T13:24:25Z</time>
      </trkpt>
      <trkpt lat="62.63620197032" lon="17.984564642605">
        <ele>73.2</ele>
        <time>2018-02-17T13:24:26Z</time>
      </trkpt>
      <trkpt lat="62.636205406899" lon="17.984599343671">
        <ele>73.2</ele>
        <time>2018-02-17T13:24:27Z</time>
      </trkpt>
      <trkpt lat="62.636203059967" lon="17.984666650328">
        <ele>73.4</ele>
        <time>2018-02-17T13:24:28Z</time>
      </trkpt>
      <trkpt lat="62.636193756058" lon="17.984722809058">
        <ele>73.4</ele>
        <time>2018-02-17T13:24:29Z</time>
      </trkpt>
      <trkpt lat="62.63619107385" lon="17.984768238956">
        <ele>73.4</ele>
        <time>2018-02-17T13:24:30Z</time>
      </trkpt>
      <trkpt lat="62.636189984203" lon="17.984808723533">
        <ele>73.6</ele>
        <time>2018-02-17T13:24:31Z</time>
      </trkpt>
      <trkpt lat="62.636189648927" lon="17.984844011332">
        <ele>73.6</ele>
        <time>2018-02-17T13:24:32Z</time>
      </trkpt>
      <trkpt lat="62.636181267027" lon="17.984906707944">
        <ele>73.8</ele>
        <time>2018-02-17T13:24:33Z</time>
      </trkpt>
      <trkpt lat="62.636176740801" lon="17.984945348503">
        <ele>74</ele>
        <time>2018-02-17T13:24:34Z</time>
      </trkpt>
      <trkpt lat="62.636170622014" lon="17.984995388446">
        <ele>74</ele>
        <time>2018-02-17T13:24:35Z</time>
      </trkpt>
      <trkpt lat="62.636172298394" lon="17.985044757837">
        <ele>74</ele>
        <time>2018-02-17T13:24:36Z</time>
      </trkpt>
      <trkpt lat="62.636171041109" lon="17.985091864115">
        <ele>74.2</ele>
        <time>2018-02-17T13:24:37Z</time>
      </trkpt>
      <trkpt lat="62.636169197091" lon="17.985141987877">
        <ele>74.2</ele>
        <time>2018-02-17T13:24:38Z</time>
      </trkpt>
      <trkpt lat="62.636171879299" lon="17.985186328128">
        <ele>74.2</ele>
        <time>2018-02-17T13:24:39Z</time>
      </trkpt>
      <trkpt lat="62.636172382213" lon="17.985230752198">
        <ele>74.4</ele>
        <time>2018-02-17T13:24:40Z</time>
      </trkpt>
      <trkpt lat="62.636172801308" lon="17.985282217064">
        <ele>74.4</ele>
        <time>2018-02-17T13:24:41Z</time>
      </trkpt>
      <trkpt lat="62.636172466032" lon="17.985323875107">
        <ele>74.6</ele>
        <time>2018-02-17T13:24:42Z</time>
      </trkpt>
      <trkpt lat="62.636166933978" lon="17.985373663593">
        <ele>74.6</ele>
        <time>2018-02-17T13:24:43Z</time>
      </trkpt>
      <trkpt lat="62.636161988657" lon="17.985422613889">
        <ele>74.8</ele>
        <time>2018-02-17T13:24:44Z</time>
      </trkpt>
      <trkpt lat="62.636150924549" lon="17.985477347696">
        <ele>74.8</ele>
        <time>2018-02-17T13:24:45Z</time>
      </trkpt>
      <trkpt lat="62.636139022251" lon="17.985532165322">
        <ele>74.8</ele>
        <time>2018-02-17T13:24:46Z</time>
      </trkpt>
      <trkpt lat="62.636132652007" lon="17.985587318224">
        <ele>74.8</ele>
        <time>2018-02-17T13:24:47Z</time>
      </trkpt>
      <trkpt lat="62.636124437745" lon="17.985640208013">
        <ele>75</ele>
        <time>2018-02-17T13:24:48Z</time>
      </trkpt>
      <trkpt lat="62.636117564587" lon="17.985692259612">
        <ele>75</ele>
        <time>2018-02-17T13:24:49Z</time>
      </trkpt>
      <trkpt lat="62.636105159375" lon="17.985738192424">
        <ele>75</ele>
        <time>2018-02-17T13:24:50Z</time>
      </trkpt>
      <trkpt lat="62.636089485222" lon="17.985775659517">
        <ele>75.2</ele>
        <time>2018-02-17T13:24:51Z</time>
      </trkpt>
      <trkpt lat="62.636076158001" lon="17.985804660891">
        <ele>75.2</ele>
        <time>2018-02-17T13:24:52Z</time>
      </trkpt>
      <trkpt lat="62.636058556011" lon="17.985845648382">
        <ele>75.4</ele>
        <time>2018-02-17T13:24:53Z</time>
      </trkpt>
      <trkpt lat="62.636038690908" lon="17.985883618389">
        <ele>75.8</ele>
        <time>2018-02-17T13:24:54Z</time>
      </trkpt>
      <trkpt lat="62.636028800266" lon="17.985923432414">
        <ele>75.8</ele>
        <time>2018-02-17T13:24:55Z</time>
      </trkpt>
      <trkpt lat="62.636010695362" lon="17.985952769064">
        <ele>76</ele>
        <time>2018-02-17T13:24:56Z</time>
      </trkpt>
      <trkpt lat="62.635996446132" lon="17.985977914764">
        <ele>76.2</ele>
        <time>2018-02-17T13:24:57Z</time>
      </trkpt>
      <trkpt lat="62.63597984997" lon="17.985998115143">
        <ele>76</ele>
        <time>2018-02-17T13:24:58Z</time>
      </trkpt>
      <trkpt lat="62.635957889392" lon="17.986012196735">
        <ele>76.2</ele>
        <time>2018-02-17T13:24:59Z</time>
      </trkpt>
      <trkpt lat="62.635940119764" lon="17.986022338834">
        <ele>76.2</ele>
        <time>2018-02-17T13:25:00Z</time>
      </trkpt>
      <trkpt lat="62.635920673756" lon="17.986047065439">
        <ele>76.4</ele>
        <time>2018-02-17T13:25:01Z</time>
      </trkpt>
      <trkpt lat="62.635900724834" lon="17.986072797872">
        <ele>76.4</ele>
        <time>2018-02-17T13:25:02Z</time>
      </trkpt>
      <trkpt lat="62.635878931894" lon="17.986101631608">
        <ele>76.6</ele>
        <time>2018-02-17T13:25:03Z</time>
      </trkpt>
      <trkpt lat="62.635861916637" lon="17.986128788964">
        <ele>76.6</ele>
        <time>2018-02-17T13:25:04Z</time>
      </trkpt>
      <trkpt lat="62.635841800077" lon="17.986155862501">
        <ele>76.6</ele>
        <time>2018-02-17T13:25:05Z</time>
      </trkpt>
      <trkpt lat="62.635824617182" lon="17.986186288798">
        <ele>76.8</ele>
        <time>2018-02-17T13:25:06Z</time>
      </trkpt>
      <trkpt lat="62.635807099011" lon="17.986213529973">
        <ele>76.8</ele>
        <time>2018-02-17T13:25:07Z</time>
      </trkpt>
      <trkpt lat="62.635789077926" lon="17.986235993465">
        <ele>76.8</ele>
        <time>2018-02-17T13:25:08Z</time>
      </trkpt>
      <trkpt lat="62.635776588895" lon="17.986262480269">
        <ele>77</ele>
        <time>2018-02-17T13:25:09Z</time>
      </trkpt>
      <trkpt lat="62.635763848407" lon="17.986288715616">
        <ele>77</ele>
        <time>2018-02-17T13:25:10Z</time>
      </trkpt>
      <trkpt lat="62.635746749331" lon="17.986315621515">
        <ele>77.2</ele>
        <time>2018-02-17T13:25:11Z</time>
      </trkpt>
      <trkpt lat="62.63573761306" lon="17.986349819667">
        <ele>77.2</ele>
        <time>2018-02-17T13:25:12Z</time>
      </trkpt>
      <trkpt lat="62.635726381314" lon="17.986388208769">
        <ele>77.4</ele>
        <time>2018-02-17T13:25:13Z</time>
      </trkpt>
      <trkpt lat="62.63571665831" lon="17.986428022794">
        <ele>77.4</ele>
        <time>2018-02-17T13:25:14Z</time>
      </trkpt>
      <trkpt lat="62.635702576718" lon="17.986460460747">
        <ele>77.6</ele>
        <time>2018-02-17T13:25:15Z</time>
      </trkpt>
      <trkpt lat="62.635691177334" lon="17.986490887044">
        <ele>77.8</ele>
        <time>2018-02-17T13:25:16Z</time>
      </trkpt>
      <trkpt lat="62.635676006095" lon="17.986521900074">
        <ele>78</ele>
        <time>2018-02-17T13:25:17Z</time>
      </trkpt>
      <trkpt lat="62.63566385234" lon="17.986564396307">
        <ele>78</ele>
        <time>2018-02-17T13:25:18Z</time>
      </trkpt>
      <trkpt lat="62.635651782404" lon="17.986605383798">
        <ele>78</ele>
        <time>2018-02-17T13:25:19Z</time>
      </trkpt>
      <trkpt lat="62.635644071056" lon="17.986641425968">
        <ele>78</ele>
        <time>2018-02-17T13:25:20Z</time>
      </trkpt>
      <trkpt lat="62.635631665844" lon="17.986673528645">
        <ele>78.2</ele>
        <time>2018-02-17T13:25:21Z</time>
      </trkpt>
      <trkpt lat="62.635618673899" lon="17.986702781476">
        <ele>78.2</ele>
        <time>2018-02-17T13:25:22Z</time>
      </trkpt>
      <trkpt lat="62.635601407185" lon="17.986734381239">
        <ele>78.2</ele>
        <time>2018-02-17T13:25:23Z</time>
      </trkpt>
      <trkpt lat="62.635585313937" lon="17.986764891355">
        <ele>78.4</ele>
        <time>2018-02-17T13:25:24Z</time>
      </trkpt>
      <trkpt lat="62.635574417467" lon="17.986798083679">
        <ele>78.6</ele>
        <time>2018-02-17T13:25:25Z</time>
      </trkpt>
      <trkpt lat="62.635557150753" lon="17.986834209668">
        <ele>78.8</ele>
        <time>2018-02-17T13:25:26Z</time>
      </trkpt>
      <trkpt lat="62.635545248455" lon="17.986871173847">
        <ele>79</ele>
        <time>2018-02-17T13:25:27Z</time>
      </trkpt>
      <trkpt lat="62.635530831587" lon="17.986913753899">
        <ele>79</ele>
        <time>2018-02-17T13:25:28Z</time>
      </trkpt>
      <trkpt lat="62.635515911805" lon="17.986956920684">
        <ele>79</ele>
        <time>2018-02-17T13:25:29Z</time>
      </trkpt>
      <trkpt lat="62.635502500765" lon="17.986992543759">
        <ele>79</ele>
        <time>2018-02-17T13:25:30Z</time>
      </trkpt>
      <trkpt lat="62.635489173544" lon="17.987024981712">
        <ele>79</ele>
        <time>2018-02-17T13:25:31Z</time>
      </trkpt>
      <trkpt lat="62.63547777416" lon="17.98705280962">
        <ele>79</ele>
        <time>2018-02-17T13:25:32Z</time>
      </trkpt>
      <trkpt lat="62.635464949853" lon="17.987086504858">
        <ele>79.2</ele>
        <time>2018-02-17T13:25:33Z</time>
      </trkpt>
      <trkpt lat="62.635454472478" lon="17.987116092965">
        <ele>79.2</ele>
        <time>2018-02-17T13:25:34Z</time>
      </trkpt>
      <trkpt lat="62.635439636515" lon="17.987148447099">
        <ele>79.4</ele>
        <time>2018-02-17T13:25:35Z</time>
      </trkpt>
      <trkpt lat="62.635425387285" lon="17.987180465957">
        <ele>79.4</ele>
        <time>2018-02-17T13:25:36Z</time>
      </trkpt>
      <trkpt lat="62.635410970417" lon="17.987212233358">
        <ele>79.4</ele>
        <time>2018-02-17T13:25:37Z</time>
      </trkpt>
      <trkpt lat="62.635393703703" lon="17.987240061266">
        <ele>79.6</ele>
        <time>2018-02-17T13:25:38Z</time>
      </trkpt>
      <trkpt lat="62.635381466129" lon="17.987274678513">
        <ele>79.8</ele>
        <time>2018-02-17T13:25:39Z</time>
      </trkpt>
      <trkpt lat="62.635366713985" lon="17.987307200285">
        <ele>79.8</ele>
        <time>2018-02-17T13:25:40Z</time>
      </trkpt>
      <trkpt lat="62.635353051488" lon="17.987347936319">
        <ele>80</ele>
        <time>2018-02-17T13:25:41Z</time>
      </trkpt>
      <trkpt lat="62.635337964068" lon="17.987377692064">
        <ele>80</ele>
        <time>2018-02-17T13:25:42Z</time>
      </trkpt>
      <trkpt lat="62.635320613535" lon="17.987411219664">
        <ele>80</ele>
        <time>2018-02-17T13:25:43Z</time>
      </trkpt>
      <trkpt lat="62.635308878875" lon="17.987441645961">
        <ele>80</ele>
        <time>2018-02-17T13:25:44Z</time>
      </trkpt>
      <trkpt lat="62.635293037084" lon="17.987471234068">
        <ele>80</ele>
        <time>2018-02-17T13:25:45Z</time>
      </trkpt>
      <trkpt lat="62.635283816994" lon="17.987497217958">
        <ele>80.2</ele>
        <time>2018-02-17T13:25:46Z</time>
      </trkpt>
      <trkpt lat="62.635273004343" lon="17.987524962047">
        <ele>80.2</ele>
        <time>2018-02-17T13:25:47Z</time>
      </trkpt>
      <trkpt lat="62.635262694606" lon="17.987562093864">
        <ele>80.4</ele>
        <time>2018-02-17T13:25:48Z</time>
      </trkpt>
      <trkpt lat="62.635255821448" lon="17.987600482966">
        <ele>80.4</ele>
        <time>2018-02-17T13:25:49Z</time>
      </trkpt>
      <trkpt lat="62.635247774824" lon="17.987637614783">
        <ele>80.8</ele>
        <time>2018-02-17T13:25:50Z</time>
      </trkpt>
      <trkpt lat="62.635241739856" lon="17.987677680265">
        <ele>80.8</ele>
        <time>2018-02-17T13:25:51Z</time>
      </trkpt>
      <trkpt lat="62.635240314933" lon="17.987713135702">
        <ele>81</ele>
        <time>2018-02-17T13:25:52Z</time>
      </trkpt>
      <trkpt lat="62.635234279965" lon="17.987758649419">
        <ele>81</ele>
        <time>2018-02-17T13:25:53Z</time>
      </trkpt>
      <trkpt lat="62.635222545305" lon="17.98780634243">
        <ele>81.2</ele>
        <time>2018-02-17T13:25:54Z</time>
      </trkpt>
      <trkpt lat="62.635218605812" lon="17.987853364889">
        <ele>81.2</ele>
        <time>2018-02-17T13:25:55Z</time>
      </trkpt>
      <trkpt lat="62.635208966627" lon="17.98789854333">
        <ele>81.2</ele>
        <time>2018-02-17T13:25:56Z</time>
      </trkpt>
      <trkpt lat="62.635199914175" lon="17.987940536649">
        <ele>81.4</ele>
        <time>2018-02-17T13:25:57Z</time>
      </trkpt>
      <trkpt lat="62.635191280818" lon="17.987985882728">
        <ele>81.4</ele>
        <time>2018-02-17T13:25:58Z</time>
      </trkpt>
      <trkpt lat="62.63518273128" lon="17.988035252119">
        <ele>81.6</ele>
        <time>2018-02-17T13:25:59Z</time>
      </trkpt>
      <trkpt lat="62.635175019932" lon="17.988073305945">
        <ele>81.6</ele>
        <time>2018-02-17T13:26:00Z</time>
      </trkpt>
      <trkpt lat="62.635163872005" lon="17.988111192133">
        <ele>81.6</ele>
        <time>2018-02-17T13:26:01Z</time>
      </trkpt>
      <trkpt lat="62.635151550612" lon="17.988150922339">
        <ele>81.8</ele>
        <time>2018-02-17T13:26:02Z</time>
      </trkpt>
      <trkpt lat="62.635141911427" lon="17.988187467423">
        <ele>81.8</ele>
        <time>2018-02-17T13:26:03Z</time>
      </trkpt>
      <trkpt lat="62.635132691337" lon="17.988220324471">
        <ele>82</ele>
        <time>2018-02-17T13:26:04Z</time>
      </trkpt>
      <trkpt lat="62.6351223816" lon="17.988253684433">
        <ele>82</ele>
        <time>2018-02-17T13:26:05Z</time>
      </trkpt>
      <trkpt lat="62.635109976388" lon="17.988277321391">
        <ele>82.2</ele>
        <time>2018-02-17T13:26:06Z</time>
      </trkpt>
      <trkpt lat="62.635098157909" lon="17.988294001372">
        <ele>82.2</ele>
        <time>2018-02-17T13:26:07Z</time>
      </trkpt>
      <trkpt lat="62.635085082145" lon="17.988318727977">
        <ele>82.2</ele>
        <time>2018-02-17T13:26:08Z</time>
      </trkpt>
      <trkpt lat="62.635067396336" lon="17.988350076283">
        <ele>82.4</ele>
        <time>2018-02-17T13:26:09Z</time>
      </trkpt>
      <trkpt lat="62.635056835142" lon="17.988380586399">
        <ele>82.4</ele>
        <time>2018-02-17T13:26:10Z</time>
      </trkpt>
      <trkpt lat="62.635030683614" lon="17.988392321059">
        <ele>82.6</ele>
        <time>2018-02-17T13:26:11Z</time>
      </trkpt>
      <trkpt lat="62.635015847651" lon="17.988401960244">
        <ele>82.6</ele>
        <time>2018-02-17T13:26:12Z</time>
      </trkpt>
      <trkpt lat="62.634997156014" lon="17.988432554179">
        <ele>82.8</ele>
        <time>2018-02-17T13:26:13Z</time>
      </trkpt>
      <trkpt lat="62.634980643671" lon="17.988455269128">
        <ele>82.8</ele>
        <time>2018-02-17T13:26:14Z</time>
      </trkpt>
      <trkpt lat="62.634966645898" lon="17.988472368204">
        <ele>83</ele>
        <time>2018-02-17T13:26:15Z</time>
      </trkpt>
      <trkpt lat="62.634952648125" lon="17.988482677941">
        <ele>83</ele>
        <time>2018-02-17T13:26:16Z</time>
      </trkpt>
      <trkpt lat="62.634937393067" lon="17.98850204013">
        <ele>83.2</ele>
        <time>2018-02-17T13:26:17Z</time>
      </trkpt>
      <trkpt lat="62.634912331186" lon="17.988517211369">
        <ele>83.4</ele>
        <time>2018-02-17T13:26:18Z</time>
      </trkpt>
      <trkpt lat="62.634895986481" lon="17.988523330156">
        <ele>83.4</ele>
        <time>2018-02-17T13:26:19Z</time>
      </trkpt>
      <trkpt lat="62.634879055043" lon="17.988530622409">
        <ele>83.4</ele>
        <time>2018-02-17T13:26:20Z</time>
      </trkpt>
      <trkpt lat="62.634861369234" lon="17.988541183603">
        <ele>83.6</ele>
        <time>2018-02-17T13:26:21Z</time>
      </trkpt>
      <trkpt lat="62.634847120004" lon="17.988554175548">
        <ele>83.6</ele>
        <time>2018-02-17T13:26:22Z</time>
      </trkpt>
      <trkpt lat="62.634832619317" lon="17.988563144181">
        <ele>83.6</ele>
        <time>2018-02-17T13:26:23Z</time>
      </trkpt>
      <trkpt lat="62.634805461961" lon="17.988588541338">
        <ele>83.8</ele>
        <time>2018-02-17T13:26:24Z</time>
      </trkpt>
      <trkpt lat="62.634786937962" lon="17.988600443636">
        <ele>83.8</ele>
        <time>2018-02-17T13:26:25Z</time>
      </trkpt>
      <trkpt lat="62.634769000696" lon="17.988611507744">
        <ele>84</ele>
        <time>2018-02-17T13:26:26Z</time>
      </trkpt>
      <trkpt lat="62.634756344027" lon="17.988625924612">
        <ele>84</ele>
        <time>2018-02-17T13:26:27Z</time>
      </trkpt>
      <trkpt lat="62.634734383449" lon="17.988636318168">
        <ele>84</ele>
        <time>2018-02-17T13:26:28Z</time>
      </trkpt>
      <trkpt lat="62.634715440355" lon="17.988655009805">
        <ele>84.2</ele>
        <time>2018-02-17T13:26:29Z</time>
      </trkpt>
      <trkpt lat="62.634699514745" lon="17.988677473297">
        <ele>84.4</ele>
        <time>2018-02-17T13:26:30Z</time>
      </trkpt>
      <trkpt lat="62.63468149366" lon="17.988692895993">
        <ele>84.4</ele>
        <time>2018-02-17T13:26:31Z</time>
      </trkpt>
      <trkpt lat="62.634664897498" lon="17.988700942617">
        <ele>84.6</ele>
        <time>2018-02-17T13:26:32Z</time>
      </trkpt>
      <trkpt lat="62.634647295508" lon="17.988727429421">
        <ele>84.8</ele>
        <time>2018-02-17T13:26:33Z</time>
      </trkpt>
      <trkpt lat="62.63462701131" lon="17.988743857945">
        <ele>84.8</ele>
        <time>2018-02-17T13:26:34Z</time>
      </trkpt>
      <trkpt lat="62.634610079872" lon="17.988780989762">
        <ele>85.2</ele>
        <time>2018-02-17T13:26:35Z</time>
      </trkpt>
      <trkpt lat="62.634592896977" lon="17.98880881767">
        <ele>85.4</ele>
        <time>2018-02-17T13:26:36Z</time>
      </trkpt>
      <trkpt lat="62.634584012163" lon="17.988837232311">
        <ele>85.4</ele>
        <time>2018-02-17T13:26:37Z</time>
      </trkpt>
      <trkpt lat="62.634563979422" lon="17.988849805161">
        <ele>85.4</ele>
        <time>2018-02-17T13:26:38Z</time>
      </trkpt>
      <trkpt lat="62.634552077124" lon="17.988875118499">
        <ele>85.6</ele>
        <time>2018-02-17T13:26:39Z</time>
      </trkpt>
      <trkpt lat="62.634542270301" lon="17.988906969719">
        <ele>85.6</ele>
        <time>2018-02-17T13:26:40Z</time>
      </trkpt>
      <trkpt lat="62.634525171225" lon="17.988947621934">
        <ele>85.8</ele>
        <time>2018-02-17T13:26:41Z</time>
      </trkpt>
      <trkpt lat="62.634519471533" lon="17.988991962185">
        <ele>85.8</ele>
        <time>2018-02-17T13:26:42Z</time>
      </trkpt>
      <trkpt lat="62.63449038634" lon="17.988995650221">
        <ele>86</ele>
        <time>2018-02-17T13:26:43Z</time>
      </trkpt>
      <trkpt lat="62.634472449074" lon="17.989014006582">
        <ele>86</ele>
        <time>2018-02-17T13:26:44Z</time>
      </trkpt>
      <trkpt lat="62.634453673618" lon="17.989035464246">
        <ele>86.2</ele>
        <time>2018-02-17T13:26:45Z</time>
      </trkpt>
      <trkpt lat="62.634436406904" lon="17.989054323521">
        <ele>86.2</ele>
        <time>2018-02-17T13:26:46Z</time>
      </trkpt>
      <trkpt lat="62.634423666416" lon="17.989069410941">
        <ele>86.2</ele>
        <time>2018-02-17T13:26:47Z</time>
      </trkpt>
      <trkpt lat="62.63440070001" lon="17.989112996821">
        <ele>86.2</ele>
        <time>2018-02-17T13:26:48Z</time>
      </trkpt>
      <trkpt lat="62.634382427468" lon="17.989141243824">
        <ele>86.4</ele>
        <time>2018-02-17T13:26:49Z</time>
      </trkpt>
      <trkpt lat="62.634359963976" lon="17.989168987913">
        <ele>86.2</ele>
        <time>2018-02-17T13:26:50Z</time>
      </trkpt>
      <trkpt lat="62.634339428321" lon="17.989194636527">
        <ele>86.2</ele>
        <time>2018-02-17T13:26:51Z</time>
      </trkpt>
      <trkpt lat="62.634325933462" lon="17.989217100019">
        <ele>86.2</ele>
        <time>2018-02-17T13:26:52Z</time>
      </trkpt>
      <trkpt lat="62.63430598454" lon="17.989237635674">
        <ele>86.2</ele>
        <time>2018-02-17T13:26:53Z</time>
      </trkpt>
      <trkpt lat="62.634284443057" lon="17.989277533518">
        <ele>86.2</ele>
        <time>2018-02-17T13:26:54Z</time>
      </trkpt>
      <trkpt lat="62.634266505791" lon="17.98930251158">
        <ele>86.2</ele>
        <time>2018-02-17T13:26:55Z</time>
      </trkpt>
      <trkpt lat="62.634248652344" lon="17.989334278981">
        <ele>86.2</ele>
        <time>2018-02-17T13:26:56Z</time>
      </trkpt>
      <trkpt lat="62.634234319295" lon="17.989367387486">
        <ele>86.2</ele>
        <time>2018-02-17T13:26:57Z</time>
      </trkpt>
      <trkpt lat="62.634222416997" lon="17.989381804354">
        <ele>86.4</ele>
        <time>2018-02-17T13:26:58Z</time>
      </trkpt>
      <trkpt lat="62.634192074519" lon="17.989405944226">
        <ele>86.6</ele>
        <time>2018-02-17T13:26:59Z</time>
      </trkpt>
      <trkpt lat="62.634175478357" lon="17.989430000279">
        <ele>86.6</ele>
        <time>2018-02-17T13:27:00Z</time>
      </trkpt>
      <trkpt lat="62.634156032349" lon="17.989457660549">
        <ele>86.6</ele>
        <time>2018-02-17T13:27:01Z</time>
      </trkpt>
      <trkpt lat="62.634137173074" lon="17.989488422122">
        <ele>86.8</ele>
        <time>2018-02-17T13:27:02Z</time>
      </trkpt>
      <trkpt lat="62.634120828369" lon="17.989499821506">
        <ele>86.8</ele>
        <time>2018-02-17T13:27:03Z</time>
      </trkpt>
      <trkpt lat="62.634106662958" lon="17.989514992745">
        <ele>86.8</ele>
        <time>2018-02-17T13:27:04Z</time>
      </trkpt>
      <trkpt lat="62.634078918869" lon="17.989525805396">
        <ele>87</ele>
        <time>2018-02-17T13:27:05Z</time>
      </trkpt>
      <trkpt lat="62.634062825621" lon="17.989540473721">
        <ele>87</ele>
        <time>2018-02-17T13:27:06Z</time>
      </trkpt>
      <trkpt lat="62.634048073477" lon="17.989551956924">
        <ele>87</ele>
        <time>2018-02-17T13:27:07Z</time>
      </trkpt>
      <trkpt lat="62.634040194491" lon="17.989569978009">
        <ele>87.2</ele>
        <time>2018-02-17T13:27:08Z</time>
      </trkpt>
      <trkpt lat="62.634015216429" lon="17.98959587808">
        <ele>87.4</ele>
        <time>2018-02-17T13:27:09Z</time>
      </trkpt>
      <trkpt lat="62.633998284991" lon="17.989619682676">
        <ele>87.4</ele>
        <time>2018-02-17T13:27:10Z</time>
      </trkpt>
      <trkpt lat="62.633977078784" lon="17.98964700767">
        <ele>87.8</ele>
        <time>2018-02-17T13:27:11Z</time>
      </trkpt>
      <trkpt lat="62.63395394474" lon="17.989669974076">
        <ele>87.8</ele>
        <time>2018-02-17T13:27:12Z</time>
      </trkpt>
      <trkpt lat="62.633935839836" lon="17.989698304898">
        <ele>87.8</ele>
        <time>2018-02-17T13:27:13Z</time>
      </trkpt>
      <trkpt lat="62.633914801267" lon="17.989734933801">
        <ele>88</ele>
        <time>2018-02-17T13:27:14Z</time>
      </trkpt>
      <trkpt lat="62.633894600888" lon="17.989773155265">
        <ele>88</ele>
        <time>2018-02-17T13:27:15Z</time>
      </trkpt>
      <trkpt lat="62.633875825432" lon="17.989809532711">
        <ele>88</ele>
        <time>2018-02-17T13:27:16Z</time>
      </trkpt>
      <trkpt lat="62.633857385252" lon="17.989852028944">
        <ele>88</ele>
        <time>2018-02-17T13:27:17Z</time>
      </trkpt>
      <trkpt lat="62.63383492176" lon="17.98990265562">
        <ele>88</ele>
        <time>2018-02-17T13:27:18Z</time>
      </trkpt>
      <trkpt lat="62.633819079969" lon="17.989945068034">
        <ele>88</ele>
        <time>2018-02-17T13:27:19Z</time>
      </trkpt>
      <trkpt lat="62.633805501291" lon="17.989985384973">
        <ele>88</ele>
        <time>2018-02-17T13:27:20Z</time>
      </trkpt>
      <trkpt lat="62.6337896595" lon="17.990024779903">
        <ele>88</ele>
        <time>2018-02-17T13:27:21Z</time>
      </trkpt>
      <trkpt lat="62.633776416098" lon="17.99006023534">
        <ele>88</ele>
        <time>2018-02-17T13:27:22Z</time>
      </trkpt>
      <trkpt lat="62.633763340334" lon="17.99009124837">
        <ele>88</ele>
        <time>2018-02-17T13:27:23Z</time>
      </trkpt>
      <trkpt lat="62.633745486887" lon="17.990129218377">
        <ele>88</ele>
        <time>2018-02-17T13:27:24Z</time>
      </trkpt>
      <trkpt lat="62.633729561277" lon="17.990161153416">
        <ele>88</ele>
        <time>2018-02-17T13:27:25Z</time>
      </trkpt>
      <trkpt lat="62.633711959287" lon="17.99019183117">
        <ele>88.2</ele>
        <time>2018-02-17T13:27:26Z</time>
      </trkpt>
      <trkpt lat="62.633694776392" lon="17.990220916363">
        <ele>88.2</ele>
        <time>2018-02-17T13:27:27Z</time>
      </trkpt>
      <trkpt lat="62.633681616809" lon="17.990236841973">
        <ele>88.4</ele>
        <time>2018-02-17T13:27:28Z</time>
      </trkpt>
      <trkpt lat="62.633659572412" lon="17.990257796723">
        <ele>88.4</ele>
        <time>2018-02-17T13:27:29Z</time>
      </trkpt>
      <trkpt lat="62.63364297625" lon="17.99027732655">
        <ele>88.6</ele>
        <time>2018-02-17T13:27:30Z</time>
      </trkpt>
      <trkpt lat="62.633624452251" lon="17.990296521101">
        <ele>88.6</ele>
        <time>2018-02-17T13:27:31Z</time>
      </trkpt>
      <trkpt lat="62.633607520813" lon="17.990313620177">
        <ele>88.8</ele>
        <time>2018-02-17T13:27:32Z</time>
      </trkpt>
      <trkpt lat="62.633583380941" lon="17.990336586583">
        <ele>88.8</ele>
        <time>2018-02-17T13:27:33Z</time>
      </trkpt>
      <trkpt lat="62.633571981557" lon="17.990353518021">
        <ele>88.8</ele>
        <time>2018-02-17T13:27:34Z</time>
      </trkpt>
      <trkpt lat="62.633536945215" lon="17.990368186346">
        <ele>89</ele>
        <time>2018-02-17T13:27:35Z</time>
      </trkpt>
      <trkpt lat="62.633515236094" lon="17.990383106128">
        <ele>89</ele>
        <time>2018-02-17T13:27:36Z</time>
      </trkpt>
      <trkpt lat="62.633492353507" lon="17.990397439177">
        <ele>89</ele>
        <time>2018-02-17T13:27:37Z</time>
      </trkpt>
      <trkpt lat="62.633470728205" lon="17.990401797765">
        <ele>89</ele>
        <time>2018-02-17T13:27:38Z</time>
      </trkpt>
      <trkpt lat="62.633443151754" lon="17.990422417239">
        <ele>89.2</ele>
        <time>2018-02-17T13:27:39Z</time>
      </trkpt>
      <trkpt lat="62.633413982742" lon="17.990435912098">
        <ele>89.2</ele>
        <time>2018-02-17T13:27:40Z</time>
      </trkpt>
      <trkpt lat="62.633386909205" lon="17.990464326739">
        <ele>89</ele>
        <time>2018-02-17T13:27:41Z</time>
      </trkpt>
      <trkpt lat="62.633355644718" lon="17.990488131335">
        <ele>89</ele>
        <time>2018-02-17T13:27:42Z</time>
      </trkpt>
      <trkpt lat="62.633333013588" lon="17.990535069975">
        <ele>89.2</ele>
        <time>2018-02-17T13:27:43Z</time>
      </trkpt>
      <trkpt lat="62.633307867888" lon="17.99057572219">
        <ele>89</ele>
        <time>2018-02-17T13:27:44Z</time>
      </trkpt>
      <trkpt lat="62.633286494043" lon="17.990618805156">
        <ele>89</ele>
        <time>2018-02-17T13:27:45Z</time>
      </trkpt>
      <trkpt lat="62.633268137682" lon="17.990661133751">
        <ele>89</ele>
        <time>2018-02-17T13:27:46Z</time>
      </trkpt>
      <trkpt lat="62.63324232143" lon="17.990721064336">
        <ele>89</ele>
        <time>2018-02-17T13:27:47Z</time>
      </trkpt>
      <trkpt lat="62.633225138535" lon="17.990764901673">
        <ele>88.8</ele>
        <time>2018-02-17T13:27:48Z</time>
      </trkpt>
      <trkpt lat="62.633215834626" lon="17.990810080114">
        <ele>88.8</ele>
        <time>2018-02-17T13:27:49Z</time>
      </trkpt>
      <trkpt lat="62.6332029265" lon="17.990856264383">
        <ele>88.8</ele>
        <time>2018-02-17T13:27:50Z</time>
      </trkpt>
      <trkpt lat="62.633185827424" lon="17.990902113376">
        <ele>88.8</ele>
        <time>2018-02-17T13:27:51Z</time>
      </trkpt>
      <trkpt lat="62.633172332565" lon="17.990942095039">
        <ele>88.8</ele>
        <time>2018-02-17T13:27:52Z</time>
      </trkpt>
      <trkpt lat="62.633154060023" lon="17.990984004539">
        <ele>88.8</ele>
        <time>2018-02-17T13:27:53Z</time>
      </trkpt>
      <trkpt lat="62.633136877128" lon="17.991044857133">
        <ele>88.8</ele>
        <time>2018-02-17T13:27:54Z</time>
      </trkpt>
      <trkpt lat="62.633122292622" lon="17.99108450352">
        <ele>88.8</ele>
        <time>2018-02-17T13:27:55Z</time>
      </trkpt>
      <trkpt lat="62.633108127211" lon="17.991123563174">
        <ele>88.8</ele>
        <time>2018-02-17T13:27:56Z</time>
      </trkpt>
      <trkpt lat="62.633100248225" lon="17.99115742605">
        <ele>88.8</ele>
        <time>2018-02-17T13:27:57Z</time>
      </trkpt>
      <trkpt lat="62.633081305131" lon="17.991214087694">
        <ele>88.8</ele>
        <time>2018-02-17T13:27:58Z</time>
      </trkpt>
      <trkpt lat="62.633061523847" lon="17.991253398805">
        <ele>88.8</ele>
        <time>2018-02-17T13:27:59Z</time>
      </trkpt>
      <trkpt lat="62.633043167486" lon="17.991300924178">
        <ele>89</ele>
        <time>2018-02-17T13:28:00Z</time>
      </trkpt>
      <trkpt lat="62.633027493333" lon="17.991342414583">
        <ele>89</ele>
        <time>2018-02-17T13:28:01Z</time>
      </trkpt>
      <trkpt lat="62.633018859976" lon="17.991378792029">
        <ele>89</ele>
        <time>2018-02-17T13:28:02Z</time>
      </trkpt>
      <trkpt lat="62.632988014584" lon="17.991436710958">
        <ele>89</ele>
        <time>2018-02-17T13:28:03Z</time>
      </trkpt>
      <trkpt lat="62.632975693191" lon="17.991480548295">
        <ele>88.8</ele>
        <time>2018-02-17T13:28:04Z</time>
      </trkpt>
      <trkpt lat="62.632949709301" lon="17.991538131948">
        <ele>88.8</ele>
        <time>2018-02-17T13:28:05Z</time>
      </trkpt>
      <trkpt lat="62.632934370424" lon="17.991585405864">
        <ele>88.8</ele>
        <time>2018-02-17T13:28:06Z</time>
      </trkpt>
      <trkpt lat="62.632921546117" lon="17.991624214061">
        <ele>88.8</ele>
        <time>2018-02-17T13:28:07Z</time>
      </trkpt>
      <trkpt lat="62.632897070969" lon="17.991674840737">
        <ele>89</ele>
        <time>2018-02-17T13:28:08Z</time>
      </trkpt>
      <trkpt lat="62.632876702952" lon="17.991729155449">
        <ele>89</ele>
        <time>2018-02-17T13:28:09Z</time>
      </trkpt>
      <trkpt lat="62.632859687695" lon="17.991780620315">
        <ele>88.8</ele>
        <time>2018-02-17T13:28:10Z</time>
      </trkpt>
      <trkpt lat="62.632844767913" lon="17.99184474185">
        <ele>88.8</ele>
        <time>2018-02-17T13:28:11Z</time>
      </trkpt>
      <trkpt lat="62.632836553651" lon="17.991892351042">
        <ele>88.8</ele>
        <time>2018-02-17T13:28:12Z</time>
      </trkpt>
      <trkpt lat="62.632833368529" lon="17.991939624958">
        <ele>88.8</ele>
        <time>2018-02-17T13:28:13Z</time>
      </trkpt>
      <trkpt lat="62.632837727117" lon="17.991980863906">
        <ele>89</ele>
        <time>2018-02-17T13:28:14Z</time>
      </trkpt>
      <trkpt lat="62.632846276655" lon="17.992011122565">
        <ele>89</ele>
        <time>2018-02-17T13:28:15Z</time>
      </trkpt>
      <trkpt lat="62.632856670211" lon="17.992030652392">
        <ele>89.2</ele>
        <time>2018-02-17T13:28:16Z</time>
      </trkpt>
      <trkpt lat="62.632873685468" lon="17.992038279921">
        <ele>89.2</ele>
        <time>2018-02-17T13:28:17Z</time>
      </trkpt>
      <trkpt lat="62.632889527259" lon="17.992037106455">
        <ele>89.4</ele>
        <time>2018-02-17T13:28:18Z</time>
      </trkpt>
      <trkpt lat="62.632904949955" lon="17.992038950473">
        <ele>89.4</ele>
        <time>2018-02-17T13:28:19Z</time>
      </trkpt>
      <trkpt lat="62.632919869737" lon="17.992041213586">
        <ele>89.4</ele>
        <time>2018-02-17T13:28:20Z</time>
      </trkpt>
      <trkpt lat="62.632935124795" lon="17.992045655993">
        <ele>89.4</ele>
        <time>2018-02-17T13:28:21Z</time>
      </trkpt>
      <trkpt lat="62.632956163364" lon="17.992054037893">
        <ele>89.4</ele>
        <time>2018-02-17T13:28:22Z</time>
      </trkpt>
      <trkpt lat="62.632974016811" lon="17.992054959902">
        <ele>89.2</ele>
        <time>2018-02-17T13:28:23Z</time>
      </trkpt>
      <trkpt lat="62.632993798095" lon="17.992063425621">
        <ele>89.2</ele>
        <time>2018-02-17T13:28:24Z</time>
      </trkpt>
      <trkpt lat="62.633013998474" lon="17.992067448933">
        <ele>89.2</ele>
        <time>2018-02-17T13:28:25Z</time>
      </trkpt>
      <trkpt lat="62.633037216337" lon="17.992074238272">
        <ele>89.4</ele>
        <time>2018-02-17T13:28:26Z</time>
      </trkpt>
      <trkpt lat="62.633063116408" lon="17.992086894941">
        <ele>89.2</ele>
        <time>2018-02-17T13:28:27Z</time>
      </trkpt>
      <trkpt lat="62.633089854669" lon="17.992095612117">
        <ele>89.4</ele>
        <time>2018-02-17T13:28:28Z</time>
      </trkpt>
      <trkpt lat="62.633119442776" lon="17.992108939338">
        <ele>89.4</ele>
        <time>2018-02-17T13:28:29Z</time>
      </trkpt>
      <trkpt lat="62.633147522141" lon="17.992114471392">
        <ele>89.4</ele>
        <time>2018-02-17T13:28:30Z</time>
      </trkpt>
      <trkpt lat="62.63317526623" lon="17.992125200224">
        <ele>89.4</ele>
        <time>2018-02-17T13:28:31Z</time>
      </trkpt>
      <trkpt lat="62.633200663387" lon="17.992134671771">
        <ele>89.4</ele>
        <time>2018-02-17T13:28:32Z</time>
      </trkpt>
      <trkpt lat="62.633230000037" lon="17.992148669544">
        <ele>89.2</ele>
        <time>2018-02-17T13:28:33Z</time>
      </trkpt>
      <trkpt lat="62.633252547348" lon="17.992154955969">
        <ele>89.2</ele>
        <time>2018-02-17T13:28:34Z</time>
      </trkpt>
      <trkpt lat="62.633280291437" lon="17.992159314557">
        <ele>89.2</ele>
        <time>2018-02-17T13:28:35Z</time>
      </trkpt>
      <trkpt lat="62.633307448793" lon="17.992159985109">
        <ele>89.2</ele>
        <time>2018-02-17T13:28:36Z</time>
      </trkpt>
      <trkpt lat="62.633329325552" lon="17.992164846611">
        <ele>89.2</ele>
        <time>2018-02-17T13:28:37Z</time>
      </trkpt>
      <trkpt lat="62.633356734365" lon="17.992174821072">
        <ele>89.2</ele>
        <time>2018-02-17T13:28:38Z</time>
      </trkpt>
      <trkpt lat="62.633388250309" lon="17.992179598755">
        <ele>89.2</ele>
        <time>2018-02-17T13:28:39Z</time>
      </trkpt>
      <trkpt lat="62.633419430977" lon="17.992191668691">
        <ele>89.2</ele>
        <time>2018-02-17T13:28:40Z</time>
      </trkpt>
      <trkpt lat="62.633457820079" lon="17.992212623441">
        <ele>89</ele>
        <time>2018-02-17T13:28:41Z</time>
      </trkpt>
      <trkpt lat="62.633494281344" lon="17.992235086933">
        <ele>89</ele>
        <time>2018-02-17T13:28:42Z</time>
      </trkpt>
      <trkpt lat="62.633533089541" lon="17.992267105791">
        <ele>88.6</ele>
        <time>2018-02-17T13:28:43Z</time>
      </trkpt>
      <trkpt lat="62.633565108399" lon="17.992307171273">
        <ele>88.4</ele>
        <time>2018-02-17T13:28:44Z</time>
      </trkpt>
      <trkpt lat="62.633594445049" lon="17.992350254239">
        <ele>88</ele>
        <time>2018-02-17T13:28:45Z</time>
      </trkpt>
      <trkpt lat="62.633623865518" lon="17.992394175395">
        <ele>87.4</ele>
        <time>2018-02-17T13:28:46Z</time>
      </trkpt>
      <trkpt lat="62.633650352322" lon="17.992438012732">
        <ele>87.2</ele>
        <time>2018-02-17T13:28:47Z</time>
      </trkpt>
      <trkpt lat="62.633678766963" lon="17.992495344928">
        <ele>87.2</ele>
        <time>2018-02-17T13:28:48Z</time>
      </trkpt>
      <trkpt lat="62.633711288735" lon="17.992543708491">
        <ele>87.2</ele>
        <time>2018-02-17T13:28:49Z</time>
      </trkpt>
      <trkpt lat="62.633742888498" lon="17.992601543601">
        <ele>87.4</ele>
        <time>2018-02-17T13:28:50Z</time>
      </trkpt>
      <trkpt lat="62.633773901528" lon="17.992672370656">
        <ele>87.6</ele>
        <time>2018-02-17T13:28:51Z</time>
      </trkpt>
      <trkpt lat="62.633804830739" lon="17.992741688969">
        <ele>87.4</ele>
        <time>2018-02-17T13:28:52Z</time>
      </trkpt>
      <trkpt lat="62.633840537633" lon="17.992806648694">
        <ele>86.6</ele>
        <time>2018-02-17T13:28:53Z</time>
      </trkpt>
      <trkpt lat="62.633877250355" lon="17.992878313939">
        <ele>86</ele>
        <time>2018-02-17T13:28:54Z</time>
      </trkpt>
      <trkpt lat="62.63391622619" lon="17.992932880108">
        <ele>85.4</ele>
        <time>2018-02-17T13:28:55Z</time>
      </trkpt>
      <trkpt lat="62.633954699111" lon="17.992985686078">
        <ele>84.8</ele>
        <time>2018-02-17T13:28:56Z</time>
      </trkpt>
      <trkpt lat="62.633990154548" lon="17.993038911143">
        <ele>84.2</ele>
        <time>2018-02-17T13:28:57Z</time>
      </trkpt>
      <trkpt lat="62.634029800935" lon="17.993101021022">
        <ele>84</ele>
        <time>2018-02-17T13:28:58Z</time>
      </trkpt>
      <trkpt lat="62.634070117874" lon="17.993168914412">
        <ele>84</ele>
        <time>2018-02-17T13:28:59Z</time>
      </trkpt>
      <trkpt lat="62.634109596623" lon="17.993230605196">
        <ele>84.2</ele>
        <time>2018-02-17T13:29:00Z</time>
      </trkpt>
      <trkpt lat="62.634149578286" lon="17.99329229598">
        <ele>84</ele>
        <time>2018-02-17T13:29:01Z</time>
      </trkpt>
      <trkpt lat="62.634189224673" lon="17.993343593208">
        <ele>84</ele>
        <time>2018-02-17T13:29:02Z</time>
      </trkpt>
      <trkpt lat="62.63424060572" lon="17.993389777477">
        <ele>83.8</ele>
        <time>2018-02-17T13:29:03Z</time>
      </trkpt>
      <trkpt lat="62.634287795817" lon="17.993422969801">
        <ele>83.4</ele>
        <time>2018-02-17T13:29:04Z</time>
      </trkpt>
      <trkpt lat="62.634342697262" lon="17.993464041111">
        <ele>82.4</ele>
        <time>2018-02-17T13:29:05Z</time>
      </trkpt>
      <trkpt lat="62.634399526544" lon="17.993501592023">
        <ele>81.6</ele>
        <time>2018-02-17T13:29:06Z</time>
      </trkpt>
      <trkpt lat="62.634452835428" lon="17.993529671388">
        <ele>80.8</ele>
        <time>2018-02-17T13:29:07Z</time>
      </trkpt>
      <trkpt lat="62.634513352746" lon="17.993560181504">
        <ele>80</ele>
        <time>2018-02-17T13:29:08Z</time>
      </trkpt>
      <trkpt lat="62.634577055186" lon="17.993590523982">
        <ele>79.2</ele>
        <time>2018-02-17T13:29:09Z</time>
      </trkpt>
      <trkpt lat="62.6346362314" lon="17.993617932795">
        <ele>78.4</ele>
        <time>2018-02-17T13:29:10Z</time>
      </trkpt>
      <trkpt lat="62.634703454238" lon="17.993644000504">
        <ele>77.6</ele>
        <time>2018-02-17T13:29:11Z</time>
      </trkpt>
      <trkpt lat="62.634760870253" lon="17.993661770132">
        <ele>76.8</ele>
        <time>2018-02-17T13:29:12Z</time>
      </trkpt>
      <trkpt lat="62.634824237417" lon="17.993676270819">
        <ele>76</ele>
        <time>2018-02-17T13:29:13Z</time>
      </trkpt>
      <trkpt lat="62.634882910717" lon="17.993690268592">
        <ele>75.2</ele>
        <time>2018-02-17T13:29:14Z</time>
      </trkpt>
      <trkpt lat="62.634935716687" lon="17.993709798419">
        <ele>74.8</ele>
        <time>2018-02-17T13:29:15Z</time>
      </trkpt>
      <trkpt lat="62.634983828793" lon="17.993728322418">
        <ele>74.6</ele>
        <time>2018-02-17T13:29:16Z</time>
      </trkpt>
      <trkpt lat="62.635032024718" lon="17.993746846417">
        <ele>74.4</ele>
        <time>2018-02-17T13:29:17Z</time>
      </trkpt>
      <trkpt lat="62.635091787665" lon="17.993763023484">
        <ele>74.4</ele>
        <time>2018-02-17T13:29:18Z</time>
      </trkpt>
      <trkpt lat="62.635148030214" lon="17.993780038741">
        <ele>74.6</ele>
        <time>2018-02-17T13:29:19Z</time>
      </trkpt>
      <trkpt lat="62.635205194772" lon="17.993790851392">
        <ele>74.6</ele>
        <time>2018-02-17T13:29:20Z</time>
      </trkpt>
      <trkpt lat="62.635258000742" lon="17.99379772455">
        <ele>74.4</ele>
        <time>2018-02-17T13:29:21Z</time>
      </trkpt>
      <trkpt lat="62.63529672512" lon="17.993807699011">
        <ele>74.2</ele>
        <time>2018-02-17T13:29:22Z</time>
      </trkpt>
      <trkpt lat="62.63534534014" lon="17.993817254377">
        <ele>73.6</ele>
        <time>2018-02-17T13:29:23Z</time>
      </trkpt>
      <trkpt lat="62.635393536065" lon="17.993826139191">
        <ele>73.2</ele>
        <time>2018-02-17T13:29:24Z</time>
      </trkpt>
      <trkpt lat="62.635442318723" lon="17.993833263806">
        <ele>72.6</ele>
        <time>2018-02-17T13:29:25Z</time>
      </trkpt>
      <trkpt lat="62.635495962883" lon="17.993840723697">
        <ele>72.4</ele>
        <time>2018-02-17T13:29:26Z</time>
      </trkpt>
      <trkpt lat="62.635546338102" lon="17.993849943787">
        <ele>72.2</ele>
        <time>2018-02-17T13:29:27Z</time>
      </trkpt>
      <trkpt lat="62.635597132416" lon="17.993864612112">
        <ele>72</ele>
        <time>2018-02-17T13:29:28Z</time>
      </trkpt>
      <trkpt lat="62.635650776576" lon="17.993884393396">
        <ele>71.8</ele>
        <time>2018-02-17T13:29:29Z</time>
      </trkpt>
      <trkpt lat="62.635706432392" lon="17.993900905739">
        <ele>71.6</ele>
        <time>2018-02-17T13:29:30Z</time>
      </trkpt>
      <trkpt lat="62.635763345493" lon="17.993918004815">
        <ele>71.4</ele>
        <time>2018-02-17T13:29:31Z</time>
      </trkpt>
      <trkpt lat="62.635816319101" lon="17.993919848833">
        <ele>71.4</ele>
        <time>2018-02-17T13:29:32Z</time>
      </trkpt>
      <trkpt lat="62.635870298537" lon="17.993917501901">
        <ele>71.2</ele>
        <time>2018-02-17T13:29:33Z</time>
      </trkpt>
      <trkpt lat="62.635920087023" lon="17.993909622915">
        <ele>71.2</ele>
        <time>2018-02-17T13:29:34Z</time>
      </trkpt>
      <trkpt lat="62.635978005952" lon="17.993889171079">
        <ele>71.2</ele>
        <time>2018-02-17T13:29:35Z</time>
      </trkpt>
      <trkpt lat="62.636037936537" lon="17.993860337343">
        <ele>71</ele>
        <time>2018-02-17T13:29:36Z</time>
      </trkpt>
      <trkpt lat="62.636094682" lon="17.993831084512">
        <ele>70.8</ele>
        <time>2018-02-17T13:29:37Z</time>
      </trkpt>
      <trkpt lat="62.63615000254" lon="17.993797556912">
        <ele>70.8</ele>
        <time>2018-02-17T13:29:38Z</time>
      </trkpt>
      <trkpt lat="62.636200545397" lon="17.993755647412">
        <ele>70.6</ele>
        <time>2018-02-17T13:29:39Z</time>
      </trkpt>
      <trkpt lat="62.636244969467" lon="17.993709295505">
        <ele>70.2</ele>
        <time>2018-02-17T13:29:40Z</time>
      </trkpt>
      <trkpt lat="62.636289728813" lon="17.993652633861">
        <ele>69.6</ele>
        <time>2018-02-17T13:29:41Z</time>
      </trkpt>
      <trkpt lat="62.636324681336" lon="17.993596223674">
        <ele>69.2</ele>
        <time>2018-02-17T13:29:42Z</time>
      </trkpt>
      <trkpt lat="62.636365920284" lon="17.993538975297">
        <ele>68.6</ele>
        <time>2018-02-17T13:29:43Z</time>
      </trkpt>
      <trkpt lat="62.636406656318" lon="17.993488180983">
        <ele>68.2</ele>
        <time>2018-02-17T13:29:44Z</time>
      </trkpt>
      <trkpt lat="62.636449487827" lon="17.993426238742">
        <ele>67.8</ele>
        <time>2018-02-17T13:29:45Z</time>
      </trkpt>
      <trkpt lat="62.636496007372" lon="17.993363039216">
        <ele>67.6</ele>
        <time>2018-02-17T13:29:46Z</time>
      </trkpt>
      <trkpt lat="62.636550489722" lon="17.993294056179">
        <ele>67.2</ele>
        <time>2018-02-17T13:29:47Z</time>
      </trkpt>
      <trkpt lat="62.63661603618" lon="17.993218870536">
        <ele>66.8</ele>
        <time>2018-02-17T13:29:48Z</time>
      </trkpt>
      <trkpt lat="62.636677140231" lon="17.993145780368">
        <ele>66</ele>
        <time>2018-02-17T13:29:49Z</time>
      </trkpt>
      <trkpt lat="62.636725084699" lon="17.993069588897">
        <ele>65</ele>
        <time>2018-02-17T13:29:50Z</time>
      </trkpt>
      <trkpt lat="62.636763641439" lon="17.992997756014">
        <ele>64</ele>
        <time>2018-02-17T13:29:51Z</time>
      </trkpt>
      <trkpt lat="62.636803036369" lon="17.992932628651">
        <ele>63.4</ele>
        <time>2018-02-17T13:29:52Z</time>
      </trkpt>
      <trkpt lat="62.636826086594" lon="17.992836907353">
        <ele>63</ele>
        <time>2018-02-17T13:29:53Z</time>
      </trkpt>
      <trkpt lat="62.63684570024" lon="17.992764990651">
        <ele>63</ele>
        <time>2018-02-17T13:29:54Z</time>
      </trkpt>
      <trkpt lat="62.636858189271" lon="17.992700701478">
        <ele>63.2</ele>
        <time>2018-02-17T13:29:55Z</time>
      </trkpt>
      <trkpt lat="62.636867409361" lon="17.992634735925">
        <ele>63.6</ele>
        <time>2018-02-17T13:29:56Z</time>
      </trkpt>
      <trkpt lat="62.636879311659" lon="17.992572877503">
        <ele>63.8</ele>
        <time>2018-02-17T13:29:57Z</time>
      </trkpt>
      <trkpt lat="62.636881993867" lon="17.992493081815">
        <ele>64</ele>
        <time>2018-02-17T13:29:58Z</time>
      </trkpt>
      <trkpt lat="62.636885514265" lon="17.992417141801">
        <ele>64.2</ele>
        <time>2018-02-17T13:29:59Z</time>
      </trkpt>
      <trkpt lat="62.636889453758" lon="17.992346230927">
        <ele>64.4</ele>
        <time>2018-02-17T13:30:00Z</time>
      </trkpt>
      <trkpt lat="62.636896578373" lon="17.992281690297">
        <ele>64.4</ele>
        <time>2018-02-17T13:30:01Z</time>
      </trkpt>
      <trkpt lat="62.636906133739" lon="17.99221606002">
        <ele>64.4</ele>
        <time>2018-02-17T13:30:02Z</time>
      </trkpt>
      <trkpt lat="62.636915856743" lon="17.992152860494">
        <ele>64.6</ele>
        <time>2018-02-17T13:30:03Z</time>
      </trkpt>
      <trkpt lat="62.63692365191" lon="17.992103994017">
        <ele>64.6</ele>
        <time>2018-02-17T13:30:04Z</time>
      </trkpt>
      <trkpt lat="62.636935470389" lon="17.992042889966">
        <ele>64.8</ele>
        <time>2018-02-17T13:30:05Z</time>
      </trkpt>
      <trkpt lat="62.636953910569" lon="17.991986228322">
        <ele>64.8</ele>
        <time>2018-02-17T13:30:06Z</time>
      </trkpt>
      <trkpt lat="62.636971596378" lon="17.991933841447">
        <ele>64.8</ele>
        <time>2018-02-17T13:30:07Z</time>
      </trkpt>
      <trkpt lat="62.636990371834" lon="17.991874665233">
        <ele>65</ele>
        <time>2018-02-17T13:30:08Z</time>
      </trkpt>
      <trkpt lat="62.637012919145" lon="17.991819428512">
        <ele>65</ele>
        <time>2018-02-17T13:30:09Z</time>
      </trkpt>
      <trkpt lat="62.637029515307" lon="17.991775507356">
        <ele>65</ele>
        <time>2018-02-17T13:30:10Z</time>
      </trkpt>
      <trkpt lat="62.63704518946" lon="17.991732005295">
        <ele>64.8</ele>
        <time>2018-02-17T13:30:11Z</time>
      </trkpt>
      <trkpt lat="62.637057929948" lon="17.991694622021">
        <ele>64.8</ele>
        <time>2018-02-17T13:30:12Z</time>
      </trkpt>
      <trkpt lat="62.637075029024" lon="17.991644749716">
        <ele>64.8</ele>
        <time>2018-02-17T13:30:13Z</time>
      </trkpt>
      <trkpt lat="62.637085087304" lon="17.991593117212">
        <ele>65</ele>
        <time>2018-02-17T13:30:14Z</time>
      </trkpt>
      <trkpt lat="62.637101851104" lon="17.991542574355">
        <ele>65</ele>
        <time>2018-02-17T13:30:15Z</time>
      </trkpt>
      <trkpt lat="62.637120375103" lon="17.991489600747">
        <ele>65.2</ele>
        <time>2018-02-17T13:30:16Z</time>
      </trkpt>
      <trkpt lat="62.637131606849" lon="17.99143905789">
        <ele>65.2</ele>
        <time>2018-02-17T13:30:17Z</time>
      </trkpt>
      <trkpt lat="62.63714661045" lon="17.991383402074">
        <ele>65.2</ele>
        <time>2018-02-17T13:30:18Z</time>
      </trkpt>
      <trkpt lat="62.637164966811" lon="17.991326991887">
        <ele>65.2</ele>
        <time>2018-02-17T13:30:19Z</time>
      </trkpt>
      <trkpt lat="62.637184999552" lon="17.991274185917">
        <ele>65.4</ele>
        <time>2018-02-17T13:30:20Z</time>
      </trkpt>
      <trkpt lat="62.637205870483" lon="17.991214087694">
        <ele>65.4</ele>
        <time>2018-02-17T13:30:21Z</time>
      </trkpt>
      <trkpt lat="62.637226406138" lon="17.991147954503">
        <ele>65.4</ele>
        <time>2018-02-17T13:30:22Z</time>
      </trkpt>
      <trkpt lat="62.637245097775" lon="17.99108701809">
        <ele>65.2</ele>
        <time>2018-02-17T13:30:23Z</time>
      </trkpt>
      <trkpt lat="62.637254988417" lon="17.991023734745">
        <ele>65</ele>
        <time>2018-02-17T13:30:24Z</time>
      </trkpt>
      <trkpt lat="62.637271333122" lon="17.990964726169">
        <ele>64.8</ele>
        <time>2018-02-17T13:30:25Z</time>
      </trkpt>
      <trkpt lat="62.637280050298" lon="17.990901275186">
        <ele>64.8</ele>
        <time>2018-02-17T13:30:26Z</time>
      </trkpt>
      <trkpt lat="62.637281475221" lon="17.990839584402">
        <ele>64.8</ele>
        <time>2018-02-17T13:30:27Z</time>
      </trkpt>
      <trkpt lat="62.637289773302" lon="17.99079868073">
        <ele>64.6</ele>
        <time>2018-02-17T13:30:28Z</time>
      </trkpt>
      <trkpt lat="62.637294048071" lon="17.990731960806">
        <ele>64.8</ele>
        <time>2018-02-17T13:30:29Z</time>
      </trkpt>
      <trkpt lat="62.637303268161" lon="17.990660630837">
        <ele>64.8</ele>
        <time>2018-02-17T13:30:30Z</time>
      </trkpt>
      <trkpt lat="62.63730838112" lon="17.990579996959">
        <ele>64.8</ele>
        <time>2018-02-17T13:30:31Z</time>
      </trkpt>
      <trkpt lat="62.637316595382" lon="17.990513444673">
        <ele>64.8</ele>
        <time>2018-02-17T13:30:32Z</time>
      </trkpt>
      <trkpt lat="62.637326234567" lon="17.990426021456">
        <ele>64.8</ele>
        <time>2018-02-17T13:30:33Z</time>
      </trkpt>
      <trkpt lat="62.637336795761" lon="17.99034941089">
        <ele>64.6</ele>
        <time>2018-02-17T13:30:34Z</time>
      </trkpt>
      <trkpt lat="62.63735112881" lon="17.990276404541">
        <ele>64.6</ele>
        <time>2018-02-17T13:30:35Z</time>
      </trkpt>
      <trkpt lat="62.637365294221" lon="17.990208846427">
        <ele>64.4</ele>
        <time>2018-02-17T13:30:36Z</time>
      </trkpt>
      <trkpt lat="62.63737543632" lon="17.990151346593">
        <ele>64.4</ele>
        <time>2018-02-17T13:30:37Z</time>
      </trkpt>
      <trkpt lat="62.637389937007" lon="17.99009376294">
        <ele>64.4</ele>
        <time>2018-02-17T13:30:38Z</time>
      </trkpt>
      <trkpt lat="62.637405275884" lon="17.990031066328">
        <ele>64.4</ele>
        <time>2018-02-17T13:30:39Z</time>
      </trkpt>
      <trkpt lat="62.637414579793" lon="17.989972057752">
        <ele>64.4</ele>
        <time>2018-02-17T13:30:40Z</time>
      </trkpt>
      <trkpt lat="62.637429248118" lon="17.989909277321">
        <ele>64.4</ele>
        <time>2018-02-17T13:30:41Z</time>
      </trkpt>
      <trkpt lat="62.637445676642" lon="17.989862841595">
        <ele>64.4</ele>
        <time>2018-02-17T13:30:42Z</time>
      </trkpt>
      <trkpt lat="62.637467553401" lon="17.989815986774">
        <ele>64.6</ele>
        <time>2018-02-17T13:30:43Z</time>
      </trkpt>
      <trkpt lat="62.637488340513" lon="17.989767623211">
        <ele>64.4</ele>
        <time>2018-02-17T13:30:44Z</time>
      </trkpt>
      <trkpt lat="62.637506780693" lon="17.989718170001">
        <ele>64.6</ele>
        <time>2018-02-17T13:30:45Z</time>
      </trkpt>
      <trkpt lat="62.637526729615" lon="17.989673326836">
        <ele>64.6</ele>
        <time>2018-02-17T13:30:46Z</time>
      </trkpt>
      <trkpt lat="62.637548690193" lon="17.989628483671">
        <ele>64.6</ele>
        <time>2018-02-17T13:30:47Z</time>
      </trkpt>
      <trkpt lat="62.637575512273" lon="17.98955732134">
        <ele>64.6</ele>
        <time>2018-02-17T13:30:48Z</time>
      </trkpt>
      <trkpt lat="62.637601915258" lon="17.989489679407">
        <ele>64.6</ele>
        <time>2018-02-17T13:30:49Z</time>
      </trkpt>
      <trkpt lat="62.637625049302" lon="17.989427234252">
        <ele>64.6</ele>
        <time>2018-02-17T13:30:50Z</time>
      </trkpt>
      <trkpt lat="62.637654134495" lon="17.989361603975">
        <ele>64.4</ele>
        <time>2018-02-17T13:30:51Z</time>
      </trkpt>
      <trkpt lat="62.637685482801" lon="17.989294632594">
        <ele>64.4</ele>
        <time>2018-02-17T13:30:52Z</time>
      </trkpt>
      <trkpt lat="62.637718339849" lon="17.989200336219">
        <ele>64.2</ele>
        <time>2018-02-17T13:30:53Z</time>
      </trkpt>
      <trkpt lat="62.637753543829" lon="17.989122049273">
        <ele>63.8</ele>
        <time>2018-02-17T13:30:54Z</time>
      </trkpt>
      <trkpt lat="62.637780365909" lon="17.98904434906">
        <ele>63.4</ele>
        <time>2018-02-17T13:30:55Z</time>
      </trkpt>
      <trkpt lat="62.637801823573" lon="17.988970923616">
        <ele>63.2</ele>
        <time>2018-02-17T13:30:56Z</time>
      </trkpt>
      <trkpt lat="62.637824454703" lon="17.988904790425">
        <ele>63</ele>
        <time>2018-02-17T13:30:57Z</time>
      </trkpt>
      <trkpt lat="62.637832417508" lon="17.988839076329">
        <ele>62.4</ele>
        <time>2018-02-17T13:30:58Z</time>
      </trkpt>
      <trkpt lat="62.637842559607" lon="17.988777637002">
        <ele>62.2</ele>
        <time>2018-02-17T13:30:59Z</time>
      </trkpt>
      <trkpt lat="62.637858820493" lon="17.988707815775">
        <ele>62.2</ele>
        <time>2018-02-17T13:31:00Z</time>
      </trkpt>
      <trkpt lat="62.637876338664" lon="17.988637240177">
        <ele>62.4</ele>
        <time>2018-02-17T13:31:01Z</time>
      </trkpt>
      <trkpt lat="62.637891426084" lon="17.988563898552">
        <ele>62.4</ele>
        <time>2018-02-17T13:31:02Z</time>
      </trkpt>
      <trkpt lat="62.637888492419" lon="17.988471194738">
        <ele>62.6</ele>
        <time>2018-02-17T13:31:03Z</time>
      </trkpt>
      <trkpt lat="62.637891509903" lon="17.988394248896">
        <ele>62.4</ele>
        <time>2018-02-17T13:31:04Z</time>
      </trkpt>
      <trkpt lat="62.637899137432" lon="17.988306993317">
        <ele>62.4</ele>
        <time>2018-02-17T13:31:05Z</time>
      </trkpt>
      <trkpt lat="62.63790181964" lon="17.98823130476">
        <ele>62.2</ele>
        <time>2018-02-17T13:31:06Z</time>
      </trkpt>
      <trkpt lat="62.637906932599" lon="17.988163830465">
        <ele>62</ele>
        <time>2018-02-17T13:31:07Z</time>
      </trkpt>
      <trkpt lat="62.637925875693" lon="17.988053357023">
        <ele>61.8</ele>
        <time>2018-02-17T13:31:08Z</time>
      </trkpt>
      <trkpt lat="62.637951189031" lon="17.98792704179">
        <ele>61.8</ele>
        <time>2018-02-17T13:31:09Z</time>
      </trkpt>
      <trkpt lat="62.637975245084" lon="17.987819921108">
        <ele>61.2</ele>
        <time>2018-02-17T13:31:10Z</time>
      </trkpt>
      <trkpt lat="62.638001312793" lon="17.987713638616">
        <ele>60.6</ele>
        <time>2018-02-17T13:31:11Z</time>
      </trkpt>
      <trkpt lat="62.638021513172" lon="17.98762948434">
        <ele>60.4</ele>
        <time>2018-02-17T13:31:12Z</time>
      </trkpt>
      <trkpt lat="62.638041881189" lon="17.987538205449">
        <ele>59.6</ele>
        <time>2018-02-17T13:31:13Z</time>
      </trkpt>
      <trkpt lat="62.638059902274" lon="17.987452710069">
        <ele>58.8</ele>
        <time>2018-02-17T13:31:14Z</time>
      </trkpt>
      <trkpt lat="62.638080940843" lon="17.987369226345">
        <ele>58.2</ele>
        <time>2018-02-17T13:31:15Z</time>
      </trkpt>
      <trkpt lat="62.638102063231" lon="17.98728415006">
        <ele>58.2</ele>
        <time>2018-02-17T13:31:16Z</time>
      </trkpt>
      <trkpt lat="62.638123856171" lon="17.987189937504">
        <ele>58.6</ele>
        <time>2018-02-17T13:31:17Z</time>
      </trkpt>
      <trkpt lat="62.638147744586" lon="17.987089857618">
        <ele>58.8</ele>
        <time>2018-02-17T13:31:18Z</time>
      </trkpt>
      <trkpt lat="62.63816584949" lon="17.987009810473">
        <ele>58.6</ele>
        <time>2018-02-17T13:31:19Z</time>
      </trkpt>
      <trkpt lat="62.638174063752" lon="17.986921800523">
        <ele>58.4</ele>
        <time>2018-02-17T13:31:20Z</time>
      </trkpt>
      <trkpt lat="62.638185714593" lon="17.986841334283">
        <ele>58</ele>
        <time>2018-02-17T13:31:21Z</time>
      </trkpt>
      <trkpt lat="62.638200382918" lon="17.986771010142">
        <ele>58</ele>
        <time>2018-02-17T13:31:22Z</time>
      </trkpt>
      <trkpt lat="62.638190911371" lon="17.986683000192">
        <ele>57.6</ele>
        <time>2018-02-17T13:31:23Z</time>
      </trkpt>
      <trkpt lat="62.63819518614" lon="17.986613765698">
        <ele>57.8</ele>
        <time>2018-02-17T13:31:24Z</time>
      </trkpt>
      <trkpt lat="62.638208345723" lon="17.98654402829">
        <ele>58</ele>
        <time>2018-02-17T13:31:25Z</time>
      </trkpt>
      <trkpt lat="62.638224103695" lon="17.986473033597">
        <ele>58</ele>
        <time>2018-02-17T13:31:26Z</time>
      </trkpt>
      <trkpt lat="62.638241202771" lon="17.986412097184">
        <ele>58</ele>
        <time>2018-02-17T13:31:27Z</time>
      </trkpt>
      <trkpt lat="62.638231731224" lon="17.986333894057">
        <ele>57.8</ele>
        <time>2018-02-17T13:31:28Z</time>
      </trkpt>
      <trkpt lat="62.638234078156" lon="17.986260468613">
        <ele>58</ele>
        <time>2018-02-17T13:31:29Z</time>
      </trkpt>
      <trkpt lat="62.638239694029" lon="17.986182349305">
        <ele>58.2</ele>
        <time>2018-02-17T13:31:30Z</time>
      </trkpt>
      <trkpt lat="62.638248746481" lon="17.986107750395">
        <ele>58</ele>
        <time>2018-02-17T13:31:31Z</time>
      </trkpt>
      <trkpt lat="62.638259391494" lon="17.986046478706">
        <ele>58</ele>
        <time>2018-02-17T13:31:32Z</time>
      </trkpt>
      <trkpt lat="62.638269952688" lon="17.985984787922">
        <ele>58</ele>
        <time>2018-02-17T13:31:33Z</time>
      </trkpt>
      <trkpt lat="62.638280094787" lon="17.985927539545">
        <ele>58</ele>
        <time>2018-02-17T13:31:34Z</time>
      </trkpt>
      <trkpt lat="62.638296104216" lon="17.985868698607">
        <ele>58</ele>
        <time>2018-02-17T13:31:35Z</time>
      </trkpt>
      <trkpt lat="62.638311107817" lon="17.985818658664">
        <ele>57.8</ele>
        <time>2018-02-17T13:31:36Z</time>
      </trkpt>
      <trkpt lat="62.638321920468" lon="17.985776078612">
        <ele>57.8</ele>
        <time>2018-02-17T13:31:37Z</time>
      </trkpt>
      <trkpt lat="62.638334409499" lon="17.985728301782">
        <ele>57.8</ele>
        <time>2018-02-17T13:31:38Z</time>
      </trkpt>
      <trkpt lat="62.638349077824" lon="17.985675328174">
        <ele>57.8</ele>
        <time>2018-02-17T13:31:39Z</time>
      </trkpt>
      <trkpt lat="62.638364332882" lon="17.985628557172">
        <ele>57.8</ele>
        <time>2018-02-17T13:31:40Z</time>
      </trkpt>
      <trkpt lat="62.638376570456" lon="17.985578181953">
        <ele>57.8</ele>
        <time>2018-02-17T13:31:41Z</time>
      </trkpt>
      <trkpt lat="62.638386461098" lon="17.985528225829">
        <ele>57.8</ele>
        <time>2018-02-17T13:31:42Z</time>
      </trkpt>
      <trkpt lat="62.638400375052" lon="17.985474246393">
        <ele>57.8</ele>
        <time>2018-02-17T13:31:43Z</time>
      </trkpt>
      <trkpt lat="62.638415546291" lon="17.985434097092">
        <ele>57.6</ele>
        <time>2018-02-17T13:31:44Z</time>
      </trkpt>
      <trkpt lat="62.638432813005" lon="17.985395372714">
        <ele>57.6</ele>
        <time>2018-02-17T13:31:45Z</time>
      </trkpt>
      <trkpt lat="62.638450079719" lon="17.985351786834">
        <ele>57.6</ele>
        <time>2018-02-17T13:31:46Z</time>
      </trkpt>
      <trkpt lat="62.638472543211" lon="17.985302165986">
        <ele>57.6</ele>
        <time>2018-02-17T13:31:47Z</time>
      </trkpt>
      <trkpt lat="62.638496180169" lon="17.98524902474">
        <ele>57.6</ele>
        <time>2018-02-17T13:31:48Z</time>
      </trkpt>
      <trkpt lat="62.63851788929" lon="17.985190519078">
        <ele>57.4</ele>
        <time>2018-02-17T13:31:49Z</time>
      </trkpt>
      <trkpt lat="62.638553344727" lon="17.98513083995">
        <ele>57.6</ele>
        <time>2018-02-17T13:31:50Z</time>
      </trkpt>
      <trkpt lat="62.6386008701" lon="17.985064958216">
        <ele>57.4</ele>
        <time>2018-02-17T13:31:51Z</time>
      </trkpt>
      <trkpt lat="62.638651664414" lon="17.984999327939">
        <ele>57.2</ele>
        <time>2018-02-17T13:31:52Z</time>
      </trkpt>
      <trkpt lat="62.63867798358" lon="17.984940067906">
        <ele>57</ele>
        <time>2018-02-17T13:31:53Z</time>
      </trkpt>
      <trkpt lat="62.638716121225" lon="17.984879299131">
        <ele>57</ele>
        <time>2018-02-17T13:31:54Z</time>
      </trkpt>
      <trkpt lat="62.638745206418" lon="17.984819955279">
        <ele>56.6</ele>
        <time>2018-02-17T13:31:55Z</time>
      </trkpt>
      <trkpt lat="62.638772112317" lon="17.984769663879">
        <ele>56.2</ele>
        <time>2018-02-17T13:31:56Z</time>
      </trkpt>
      <trkpt lat="62.63879700656" lon="17.984715432986">
        <ele>56.2</ele>
        <time>2018-02-17T13:31:57Z</time>
      </trkpt>
      <trkpt lat="62.638823241907" lon="17.984640834076">
        <ele>55.8</ele>
        <time>2018-02-17T13:31:58Z</time>
      </trkpt>
      <trkpt lat="62.638851153634" lon="17.984556847438">
        <ele>55.6</ele>
        <time>2018-02-17T13:31:59Z</time>
      </trkpt>
      <trkpt lat="62.638869677633" lon="17.984475459189">
        <ele>55.4</ele>
        <time>2018-02-17T13:32:00Z</time>
      </trkpt>
      <trkpt lat="62.638882585759" lon="17.984387281601">
        <ele>55</ele>
        <time>2018-02-17T13:32:01Z</time>
      </trkpt>
      <trkpt lat="62.638890213288" lon="17.984299942203">
        <ele>54.6</ele>
        <time>2018-02-17T13:32:02Z</time>
      </trkpt>
      <trkpt lat="62.638886273795" lon="17.984202376887">
        <ele>54.4</ele>
        <time>2018-02-17T13:32:03Z</time>
      </trkpt>
      <trkpt lat="62.638877388981" lon="17.984121575371">
        <ele>54</ele>
        <time>2018-02-17T13:32:04Z</time>
      </trkpt>
      <trkpt lat="62.638871773108" lon="17.984039432751">
        <ele>53.8</ele>
        <time>2018-02-17T13:32:05Z</time>
      </trkpt>
      <trkpt lat="62.638873365669" lon="17.983942537987">
        <ele>53.8</ele>
        <time>2018-02-17T13:32:06Z</time>
      </trkpt>
      <trkpt lat="62.638877891895" lon="17.983862826118">
        <ele>53.8</ele>
        <time>2018-02-17T13:32:07Z</time>
      </trkpt>
      <trkpt lat="62.638873617126" lon="17.983782611335">
        <ele>53.8</ele>
        <time>2018-02-17T13:32:08Z</time>
      </trkpt>
      <trkpt lat="62.638861714828" lon="17.983688566417">
        <ele>53.8</ele>
        <time>2018-02-17T13:32:09Z</time>
      </trkpt>
      <trkpt lat="62.63885567986" lon="17.983613799869">
        <ele>53.8</ele>
        <time>2018-02-17T13:32:10Z</time>
      </trkpt>
      <trkpt lat="62.638853919661" lon="17.983540877339">
        <ele>53.6</ele>
        <time>2018-02-17T13:32:11Z</time>
      </trkpt>
      <trkpt lat="62.638852578557" lon="17.983467451895">
        <ele>53.8</ele>
        <time>2018-02-17T13:32:12Z</time>
      </trkpt>
      <trkpt lat="62.638847130322" lon="17.983411376984">
        <ele>53.8</ele>
        <time>2018-02-17T13:32:13Z</time>
      </trkpt>
      <trkpt lat="62.638841179173" lon="17.98335555353">
        <ele>53.8</ele>
        <time>2018-02-17T13:32:14Z</time>
      </trkpt>
      <trkpt lat="62.638844448114" lon="17.983303753388">
        <ele>53.8</ele>
        <time>2018-02-17T13:32:15Z</time>
      </trkpt>
      <trkpt lat="62.638851908005" lon="17.983254635454">
        <ele>53.8</ele>
        <time>2018-02-17T13:32:16Z</time>
      </trkpt>
      <trkpt lat="62.63885316529" lon="17.98317031354">
        <ele>54</ele>
        <time>2018-02-17T13:32:17Z</time>
      </trkpt>
      <trkpt lat="62.638848806702" lon="17.983115244457">
        <ele>54</ele>
        <time>2018-02-17T13:32:18Z</time>
      </trkpt>
      <trkpt lat="62.638852746195" lon="17.983051542017">
        <ele>54</ele>
        <time>2018-02-17T13:32:19Z</time>
      </trkpt>
      <trkpt lat="62.638860876638" lon="17.982992030527">
        <ele>54.2</ele>
        <time>2018-02-17T13:32:20Z</time>
      </trkpt>
      <trkpt lat="62.638868671805" lon="17.982926567888">
        <ele>54</ele>
        <time>2018-02-17T13:32:21Z</time>
      </trkpt>
      <trkpt lat="62.638875880239" lon="17.982859009774">
        <ele>54.2</ele>
        <time>2018-02-17T13:32:22Z</time>
      </trkpt>
      <trkpt lat="62.638876215515" lon="17.98279983356">
        <ele>54</ele>
        <time>2018-02-17T13:32:23Z</time>
      </trkpt>
      <trkpt lat="62.638880322646" lon="17.982724564098">
        <ele>54</ele>
        <time>2018-02-17T13:32:24Z</time>
      </trkpt>
      <trkpt lat="62.638884932691" lon="17.982662873314">
        <ele>54.2</ele>
        <time>2018-02-17T13:32:25Z</time>
      </trkpt>
      <trkpt lat="62.638884932691" lon="17.982593974096">
        <ele>54.2</ele>
        <time>2018-02-17T13:32:26Z</time>
      </trkpt>
      <trkpt lat="62.638882418121" lon="17.982521219204">
        <ele>54.2</ele>
        <time>2018-02-17T13:32:27Z</time>
      </trkpt>
      <trkpt lat="62.638889961831" lon="17.982462126809">
        <ele>54.2</ele>
        <time>2018-02-17T13:32:28Z</time>
      </trkpt>
      <trkpt lat="62.638898092274" lon="17.982391802668">
        <ele>54.2</ele>
        <time>2018-02-17T13:32:29Z</time>
      </trkpt>
      <trkpt lat="62.638909407839" lon="17.982321143251">
        <ele>54.2</ele>
        <time>2018-02-17T13:32:30Z</time>
      </trkpt>
      <trkpt lat="62.638922902698" lon="17.9822516573">
        <ele>54</ele>
        <time>2018-02-17T13:32:31Z</time>
      </trkpt>
      <trkpt lat="62.638941678154" lon="17.982187871041">
        <ele>54</ele>
        <time>2018-02-17T13:32:32Z</time>
      </trkpt>
      <trkpt lat="62.638946372018" lon="17.982120815841">
        <ele>54</ele>
        <time>2018-02-17T13:32:33Z</time>
      </trkpt>
      <trkpt lat="62.638963471094" lon="17.982065746758">
        <ele>54.2</ele>
        <time>2018-02-17T13:32:34Z</time>
      </trkpt>
      <trkpt lat="62.63898979026" lon="17.981993746237">
        <ele>54.2</ele>
        <time>2018-02-17T13:32:35Z</time>
      </trkpt>
      <trkpt lat="62.639011499381" lon="17.981928786512">
        <ele>54.2</ele>
        <time>2018-02-17T13:32:36Z</time>
      </trkpt>
      <trkpt lat="62.639035136339" lon="17.981863072416">
        <ele>54.2</ele>
        <time>2018-02-17T13:32:37Z</time>
      </trkpt>
      <trkpt lat="62.639056594003" lon="17.981814625034">
        <ele>54.2</ele>
        <time>2018-02-17T13:32:38Z</time>
      </trkpt>
      <trkpt lat="62.639067490473" lon="17.981715299519">
        <ele>54.2</ele>
        <time>2018-02-17T13:32:39Z</time>
      </trkpt>
      <trkpt lat="62.639073860717" lon="17.981631061424">
        <ele>54</ele>
        <time>2018-02-17T13:32:40Z</time>
      </trkpt>
      <trkpt lat="62.639089283413" lon="17.981553780306">
        <ele>53.8</ele>
        <time>2018-02-17T13:32:41Z</time>
      </trkpt>
      <trkpt lat="62.639090121603" lon="17.981478175568">
        <ele>53.8</ele>
        <time>2018-02-17T13:32:42Z</time>
      </trkpt>
      <trkpt lat="62.639120631719" lon="17.98140676178">
        <ele>53.6</ele>
        <time>2018-02-17T13:32:43Z</time>
      </trkpt>
      <trkpt lat="62.639139658632" lon="17.981330737947">
        <ele>53.4</ele>
        <time>2018-02-17T13:32:44Z</time>
      </trkpt>
      <trkpt lat="62.639169330558" lon="17.981257647779">
        <ele>53.2</ele>
        <time>2018-02-17T13:32:45Z</time>
      </trkpt>
      <trkpt lat="62.639205456547" lon="17.981190592579">
        <ele>53.2</ele>
        <time>2018-02-17T13:32:46Z</time>
      </trkpt>
      <trkpt lat="62.639225070193" lon="17.981134182392">
        <ele>53</ele>
        <time>2018-02-17T13:32:47Z</time>
      </trkpt>
      <trkpt lat="62.639263626933" lon="17.981052375048">
        <ele>52.6</ele>
        <time>2018-02-17T13:32:48Z</time>
      </trkpt>
      <trkpt lat="62.639297992723" lon="17.980997808879">
        <ele>52.6</ele>
        <time>2018-02-17T13:32:49Z</time>
      </trkpt>
      <trkpt lat="62.639329173391" lon="17.980936788647">
        <ele>52.4</ele>
        <time>2018-02-17T13:32:50Z</time>
      </trkpt>
      <trkpt lat="62.639353313263" lon="17.980868224705">
        <ele>52.2</ele>
        <time>2018-02-17T13:32:51Z</time>
      </trkpt>
      <trkpt lat="62.639369406511" lon="17.980798990211">
        <ele>52.2</ele>
        <time>2018-02-17T13:32:52Z</time>
      </trkpt>
      <trkpt lat="62.639405113405" lon="17.980731851192">
        <ele>52</ele>
        <time>2018-02-17T13:32:53Z</time>
      </trkpt>
      <trkpt lat="62.6394306782" lon="17.980643757423">
        <ele>52</ele>
        <time>2018-02-17T13:32:54Z</time>
      </trkpt>
      <trkpt lat="62.639455991538" lon="17.980565973391">
        <ele>51.8</ele>
        <time>2018-02-17T13:32:55Z</time>
      </trkpt>
      <trkpt lat="62.639472755338" lon="17.980491290662">
        <ele>51.4</ele>
        <time>2018-02-17T13:32:56Z</time>
      </trkpt>
      <trkpt lat="62.639481975428" lon="17.980417110847">
        <ele>51.2</ele>
        <time>2018-02-17T13:32:57Z</time>
      </trkpt>
      <trkpt lat="62.639505193291" lon="17.980317450056">
        <ele>50.6</ele>
        <time>2018-02-17T13:32:58Z</time>
      </trkpt>
      <trkpt lat="62.6395144972" lon="17.980232038495">
        <ele>50.4</ele>
        <time>2018-02-17T13:32:59Z</time>
      </trkpt>
      <trkpt lat="62.639524220204" lon="17.980146375477">
        <ele>50.2</ele>
        <time>2018-02-17T13:33:00Z</time>
      </trkpt>
      <trkpt lat="62.639537044511" lon="17.98006062864">
        <ele>50</ele>
        <time>2018-02-17T13:33:01Z</time>
      </trkpt>
      <trkpt lat="62.639545761687" lon="17.979978569839">
        <ele>50.2</ele>
        <time>2018-02-17T13:33:02Z</time>
      </trkpt>
      <trkpt lat="62.639549784999" lon="17.979901623997">
        <ele>50</ele>
        <time>2018-02-17T13:33:03Z</time>
      </trkpt>
      <trkpt lat="62.639547605705" lon="17.979828701467">
        <ele>49.8</ele>
        <time>2018-02-17T13:33:04Z</time>
      </trkpt>
      <trkpt lat="62.639552048112" lon="17.979756030394">
        <ele>49.6</ele>
        <time>2018-02-17T13:33:05Z</time>
      </trkpt>
      <trkpt lat="62.639558418356" lon="17.979682772588">
        <ele>49.4</ele>
        <time>2018-02-17T13:33:06Z</time>
      </trkpt>
      <trkpt lat="62.639562441668" lon="17.979621584718">
        <ele>49.4</ele>
        <time>2018-02-17T13:33:07Z</time>
      </trkpt>
      <trkpt lat="62.639586078626" lon="17.979567940558">
        <ele>49.6</ele>
        <time>2018-02-17T13:33:08Z</time>
      </trkpt>
      <trkpt lat="62.639611056688" lon="17.979492838734">
        <ele>49.6</ele>
        <time>2018-02-17T13:33:09Z</time>
      </trkpt>
      <trkpt lat="62.63963519656" lon="17.979444978085">
        <ele>49.6</ele>
        <time>2018-02-17T13:33:10Z</time>
      </trkpt>
      <trkpt lat="62.639657743871" lon="17.97938756207">
        <ele>49.8</ele>
        <time>2018-02-17T13:33:11Z</time>
      </trkpt>
      <trkpt lat="62.639674675309" lon="17.979326960933">
        <ele>49.8</ele>
        <time>2018-02-17T13:33:12Z</time>
      </trkpt>
      <trkpt lat="62.639708538185" lon="17.979276753352">
        <ele>49.8</ele>
        <time>2018-02-17T13:33:13Z</time>
      </trkpt>
      <trkpt lat="62.639736701369" lon="17.979211961265">
        <ele>49.8</ele>
        <time>2018-02-17T13:33:14Z</time>
      </trkpt>
      <trkpt lat="62.639765786562" lon="17.979145408979">
        <ele>49.6</ele>
        <time>2018-02-17T13:33:15Z</time>
      </trkpt>
      <trkpt lat="62.63978942352" lon="17.97908581367">
        <ele>49.4</ele>
        <time>2018-02-17T13:33:16Z</time>
      </trkpt>
      <trkpt lat="62.639796464316" lon="17.979036611917">
        <ele>49</ele>
        <time>2018-02-17T13:33:17Z</time>
      </trkpt>
      <trkpt lat="62.639831249201" lon="17.978982883938">
        <ele>48.6</ele>
        <time>2018-02-17T13:33:18Z</time>
      </trkpt>
      <trkpt lat="62.639860837308" lon="17.978927647217">
        <ele>48.4</ele>
        <time>2018-02-17T13:33:19Z</time>
      </trkpt>
      <trkpt lat="62.639894784003" lon="17.978877271998">
        <ele>48.2</ele>
        <time>2018-02-17T13:33:20Z</time>
      </trkpt>
      <trkpt lat="62.639928227784" lon="17.978832847928">
        <ele>48</ele>
        <time>2018-02-17T13:33:21Z</time>
      </trkpt>
      <trkpt lat="62.639958486443" lon="17.978793788274">
        <ele>48.2</ele>
        <time>2018-02-17T13:33:22Z</time>
      </trkpt>
      <trkpt lat="62.639984554152" lon="17.978767133832">
        <ele>48.2</ele>
        <time>2018-02-17T13:33:23Z</time>
      </trkpt>
      <trkpt lat="62.640040629063" lon="17.978700330089">
        <ele>48.2</ele>
        <time>2018-02-17T13:33:24Z</time>
      </trkpt>
      <trkpt lat="62.640075581586" lon="17.978654397277">
        <ele>48</ele>
        <time>2018-02-17T13:33:25Z</time>
      </trkpt>
      <trkpt lat="62.640114305964" lon="17.978597065081">
        <ele>47.8</ele>
        <time>2018-02-17T13:33:26Z</time>
      </trkpt>
      <trkpt lat="62.640151353962" lon="17.978548785337">
        <ele>47.6</ele>
        <time>2018-02-17T13:33:27Z</time>
      </trkpt>
      <trkpt lat="62.640188653417" lon="17.978500337955">
        <ele>47.4</ele>
        <time>2018-02-17T13:33:28Z</time>
      </trkpt>
      <trkpt lat="62.640229221813" lon="17.978441999931">
        <ele>47</ele>
        <time>2018-02-17T13:33:29Z</time>
      </trkpt>
      <trkpt lat="62.640269371114" lon="17.978391121798">
        <ele>46.8</ele>
        <time>2018-02-17T13:33:30Z</time>
      </trkpt>
      <trkpt lat="62.640311029157" lon="17.978334879249">
        <ele>46.2</ele>
        <time>2018-02-17T13:33:31Z</time>
      </trkpt>
      <trkpt lat="62.640348747707" lon="17.978287353876">
        <ele>46.2</ele>
        <time>2018-02-17T13:33:32Z</time>
      </trkpt>
      <trkpt lat="62.6403862148" lon="17.978225160178">
        <ele>46.2</ele>
        <time>2018-02-17T13:33:33Z</time>
      </trkpt>
      <trkpt lat="62.640417563106" lon="17.978180317013">
        <ele>46</ele>
        <time>2018-02-17T13:33:34Z</time>
      </trkpt>
      <trkpt lat="62.640451174525" lon="17.978122817179">
        <ele>45.8</ele>
        <time>2018-02-17T13:33:35Z</time>
      </trkpt>
      <trkpt lat="62.640490066541" lon="17.978074621254">
        <ele>45.8</ele>
        <time>2018-02-17T13:33:36Z</time>
      </trkpt>
      <trkpt lat="62.640526443987" lon="17.978032041202">
        <ele>45.8</ele>
        <time>2018-02-17T13:33:37Z</time>
      </trkpt>
      <trkpt lat="62.640561312691" lon="17.977974038454">
        <ele>45.8</ele>
        <time>2018-02-17T13:33:38Z</time>
      </trkpt>
      <trkpt lat="62.640604060381" lon="17.977899858639">
        <ele>45.4</ele>
        <time>2018-02-17T13:33:39Z</time>
      </trkpt>
      <trkpt lat="62.640637839438" lon="17.977848477592">
        <ele>45</ele>
        <time>2018-02-17T13:33:40Z</time>
      </trkpt>
      <trkpt lat="62.640673881608" lon="17.977779494555">
        <ele>44.8</ele>
        <time>2018-02-17T13:33:41Z</time>
      </trkpt>
      <trkpt lat="62.640708247398" lon="17.977727275318">
        <ele>44.4</ele>
        <time>2018-02-17T13:33:42Z</time>
      </trkpt>
      <trkpt lat="62.640746133586" lon="17.977656783539">
        <ele>43.8</ele>
        <time>2018-02-17T13:33:43Z</time>
      </trkpt>
      <trkpt lat="62.640782175756" lon="17.977593248737">
        <ele>43.4</ele>
        <time>2018-02-17T13:33:44Z</time>
      </trkpt>
      <trkpt lat="62.640814026976" lon="17.977540023672">
        <ele>43</ele>
        <time>2018-02-17T13:33:45Z</time>
      </trkpt>
      <trkpt lat="62.640844872368" lon="17.977498533267">
        <ele>42.8</ele>
        <time>2018-02-17T13:33:46Z</time>
      </trkpt>
      <trkpt lat="62.640881501271" lon="17.977450756437">
        <ele>42.4</ele>
        <time>2018-02-17T13:33:47Z</time>
      </trkpt>
      <trkpt lat="62.640913184853" lon="17.977384958522">
        <ele>42.2</ele>
        <time>2018-02-17T13:33:48Z</time>
      </trkpt>
      <trkpt lat="62.640945455168" lon="17.977330979086">
        <ele>42.2</ele>
        <time>2018-02-17T13:33:49Z</time>
      </trkpt>
      <trkpt lat="62.640986107383" lon="17.977253697968">
        <ele>42</ele>
        <time>2018-02-17T13:33:50Z</time>
      </trkpt>
      <trkpt lat="62.641017874784" lon="17.977196114315">
        <ele>42</ele>
        <time>2018-02-17T13:33:51Z</time>
      </trkpt>
      <trkpt lat="62.641047127615" lon="17.977141799603">
        <ele>41.8</ele>
        <time>2018-02-17T13:33:52Z</time>
      </trkpt>
      <trkpt lat="62.641072105677" lon="17.977088323081">
        <ele>41.6</ele>
        <time>2018-02-17T13:33:53Z</time>
      </trkpt>
      <trkpt lat="62.641102280517" lon="17.977020681148">
        <ele>41.4</ele>
        <time>2018-02-17T13:33:54Z</time>
      </trkpt>
      <trkpt lat="62.641130024606" lon="17.976969300101">
        <ele>41</ele>
        <time>2018-02-17T13:33:55Z</time>
      </trkpt>
      <trkpt lat="62.641161708188" lon="17.976921104176">
        <ele>40.8</ele>
        <time>2018-02-17T13:33:56Z</time>
      </trkpt>
      <trkpt lat="62.641194146141" lon="17.976886822205">
        <ele>40.8</ele>
        <time>2018-02-17T13:33:57Z</time>
      </trkpt>
      <trkpt lat="62.641226332637" lon="17.976861927962">
        <ele>40.4</ele>
        <time>2018-02-17T13:33:58Z</time>
      </trkpt>
      <trkpt lat="62.641272936001" lon="17.976827981267">
        <ele>40.2</ele>
        <time>2018-02-17T13:33:59Z</time>
      </trkpt>
      <trkpt lat="62.641315348415" lon="17.976805433956">
        <ele>39.8</ele>
        <time>2018-02-17T13:34:00Z</time>
      </trkpt>
      <trkpt lat="62.641359521028" lon="17.976782551369">
        <ele>39.4</ele>
        <time>2018-02-17T13:34:01Z</time>
      </trkpt>
      <trkpt lat="62.641401514347" lon="17.976764446465">
        <ele>39.2</ele>
        <time>2018-02-17T13:34:02Z</time>
      </trkpt>
      <trkpt lat="62.641442082743" lon="17.976731757055">
        <ele>38.4</ele>
        <time>2018-02-17T13:34:03Z</time>
      </trkpt>
      <trkpt lat="62.641480555664" lon="17.976704934975">
        <ele>38.2</ele>
        <time>2018-02-17T13:34:04Z</time>
      </trkpt>
      <trkpt lat="62.641527997218" lon="17.976666964968">
        <ele>37.4</ele>
        <time>2018-02-17T13:34:05Z</time>
      </trkpt>
      <trkpt lat="62.641572924202" lon="17.976630084608">
        <ele>37</ele>
        <time>2018-02-17T13:34:06Z</time>
      </trkpt>
      <trkpt lat="62.641614498426" lon="17.976596137913">
        <ele>36.6</ele>
        <time>2018-02-17T13:34:07Z</time>
      </trkpt>
      <trkpt lat="62.641650289139" lon="17.976560179562">
        <ele>36.2</ele>
        <time>2018-02-17T13:34:08Z</time>
      </trkpt>
      <trkpt lat="62.641705944955" lon="17.976505781031">
        <ele>35.6</ele>
        <time>2018-02-17T13:34:09Z</time>
      </trkpt>
      <trkpt lat="62.641754057061" lon="17.976445347532">
        <ele>35.2</ele>
        <time>2018-02-17T13:34:10Z</time>
      </trkpt>
      <trkpt lat="62.641804683737" lon="17.976380303988">
        <ele>35</ele>
        <time>2018-02-17T13:34:11Z</time>
      </trkpt>
      <trkpt lat="62.641850616549" lon="17.97632230124">
        <ele>34.6</ele>
        <time>2018-02-17T13:34:12Z</time>
      </trkpt>
      <trkpt lat="62.641898980112" lon="17.976261364827">
        <ele>34.2</ele>
        <time>2018-02-17T13:34:13Z</time>
      </trkpt>
      <trkpt lat="62.641942314535" lon="17.976198165301">
        <ele>34</ele>
        <time>2018-02-17T13:34:14Z</time>
      </trkpt>
      <trkpt lat="62.641982882931" lon="17.976132283567">
        <ele>33.4</ele>
        <time>2018-02-17T13:34:15Z</time>
      </trkpt>
      <trkpt lat="62.642021020576" lon="17.976066234195">
        <ele>33</ele>
        <time>2018-02-17T13:34:16Z</time>
      </trkpt>
      <trkpt lat="62.642058236212" lon="17.97600211266">
        <ele>32.8</ele>
        <time>2018-02-17T13:34:17Z</time>
      </trkpt>
      <trkpt lat="62.6421045043" lon="17.97594343936">
        <ele>32.6</ele>
        <time>2018-02-17T13:34:18Z</time>
      </trkpt>
      <trkpt lat="62.642145240334" lon="17.975885017517">
        <ele>32.4</ele>
        <time>2018-02-17T13:34:19Z</time>
      </trkpt>
      <trkpt lat="62.642184467626" lon="17.975832295366">
        <ele>32</ele>
        <time>2018-02-17T13:34:20Z</time>
      </trkpt>
      <trkpt lat="62.642228975515" lon="17.975775968998">
        <ele>31.6</ele>
        <time>2018-02-17T13:34:21Z</time>
      </trkpt>
      <trkpt lat="62.642274153956" lon="17.975720648458">
        <ele>31.2</ele>
        <time>2018-02-17T13:34:22Z</time>
      </trkpt>
      <trkpt lat="62.642314973809" lon="17.975670021782">
        <ele>30.8</ele>
        <time>2018-02-17T13:34:23Z</time>
      </trkpt>
      <trkpt lat="62.642371551634" lon="17.975585867506">
        <ele>30</ele>
        <time>2018-02-17T13:34:24Z</time>
      </trkpt>
      <trkpt lat="62.642416059523" lon="17.975503473429">
        <ele>29.4</ele>
        <time>2018-02-17T13:34:25Z</time>
      </trkpt>
      <trkpt lat="62.642459813041" lon="17.97541118871">
        <ele>29.2</ele>
        <time>2018-02-17T13:34:26Z</time>
      </trkpt>
      <trkpt lat="62.642502393093" lon="17.975325190416">
        <ele>29</ele>
        <time>2018-02-17T13:34:27Z</time>
      </trkpt>
      <trkpt lat="62.642522844929" lon="17.975232318964">
        <ele>28.4</ele>
        <time>2018-02-17T13:34:28Z</time>
      </trkpt>
      <trkpt lat="62.642548912638" lon="17.975143135548">
        <ele>27.6</ele>
        <time>2018-02-17T13:34:29Z</time>
      </trkpt>
      <trkpt lat="62.642568107189" lon="17.975063507498">
        <ele>27.2</ele>
        <time>2018-02-17T13:34:30Z</time>
      </trkpt>
      <trkpt lat="62.642600377504" lon="17.974957057368">
        <ele>26.8</ele>
        <time>2018-02-17T13:34:31Z</time>
      </trkpt>
      <trkpt lat="62.642635665303" lon="17.97485127779">
        <ele>26.4</ele>
        <time>2018-02-17T13:34:32Z</time>
      </trkpt>
      <trkpt lat="62.642646142678" lon="17.974769218989">
        <ele>26.2</ele>
        <time>2018-02-17T13:34:33Z</time>
      </trkpt>
      <trkpt lat="62.642672294206" lon="17.974676515175">
        <ele>26</ele>
        <time>2018-02-17T13:34:34Z</time>
      </trkpt>
      <trkpt lat="62.64269710463" lon="17.974575178004">
        <ele>25.6</ele>
        <time>2018-02-17T13:34:35Z</time>
      </trkpt>
      <trkpt lat="62.642711689136" lon="17.974483144742">
        <ele>25.2</ele>
        <time>2018-02-17T13:34:36Z</time>
      </trkpt>
      <trkpt lat="62.642727614746" lon="17.97439530243">
        <ele>25.2</ele>
        <time>2018-02-17T13:34:37Z</time>
      </trkpt>
      <trkpt lat="62.642737756845" lon="17.97432405628">
        <ele>25.2</ele>
        <time>2018-02-17T13:34:38Z</time>
      </trkpt>
      <trkpt lat="62.642755945568" lon="17.974215678313">
        <ele>24.8</ele>
        <time>2018-02-17T13:34:39Z</time>
      </trkpt>
      <trkpt lat="62.642767931685" lon="17.974117693902">
        <ele>24.8</ele>
        <time>2018-02-17T13:34:40Z</time>
      </trkpt>
      <trkpt lat="62.642762567269" lon="17.974016272912">
        <ele>24.8</ele>
        <time>2018-02-17T13:34:41Z</time>
      </trkpt>
      <trkpt lat="62.642772793187" lon="17.973927760048">
        <ele>24.6</ele>
        <time>2018-02-17T13:34:42Z</time>
      </trkpt>
      <trkpt lat="62.642770446255" lon="17.973843270496">
        <ele>24.4</ele>
        <time>2018-02-17T13:34:43Z</time>
      </trkpt>
      <trkpt lat="62.642786288046" lon="17.973755512003">
        <ele>24.2</ele>
        <time>2018-02-17T13:34:44Z</time>
      </trkpt>
      <trkpt lat="62.642801962199" lon="17.973667921148">
        <ele>24</ele>
        <time>2018-02-17T13:34:45Z</time>
      </trkpt>
      <trkpt lat="62.642811601384" lon="17.973588376917">
        <ele>23.6</ele>
        <time>2018-02-17T13:34:46Z</time>
      </trkpt>
      <trkpt lat="62.642822749311" lon="17.973515705844">
        <ele>23.6</ele>
        <time>2018-02-17T13:34:47Z</time>
      </trkpt>
      <trkpt lat="62.64282199494" lon="17.973399029796">
        <ele>23.2</ele>
        <time>2018-02-17T13:34:48Z</time>
      </trkpt>
      <trkpt lat="62.642826772623" lon="17.973333650976">
        <ele>23</ele>
        <time>2018-02-17T13:34:49Z</time>
      </trkpt>
      <trkpt lat="62.642832472315" lon="17.973268272156">
        <ele>23.2</ele>
        <time>2018-02-17T13:34:50Z</time>
      </trkpt>
      <trkpt lat="62.642833478143" lon="17.973202390422">
        <ele>23.2</ele>
        <time>2018-02-17T13:34:51Z</time>
      </trkpt>
      <trkpt lat="62.642839010197" lon="17.973145225864">
        <ele>23</ele>
        <time>2018-02-17T13:34:52Z</time>
      </trkpt>
      <trkpt lat="62.642845212803" lon="17.973107926409">
        <ele>23</ele>
        <time>2018-02-17T13:34:53Z</time>
      </trkpt>
      <trkpt lat="62.642830795935" lon="17.973028633635">
        <ele>23</ele>
        <time>2018-02-17T13:34:54Z</time>
      </trkpt>
      <trkpt lat="62.642828449003" lon="17.972972726362">
        <ele>23</ele>
        <time>2018-02-17T13:34:55Z</time>
      </trkpt>
      <trkpt lat="62.642825263881" lon="17.97291086794">
        <ele>23</ele>
        <time>2018-02-17T13:34:56Z</time>
      </trkpt>
      <trkpt lat="62.642826604985" lon="17.972848758061">
        <ele>23</ele>
        <time>2018-02-17T13:34:57Z</time>
      </trkpt>
      <trkpt lat="62.642811517565" lon="17.972804836905">
        <ele>23.2</ele>
        <time>2018-02-17T13:34:58Z</time>
      </trkpt>
      <trkpt lat="62.642800956371" lon="17.972757646808">
        <ele>23.4</ele>
        <time>2018-02-17T13:34:59Z</time>
      </trkpt>
      <trkpt lat="62.642786204227" lon="17.972712468367">
        <ele>23.4</ele>
        <time>2018-02-17T13:35:00Z</time>
      </trkpt>
      <trkpt lat="62.642775559214" lon="17.972675839464">
        <ele>23.4</ele>
        <time>2018-02-17T13:35:01Z</time>
      </trkpt>
      <trkpt lat="62.642776062128" lon="17.97264683809">
        <ele>23.4</ele>
        <time>2018-02-17T13:35:02Z</time>
      </trkpt>
      <trkpt lat="62.64275745431" lon="17.972577100682">
        <ele>23.6</ele>
        <time>2018-02-17T13:35:03Z</time>
      </trkpt>
      <trkpt lat="62.64274571965" lon="17.972525719635">
        <ele>23.6</ele>
        <time>2018-02-17T13:35:04Z</time>
      </trkpt>
      <trkpt lat="62.642734068809" lon="17.972470734371">
        <ele>23.6</ele>
        <time>2018-02-17T13:35:05Z</time>
      </trkpt>
      <trkpt lat="62.642727866203" lon="17.97242220317">
        <ele>23.6</ele>
        <time>2018-02-17T13:35:06Z</time>
      </trkpt>
      <trkpt lat="62.642727782384" lon="17.972381802412">
        <ele>23.6</ele>
        <time>2018-02-17T13:35:07Z</time>
      </trkpt>
      <trkpt lat="62.642728369117" lon="17.972351459934">
        <ele>23.8</ele>
        <time>2018-02-17T13:35:08Z</time>
      </trkpt>
      <trkpt lat="62.642712778783" lon="17.972280046146">
        <ele>24</ele>
        <time>2018-02-17T13:35:09Z</time>
      </trkpt>
      <trkpt lat="62.64270381015" lon="17.972229084194">
        <ele>24</ele>
        <time>2018-02-17T13:35:10Z</time>
      </trkpt>
      <trkpt lat="62.642687800721" lon="17.972176948776">
        <ele>24.2</ele>
        <time>2018-02-17T13:35:11Z</time>
      </trkpt>
      <trkpt lat="62.642670785464" lon="17.972116347639">
        <ele>24.4</ele>
        <time>2018-02-17T13:35:12Z</time>
      </trkpt>
      <trkpt lat="62.642659553718" lon="17.972059015443">
        <ele>24.4</ele>
        <time>2018-02-17T13:35:13Z</time>
      </trkpt>
      <trkpt lat="62.642650836542" lon="17.972000928876">
        <ele>24.4</ele>
        <time>2018-02-17T13:35:14Z</time>
      </trkpt>
      <trkpt lat="62.642641281176" lon="17.971945440698">
        <ele>24.4</ele>
        <time>2018-02-17T13:35:15Z</time>
      </trkpt>
      <trkpt lat="62.642634491837" lon="17.971901519542">
        <ele>24.4</ele>
        <time>2018-02-17T13:35:16Z</time>
      </trkpt>
      <trkpt lat="62.642640275348" lon="17.971862040793">
        <ele>24.4</ele>
        <time>2018-02-17T13:35:17Z</time>
      </trkpt>
      <trkpt lat="62.642663074116" lon="17.97182205913">
        <ele>24.2</ele>
        <time>2018-02-17T13:35:18Z</time>
      </trkpt>
      <trkpt lat="62.64268704635" lon="17.971810659746">
        <ele>24.4</ele>
        <time>2018-02-17T13:35:19Z</time>
      </trkpt>
      <trkpt lat="62.642713533154" lon="17.971827172089">
        <ele>24.4</ele>
        <time>2018-02-17T13:35:20Z</time>
      </trkpt>
      <trkpt lat="62.642734990818" lon="17.971868494856">
        <ele>24.4</ele>
        <time>2018-02-17T13:35:21Z</time>
      </trkpt>
      <trkpt lat="62.642753430998" lon="17.971922474292">
        <ele>24.4</ele>
        <time>2018-02-17T13:35:22Z</time>
      </trkpt>
      <trkpt lat="62.642770110979" lon="17.971976369909">
        <ele>24.4</ele>
        <time>2018-02-17T13:35:23Z</time>
      </trkpt>
      <trkpt lat="62.642787293874" lon="17.972035629942">
        <ele>24.4</ele>
        <time>2018-02-17T13:35:24Z</time>
      </trkpt>
      <trkpt lat="62.64280523114" lon="17.972084580238">
        <ele>24.4</ele>
        <time>2018-02-17T13:35:25Z</time>
      </trkpt>
      <trkpt lat="62.642824006596" lon="17.97213889495">
        <ele>24</ele>
        <time>2018-02-17T13:35:26Z</time>
      </trkpt>
      <trkpt lat="62.64283959693" lon="17.972197652069">
        <ele>23.8</ele>
        <time>2018-02-17T13:35:27Z</time>
      </trkpt>
      <trkpt lat="62.6428588753" lon="17.9722436687">
        <ele>23.8</ele>
        <time>2018-02-17T13:35:28Z</time>
      </trkpt>
      <trkpt lat="62.642884188638" lon="17.972319189619">
        <ele>23.4</ele>
        <time>2018-02-17T13:35:29Z</time>
      </trkpt>
      <trkpt lat="62.642903969922" lon="17.972376354177">
        <ele>23.4</ele>
        <time>2018-02-17T13:35:30Z</time>
      </trkpt>
      <trkpt lat="62.642916626591" lon="17.972438799332">
        <ele>23.4</ele>
        <time>2018-02-17T13:35:31Z</time>
      </trkpt>
      <trkpt lat="62.642937413703" lon="17.972497724089">
        <ele>23.4</ele>
        <time>2018-02-17T13:35:32Z</time>
      </trkpt>
      <trkpt lat="62.642960128652" lon="17.972562599995">
        <ele>23.2</ele>
        <time>2018-02-17T13:35:33Z</time>
      </trkpt>
      <trkpt lat="62.64298041285" lon="17.972641892769">
        <ele>23.2</ele>
        <time>2018-02-17T13:35:34Z</time>
      </trkpt>
      <trkpt lat="62.642980915764" lon="17.972719676801">
        <ele>23</ele>
        <time>2018-02-17T13:35:35Z</time>
      </trkpt>
      <trkpt lat="62.642990387311" lon="17.972798885756">
        <ele>22.8</ele>
        <time>2018-02-17T13:35:36Z</time>
      </trkpt>
      <trkpt lat="62.643000697048" lon="17.97287398758">
        <ele>22.8</ele>
        <time>2018-02-17T13:35:37Z</time>
      </trkpt>
      <trkpt lat="62.643015449192" lon="17.972957555123">
        <ele>22.8</ele>
        <time>2018-02-17T13:35:38Z</time>
      </trkpt>
      <trkpt lat="62.643013353717" lon="17.973037183173">
        <ele>22.8</ele>
        <time>2018-02-17T13:35:39Z</time>
      </trkpt>
      <trkpt lat="62.643008156939" lon="17.973104908925">
        <ele>22.6</ele>
        <time>2018-02-17T13:35:40Z</time>
      </trkpt>
      <trkpt lat="62.643007905482" lon="17.973196523092">
        <ele>22.6</ele>
        <time>2018-02-17T13:35:41Z</time>
      </trkpt>
      <trkpt lat="62.643017209391" lon="17.973258800609">
        <ele>22.6</ele>
        <time>2018-02-17T13:35:42Z</time>
      </trkpt>
      <trkpt lat="62.643014611002" lon="17.973342954885">
        <ele>22.4</ele>
        <time>2018-02-17T13:35:43Z</time>
      </trkpt>
      <trkpt lat="62.64301896959" lon="17.973416967062">
        <ele>22.2</ele>
        <time>2018-02-17T13:35:44Z</time>
      </trkpt>
      <trkpt lat="62.643023328178" lon="17.973497098026">
        <ele>22.2</ele>
        <time>2018-02-17T13:35:45Z</time>
      </trkpt>
      <trkpt lat="62.643027770585" lon="17.973569517642">
        <ele>22.2</ele>
        <time>2018-02-17T13:35:46Z</time>
      </trkpt>
      <trkpt lat="62.643025004558" lon="17.973619306128">
        <ele>22</ele>
        <time>2018-02-17T13:35:47Z</time>
      </trkpt>
      <trkpt lat="62.643023244359" lon="17.973706645526">
        <ele>22</ele>
        <time>2018-02-17T13:35:48Z</time>
      </trkpt>
      <trkpt lat="62.643026597119" lon="17.973769425957">
        <ele>21.8</ele>
        <time>2018-02-17T13:35:49Z</time>
      </trkpt>
      <trkpt lat="62.643029363146" lon="17.973835642967">
        <ele>21.6</ele>
        <time>2018-02-17T13:35:50Z</time>
      </trkpt>
      <trkpt lat="62.64302986606" lon="17.973902027615">
        <ele>21.6</ele>
        <time>2018-02-17T13:35:51Z</time>
      </trkpt>
      <trkpt lat="62.64303238063" lon="17.973961706743">
        <ele>21.6</ele>
        <time>2018-02-17T13:35:52Z</time>
      </trkpt>
      <trkpt lat="62.643030033698" lon="17.974023648984">
        <ele>21.6</ele>
        <time>2018-02-17T13:35:53Z</time>
      </trkpt>
      <trkpt lat="62.643025591291" lon="17.974095481867">
        <ele>21.6</ele>
        <time>2018-02-17T13:35:54Z</time>
      </trkpt>
      <trkpt lat="62.643024082549" lon="17.974163039981">
        <ele>21.6</ele>
        <time>2018-02-17T13:35:55Z</time>
      </trkpt>
      <trkpt lat="62.643025339834" lon="17.974236549244">
        <ele>21.6</ele>
        <time>2018-02-17T13:35:56Z</time>
      </trkpt>
      <trkpt lat="62.643028860232" lon="17.974304945548">
        <ele>21.6</ele>
        <time>2018-02-17T13:35:57Z</time>
      </trkpt>
      <trkpt lat="62.643014527183" lon="17.974363115934">
        <ele>21.6</ele>
        <time>2018-02-17T13:35:58Z</time>
      </trkpt>
      <trkpt lat="62.643010252414" lon="17.9744313446">
        <ele>21.6</ele>
        <time>2018-02-17T13:35:59Z</time>
      </trkpt>
      <trkpt lat="62.643007151111" lon="17.974495717592">
        <ele>21.6</ele>
        <time>2018-02-17T13:36:00Z</time>
      </trkpt>
      <trkpt lat="62.643002792523" lon="17.974564281534">
        <ele>21.6</ele>
        <time>2018-02-17T13:36:01Z</time>
      </trkpt>
      <trkpt lat="62.643000697048" lon="17.974626475232">
        <ele>21.4</ele>
        <time>2018-02-17T13:36:02Z</time>
      </trkpt>
      <trkpt lat="62.642997679564" lon="17.974690848224">
        <ele>21.6</ele>
        <time>2018-02-17T13:36:03Z</time>
      </trkpt>
      <trkpt lat="62.642996170822" lon="17.974749186248">
        <ele>21.6</ele>
        <time>2018-02-17T13:36:04Z</time>
      </trkpt>
      <trkpt lat="62.642995164994" lon="17.974818756018">
        <ele>21.6</ele>
        <time>2018-02-17T13:36:05Z</time>
      </trkpt>
      <trkpt lat="62.642996422279" lon="17.974889499254">
        <ele>21.6</ele>
        <time>2018-02-17T13:36:06Z</time>
      </trkpt>
      <trkpt lat="62.643001535238" lon="17.974951441495">
        <ele>21.6</ele>
        <time>2018-02-17T13:36:07Z</time>
      </trkpt>
      <trkpt lat="62.642994159166" lon="17.975028219699">
        <ele>21.6</ele>
        <time>2018-02-17T13:36:08Z</time>
      </trkpt>
      <trkpt lat="62.642991057863" lon="17.975092089777">
        <ele>21.6</ele>
        <time>2018-02-17T13:36:09Z</time>
      </trkpt>
      <trkpt lat="62.642989884397" lon="17.975144895747">
        <ele>21.6</ele>
        <time>2018-02-17T13:36:10Z</time>
      </trkpt>
      <trkpt lat="62.642989884397" lon="17.97520667035">
        <ele>21.6</ele>
        <time>2018-02-17T13:36:11Z</time>
      </trkpt>
      <trkpt lat="62.642992901881" lon="17.975262158528">
        <ele>21.6</ele>
        <time>2018-02-17T13:36:12Z</time>
      </trkpt>
      <trkpt lat="62.642973288235" lon="17.975324687502">
        <ele>21.6</ele>
        <time>2018-02-17T13:36:13Z</time>
      </trkpt>
      <trkpt lat="62.642965744525" lon="17.975368021925">
        <ele>21.6</ele>
        <time>2018-02-17T13:36:14Z</time>
      </trkpt>
      <trkpt lat="62.642962978498" lon="17.975403980276">
        <ele>21.6</ele>
        <time>2018-02-17T13:36:15Z</time>
      </trkpt>
      <trkpt lat="62.642948226354" lon="17.975434071297">
        <ele>21.6</ele>
        <time>2018-02-17T13:36:16Z</time>
      </trkpt>
      <trkpt lat="62.642937413703" lon="17.97547153839">
        <ele>21.4</ele>
        <time>2018-02-17T13:36:17Z</time>
      </trkpt>
      <trkpt lat="62.642927271604" lon="17.975532223346">
        <ele>21.6</ele>
        <time>2018-02-17T13:36:18Z</time>
      </trkpt>
      <trkpt lat="62.642919644075" lon="17.975566924412">
        <ele>21.8</ele>
        <time>2018-02-17T13:36:19Z</time>
      </trkpt>
      <trkpt lat="62.642910591623" lon="17.975612773405">
        <ele>21.8</ele>
        <time>2018-02-17T13:36:20Z</time>
      </trkpt>
      <trkpt lat="62.642905730121" lon="17.97566096933">
        <ele>22</ele>
        <time>2018-02-17T13:36:21Z</time>
      </trkpt>
      <trkpt lat="62.642906903587" lon="17.975702208278">
        <ele>22</ele>
        <time>2018-02-17T13:36:22Z</time>
      </trkpt>
      <trkpt lat="62.642897683497" lon="17.975785524364">
        <ele>22.2</ele>
        <time>2018-02-17T13:36:23Z</time>
      </trkpt>
      <trkpt lat="62.642893157271" lon="17.975851825193">
        <ele>22.2</ele>
        <time>2018-02-17T13:36:24Z</time>
      </trkpt>
      <trkpt lat="62.642890475063" lon="17.975911671959">
        <ele>22.2</ele>
        <time>2018-02-17T13:36:25Z</time>
      </trkpt>
      <trkpt lat="62.642888379588" lon="17.975973195105">
        <ele>22.2</ele>
        <time>2018-02-17T13:36:26Z</time>
      </trkpt>
      <trkpt lat="62.642888379588" lon="17.976030694939">
        <ele>22.2</ele>
        <time>2018-02-17T13:36:27Z</time>
      </trkpt>
      <trkpt lat="62.642890894158" lon="17.976095235569">
        <ele>22.4</ele>
        <time>2018-02-17T13:36:28Z</time>
      </trkpt>
      <trkpt lat="62.64287815367" lon="17.976169080108">
        <ele>22.2</ele>
        <time>2018-02-17T13:36:29Z</time>
      </trkpt>
      <trkpt lat="62.642870190865" lon="17.976238230783">
        <ele>22.4</ele>
        <time>2018-02-17T13:36:30Z</time>
      </trkpt>
      <trkpt lat="62.642863820621" lon="17.976293467504">
        <ele>22.4</ele>
        <time>2018-02-17T13:36:31Z</time>
      </trkpt>
      <trkpt lat="62.642863317707" lon="17.976341244334">
        <ele>22.4</ele>
        <time>2018-02-17T13:36:32Z</time>
      </trkpt>
      <trkpt lat="62.642860635499" lon="17.976408718629">
        <ele>22.4</ele>
        <time>2018-02-17T13:36:33Z</time>
      </trkpt>
      <trkpt lat="62.642860384042" lon="17.976454483803">
        <ele>22.4</ele>
        <time>2018-02-17T13:36:34Z</time>
      </trkpt>
      <trkpt lat="62.64285971349" lon="17.976522377193">
        <ele>22.4</ele>
        <time>2018-02-17T13:36:35Z</time>
      </trkpt>
      <trkpt lat="62.642859462033" lon="17.976570656937">
        <ele>22.6</ele>
        <time>2018-02-17T13:36:36Z</time>
      </trkpt>
      <trkpt lat="62.642861808965" lon="17.976613404627">
        <ele>22.6</ele>
        <time>2018-02-17T13:36:37Z</time>
      </trkpt>
      <trkpt lat="62.642856779825" lon="17.976699905835">
        <ele>22.4</ele>
        <time>2018-02-17T13:36:38Z</time>
      </trkpt>
      <trkpt lat="62.642849236115" lon="17.9767615128">
        <ele>22.4</ele>
        <time>2018-02-17T13:36:39Z</time>
      </trkpt>
      <trkpt lat="62.64284294969" lon="17.976817168616">
        <ele>22.4</ele>
        <time>2018-02-17T13:36:40Z</time>
      </trkpt>
      <trkpt lat="62.642835154523" lon="17.976871399509">
        <ele>22.4</ele>
        <time>2018-02-17T13:36:41Z</time>
      </trkpt>
      <trkpt lat="62.642829287193" lon="17.976912554638">
        <ele>22.4</ele>
        <time>2018-02-17T13:36:42Z</time>
      </trkpt>
      <trkpt lat="62.642828113727" lon="17.976958990364">
        <ele>22.4</ele>
        <time>2018-02-17T13:36:43Z</time>
      </trkpt>
      <trkpt lat="62.642820570017" lon="17.977007605384">
        <ele>22.4</ele>
        <time>2018-02-17T13:36:44Z</time>
      </trkpt>
      <trkpt lat="62.642816462886" lon="17.977051694178">
        <ele>22.6</ele>
        <time>2018-02-17T13:36:45Z</time>
      </trkpt>
      <trkpt lat="62.642808919176" lon="17.977089999461">
        <ele>22.6</ele>
        <time>2018-02-17T13:36:46Z</time>
      </trkpt>
      <trkpt lat="62.64279601105" lon="17.977134172074">
        <ele>22.6</ele>
        <time>2018-02-17T13:36:47Z</time>
      </trkpt>
      <trkpt lat="62.642793328842" lon="17.977190163166">
        <ele>22.8</ele>
        <time>2018-02-17T13:36:48Z</time>
      </trkpt>
      <trkpt lat="62.64279014372" lon="17.977234335779">
        <ele>23</ele>
        <time>2018-02-17T13:36:49Z</time>
      </trkpt>
      <trkpt lat="62.642782935286" lon="17.977279178944">
        <ele>23.2</ele>
        <time>2018-02-17T13:36:50Z</time>
      </trkpt>
      <trkpt lat="62.642776145947" lon="17.977325782308">
        <ele>23.2</ele>
        <time>2018-02-17T13:36:51Z</time>
      </trkpt>
      <trkpt lat="62.642776481223" lon="17.97737087693">
        <ele>23.2</ele>
        <time>2018-02-17T13:36:52Z</time>
      </trkpt>
      <trkpt lat="62.642760304156" lon="17.977415384819">
        <ele>23.2</ele>
        <time>2018-02-17T13:36:53Z</time>
      </trkpt>
      <trkpt lat="62.642752592808" lon="17.977461569088">
        <ele>23.2</ele>
        <time>2018-02-17T13:36:54Z</time>
      </trkpt>
      <trkpt lat="62.642745049098" lon="17.977500880199">
        <ele>23.2</ele>
        <time>2018-02-17T13:36:55Z</time>
      </trkpt>
      <trkpt lat="62.642733062981" lon="17.977532982876">
        <ele>23.2</ele>
        <time>2018-02-17T13:36:56Z</time>
      </trkpt>
      <trkpt lat="62.642721579778" lon="17.977562654802">
        <ele>23.4</ele>
        <time>2018-02-17T13:36:57Z</time>
      </trkpt>
      <trkpt lat="62.642711940593" lon="17.977599954257">
        <ele>23.4</ele>
        <time>2018-02-17T13:36:58Z</time>
      </trkpt>
      <trkpt lat="62.642701798494" lon="17.9776248485">
        <ele>23.6</ele>
        <time>2018-02-17T13:36:59Z</time>
      </trkpt>
      <trkpt lat="62.642692159309" lon="17.977652927865">
        <ele>23.8</ele>
        <time>2018-02-17T13:37:00Z</time>
      </trkpt>
      <trkpt lat="62.642678915907" lon="17.977677151556">
        <ele>24</ele>
        <time>2018-02-17T13:37:01Z</time>
      </trkpt>
      <trkpt lat="62.642663744668" lon="17.977696681383">
        <ele>24.2</ele>
        <time>2018-02-17T13:37:02Z</time>
      </trkpt>
      <trkpt lat="62.642655278949" lon="17.977718055228">
        <ele>24.2</ele>
        <time>2018-02-17T13:37:03Z</time>
      </trkpt>
      <trkpt lat="62.642645472126" lon="17.97773884234">
        <ele>24.4</ele>
        <time>2018-02-17T13:37:04Z</time>
      </trkpt>
      <trkpt lat="62.642627618679" lon="17.977756779606">
        <ele>24.4</ele>
        <time>2018-02-17T13:37:05Z</time>
      </trkpt>
      <trkpt lat="62.642620326426" lon="17.97777069356">
        <ele>24.6</ele>
        <time>2018-02-17T13:37:06Z</time>
      </trkpt>
      <trkpt lat="62.642615213467" lon="17.977784775152">
        <ele>24.4</ele>
        <time>2018-02-17T13:37:07Z</time>
      </trkpt>
      <trkpt lat="62.64260071278" lon="17.977815452906">
        <ele>24.8</ele>
        <time>2018-02-17T13:37:08Z</time>
      </trkpt>
      <trkpt lat="62.642586631188" lon="17.977842274986">
        <ele>24.8</ele>
        <time>2018-02-17T13:37:09Z</time>
      </trkpt>
      <trkpt lat="62.642569113017" lon="17.977863816469">
        <ele>24.8</ele>
        <time>2018-02-17T13:37:10Z</time>
      </trkpt>
      <trkpt lat="62.642553019769" lon="17.97788971654">
        <ele>25.2</ele>
        <time>2018-02-17T13:37:11Z</time>
      </trkpt>
      <trkpt lat="62.642541536566" lon="17.977918131181">
        <ele>25.2</ele>
        <time>2018-02-17T13:37:12Z</time>
      </trkpt>
      <trkpt lat="62.642521252368" lon="17.977941600501">
        <ele>25.4</ele>
        <time>2018-02-17T13:37:13Z</time>
      </trkpt>
      <trkpt lat="62.642508428061" lon="17.977964147812">
        <ele>25.6</ele>
        <time>2018-02-17T13:37:14Z</time>
      </trkpt>
      <trkpt lat="62.642494430288" lon="17.977991891901">
        <ele>25.6</ele>
        <time>2018-02-17T13:37:15Z</time>
      </trkpt>
      <trkpt lat="62.642484623465" lon="17.978013181927">
        <ele>25.8</ele>
        <time>2018-02-17T13:37:16Z</time>
      </trkpt>
      <trkpt lat="62.642479342868" lon="17.978029358994">
        <ele>25.8</ele>
        <time>2018-02-17T13:37:17Z</time>
      </trkpt>
      <trkpt lat="62.642461405602" lon="17.978073028693">
        <ele>25.8</ele>
        <time>2018-02-17T13:37:18Z</time>
      </trkpt>
      <trkpt lat="62.642452017874" lon="17.978102784438">
        <ele>26.2</ele>
        <time>2018-02-17T13:37:19Z</time>
      </trkpt>
      <trkpt lat="62.642441791956" lon="17.97813111526">
        <ele>26.2</ele>
        <time>2018-02-17T13:37:20Z</time>
      </trkpt>
      <trkpt lat="62.642436595178" lon="17.978165732507">
        <ele>26.4</ele>
        <time>2018-02-17T13:37:21Z</time>
      </trkpt>
      <trkpt lat="62.642435840807" lon="17.978202696686">
        <ele>26.4</ele>
        <time>2018-02-17T13:37:22Z</time>
      </trkpt>
      <trkpt lat="62.642415388971" lon="17.978234128811">
        <ele>26.6</ele>
        <time>2018-02-17T13:37:23Z</time>
      </trkpt>
      <trkpt lat="62.642405079234" lon="17.978270003343">
        <ele>26.6</ele>
        <time>2018-02-17T13:37:24Z</time>
      </trkpt>
      <trkpt lat="62.642394350402" lon="17.978307889531">
        <ele>26.8</ele>
        <time>2018-02-17T13:37:25Z</time>
      </trkpt>
      <trkpt lat="62.642385130312" lon="17.978347033004">
        <ele>27</ele>
        <time>2018-02-17T13:37:26Z</time>
      </trkpt>
      <trkpt lat="62.642379514439" lon="17.978387349943">
        <ele>27</ele>
        <time>2018-02-17T13:37:27Z</time>
      </trkpt>
      <trkpt lat="62.642365935761" lon="17.978418446792">
        <ele>27</ele>
        <time>2018-02-17T13:37:28Z</time>
      </trkpt>
      <trkpt lat="62.642356296576" lon="17.978454405143">
        <ele>27.2</ele>
        <time>2018-02-17T13:37:29Z</time>
      </trkpt>
      <trkpt lat="62.642345735382" lon="17.978488268019">
        <ele>27.2</ele>
        <time>2018-02-17T13:37:30Z</time>
      </trkpt>
      <trkpt lat="62.642340538604" lon="17.978519700144">
        <ele>27.2</ele>
        <time>2018-02-17T13:37:31Z</time>
      </trkpt>
      <trkpt lat="62.642335090369" lon="17.978542582731">
        <ele>27.2</ele>
        <time>2018-02-17T13:37:32Z</time>
      </trkpt>
      <trkpt lat="62.642326792288" lon="17.978562364015">
        <ele>27.4</ele>
        <time>2018-02-17T13:37:33Z</time>
      </trkpt>
      <trkpt lat="62.642323104252" lon="17.978578541082">
        <ele>27.4</ele>
        <time>2018-02-17T13:37:34Z</time>
      </trkpt>
      <trkpt lat="62.642314973809" lon="17.978595975434">
        <ele>27.6</ele>
        <time>2018-02-17T13:37:35Z</time>
      </trkpt>
      <trkpt lat="62.642303239149" lon="17.978620115306">
        <ele>27.8</ele>
        <time>2018-02-17T13:37:36Z</time>
      </trkpt>
      <trkpt lat="62.642292510317" lon="17.978647943214">
        <ele>27.8</ele>
        <time>2018-02-17T13:37:37Z</time>
      </trkpt>
      <trkpt lat="62.642281027114" lon="17.97866336591">
        <ele>28</ele>
        <time>2018-02-17T13:37:38Z</time>
      </trkpt>
      <trkpt lat="62.642269795368" lon="17.978681973728">
        <ele>28.2</ele>
        <time>2018-02-17T13:37:39Z</time>
      </trkpt>
      <trkpt lat="62.642257222518" lon="17.97870108446">
        <ele>28.4</ele>
        <time>2018-02-17T13:37:40Z</time>
      </trkpt>
      <trkpt lat="62.642234339931" lon="17.978714579319">
        <ele>28.4</ele>
        <time>2018-02-17T13:37:41Z</time>
      </trkpt>
      <trkpt lat="62.642213469" lon="17.978723464133">
        <ele>28.6</ele>
        <time>2018-02-17T13:37:42Z</time>
      </trkpt>
      <trkpt lat="62.642199722684" lon="17.97874131758">
        <ele>28.8</ele>
        <time>2018-02-17T13:37:43Z</time>
      </trkpt>
      <trkpt lat="62.642187233653" lon="17.978748442195">
        <ele>28.8</ele>
        <time>2018-02-17T13:37:44Z</time>
      </trkpt>
      <trkpt lat="62.642172062414" lon="17.978757746104">
        <ele>28.8</ele>
        <time>2018-02-17T13:37:45Z</time>
      </trkpt>
      <trkpt lat="62.64215647208" lon="17.978768391117">
        <ele>29</ele>
        <time>2018-02-17T13:37:46Z</time>
      </trkpt>
      <trkpt lat="62.642142641945" lon="17.978778700854">
        <ele>29</ele>
        <time>2018-02-17T13:37:47Z</time>
      </trkpt>
      <trkpt lat="62.642117328607" lon="17.97878574165">
        <ele>29.2</ele>
        <time>2018-02-17T13:37:48Z</time>
      </trkpt>
      <trkpt lat="62.642100732445" lon="17.978792028075">
        <ele>29.4</ele>
        <time>2018-02-17T13:37:49Z</time>
      </trkpt>
      <trkpt lat="62.642080867342" lon="17.978802840726">
        <ele>29.4</ele>
        <time>2018-02-17T13:37:50Z</time>
      </trkpt>
      <trkpt lat="62.64206008023" lon="17.978808456599">
        <ele>29.8</ele>
        <time>2018-02-17T13:37:51Z</time>
      </trkpt>
      <trkpt lat="62.64204164005" lon="17.978809043332">
        <ele>29.8</ele>
        <time>2018-02-17T13:37:52Z</time>
      </trkpt>
      <trkpt lat="62.642022194042" lon="17.978828070245">
        <ele>30</ele>
        <time>2018-02-17T13:37:53Z</time>
      </trkpt>
      <trkpt lat="62.642004424414" lon="17.978838128525">
        <ele>30.2</ele>
        <time>2018-02-17T13:37:54Z</time>
      </trkpt>
      <trkpt lat="62.641987241519" lon="17.978844666407">
        <ele>30.4</ele>
        <time>2018-02-17T13:37:55Z</time>
      </trkpt>
      <trkpt lat="62.641971399728" lon="17.978854976144">
        <ele>30.6</ele>
        <time>2018-02-17T13:37:56Z</time>
      </trkpt>
      <trkpt lat="62.641957485774" lon="17.978863860958">
        <ele>30.6</ele>
        <time>2018-02-17T13:37:57Z</time>
      </trkpt>
      <trkpt lat="62.641943152725" lon="17.978874338333">
        <ele>30.8</ele>
        <time>2018-02-17T13:37:58Z</time>
      </trkpt>
      <trkpt lat="62.641917923206" lon="17.978873583962">
        <ele>31</ele>
        <time>2018-02-17T13:37:59Z</time>
      </trkpt>
      <trkpt lat="62.641905685632" lon="17.978882636414">
        <ele>31.2</ele>
        <time>2018-02-17T13:38:00Z</time>
      </trkpt>
      <trkpt lat="62.641892693687" lon="17.978893951979">
        <ele>31.4</ele>
        <time>2018-02-17T13:38:01Z</time>
      </trkpt>
      <trkpt lat="62.641878109181" lon="17.978900992775">
        <ele>31.4</ele>
        <time>2018-02-17T13:38:02Z</time>
      </trkpt>
      <trkpt lat="62.641867799444" lon="17.978914068539">
        <ele>31.8</ele>
        <time>2018-02-17T13:38:03Z</time>
      </trkpt>
      <trkpt lat="62.641858998449" lon="17.978924965009">
        <ele>31.8</ele>
        <time>2018-02-17T13:38:04Z</time>
      </trkpt>
      <trkpt lat="62.641848437255" lon="17.978915158186">
        <ele>32</ele>
        <time>2018-02-17T13:38:05Z</time>
      </trkpt>
      <trkpt lat="62.641834774758" lon="17.978921696068">
        <ele>32.4</ele>
        <time>2018-02-17T13:38:06Z</time>
      </trkpt>
      <trkpt lat="62.641823207736" lon="17.978930580882">
        <ele>32.4</ele>
        <time>2018-02-17T13:38:07Z</time>
      </trkpt>
      <trkpt lat="62.641805773384" lon="17.978933011633">
        <ele>32.6</ele>
        <time>2018-02-17T13:38:08Z</time>
      </trkpt>
      <trkpt lat="62.641791440335" lon="17.978933430728">
        <ele>32.8</ele>
        <time>2018-02-17T13:38:09Z</time>
      </trkpt>
      <trkpt lat="62.641777861657" lon="17.978935190927">
        <ele>33</ele>
        <time>2018-02-17T13:38:10Z</time>
      </trkpt>
      <trkpt lat="62.641763863884" lon="17.978946003578">
        <ele>33.4</ele>
        <time>2018-02-17T13:38:11Z</time>
      </trkpt>
      <trkpt lat="62.641750620482" lon="17.978952038546">
        <ele>33.4</ele>
        <time>2018-02-17T13:38:12Z</time>
      </trkpt>
      <trkpt lat="62.641726899705" lon="17.978952038546">
        <ele>33.6</ele>
        <time>2018-02-17T13:38:13Z</time>
      </trkpt>
      <trkpt lat="62.641712399018" lon="17.978955978039">
        <ele>33.8</ele>
        <time>2018-02-17T13:38:14Z</time>
      </trkpt>
      <trkpt lat="62.641704603851" lon="17.978960252808">
        <ele>34</ele>
        <time>2018-02-17T13:38:15Z</time>
      </trkpt>
      <trkpt lat="62.641685576938" lon="17.97895002689">
        <ele>34.4</ele>
        <time>2018-02-17T13:38:16Z</time>
      </trkpt>
      <trkpt lat="62.641670824794" lon="17.978946506492">
        <ele>34.6</ele>
        <time>2018-02-17T13:38:17Z</time>
      </trkpt>
      <trkpt lat="62.641652803709" lon="17.978942315542">
        <ele>34.8</ele>
        <time>2018-02-17T13:38:18Z</time>
      </trkpt>
      <trkpt lat="62.641635788452" lon="17.978933179271">
        <ele>35</ele>
        <time>2018-02-17T13:38:19Z</time>
      </trkpt>
      <trkpt lat="62.641619527566" lon="17.978931921986">
        <ele>35.4</ele>
        <time>2018-02-17T13:38:20Z</time>
      </trkpt>
      <trkpt lat="62.641604188689" lon="17.978925048828">
        <ele>35.4</ele>
        <time>2018-02-17T13:38:21Z</time>
      </trkpt>
      <trkpt lat="62.641591196744" lon="17.97890895558">
        <ele>35.8</ele>
        <time>2018-02-17T13:38:22Z</time>
      </trkpt>
      <trkpt lat="62.641573846211" lon="17.978908368847">
        <ele>35.8</ele>
        <time>2018-02-17T13:38:23Z</time>
      </trkpt>
      <trkpt lat="62.641550795986" lon="17.978909542313">
        <ele>36.2</ele>
        <time>2018-02-17T13:38:24Z</time>
      </trkpt>
      <trkpt lat="62.641532271987" lon="17.978901830965">
        <ele>36.4</ele>
        <time>2018-02-17T13:38:25Z</time>
      </trkpt>
      <trkpt lat="62.641517519843" lon="17.978897807653">
        <ele>36.4</ele>
        <time>2018-02-17T13:38:26Z</time>
      </trkpt>
      <trkpt lat="62.641506455735" lon="17.978900070766">
        <ele>36.6</ele>
        <time>2018-02-17T13:38:27Z</time>
      </trkpt>
      <trkpt lat="62.641482818777" lon="17.978886240631">
        <ele>36.6</ele>
        <time>2018-02-17T13:38:28Z</time>
      </trkpt>
      <trkpt lat="62.64146077438" lon="17.978891437409">
        <ele>36.6</ele>
        <time>2018-02-17T13:38:29Z</time>
      </trkpt>
      <trkpt lat="62.64144568696" lon="17.97889973549">
        <ele>36.6</ele>
        <time>2018-02-17T13:38:30Z</time>
      </trkpt>
      <trkpt lat="62.641418948699" lon="17.978893784341">
        <ele>37</ele>
        <time>2018-02-17T13:38:31Z</time>
      </trkpt>
      <trkpt lat="62.641400257062" lon="17.978892359418">
        <ele>37</ele>
        <time>2018-02-17T13:38:32Z</time>
      </trkpt>
      <trkpt lat="62.641386091651" lon="17.978905938096">
        <ele>37.2</ele>
        <time>2018-02-17T13:38:33Z</time>
      </trkpt>
      <trkpt lat="62.641373099706" lon="17.978907111562">
        <ele>37.2</ele>
        <time>2018-02-17T13:38:34Z</time>
      </trkpt>
      <trkpt lat="62.641362538512" lon="17.978913481806">
        <ele>37.6</ele>
        <time>2018-02-17T13:38:35Z</time>
      </trkpt>
      <trkpt lat="62.641331525482" lon="17.978915242005">
        <ele>37.8</ele>
        <time>2018-02-17T13:38:36Z</time>
      </trkpt>
      <trkpt lat="62.641314007311" lon="17.978917756575">
        <ele>37.8</ele>
        <time>2018-02-17T13:38:37Z</time>
      </trkpt>
      <trkpt lat="62.641297159692" lon="17.978933011633">
        <ele>38</ele>
        <time>2018-02-17T13:38:38Z</time>
      </trkpt>
      <trkpt lat="62.641283413376" lon="17.978937118764">
        <ele>38.2</ele>
        <time>2018-02-17T13:38:39Z</time>
      </trkpt>
      <trkpt lat="62.641263212997" lon="17.978945416845">
        <ele>38.2</ele>
        <time>2018-02-17T13:38:40Z</time>
      </trkpt>
      <trkpt lat="62.641242090609" lon="17.978948853424">
        <ele>38.6</ele>
        <time>2018-02-17T13:38:41Z</time>
      </trkpt>
      <trkpt lat="62.641224991533" lon="17.978945416845">
        <ele>38.6</ele>
        <time>2018-02-17T13:38:42Z</time>
      </trkpt>
      <trkpt lat="62.64120596462" lon="17.978958995523">
        <ele>38.8</ele>
        <time>2018-02-17T13:38:43Z</time>
      </trkpt>
      <trkpt lat="62.64119003901" lon="17.978967545061">
        <ele>39</ele>
        <time>2018-02-17T13:38:44Z</time>
      </trkpt>
      <trkpt lat="62.641175454504" lon="17.978976178418">
        <ele>39</ele>
        <time>2018-02-17T13:38:45Z</time>
      </trkpt>
      <trkpt lat="62.641165228586" lon="17.97898690725">
        <ele>39.2</ele>
        <time>2018-02-17T13:38:46Z</time>
      </trkpt>
      <trkpt lat="62.641147626596" lon="17.97900283286">
        <ele>39.2</ele>
        <time>2018-02-17T13:38:47Z</time>
      </trkpt>
      <trkpt lat="62.641124324914" lon="17.979033510614">
        <ele>39.4</ele>
        <time>2018-02-17T13:38:48Z</time>
      </trkpt>
      <trkpt lat="62.641115607738" lon="17.979070474793">
        <ele>39.6</ele>
        <time>2018-02-17T13:38:49Z</time>
      </trkpt>
      <trkpt lat="62.641102699612" lon="17.979113557759">
        <ele>39.6</ele>
        <time>2018-02-17T13:38:50Z</time>
      </trkpt>
      <trkpt lat="62.641091216409" lon="17.979158065648">
        <ele>39.6</ele>
        <time>2018-02-17T13:38:51Z</time>
      </trkpt>
      <trkpt lat="62.64108023612" lon="17.979209698152">
        <ele>40</ele>
        <time>2018-02-17T13:38:52Z</time>
      </trkpt>
      <trkpt lat="62.641071938039" lon="17.979255463326">
        <ele>40</ele>
        <time>2018-02-17T13:38:53Z</time>
      </trkpt>
      <trkpt lat="62.641065232519" lon="17.979299300663">
        <ele>40.2</ele>
        <time>2018-02-17T13:38:54Z</time>
      </trkpt>
      <trkpt lat="62.641060203379" lon="17.979345736389">
        <ele>40.4</ele>
        <time>2018-02-17T13:38:55Z</time>
      </trkpt>
      <trkpt lat="62.641055593334" lon="17.979392675029">
        <ele>40.4</ele>
        <time>2018-02-17T13:38:56Z</time>
      </trkpt>
      <trkpt lat="62.641053581678" lon="17.979440032764">
        <ele>40.4</ele>
        <time>2018-02-17T13:38:57Z</time>
      </trkpt>
      <trkpt lat="62.641050480375" lon="17.979472135441">
        <ele>40.6</ele>
        <time>2018-02-17T13:38:58Z</time>
      </trkpt>
      <trkpt lat="62.641043188122" lon="17.979526533972">
        <ele>40.4</ele>
        <time>2018-02-17T13:38:59Z</time>
      </trkpt>
      <trkpt lat="62.641039667724" lon="17.979581435417">
        <ele>40.4</ele>
        <time>2018-02-17T13:39:00Z</time>
      </trkpt>
      <trkpt lat="62.641037320792" lon="17.979626530039">
        <ele>40.4</ele>
        <time>2018-02-17T13:39:01Z</time>
      </trkpt>
      <trkpt lat="62.64103497386" lon="17.979680677113">
        <ele>40.4</ele>
        <time>2018-02-17T13:39:02Z</time>
      </trkpt>
      <trkpt lat="62.64103078291" lon="17.979725771735">
        <ele>40.4</ele>
        <time>2018-02-17T13:39:03Z</time>
      </trkpt>
      <trkpt lat="62.641032040195" lon="17.979775224945">
        <ele>40.4</ele>
        <time>2018-02-17T13:39:04Z</time>
      </trkpt>
      <trkpt lat="62.641024328847" lon="17.979839011204">
        <ele>40.6</ele>
        <time>2018-02-17T13:39:05Z</time>
      </trkpt>
      <trkpt lat="62.641025418494" lon="17.979892403907">
        <ele>40.6</ele>
        <time>2018-02-17T13:39:06Z</time>
      </trkpt>
      <trkpt lat="62.641028352159" lon="17.979942862945">
        <ele>40.6</ele>
        <time>2018-02-17T13:39:07Z</time>
      </trkpt>
      <trkpt lat="62.641013683834" lon="17.980003966996">
        <ele>40.8</ele>
        <time>2018-02-17T13:39:08Z</time>
      </trkpt>
      <trkpt lat="62.641007816504" lon="17.980052833473">
        <ele>40.8</ele>
        <time>2018-02-17T13:39:09Z</time>
      </trkpt>
      <trkpt lat="62.641004882839" lon="17.980102705778">
        <ele>40.8</ele>
        <time>2018-02-17T13:39:10Z</time>
      </trkpt>
      <trkpt lat="62.641003625554" lon="17.980159618879">
        <ele>41</ele>
        <time>2018-02-17T13:39:11Z</time>
      </trkpt>
      <trkpt lat="62.641009157608" lon="17.9802148556">
        <ele>41</ele>
        <time>2018-02-17T13:39:12Z</time>
      </trkpt>
      <trkpt lat="62.641009157608" lon="17.980253496159">
        <ele>41</ele>
        <time>2018-02-17T13:39:13Z</time>
      </trkpt>
      <trkpt lat="62.641013516196" lon="17.980316025133">
        <ele>41</ele>
        <time>2018-02-17T13:39:14Z</time>
      </trkpt>
      <trkpt lat="62.64102156282" lon="17.980378721745">
        <ele>41</ele>
        <time>2018-02-17T13:39:15Z</time>
      </trkpt>
      <trkpt lat="62.641018461517" lon="17.980420128331">
        <ele>41</ele>
        <time>2018-02-17T13:39:16Z</time>
      </trkpt>
      <trkpt lat="62.641031788738" lon="17.980499253467">
        <ele>41</ele>
        <time>2018-02-17T13:39:17Z</time>
      </trkpt>
      <trkpt lat="62.641026927236" lon="17.980578462422">
        <ele>41</ele>
        <time>2018-02-17T13:39:18Z</time>
      </trkpt>
      <trkpt lat="62.6410316211" lon="17.980660437404">
        <ele>40.8</ele>
        <time>2018-02-17T13:39:19Z</time>
      </trkpt>
      <trkpt lat="62.641035728231" lon="17.980739227264">
        <ele>40.6</ele>
        <time>2018-02-17T13:39:20Z</time>
      </trkpt>
      <trkpt lat="62.641044613045" lon="17.980819525866">
        <ele>40.4</ele>
        <time>2018-02-17T13:39:21Z</time>
      </trkpt>
      <trkpt lat="62.641058694637" lon="17.980894292414">
        <ele>40.4</ele>
        <time>2018-02-17T13:39:22Z</time>
      </trkpt>
      <trkpt lat="62.641066322166" lon="17.980958581587">
        <ele>40</ele>
        <time>2018-02-17T13:39:23Z</time>
      </trkpt>
      <trkpt lat="62.641081661043" lon="17.981029995375">
        <ele>39.6</ele>
        <time>2018-02-17T13:39:24Z</time>
      </trkpt>
      <trkpt lat="62.641102615793" lon="17.981115574574">
        <ele>39</ele>
        <time>2018-02-17T13:39:25Z</time>
      </trkpt>
      <trkpt lat="62.641120385421" lon="17.981207524017">
        <ele>38.4</ele>
        <time>2018-02-17T13:39:26Z</time>
      </trkpt>
      <trkpt lat="62.641138490325" lon="17.981301568935">
        <ele>38.2</ele>
        <time>2018-02-17T13:39:27Z</time>
      </trkpt>
      <trkpt lat="62.641140166705" lon="17.981392596369">
        <ele>37.4</ele>
        <time>2018-02-17T13:39:28Z</time>
      </trkpt>
      <trkpt lat="62.641117787032" lon="17.981496951024">
        <ele>37</ele>
        <time>2018-02-17T13:39:29Z</time>
      </trkpt>
      <trkpt lat="62.641112757892" lon="17.981584625698">
        <ele>36.8</ele>
        <time>2018-02-17T13:39:30Z</time>
      </trkpt>
      <trkpt lat="62.641111332969" lon="17.981677161874">
        <ele>36.8</ele>
        <time>2018-02-17T13:39:31Z</time>
      </trkpt>
      <trkpt lat="62.641115188643" lon="17.981757460476">
        <ele>36.8</ele>
        <time>2018-02-17T13:39:32Z</time>
      </trkpt>
      <trkpt lat="62.641106303829" lon="17.981830299187">
        <ele>37</ele>
        <time>2018-02-17T13:39:33Z</time>
      </trkpt>
      <trkpt lat="62.641104459811" lon="17.981906071563">
        <ele>37.2</ele>
        <time>2018-02-17T13:39:34Z</time>
      </trkpt>
      <trkpt lat="62.641110075684" lon="17.981977904446">
        <ele>37.4</ele>
        <time>2018-02-17T13:39:35Z</time>
      </trkpt>
      <trkpt lat="62.64111460191" lon="17.982056023754">
        <ele>37.6</ele>
        <time>2018-02-17T13:39:36Z</time>
      </trkpt>
      <trkpt lat="62.641119882507" lon="17.982137076727">
        <ele>37.6</ele>
        <time>2018-02-17T13:39:37Z</time>
      </trkpt>
      <trkpt lat="62.641119966326" lon="17.982196839674">
        <ele>37.4</ele>
        <time>2018-02-17T13:39:38Z</time>
      </trkpt>
      <trkpt lat="62.641123822" lon="17.982259955381">
        <ele>37.4</ele>
        <time>2018-02-17T13:39:39Z</time>
      </trkpt>
      <trkpt lat="62.641129605511" lon="17.982327597314">
        <ele>37.4</ele>
        <time>2018-02-17T13:39:40Z</time>
      </trkpt>
      <trkpt lat="62.64113974761" lon="17.982382666397">
        <ele>37.4</ele>
        <time>2018-02-17T13:39:41Z</time>
      </trkpt>
      <trkpt lat="62.641158774523" lon="17.982437484023">
        <ele>37.4</ele>
        <time>2018-02-17T13:39:42Z</time>
      </trkpt>
      <trkpt lat="62.641162881654" lon="17.982514765141">
        <ele>37.4</ele>
        <time>2018-02-17T13:39:43Z</time>
      </trkpt>
      <trkpt lat="62.641173442848" lon="17.982587184757">
        <ele>37.4</ele>
        <time>2018-02-17T13:39:44Z</time>
      </trkpt>
      <trkpt lat="62.641186350974" lon="17.982658933821">
        <ele>37.4</ele>
        <time>2018-02-17T13:39:45Z</time>
      </trkpt>
      <trkpt lat="62.641186350974" lon="17.982710733963">
        <ele>37.2</ele>
        <time>2018-02-17T13:39:46Z</time>
      </trkpt>
      <trkpt lat="62.641189117001" lon="17.982783153579">
        <ele>37.2</ele>
        <time>2018-02-17T13:39:47Z</time>
      </trkpt>
      <trkpt lat="62.641195990159" lon="17.982896644505">
        <ele>36.8</ele>
        <time>2018-02-17T13:39:48Z</time>
      </trkpt>
      <trkpt lat="62.641201019299" lon="17.982983900084">
        <ele>36.8</ele>
        <time>2018-02-17T13:39:49Z</time>
      </trkpt>
      <trkpt lat="62.641203701507" lon="17.983071239482">
        <ele>36.6</ele>
        <time>2018-02-17T13:39:50Z</time>
      </trkpt>
      <trkpt lat="62.641214178882" lon="17.983157656871">
        <ele>36.4</ele>
        <time>2018-02-17T13:39:51Z</time>
      </trkpt>
      <trkpt lat="62.641229517759" lon="17.983230327944">
        <ele>36.4</ele>
        <time>2018-02-17T13:39:52Z</time>
      </trkpt>
      <trkpt lat="62.64125122688" lon="17.983321523016">
        <ele>36.2</ele>
        <time>2018-02-17T13:39:53Z</time>
      </trkpt>
      <trkpt lat="62.64126547611" lon="17.983421435264">
        <ele>36.2</ele>
        <time>2018-02-17T13:39:54Z</time>
      </trkpt>
      <trkpt lat="62.641278803331" lon="17.983531070516">
        <ele>35.8</ele>
        <time>2018-02-17T13:39:55Z</time>
      </trkpt>
      <trkpt lat="62.641280060616" lon="17.983646489279">
        <ele>35.6</ele>
        <time>2018-02-17T13:39:56Z</time>
      </trkpt>
      <trkpt lat="62.641280479711" lon="17.983759896386">
        <ele>35.4</ele>
        <time>2018-02-17T13:39:57Z</time>
      </trkpt>
      <trkpt lat="62.641274277105" lon="17.983898449193">
        <ele>35</ele>
        <time>2018-02-17T13:39:58Z</time>
      </trkpt>
      <trkpt lat="62.641277043132" lon="17.984014789965">
        <ele>34.6</ele>
        <time>2018-02-17T13:39:59Z</time>
      </trkpt>
      <trkpt lat="62.6412830781" lon="17.984123754665">
        <ele>34.4</ele>
        <time>2018-02-17T13:40:00Z</time>
      </trkpt>
      <trkpt lat="62.641277713684" lon="17.984229701881">
        <ele>34</ele>
        <time>2018-02-17T13:40:01Z</time>
      </trkpt>
      <trkpt lat="62.641274528562" lon="17.984338415124">
        <ele>34</ele>
        <time>2018-02-17T13:40:02Z</time>
      </trkpt>
      <trkpt lat="62.641268493594" lon="17.984459533579">
        <ele>33.6</ele>
        <time>2018-02-17T13:40:03Z</time>
      </trkpt>
      <trkpt lat="62.641266062843" lon="17.984561960397">
        <ele>33</ele>
        <time>2018-02-17T13:40:04Z</time>
      </trkpt>
      <trkpt lat="62.641267068671" lon="17.984678468807">
        <ele>32.4</ele>
        <time>2018-02-17T13:40:05Z</time>
      </trkpt>
      <trkpt lat="62.641269750879" lon="17.984781398539">
        <ele>32.2</ele>
        <time>2018-02-17T13:40:06Z</time>
      </trkpt>
      <trkpt lat="62.641274360924" lon="17.984869911403">
        <ele>32</ele>
        <time>2018-02-17T13:40:07Z</time>
      </trkpt>
      <trkpt lat="62.641255166373" lon="17.984973930782">
        <ele>32</ele>
        <time>2018-02-17T13:40:08Z</time>
      </trkpt>
      <trkpt lat="62.641254831097" lon="17.985052217728">
        <ele>32</ele>
        <time>2018-02-17T13:40:09Z</time>
      </trkpt>
      <trkpt lat="62.641252651803" lon="17.985144167171">
        <ele>32</ele>
        <time>2018-02-17T13:40:10Z</time>
      </trkpt>
      <trkpt lat="62.641252148889" lon="17.985234607872">
        <ele>32</ele>
        <time>2018-02-17T13:40:11Z</time>
      </trkpt>
      <trkpt lat="62.641258519133" lon="17.985318510691">
        <ele>32</ele>
        <time>2018-02-17T13:40:12Z</time>
      </trkpt>
      <trkpt lat="62.641245191912" lon="17.985427307753">
        <ele>31.8</ele>
        <time>2018-02-17T13:40:13Z</time>
      </trkpt>
      <trkpt lat="62.641234714537" lon="17.985524202517">
        <ele>31.8</ele>
        <time>2018-02-17T13:40:14Z</time>
      </trkpt>
      <trkpt lat="62.641227841379" lon="17.985608692069">
        <ele>31.8</ele>
        <time>2018-02-17T13:40:15Z</time>
      </trkpt>
      <trkpt lat="62.641216190538" lon="17.985679519124">
        <ele>31.8</ele>
        <time>2018-02-17T13:40:16Z</time>
      </trkpt>
      <trkpt lat="62.6412160229" lon="17.985749759446">
        <ele>31.6</ele>
        <time>2018-02-17T13:40:17Z</time>
      </trkpt>
      <trkpt lat="62.641213927425" lon="17.985804157977">
        <ele>31.6</ele>
        <time>2018-02-17T13:40:18Z</time>
      </trkpt>
      <trkpt lat="62.641199175281" lon="17.985883031656">
        <ele>31.4</ele>
        <time>2018-02-17T13:40:19Z</time>
      </trkpt>
      <trkpt lat="62.641187859716" lon="17.985952601426">
        <ele>31.2</ele>
        <time>2018-02-17T13:40:20Z</time>
      </trkpt>
      <trkpt lat="62.641177717617" lon="17.986014795124">
        <ele>31.2</ele>
        <time>2018-02-17T13:40:21Z</time>
      </trkpt>
      <trkpt lat="62.641171515011" lon="17.986070115664">
        <ele>31</ele>
        <time>2018-02-17T13:40:22Z</time>
      </trkpt>
      <trkpt lat="62.641159361256" lon="17.986128202231">
        <ele>31</ele>
        <time>2018-02-17T13:40:23Z</time>
      </trkpt>
      <trkpt lat="62.641143854741" lon="17.986203052598">
        <ele>31</ele>
        <time>2018-02-17T13:40:24Z</time>
      </trkpt>
      <trkpt lat="62.641132958271" lon="17.986282596829">
        <ele>31</ele>
        <time>2018-02-17T13:40:25Z</time>
      </trkpt>
      <trkpt lat="62.641128599683" lon="17.986360883775">
        <ele>31.2</ele>
        <time>2018-02-17T13:40:26Z</time>
      </trkpt>
      <trkpt lat="62.641131281891" lon="17.986428860984">
        <ele>31.2</ele>
        <time>2018-02-17T13:40:27Z</time>
      </trkpt>
      <trkpt lat="62.641115021005" lon="17.986511171242">
        <ele>31.2</ele>
        <time>2018-02-17T13:40:28Z</time>
      </trkpt>
      <trkpt lat="62.641108147847" lon="17.986587530351">
        <ele>31</ele>
        <time>2018-02-17T13:40:29Z</time>
      </trkpt>
      <trkpt lat="62.641105130363" lon="17.986650813696">
        <ele>31</ele>
        <time>2018-02-17T13:40:30Z</time>
      </trkpt>
      <trkpt lat="62.641088785658" lon="17.986727508081">
        <ele>31</ele>
        <time>2018-02-17T13:40:31Z</time>
      </trkpt>
      <trkpt lat="62.641091635504" lon="17.986783331535">
        <ele>31</ele>
        <time>2018-02-17T13:40:32Z</time>
      </trkpt>
      <trkpt lat="62.641078056826" lon="17.986876622082">
        <ele>31</ele>
        <time>2018-02-17T13:40:33Z</time>
      </trkpt>
      <trkpt lat="62.641071267487" lon="17.986950885716">
        <ele>31</ele>
        <time>2018-02-17T13:40:34Z</time>
      </trkpt>
      <trkpt lat="62.641067160356" lon="17.987018862925">
        <ele>31</ele>
        <time>2018-02-17T13:40:35Z</time>
      </trkpt>
      <trkpt lat="62.64106682508" lon="17.987082565365">
        <ele>31</ele>
        <time>2018-02-17T13:40:36Z</time>
      </trkpt>
      <trkpt lat="62.641069842564" lon="17.987138305">
        <ele>31</ele>
        <time>2018-02-17T13:40:37Z</time>
      </trkpt>
      <trkpt lat="62.641061460664" lon="17.98721877124">
        <ele>31</ele>
        <time>2018-02-17T13:40:38Z</time>
      </trkpt>
      <trkpt lat="62.64105592861" lon="17.987288424829">
        <ele>31</ele>
        <time>2018-02-17T13:40:39Z</time>
      </trkpt>
      <trkpt lat="62.641048301081" lon="17.987362520825">
        <ele>31</ele>
        <time>2018-02-17T13:40:40Z</time>
      </trkpt>
      <trkpt lat="62.641039416267" lon="17.987434353708">
        <ele>30.8</ele>
        <time>2018-02-17T13:40:41Z</time>
      </trkpt>
      <trkpt lat="62.64103665024" lon="17.987498223786">
        <ele>30.8</ele>
        <time>2018-02-17T13:40:42Z</time>
      </trkpt>
      <trkpt lat="62.641024580304" lon="17.987584389718">
        <ele>30.8</ele>
        <time>2018-02-17T13:40:43Z</time>
      </trkpt>
      <trkpt lat="62.641021730458" lon="17.987650858185">
        <ele>30.6</ele>
        <time>2018-02-17T13:40:44Z</time>
      </trkpt>
      <trkpt lat="62.641021227544" lon="17.98770995058">
        <ele>30.6</ele>
        <time>2018-02-17T13:40:45Z</time>
      </trkpt>
      <trkpt lat="62.641006810676" lon="17.987767953328">
        <ele>30.6</ele>
        <time>2018-02-17T13:40:46Z</time>
      </trkpt>
      <trkpt lat="62.641000691889" lon="17.987817071262">
        <ele>30.6</ele>
        <time>2018-02-17T13:40:47Z</time>
      </trkpt>
      <trkpt lat="62.640983508994" lon="17.987872978535">
        <ele>30.6</ele>
        <time>2018-02-17T13:40:48Z</time>
      </trkpt>
      <trkpt lat="62.640970097954" lon="17.987928131437">
        <ele>30.6</ele>
        <time>2018-02-17T13:40:49Z</time>
      </trkpt>
      <trkpt lat="62.640955764905" lon="17.987992252972">
        <ele>30.6</ele>
        <time>2018-02-17T13:40:50Z</time>
      </trkpt>
      <trkpt lat="62.640945119892" lon="17.988045478037">
        <ele>30.6</ele>
        <time>2018-02-17T13:40:51Z</time>
      </trkpt>
      <trkpt lat="62.640940593666" lon="17.988090069745">
        <ele>30.6</ele>
        <time>2018-02-17T13:40:52Z</time>
      </trkpt>
      <trkpt lat="62.640923159314" lon="17.988152933995">
        <ele>30.6</ele>
        <time>2018-02-17T13:40:53Z</time>
      </trkpt>
      <trkpt lat="62.640906563152" lon="17.988213535132">
        <ele>30.6</ele>
        <time>2018-02-17T13:40:54Z</time>
      </trkpt>
      <trkpt lat="62.640891224275" lon="17.988274303907">
        <ele>30.4</ele>
        <time>2018-02-17T13:40:55Z</time>
      </trkpt>
      <trkpt lat="62.64087990871" lon="17.98832769661">
        <ele>30.4</ele>
        <time>2018-02-17T13:40:56Z</time>
      </trkpt>
      <trkpt lat="62.640874795751" lon="17.988371366309">
        <ele>30.4</ele>
        <time>2018-02-17T13:40:57Z</time>
      </trkpt>
      <trkpt lat="62.640859540693" lon="17.988432386541">
        <ele>30.4</ele>
        <time>2018-02-17T13:40:58Z</time>
      </trkpt>
      <trkpt lat="62.640833556803" lon="17.988489299642">
        <ele>30.4</ele>
        <time>2018-02-17T13:40:59Z</time>
      </trkpt>
      <trkpt lat="62.640825007265" lon="17.98852467126">
        <ele>30.4</ele>
        <time>2018-02-17T13:41:00Z</time>
      </trkpt>
      <trkpt lat="62.640791395846" lon="17.988568592416">
        <ele>30.6</ele>
        <time>2018-02-17T13:41:01Z</time>
      </trkpt>
      <trkpt lat="62.640767507431" lon="17.988599018713">
        <ele>30.6</ele>
        <time>2018-02-17T13:41:02Z</time>
      </trkpt>
      <trkpt lat="62.640744541025" lon="17.988649645389">
        <ele>30.6</ele>
        <time>2018-02-17T13:41:03Z</time>
      </trkpt>
      <trkpt lat="62.640723502456" lon="17.988679401134">
        <ele>30.6</ele>
        <time>2018-02-17T13:41:04Z</time>
      </trkpt>
      <trkpt lat="62.640705146095" lon="17.988710497983">
        <ele>30.8</ele>
        <time>2018-02-17T13:41:05Z</time>
      </trkpt>
      <trkpt lat="62.640691232141" lon="17.988743103574">
        <ele>31</ele>
        <time>2018-02-17T13:41:06Z</time>
      </trkpt>
      <trkpt lat="62.640678826929" lon="17.988768668369">
        <ele>31</ele>
        <time>2018-02-17T13:41:07Z</time>
      </trkpt>
      <trkpt lat="62.640657620722" lon="17.988812673344">
        <ele>31.2</ele>
        <time>2018-02-17T13:41:08Z</time>
      </trkpt>
      <trkpt lat="62.640640018732" lon="17.98884485984">
        <ele>31.4</ele>
        <time>2018-02-17T13:41:09Z</time>
      </trkpt>
      <trkpt lat="62.640622081466" lon="17.988881404924">
        <ele>31.4</ele>
        <time>2018-02-17T13:41:10Z</time>
      </trkpt>
      <trkpt lat="62.640609927711" lon="17.98892700246">
        <ele>31.8</ele>
        <time>2018-02-17T13:41:11Z</time>
      </trkpt>
      <trkpt lat="62.640604647114" lon="17.988969163417">
        <ele>31.8</ele>
        <time>2018-02-17T13:41:12Z</time>
      </trkpt>
      <trkpt lat="62.640584949649" lon="17.989010905279">
        <ele>32</ele>
        <time>2018-02-17T13:41:13Z</time>
      </trkpt>
      <trkpt lat="62.640569359315" lon="17.989053736788">
        <ele>32.2</ele>
        <time>2018-02-17T13:41:14Z</time>
      </trkpt>
      <trkpt lat="62.640556786465" lon="17.98908793494">
        <ele>32.2</ele>
        <time>2018-02-17T13:41:15Z</time>
      </trkpt>
      <trkpt lat="62.640527952729" lon="17.989131269363">
        <ele>32.2</ele>
        <time>2018-02-17T13:41:16Z</time>
      </trkpt>
      <trkpt lat="62.640508925816" lon="17.989165216058">
        <ele>32.4</ele>
        <time>2018-02-17T13:41:17Z</time>
      </trkpt>
      <trkpt lat="62.640488893075" lon="17.989210478318">
        <ele>32.2</ele>
        <time>2018-02-17T13:41:18Z</time>
      </trkpt>
      <trkpt lat="62.64047757751" lon="17.989247107221">
        <ele>32.4</ele>
        <time>2018-02-17T13:41:19Z</time>
      </trkpt>
      <trkpt lat="62.640462238633" lon="17.989286837427">
        <ele>32.4</ele>
        <time>2018-02-17T13:41:20Z</time>
      </trkpt>
      <trkpt lat="62.640444971919" lon="17.989324723615">
        <ele>32.4</ele>
        <time>2018-02-17T13:41:21Z</time>
      </trkpt>
      <trkpt lat="62.640432147612" lon="17.989358837948">
        <ele>32.4</ele>
        <time>2018-02-17T13:41:22Z</time>
      </trkpt>
      <trkpt lat="62.640412701604" lon="17.989410470452">
        <ele>32.4</ele>
        <time>2018-02-17T13:41:23Z</time>
      </trkpt>
      <trkpt lat="62.640394177605" lon="17.989439555645">
        <ele>32.6</ele>
        <time>2018-02-17T13:41:24Z</time>
      </trkpt>
      <trkpt lat="62.640379090185" lon="17.9894768551">
        <ele>32.6</ele>
        <time>2018-02-17T13:41:25Z</time>
      </trkpt>
      <trkpt lat="62.640365176231" lon="17.989519016057">
        <ele>32.8</ele>
        <time>2018-02-17T13:41:26Z</time>
      </trkpt>
      <trkpt lat="62.640354698856" lon="17.989559668272">
        <ele>32.8</ele>
        <time>2018-02-17T13:41:27Z</time>
      </trkpt>
      <trkpt lat="62.640336258676" lon="17.989600404306">
        <ele>33</ele>
        <time>2018-02-17T13:41:28Z</time>
      </trkpt>
      <trkpt lat="62.640315555383" lon="17.989640805064">
        <ele>33.2</ele>
        <time>2018-02-17T13:41:29Z</time>
      </trkpt>
      <trkpt lat="62.64029652847" lon="17.989678523614">
        <ele>33.2</ele>
        <time>2018-02-17T13:41:30Z</time>
      </trkpt>
      <trkpt lat="62.640292169882" lon="17.989718840553">
        <ele>33.2</ele>
        <time>2018-02-17T13:41:31Z</time>
      </trkpt>
      <trkpt lat="62.640284458534" lon="17.989755888551">
        <ele>33.4</ele>
        <time>2018-02-17T13:41:32Z</time>
      </trkpt>
      <trkpt lat="62.640277836833" lon="17.989799893526">
        <ele>33.4</ele>
        <time>2018-02-17T13:41:33Z</time>
      </trkpt>
      <trkpt lat="62.640266688906" lon="17.989841132474">
        <ele>33.6</ele>
        <time>2018-02-17T13:41:34Z</time>
      </trkpt>
      <trkpt lat="62.64025629535" lon="17.989882958155">
        <ele>33.6</ele>
        <time>2018-02-17T13:41:35Z</time>
      </trkpt>
      <trkpt lat="62.640243219586" lon="17.989921598714">
        <ele>33.8</ele>
        <time>2018-02-17T13:41:36Z</time>
      </trkpt>
      <trkpt lat="62.64023114965" lon="17.989958227617">
        <ele>33.8</ele>
        <time>2018-02-17T13:41:37Z</time>
      </trkpt>
      <trkpt lat="62.640230479098" lon="17.990008770474">
        <ele>34</ele>
        <time>2018-02-17T13:41:38Z</time>
      </trkpt>
      <trkpt lat="62.640217906248" lon="17.990051266707">
        <ele>34.2</ele>
        <time>2018-02-17T13:41:39Z</time>
      </trkpt>
      <trkpt lat="62.64020097481" lon="17.990089991085">
        <ele>34.2</ele>
        <time>2018-02-17T13:41:40Z</time>
      </trkpt>
      <trkpt lat="62.640184965381" lon="17.990126200893">
        <ele>34.2</ele>
        <time>2018-02-17T13:41:41Z</time>
      </trkpt>
      <trkpt lat="62.6401766673" lon="17.990159225579">
        <ele>34.2</ele>
        <time>2018-02-17T13:41:42Z</time>
      </trkpt>
      <trkpt lat="62.640159316767" lon="17.990211612454">
        <ele>34.4</ele>
        <time>2018-02-17T13:41:43Z</time>
      </trkpt>
      <trkpt lat="62.640142636786" lon="17.990243966588">
        <ele>34.4</ele>
        <time>2018-02-17T13:41:44Z</time>
      </trkpt>
      <trkpt lat="62.640130315393" lon="17.990274728161">
        <ele>34.6</ele>
        <time>2018-02-17T13:41:45Z</time>
      </trkpt>
      <trkpt lat="62.640114389783" lon="17.990312614349">
        <ele>34.6</ele>
        <time>2018-02-17T13:41:46Z</time>
      </trkpt>
      <trkpt lat="62.64010206839" lon="17.990347063958">
        <ele>34.8</ele>
        <time>2018-02-17T13:41:47Z</time>
      </trkpt>
      <trkpt lat="62.6400844664" lon="17.990389979286">
        <ele>35</ele>
        <time>2018-02-17T13:41:48Z</time>
      </trkpt>
      <trkpt lat="62.640068876066" lon="17.99043071532">
        <ele>35</ele>
        <time>2018-02-17T13:41:49Z</time>
      </trkpt>
      <trkpt lat="62.640052782818" lon="17.990468350051">
        <ele>35.2</ele>
        <time>2018-02-17T13:41:50Z</time>
      </trkpt>
      <trkpt lat="62.640035935199" lon="17.990508834628">
        <ele>35.2</ele>
        <time>2018-02-17T13:41:51Z</time>
      </trkpt>
      <trkpt lat="62.640022943254" lon="17.990552755784">
        <ele>35.4</ele>
        <time>2018-02-17T13:41:52Z</time>
      </trkpt>
      <trkpt lat="62.640005089807" lon="17.990586031927">
        <ele>35.4</ele>
        <time>2018-02-17T13:41:53Z</time>
      </trkpt>
      <trkpt lat="62.639992181681" lon="17.990624672486">
        <ele>35.4</ele>
        <time>2018-02-17T13:41:54Z</time>
      </trkpt>
      <trkpt lat="62.639977848632" lon="17.990662810131">
        <ele>35.4</ele>
        <time>2018-02-17T13:41:55Z</time>
      </trkpt>
      <trkpt lat="62.639960162823" lon="17.990697930292">
        <ele>35.4</ele>
        <time>2018-02-17T13:41:56Z</time>
      </trkpt>
      <trkpt lat="62.639944321032" lon="17.990730368245">
        <ele>35.6</ele>
        <time>2018-02-17T13:41:57Z</time>
      </trkpt>
      <trkpt lat="62.639924288291" lon="17.990768757347">
        <ele>35.4</ele>
        <time>2018-02-17T13:41:58Z</time>
      </trkpt>
      <trkpt lat="62.639908278862" lon="17.990806643535">
        <ele>35.6</ele>
        <time>2018-02-17T13:41:59Z</time>
      </trkpt>
      <trkpt lat="62.639892856166" lon="17.990834639081">
        <ele>35.6</ele>
        <time>2018-02-17T13:42:00Z</time>
      </trkpt>
      <trkpt lat="62.63987994804" lon="17.990866741758">
        <ele>35.8</ele>
        <time>2018-02-17T13:42:01Z</time>
      </trkpt>
      <trkpt lat="62.639867459009" lon="17.990896832779">
        <ele>35.8</ele>
        <time>2018-02-17T13:42:02Z</time>
      </trkpt>
      <trkpt lat="62.639852036313" lon="17.990931785302">
        <ele>36</ele>
        <time>2018-02-17T13:42:03Z</time>
      </trkpt>
      <trkpt lat="62.639839044368" lon="17.990965145264">
        <ele>36</ele>
        <time>2018-02-17T13:42:04Z</time>
      </trkpt>
      <trkpt lat="62.639823621672" lon="17.99099649357">
        <ele>36</ele>
        <time>2018-02-17T13:42:05Z</time>
      </trkpt>
      <trkpt lat="62.639814820677" lon="17.991032116645">
        <ele>36.2</ele>
        <time>2018-02-17T13:42:06Z</time>
      </trkpt>
      <trkpt lat="62.639806019682" lon="17.991070170471">
        <ele>36.2</ele>
        <time>2018-02-17T13:42:07Z</time>
      </trkpt>
      <trkpt lat="62.63979445266" lon="17.991113253437">
        <ele>36.6</ele>
        <time>2018-02-17T13:42:08Z</time>
      </trkpt>
      <trkpt lat="62.639787411864" lon="17.991156839317">
        <ele>36.6</ele>
        <time>2018-02-17T13:42:09Z</time>
      </trkpt>
      <trkpt lat="62.639776180118" lon="17.991203191224">
        <ele>36.8</ele>
        <time>2018-02-17T13:42:10Z</time>
      </trkpt>
      <trkpt lat="62.639764696915" lon="17.991253147348">
        <ele>37</ele>
        <time>2018-02-17T13:42:11Z</time>
      </trkpt>
      <trkpt lat="62.639756482653" lon="17.991291117355">
        <ele>37</ele>
        <time>2018-02-17T13:42:12Z</time>
      </trkpt>
      <trkpt lat="62.639747849296" lon="17.991333865045">
        <ele>37</ele>
        <time>2018-02-17T13:42:13Z</time>
      </trkpt>
      <trkpt lat="62.639742652518" lon="17.991374014346">
        <ele>37.2</ele>
        <time>2018-02-17T13:42:14Z</time>
      </trkpt>
      <trkpt lat="62.639737204283" lon="17.991409637421">
        <ele>37.2</ele>
        <time>2018-02-17T13:42:15Z</time>
      </trkpt>
      <trkpt lat="62.639730582582" lon="17.991451127826">
        <ele>37.2</ele>
        <time>2018-02-17T13:42:16Z</time>
      </trkpt>
      <trkpt lat="62.639722955053" lon="17.991478369001">
        <ele>37.2</ele>
        <time>2018-02-17T13:42:17Z</time>
      </trkpt>
      <trkpt lat="62.639712812954" lon="17.991520027044">
        <ele>37.4</ele>
        <time>2018-02-17T13:42:18Z</time>
      </trkpt>
      <trkpt lat="62.639707197081" lon="17.991554476653">
        <ele>37.4</ele>
        <time>2018-02-17T13:42:19Z</time>
      </trkpt>
      <trkpt lat="62.639699904828" lon="17.991587249882">
        <ele>37.6</ele>
        <time>2018-02-17T13:42:20Z</time>
      </trkpt>
      <trkpt lat="62.63969470805" lon="17.991625052251">
        <ele>37.6</ele>
        <time>2018-02-17T13:42:21Z</time>
      </trkpt>
      <trkpt lat="62.639693283127" lon="17.991666626475">
        <ele>37.8</ele>
        <time>2018-02-17T13:42:22Z</time>
      </trkpt>
      <trkpt lat="62.639679369173" lon="17.991704177387">
        <ele>37.8</ele>
        <time>2018-02-17T13:42:23Z</time>
      </trkpt>
      <trkpt lat="62.639674423852" lon="17.991747092715">
        <ele>38</ele>
        <time>2018-02-17T13:42:24Z</time>
      </trkpt>
      <trkpt lat="62.639666963961" lon="17.991789253672">
        <ele>38</ele>
        <time>2018-02-17T13:42:25Z</time>
      </trkpt>
      <trkpt lat="62.639659420251" lon="17.991833258647">
        <ele>38.2</ele>
        <time>2018-02-17T13:42:26Z</time>
      </trkpt>
      <trkpt lat="62.639652379455" lon="17.9918740785">
        <ele>38.2</ele>
        <time>2018-02-17T13:42:27Z</time>
      </trkpt>
      <trkpt lat="62.639645003383" lon="17.991919843674">
        <ele>38.4</ele>
        <time>2018-02-17T13:42:28Z</time>
      </trkpt>
      <trkpt lat="62.63963687294" lon="17.991970218893">
        <ele>38.6</ele>
        <time>2018-02-17T13:42:29Z</time>
      </trkpt>
      <trkpt lat="62.639629832144" lon="17.99201489442">
        <ele>38.4</ele>
        <time>2018-02-17T13:42:30Z</time>
      </trkpt>
      <trkpt lat="62.639625054461" lon="17.992060408137">
        <ele>38.6</ele>
        <time>2018-02-17T13:42:31Z</time>
      </trkpt>
      <trkpt lat="62.639617846027" lon="17.992101479447">
        <ele>38.6</ele>
        <time>2018-02-17T13:42:32Z</time>
      </trkpt>
      <trkpt lat="62.639613235982" lon="17.99214565206">
        <ele>38.4</ele>
        <time>2018-02-17T13:42:33Z</time>
      </trkpt>
      <trkpt lat="62.639609464127" lon="17.99218169423">
        <ele>38.4</ele>
        <time>2018-02-17T13:42:34Z</time>
      </trkpt>
      <trkpt lat="62.639606195186" lon="17.992220167151">
        <ele>38.6</ele>
        <time>2018-02-17T13:42:35Z</time>
      </trkpt>
      <trkpt lat="62.639599657304" lon="17.992259981176">
        <ele>38.6</ele>
        <time>2018-02-17T13:42:36Z</time>
      </trkpt>
      <trkpt lat="62.639587922644" lon="17.992297783545">
        <ele>38.6</ele>
        <time>2018-02-17T13:42:37Z</time>
      </trkpt>
      <trkpt lat="62.639577445269" lon="17.992343297262">
        <ele>38.6</ele>
        <time>2018-02-17T13:42:38Z</time>
      </trkpt>
      <trkpt lat="62.639570572111" lon="17.992385877314">
        <ele>38.8</ele>
        <time>2018-02-17T13:42:39Z</time>
      </trkpt>
      <trkpt lat="62.639565207695" lon="17.992427032443">
        <ele>38.8</ele>
        <time>2018-02-17T13:42:40Z</time>
      </trkpt>
      <trkpt lat="62.639561100564" lon="17.992472881436">
        <ele>38.8</ele>
        <time>2018-02-17T13:42:41Z</time>
      </trkpt>
      <trkpt lat="62.639555149415" lon="17.992517305506">
        <ele>38.8</ele>
        <time>2018-02-17T13:42:42Z</time>
      </trkpt>
      <trkpt lat="62.63954886299" lon="17.992571117304">
        <ele>39</ele>
        <time>2018-02-17T13:42:43Z</time>
      </trkpt>
      <trkpt lat="62.639545007316" lon="17.992624090912">
        <ele>39</ele>
        <time>2018-02-17T13:42:44Z</time>
      </trkpt>
      <trkpt lat="62.639544755859" lon="17.99266952081">
        <ele>39</ele>
        <time>2018-02-17T13:42:45Z</time>
      </trkpt>
      <trkpt lat="62.639550707008" lon="17.992718554925">
        <ele>39</ele>
        <time>2018-02-17T13:42:46Z</time>
      </trkpt>
      <trkpt lat="62.639555233234" lon="17.992761386434">
        <ele>39.2</ele>
        <time>2018-02-17T13:42:47Z</time>
      </trkpt>
      <trkpt lat="62.639556574338" lon="17.992811677834">
        <ele>39</ele>
        <time>2018-02-17T13:42:48Z</time>
      </trkpt>
      <trkpt lat="62.639559927098" lon="17.992856269542">
        <ele>39.2</ele>
        <time>2018-02-17T13:42:49Z</time>
      </trkpt>
      <trkpt lat="62.639561854935" lon="17.992905555114">
        <ele>39.2</ele>
        <time>2018-02-17T13:42:50Z</time>
      </trkpt>
      <trkpt lat="62.639565962066" lon="17.99295450541">
        <ele>39.2</ele>
        <time>2018-02-17T13:42:51Z</time>
      </trkpt>
      <trkpt lat="62.63957400869" lon="17.992999348575">
        <ele>39.2</ele>
        <time>2018-02-17T13:42:52Z</time>
      </trkpt>
      <trkpt lat="62.639561854935" lon="17.993050394346">
        <ele>39.4</ele>
        <time>2018-02-17T13:42:53Z</time>
      </trkpt>
      <trkpt lat="62.639559172727" lon="17.993093309674">
        <ele>39.4</ele>
        <time>2018-02-17T13:42:54Z</time>
      </trkpt>
      <trkpt lat="62.639557663985" lon="17.993137817563">
        <ele>39.4</ele>
        <time>2018-02-17T13:42:55Z</time>
      </trkpt>
      <trkpt lat="62.639549617361" lon="17.993184337108">
        <ele>39.6</ele>
        <time>2018-02-17T13:42:56Z</time>
      </trkpt>
      <trkpt lat="62.639547102791" lon="17.993225492237">
        <ele>39.6</ele>
        <time>2018-02-17T13:42:57Z</time>
      </trkpt>
      <trkpt lat="62.639542492746" lon="17.993274861628">
        <ele>39.6</ele>
        <time>2018-02-17T13:42:58Z</time>
      </trkpt>
      <trkpt lat="62.639536457778" lon="17.993333702566">
        <ele>39.6</ele>
        <time>2018-02-17T13:42:59Z</time>
      </trkpt>
      <trkpt lat="62.63952958462" lon="17.993386927631">
        <ele>39.6</ele>
        <time>2018-02-17T13:43:00Z</time>
      </trkpt>
      <trkpt lat="62.639523130557" lon="17.993446020026">
        <ele>39.8</ele>
        <time>2018-02-17T13:43:01Z</time>
      </trkpt>
      <trkpt lat="62.639518017598" lon="17.993494718865">
        <ele>39.8</ele>
        <time>2018-02-17T13:43:02Z</time>
      </trkpt>
      <trkpt lat="62.63950695349" lon="17.99354710574">
        <ele>40</ele>
        <time>2018-02-17T13:43:03Z</time>
      </trkpt>
      <trkpt lat="62.639496392296" lon="17.993591278353">
        <ele>40</ele>
        <time>2018-02-17T13:43:04Z</time>
      </trkpt>
      <trkpt lat="62.639482729799" lon="17.993639558097">
        <ele>40</ele>
        <time>2018-02-17T13:43:05Z</time>
      </trkpt>
      <trkpt lat="62.639471665691" lon="17.993684065986">
        <ele>40</ele>
        <time>2018-02-17T13:43:06Z</time>
      </trkpt>
      <trkpt lat="62.63945833847" lon="17.993724969658">
        <ele>40</ele>
        <time>2018-02-17T13:43:07Z</time>
      </trkpt>
      <trkpt lat="62.639443837783" lon="17.99376587333">
        <ele>40</ele>
        <time>2018-02-17T13:43:08Z</time>
      </trkpt>
      <trkpt lat="62.63943235458" lon="17.993803675699">
        <ele>40</ele>
        <time>2018-02-17T13:43:09Z</time>
      </trkpt>
      <trkpt lat="62.63941726716" lon="17.993836616566">
        <ele>40</ele>
        <time>2018-02-17T13:43:10Z</time>
      </trkpt>
      <trkpt lat="62.639399078437" lon="17.993863438646">
        <ele>40</ele>
        <time>2018-02-17T13:43:11Z</time>
      </trkpt>
      <trkpt lat="62.639391786184" lon="17.993890260726">
        <ele>40.2</ele>
        <time>2018-02-17T13:43:12Z</time>
      </trkpt>
      <trkpt lat="62.639383571922" lon="17.993922950136">
        <ele>40.2</ele>
        <time>2018-02-17T13:43:13Z</time>
      </trkpt>
      <trkpt lat="62.639370831434" lon="17.993958154116">
        <ele>40.4</ele>
        <time>2018-02-17T13:43:14Z</time>
      </trkpt>
      <trkpt lat="62.639360856973" lon="17.993991262621">
        <ele>40.6</ele>
        <time>2018-02-17T13:43:15Z</time>
      </trkpt>
      <trkpt lat="62.639348367942" lon="17.994021856556">
        <ele>40.8</ele>
        <time>2018-02-17T13:43:16Z</time>
      </trkpt>
      <trkpt lat="62.639335878911" lon="17.994050103559">
        <ele>40.8</ele>
        <time>2018-02-17T13:43:17Z</time>
      </trkpt>
      <trkpt lat="62.63932506626" lon="17.994080362218">
        <ele>41</ele>
        <time>2018-02-17T13:43:18Z</time>
      </trkpt>
      <trkpt lat="62.639312158134" lon="17.994106346108">
        <ele>41</ele>
        <time>2018-02-17T13:43:19Z</time>
      </trkpt>
      <trkpt lat="62.639304362967" lon="17.99413970607">
        <ele>41.2</ele>
        <time>2018-02-17T13:43:20Z</time>
      </trkpt>
      <trkpt lat="62.639294220868" lon="17.994179520095">
        <ele>41.2</ele>
        <time>2018-02-17T13:43:21Z</time>
      </trkpt>
      <trkpt lat="62.639283492036" lon="17.994221429595">
        <ele>41.2</ele>
        <time>2018-02-17T13:43:22Z</time>
      </trkpt>
      <trkpt lat="62.639271086824" lon="17.994261578896">
        <ele>41.4</ele>
        <time>2018-02-17T13:43:23Z</time>
      </trkpt>
      <trkpt lat="62.639258513974" lon="17.994305332414">
        <ele>41.6</ele>
        <time>2018-02-17T13:43:24Z</time>
      </trkpt>
      <trkpt lat="62.639248036599" lon="17.994352354873">
        <ele>41.6</ele>
        <time>2018-02-17T13:43:25Z</time>
      </trkpt>
      <trkpt lat="62.639236553396" lon="17.994392587993">
        <ele>41.6</ele>
        <time>2018-02-17T13:43:26Z</time>
      </trkpt>
      <trkpt lat="62.639222220347" lon="17.994429552172">
        <ele>41.8</ele>
        <time>2018-02-17T13:43:27Z</time>
      </trkpt>
      <trkpt lat="62.639212832619" lon="17.994471210215">
        <ele>41.8</ele>
        <time>2018-02-17T13:43:28Z</time>
      </trkpt>
      <trkpt lat="62.639201768511" lon="17.994509934593">
        <ele>42</ele>
        <time>2018-02-17T13:43:29Z</time>
      </trkpt>
      <trkpt lat="62.639190033851" lon="17.99454622822">
        <ele>42</ele>
        <time>2018-02-17T13:43:30Z</time>
      </trkpt>
      <trkpt lat="62.639176538992" lon="17.994583276218">
        <ele>42</ele>
        <time>2018-02-17T13:43:31Z</time>
      </trkpt>
      <trkpt lat="62.639165642522" lon="17.994613115782">
        <ele>42.2</ele>
        <time>2018-02-17T13:43:32Z</time>
      </trkpt>
      <trkpt lat="62.63915491369" lon="17.994648655038">
        <ele>42.2</ele>
        <time>2018-02-17T13:43:33Z</time>
      </trkpt>
      <trkpt lat="62.639142424659" lon="17.994681428267">
        <ele>42.2</ele>
        <time>2018-02-17T13:43:34Z</time>
      </trkpt>
      <trkpt lat="62.639127756334" lon="17.994720907016">
        <ele>42.4</ele>
        <time>2018-02-17T13:43:35Z</time>
      </trkpt>
      <trkpt lat="62.639113926199" lon="17.994758457928">
        <ele>42.4</ele>
        <time>2018-02-17T13:43:36Z</time>
      </trkpt>
      <trkpt lat="62.639103113548" lon="17.994793997184">
        <ele>42.4</ele>
        <time>2018-02-17T13:43:37Z</time>
      </trkpt>
      <trkpt lat="62.639091043612" lon="17.994832973019">
        <ele>42.6</ele>
        <time>2018-02-17T13:43:38Z</time>
      </trkpt>
      <trkpt lat="62.639073273984" lon="17.994868344637">
        <ele>42.6</ele>
        <time>2018-02-17T13:43:39Z</time>
      </trkpt>
      <trkpt lat="62.639055588175" lon="17.994899190029">
        <ele>42.4</ele>
        <time>2018-02-17T13:43:40Z</time>
      </trkpt>
      <trkpt lat="62.639037734728" lon="17.994928023765">
        <ele>42.6</ele>
        <time>2018-02-17T13:43:41Z</time>
      </trkpt>
      <trkpt lat="62.639022647308" lon="17.994954175293">
        <ele>42.6</ele>
        <time>2018-02-17T13:43:42Z</time>
      </trkpt>
      <trkpt lat="62.639010074458" lon="17.994985607418">
        <ele>42.6</ele>
        <time>2018-02-17T13:43:43Z</time>
      </trkpt>
      <trkpt lat="62.638995573771" lon="17.995016620448">
        <ele>42.6</ele>
        <time>2018-02-17T13:43:44Z</time>
      </trkpt>
      <trkpt lat="62.638979229066" lon="17.995042771976">
        <ele>42.8</ele>
        <time>2018-02-17T13:43:45Z</time>
      </trkpt>
      <trkpt lat="62.638965985664" lon="17.995067833857">
        <ele>43</ele>
        <time>2018-02-17T13:43:46Z</time>
      </trkpt>
      <trkpt lat="62.638951820253" lon="17.995090884082">
        <ele>43</ele>
        <time>2018-02-17T13:43:47Z</time>
      </trkpt>
      <trkpt lat="62.638933212435" lon="17.995127680623">
        <ele>43.2</ele>
        <time>2018-02-17T13:43:48Z</time>
      </trkpt>
      <trkpt lat="62.638917035368" lon="17.995164309526">
        <ele>43.4</ele>
        <time>2018-02-17T13:43:49Z</time>
      </trkpt>
      <trkpt lat="62.638899349559" lon="17.995198926773">
        <ele>43.6</ele>
        <time>2018-02-17T13:43:50Z</time>
      </trkpt>
      <trkpt lat="62.638883004854" lon="17.995240081902">
        <ele>43.6</ele>
        <time>2018-02-17T13:43:51Z</time>
      </trkpt>
      <trkpt lat="62.638871354013" lon="17.995286014714">
        <ele>43.6</ele>
        <time>2018-02-17T13:43:52Z</time>
      </trkpt>
      <trkpt lat="62.638846375951" lon="17.995300934496">
        <ele>43.8</ele>
        <time>2018-02-17T13:43:53Z</time>
      </trkpt>
      <trkpt lat="62.638828941599" lon="17.995333120992">
        <ele>44</ele>
        <time>2018-02-17T13:43:54Z</time>
      </trkpt>
      <trkpt lat="62.638810836695" lon="17.995364636936">
        <ele>43.8</ele>
        <time>2018-02-17T13:43:55Z</time>
      </trkpt>
      <trkpt lat="62.638798850578" lon="17.995400679106">
        <ele>44</ele>
        <time>2018-02-17T13:43:56Z</time>
      </trkpt>
      <trkpt lat="62.638783763158" lon="17.995432530326">
        <ele>44</ele>
        <time>2018-02-17T13:43:57Z</time>
      </trkpt>
      <trkpt lat="62.638767921367" lon="17.995467985763">
        <ele>44</ele>
        <time>2018-02-17T13:43:58Z</time>
      </trkpt>
      <trkpt lat="62.638753253042" lon="17.995501681001">
        <ele>44</ele>
        <time>2018-02-17T13:43:59Z</time>
      </trkpt>
      <trkpt lat="62.638736070147" lon="17.995532274936">
        <ele>44</ele>
        <time>2018-02-17T13:44:00Z</time>
      </trkpt>
      <trkpt lat="62.63872156946" lon="17.995572591875">
        <ele>44.2</ele>
        <time>2018-02-17T13:44:01Z</time>
      </trkpt>
      <trkpt lat="62.638707152592" lon="17.995606035656">
        <ele>44.4</ele>
        <time>2018-02-17T13:44:02Z</time>
      </trkpt>
      <trkpt lat="62.638690640249" lon="17.995641910188">
        <ele>44.4</ele>
        <time>2018-02-17T13:44:03Z</time>
      </trkpt>
      <trkpt lat="62.63867714539" lon="17.995672336485">
        <ele>44.6</ele>
        <time>2018-02-17T13:44:04Z</time>
      </trkpt>
      <trkpt lat="62.63866038159" lon="17.995705696447">
        <ele>44.6</ele>
        <time>2018-02-17T13:44:05Z</time>
      </trkpt>
      <trkpt lat="62.638646048541" lon="17.99574232535">
        <ele>44.6</ele>
        <time>2018-02-17T13:44:06Z</time>
      </trkpt>
      <trkpt lat="62.638629703836" lon="17.995777361692">
        <ele>44.6</ele>
        <time>2018-02-17T13:44:07Z</time>
      </trkpt>
      <trkpt lat="62.638608749086" lon="17.995814828785">
        <ele>44.8</ele>
        <time>2018-02-17T13:44:08Z</time>
      </trkpt>
      <trkpt lat="62.638589722173" lon="17.995854223715">
        <ele>44.8</ele>
        <time>2018-02-17T13:44:09Z</time>
      </trkpt>
      <trkpt lat="62.638571365812" lon="17.995888924781">
        <ele>45</ele>
        <time>2018-02-17T13:44:10Z</time>
      </trkpt>
      <trkpt lat="62.638552841813" lon="17.99591834525">
        <ele>45</ele>
        <time>2018-02-17T13:44:11Z</time>
      </trkpt>
      <trkpt lat="62.638540185144" lon="17.995948100995">
        <ele>45</ele>
        <time>2018-02-17T13:44:12Z</time>
      </trkpt>
      <trkpt lat="62.638524091896" lon="17.99598288588">
        <ele>45</ele>
        <time>2018-02-17T13:44:13Z</time>
      </trkpt>
      <trkpt lat="62.638509423571" lon="17.996004846458">
        <ele>45.2</ele>
        <time>2018-02-17T13:44:14Z</time>
      </trkpt>
      <trkpt lat="62.638497688911" lon="17.996026807036">
        <ele>45.2</ele>
        <time>2018-02-17T13:44:15Z</time>
      </trkpt>
      <trkpt lat="62.638483272043" lon="17.996057736247">
        <ele>45.4</ele>
        <time>2018-02-17T13:44:16Z</time>
      </trkpt>
      <trkpt lat="62.63846759789" lon="17.996094784245">
        <ele>45.6</ele>
        <time>2018-02-17T13:44:17Z</time>
      </trkpt>
      <trkpt lat="62.63844915771" lon="17.996137699573">
        <ele>45.8</ele>
        <time>2018-02-17T13:44:18Z</time>
      </trkpt>
      <trkpt lat="62.638433148281" lon="17.996170388983">
        <ele>46</ele>
        <time>2018-02-17T13:44:19Z</time>
      </trkpt>
      <trkpt lat="62.638417222671" lon="17.996200647642">
        <ele>46</ele>
        <time>2018-02-17T13:44:20Z</time>
      </trkpt>
      <trkpt lat="62.638399033948" lon="17.996241802771">
        <ele>46.2</ele>
        <time>2018-02-17T13:44:21Z</time>
      </trkpt>
      <trkpt lat="62.638380929044" lon="17.996293183818">
        <ele>46.2</ele>
        <time>2018-02-17T13:44:22Z</time>
      </trkpt>
      <trkpt lat="62.638360561027" lon="17.996315228215">
        <ele>46.4</ele>
        <time>2018-02-17T13:44:23Z</time>
      </trkpt>
      <trkpt lat="62.638347485263" lon="17.996347414711">
        <ele>46.4</ele>
        <time>2018-02-17T13:44:24Z</time>
      </trkpt>
      <trkpt lat="62.63833600206" lon="17.99638018794">
        <ele>46.4</ele>
        <time>2018-02-17T13:44:25Z</time>
      </trkpt>
      <trkpt lat="62.638323680667" lon="17.996422851811">
        <ele>46.4</ele>
        <time>2018-02-17T13:44:26Z</time>
      </trkpt>
      <trkpt lat="62.638308760885" lon="17.996460570361">
        <ele>46.4</ele>
        <time>2018-02-17T13:44:27Z</time>
      </trkpt>
      <trkpt lat="62.638288560506" lon="17.996495522884">
        <ele>46.8</ele>
        <time>2018-02-17T13:44:28Z</time>
      </trkpt>
      <trkpt lat="62.638269030679" lon="17.99653273852">
        <ele>47</ele>
        <time>2018-02-17T13:44:29Z</time>
      </trkpt>
      <trkpt lat="62.638250841956" lon="17.996572301088">
        <ele>47</ele>
        <time>2018-02-17T13:44:30Z</time>
      </trkpt>
      <trkpt lat="62.638234748708" lon="17.996614462045">
        <ele>47</ele>
        <time>2018-02-17T13:44:31Z</time>
      </trkpt>
      <trkpt lat="62.638219242193" lon="17.996637176994">
        <ele>47.2</ele>
        <time>2018-02-17T13:44:32Z</time>
      </trkpt>
      <trkpt lat="62.638205747334" lon="17.996662825608">
        <ele>47</ele>
        <time>2018-02-17T13:44:33Z</time>
      </trkpt>
      <trkpt lat="62.638191749561" lon="17.996683696539">
        <ele>47</ele>
        <time>2018-02-17T13:44:34Z</time>
      </trkpt>
      <trkpt lat="62.638174482847" lon="17.99670792023">
        <ele>47</ele>
        <time>2018-02-17T13:44:35Z</time>
      </trkpt>
      <trkpt lat="62.638160904169" lon="17.996737424518">
        <ele>47</ele>
        <time>2018-02-17T13:44:36Z</time>
      </trkpt>
      <trkpt lat="62.638147157853" lon="17.99676324077">
        <ele>47</ele>
        <time>2018-02-17T13:44:37Z</time>
      </trkpt>
      <trkpt lat="62.6381314837" lon="17.996784027882">
        <ele>47.2</ele>
        <time>2018-02-17T13:44:38Z</time>
      </trkpt>
      <trkpt lat="62.638119078488" lon="17.996797858017">
        <ele>47.4</ele>
        <time>2018-02-17T13:44:39Z</time>
      </trkpt>
      <trkpt lat="62.638103069059" lon="17.996814621817">
        <ele>47.4</ele>
        <time>2018-02-17T13:44:40Z</time>
      </trkpt>
      <trkpt lat="62.638085886164" lon="17.996837085309">
        <ele>47.4</ele>
        <time>2018-02-17T13:44:41Z</time>
      </trkpt>
      <trkpt lat="62.638071888391" lon="17.996862901561">
        <ele>47.6</ele>
        <time>2018-02-17T13:44:42Z</time>
      </trkpt>
      <trkpt lat="62.638049424899" lon="17.996881760836">
        <ele>47.6</ele>
        <time>2018-02-17T13:44:43Z</time>
      </trkpt>
      <trkpt lat="62.638027045226" lon="17.996905565432">
        <ele>47.8</ele>
        <time>2018-02-17T13:44:44Z</time>
      </trkpt>
      <trkpt lat="62.638007347761" lon="17.996926017268">
        <ele>47.8</ele>
        <time>2018-02-17T13:44:45Z</time>
      </trkpt>
      <trkpt lat="62.637986309192" lon="17.996948899855">
        <ele>48</ele>
        <time>2018-02-17T13:44:46Z</time>
      </trkpt>
      <trkpt lat="62.637972059962" lon="17.996972033899">
        <ele>48.2</ele>
        <time>2018-02-17T13:44:47Z</time>
      </trkpt>
      <trkpt lat="62.63796049294" lon="17.996996509047">
        <ele>48.2</ele>
        <time>2018-02-17T13:44:48Z</time>
      </trkpt>
      <trkpt lat="62.637949512651" lon="17.997029617552">
        <ele>48.4</ele>
        <time>2018-02-17T13:44:49Z</time>
      </trkpt>
      <trkpt lat="62.637937526534" lon="17.997070185948">
        <ele>48.4</ele>
        <time>2018-02-17T13:44:50Z</time>
      </trkpt>
      <trkpt lat="62.63792025982" lon="17.997106144299">
        <ele>48.6</ele>
        <time>2018-02-17T13:44:51Z</time>
      </trkpt>
      <trkpt lat="62.637904837124" lon="17.99713958808">
        <ele>48.6</ele>
        <time>2018-02-17T13:44:52Z</time>
      </trkpt>
      <trkpt lat="62.637885810211" lon="17.997176216983">
        <ele>48.8</ele>
        <time>2018-02-17T13:44:53Z</time>
      </trkpt>
      <trkpt lat="62.637868962592" lon="17.997207397651">
        <ele>48.8</ele>
        <time>2018-02-17T13:44:54Z</time>
      </trkpt>
      <trkpt lat="62.637854126629" lon="17.997239751785">
        <ele>48.8</ele>
        <time>2018-02-17T13:44:55Z</time>
      </trkpt>
      <trkpt lat="62.637840715589" lon="17.997273447023">
        <ele>49</ele>
        <time>2018-02-17T13:44:56Z</time>
      </trkpt>
      <trkpt lat="62.637827975101" lon="17.997303621863">
        <ele>49</ele>
        <time>2018-02-17T13:44:57Z</time>
      </trkpt>
      <trkpt lat="62.637811462758" lon="17.997338406748">
        <ele>49.2</ele>
        <time>2018-02-17T13:44:58Z</time>
      </trkpt>
      <trkpt lat="62.637800231012" lon="17.997377047307">
        <ele>49.2</ele>
        <time>2018-02-17T13:44:59Z</time>
      </trkpt>
      <trkpt lat="62.637786903791" lon="17.997406635414">
        <ele>49.2</ele>
        <time>2018-02-17T13:45:00Z</time>
      </trkpt>
      <trkpt lat="62.637773660389" lon="17.997445192154">
        <ele>49.2</ele>
        <time>2018-02-17T13:45:01Z</time>
      </trkpt>
      <trkpt lat="62.637763015376" lon="17.997482072514">
        <ele>49.2</ele>
        <time>2018-02-17T13:45:02Z</time>
      </trkpt>
      <trkpt lat="62.637750693983" lon="17.997525826032">
        <ele>49.2</ele>
        <time>2018-02-17T13:45:03Z</time>
      </trkpt>
      <trkpt lat="62.637738288771" lon="17.997581230391">
        <ele>49.2</ele>
        <time>2018-02-17T13:45:04Z</time>
      </trkpt>
      <trkpt lat="62.637726218835" lon="17.997615763819">
        <ele>49.2</ele>
        <time>2018-02-17T13:45:05Z</time>
      </trkpt>
      <trkpt lat="62.637717334021" lon="17.997650464885">
        <ele>49.4</ele>
        <time>2018-02-17T13:45:06Z</time>
      </trkpt>
      <trkpt lat="62.637702581877" lon="17.997686423236">
        <ele>49.4</ele>
        <time>2018-02-17T13:45:07Z</time>
      </trkpt>
      <trkpt lat="62.637689589932" lon="17.997736295541">
        <ele>49.2</ele>
        <time>2018-02-17T13:45:08Z</time>
      </trkpt>
      <trkpt lat="62.637676011254" lon="17.997775606652">
        <ele>49.4</ele>
        <time>2018-02-17T13:45:09Z</time>
      </trkpt>
      <trkpt lat="62.637660001825" lon="17.997809385709">
        <ele>49.4</ele>
        <time>2018-02-17T13:45:10Z</time>
      </trkpt>
      <trkpt lat="62.63764784807" lon="17.99785288777">
        <ele>49.4</ele>
        <time>2018-02-17T13:45:11Z</time>
      </trkpt>
      <trkpt lat="62.637626809501" lon="17.997899994048">
        <ele>49.4</ele>
        <time>2018-02-17T13:45:12Z</time>
      </trkpt>
      <trkpt lat="62.637608620778" lon="17.997949614896">
        <ele>49.4</ele>
        <time>2018-02-17T13:45:13Z</time>
      </trkpt>
      <trkpt lat="62.637590934969" lon="17.997991272939">
        <ele>49.4</ele>
        <time>2018-02-17T13:45:14Z</time>
      </trkpt>
      <trkpt lat="62.637573584436" lon="17.998027398928">
        <ele>49.4</ele>
        <time>2018-02-17T13:45:15Z</time>
      </trkpt>
      <trkpt lat="62.637558329378" lon="17.998064698383">
        <ele>49.4</ele>
        <time>2018-02-17T13:45:16Z</time>
      </trkpt>
      <trkpt lat="62.637527232529" lon="17.998101243467">
        <ele>49.4</ele>
        <time>2018-02-17T13:45:17Z</time>
      </trkpt>
      <trkpt lat="62.637505774865" lon="17.99814290151">
        <ele>49.4</ele>
        <time>2018-02-17T13:45:18Z</time>
      </trkpt>
      <trkpt lat="62.637489011065" lon="17.998173998359">
        <ele>49.2</ele>
        <time>2018-02-17T13:45:19Z</time>
      </trkpt>
      <trkpt lat="62.637469062143" lon="17.998201155715">
        <ele>49.4</ele>
        <time>2018-02-17T13:45:20Z</time>
      </trkpt>
      <trkpt lat="62.637455232008" lon="17.99823426422">
        <ele>49.4</ele>
        <time>2018-02-17T13:45:21Z</time>
      </trkpt>
      <trkpt lat="62.637439222579" lon="17.998255721884">
        <ele>49.6</ele>
        <time>2018-02-17T13:45:22Z</time>
      </trkpt>
      <trkpt lat="62.637417262001" lon="17.998282711602">
        <ele>49.6</ele>
        <time>2018-02-17T13:45:23Z</time>
      </trkpt>
      <trkpt lat="62.637399576192" lon="17.9983197596">
        <ele>50</ele>
        <time>2018-02-17T13:45:24Z</time>
      </trkpt>
      <trkpt lat="62.637378369985" lon="17.998354376847">
        <ele>50</ele>
        <time>2018-02-17T13:45:25Z</time>
      </trkpt>
      <trkpt lat="62.637358840158" lon="17.998396956899">
        <ele>50.2</ele>
        <time>2018-02-17T13:45:26Z</time>
      </trkpt>
      <trkpt lat="62.637344590928" lon="17.998432496155">
        <ele>50.4</ele>
        <time>2018-02-17T13:45:27Z</time>
      </trkpt>
      <trkpt lat="62.637327408033" lon="17.998470214705">
        <ele>50.6</ele>
        <time>2018-02-17T13:45:28Z</time>
      </trkpt>
      <trkpt lat="62.63731089569" lon="17.998521009019">
        <ele>50.6</ele>
        <time>2018-02-17T13:45:29Z</time>
      </trkpt>
      <trkpt lat="62.637292706967" lon="17.998570462229">
        <ele>50.8</ele>
        <time>2018-02-17T13:45:30Z</time>
      </trkpt>
      <trkpt lat="62.637269992018" lon="17.998623016742">
        <ele>50.8</ele>
        <time>2018-02-17T13:45:31Z</time>
      </trkpt>
      <trkpt lat="62.637256078064" lon="17.998665848251">
        <ele>50.8</ele>
        <time>2018-02-17T13:45:32Z</time>
      </trkpt>
      <trkpt lat="62.637238476074" lon="17.998716558746">
        <ele>50.8</ele>
        <time>2018-02-17T13:45:33Z</time>
      </trkpt>
      <trkpt lat="62.637223556292" lon="17.998759641712">
        <ele>50.8</ele>
        <time>2018-02-17T13:45:34Z</time>
      </trkpt>
      <trkpt lat="62.637207295406" lon="17.998795432425">
        <ele>50.6</ele>
        <time>2018-02-17T13:45:35Z</time>
      </trkpt>
      <trkpt lat="62.637184999552" lon="17.99882602636">
        <ele>50.4</ele>
        <time>2018-02-17T13:45:36Z</time>
      </trkpt>
      <trkpt lat="62.637174857453" lon="17.998859470141">
        <ele>50.4</ele>
        <time>2018-02-17T13:45:37Z</time>
      </trkpt>
      <trkpt lat="62.637153483608" lon="17.998891991913">
        <ele>50.4</ele>
        <time>2018-02-17T13:45:38Z</time>
      </trkpt>
      <trkpt lat="62.637136887446" lon="17.998916467061">
        <ele>50.4</ele>
        <time>2018-02-17T13:45:39Z</time>
      </trkpt>
      <trkpt lat="62.63712314113" lon="17.998940355476">
        <ele>50.4</ele>
        <time>2018-02-17T13:45:40Z</time>
      </trkpt>
      <trkpt lat="62.637106880244" lon="17.99896348952">
        <ele>50.6</ele>
        <time>2018-02-17T13:45:41Z</time>
      </trkpt>
      <trkpt lat="62.637095983774" lon="17.998996933301">
        <ele>50.6</ele>
        <time>2018-02-17T13:45:42Z</time>
      </trkpt>
      <trkpt lat="62.637080561078" lon="17.999024593571">
        <ele>50.8</ele>
        <time>2018-02-17T13:45:43Z</time>
      </trkpt>
      <trkpt lat="62.637058935776" lon="17.999045213045">
        <ele>50.8</ele>
        <time>2018-02-17T13:45:44Z</time>
      </trkpt>
      <trkpt lat="62.637043429261" lon="17.99907664517">
        <ele>51</ele>
        <time>2018-02-17T13:45:45Z</time>
      </trkpt>
      <trkpt lat="62.637028090384" lon="17.999104975992">
        <ele>51</ele>
        <time>2018-02-17T13:45:46Z</time>
      </trkpt>
      <trkpt lat="62.637013924973" lon="17.999125763104">
        <ele>51.2</ele>
        <time>2018-02-17T13:45:47Z</time>
      </trkpt>
      <trkpt lat="62.637001100666" lon="17.999156859953">
        <ele>51.4</ele>
        <time>2018-02-17T13:45:48Z</time>
      </trkpt>
      <trkpt lat="62.636983079581" lon="17.999183598214">
        <ele>51.6</ele>
        <time>2018-02-17T13:45:49Z</time>
      </trkpt>
      <trkpt lat="62.636965477591" lon="17.99920405005">
        <ele>51.4</ele>
        <time>2018-02-17T13:45:50Z</time>
      </trkpt>
      <trkpt lat="62.636951647456" lon="17.999234476347">
        <ele>51.6</ele>
        <time>2018-02-17T13:45:51Z</time>
      </trkpt>
      <trkpt lat="62.636933123457" lon="17.999255934011">
        <ele>51.8</ele>
        <time>2018-02-17T13:45:52Z</time>
      </trkpt>
      <trkpt lat="62.636914264182" lon="17.999294826027">
        <ele>52</ele>
        <time>2018-02-17T13:45:53Z</time>
      </trkpt>
      <trkpt lat="62.636891297776" lon="17.999315445501">
        <ele>52.2</ele>
        <time>2018-02-17T13:45:54Z</time>
      </trkpt>
      <trkpt lat="62.63687503689" lon="17.999350649481">
        <ele>52.4</ele>
        <time>2018-02-17T13:45:55Z</time>
      </trkpt>
      <trkpt lat="62.636855842339" lon="17.999365653082">
        <ele>52.6</ele>
        <time>2018-02-17T13:45:56Z</time>
      </trkpt>
      <trkpt lat="62.636835390503" lon="17.999384847633">
        <ele>52.6</ele>
        <time>2018-02-17T13:45:57Z</time>
      </trkpt>
      <trkpt lat="62.636816782685" lon="17.999413513731">
        <ele>52.6</ele>
        <time>2018-02-17T13:45:58Z</time>
      </trkpt>
      <trkpt lat="62.636794905926" lon="17.999440000535">
        <ele>52.8</ele>
        <time>2018-02-17T13:45:59Z</time>
      </trkpt>
      <trkpt lat="62.636781830162" lon="17.999476880895">
        <ele>52.8</ele>
        <time>2018-02-17T13:46:00Z</time>
      </trkpt>
      <trkpt lat="62.636762551792" lon="17.999516778739">
        <ele>52.8</ele>
        <time>2018-02-17T13:46:01Z</time>
      </trkpt>
      <trkpt lat="62.636748973114" lon="17.999562460094">
        <ele>52.8</ele>
        <time>2018-02-17T13:46:02Z</time>
      </trkpt>
      <trkpt lat="62.636730532934" lon="17.999607554716">
        <ele>52.8</ele>
        <time>2018-02-17T13:46:03Z</time>
      </trkpt>
      <trkpt lat="62.636711841297" lon="17.999653906623">
        <ele>52.8</ele>
        <time>2018-02-17T13:46:04Z</time>
      </trkpt>
      <trkpt lat="62.636698597895" lon="17.999698246874">
        <ele>53</ele>
        <time>2018-02-17T13:46:05Z</time>
      </trkpt>
      <trkpt lat="62.63668057681" lon="17.999736133062">
        <ele>53</ele>
        <time>2018-02-17T13:46:06Z</time>
      </trkpt>
      <trkpt lat="62.636667836322" lon="17.999783071702">
        <ele>53</ele>
        <time>2018-02-17T13:46:07Z</time>
      </trkpt>
      <trkpt lat="62.636651072522" lon="17.999826070849">
        <ele>53.2</ele>
        <time>2018-02-17T13:46:08Z</time>
      </trkpt>
      <trkpt lat="62.636632632342" lon="17.999869069996">
        <ele>53.2</ele>
        <time>2018-02-17T13:46:09Z</time>
      </trkpt>
      <trkpt lat="62.636625172451" lon="17.999919948129">
        <ele>53.2</ele>
        <time>2018-02-17T13:46:10Z</time>
      </trkpt>
      <trkpt lat="62.636613940705" lon="17.999970071891">
        <ele>53.2</ele>
        <time>2018-02-17T13:46:11Z</time>
      </trkpt>
      <trkpt lat="62.636600529665" lon="18.000019106006">
        <ele>53</ele>
        <time>2018-02-17T13:46:12Z</time>
      </trkpt>
      <trkpt lat="62.636589046462" lon="18.000060428773">
        <ele>53</ele>
        <time>2018-02-17T13:46:13Z</time>
      </trkpt>
      <trkpt lat="62.636573372309" lon="18.000106277766">
        <ele>53</ele>
        <time>2018-02-17T13:46:14Z</time>
      </trkpt>
      <trkpt lat="62.636565912418" lon="18.000148606361">
        <ele>53</ele>
        <time>2018-02-17T13:46:15Z</time>
      </trkpt>
      <trkpt lat="62.636553339568" lon="18.00020065796">
        <ele>53</ele>
        <time>2018-02-17T13:46:16Z</time>
      </trkpt>
      <trkpt lat="62.636542610736" lon="18.000252961016">
        <ele>53</ele>
        <time>2018-02-17T13:46:17Z</time>
      </trkpt>
      <trkpt lat="62.636527439497" lon="18.000301576036">
        <ele>53</ele>
        <time>2018-02-17T13:46:18Z</time>
      </trkpt>
      <trkpt lat="62.636510172783" lon="18.000355387834">
        <ele>53</ele>
        <time>2018-02-17T13:46:19Z</time>
      </trkpt>
      <trkpt lat="62.636495755915" lon="18.000402745569">
        <ele>53</ele>
        <time>2018-02-17T13:46:20Z</time>
      </trkpt>
      <trkpt lat="62.636484021255" lon="18.000443816879">
        <ele>53</ele>
        <time>2018-02-17T13:46:21Z</time>
      </trkpt>
      <trkpt lat="62.636473292423" lon="18.000481032515">
        <ele>53</ele>
        <time>2018-02-17T13:46:22Z</time>
      </trkpt>
      <trkpt lat="62.63646013284" lon="18.000524031662">
        <ele>53</ele>
        <time>2018-02-17T13:46:23Z</time>
      </trkpt>
      <trkpt lat="62.636445632153" lon="18.000574406881">
        <ele>53</ele>
        <time>2018-02-17T13:46:24Z</time>
      </trkpt>
      <trkpt lat="62.636435573873" lon="18.000617992761">
        <ele>53</ele>
        <time>2018-02-17T13:46:25Z</time>
      </trkpt>
      <trkpt lat="62.636417804245" lon="18.000658812614">
        <ele>53.2</ele>
        <time>2018-02-17T13:46:26Z</time>
      </trkpt>
      <trkpt lat="62.63640145954" lon="18.000698039906">
        <ele>53.2</ele>
        <time>2018-02-17T13:46:27Z</time>
      </trkpt>
      <trkpt lat="62.636385031016" lon="18.000737434836">
        <ele>53.2</ele>
        <time>2018-02-17T13:46:28Z</time>
      </trkpt>
      <trkpt lat="62.636366087922" lon="18.000786217494">
        <ele>53.2</ele>
        <time>2018-02-17T13:46:29Z</time>
      </trkpt>
      <trkpt lat="62.636351587235" lon="18.000828713727">
        <ele>53.2</ele>
        <time>2018-02-17T13:46:30Z</time>
      </trkpt>
      <trkpt lat="62.63633105158" lon="18.000880262412">
        <ele>53.2</ele>
        <time>2018-02-17T13:46:31Z</time>
      </trkpt>
      <trkpt lat="62.636316047979" lon="18.000923680654">
        <ele>53</ele>
        <time>2018-02-17T13:46:32Z</time>
      </trkpt>
      <trkpt lat="62.636300541464" lon="18.000960309557">
        <ele>53.2</ele>
        <time>2018-02-17T13:46:33Z</time>
      </trkpt>
      <trkpt lat="62.636286292234" lon="18.001000039763">
        <ele>53</ele>
        <time>2018-02-17T13:46:34Z</time>
      </trkpt>
      <trkpt lat="62.636275814859" lon="18.001048235688">
        <ele>53</ele>
        <time>2018-02-17T13:46:35Z</time>
      </trkpt>
      <trkpt lat="62.636259637792" lon="18.001083607306">
        <ele>53.2</ele>
        <time>2018-02-17T13:46:36Z</time>
      </trkpt>
      <trkpt lat="62.63624387982" lon="18.001130126851">
        <ele>53.2</ele>
        <time>2018-02-17T13:46:37Z</time>
      </trkpt>
      <trkpt lat="62.636228457124" lon="18.001172874541">
        <ele>53.2</ele>
        <time>2018-02-17T13:46:38Z</time>
      </trkpt>
      <trkpt lat="62.636213537342" lon="18.001214364946">
        <ele>53.2</ele>
        <time>2018-02-17T13:46:39Z</time>
      </trkpt>
      <trkpt lat="62.636206328908" lon="18.001243450139">
        <ele>53.2</ele>
        <time>2018-02-17T13:46:40Z</time>
      </trkpt>
      <trkpt lat="62.636192666411" lon="18.001277313015">
        <ele>53.2</ele>
        <time>2018-02-17T13:46:41Z</time>
      </trkpt>
      <trkpt lat="62.636181518484" lon="18.001306649665">
        <ele>53.2</ele>
        <time>2018-02-17T13:46:42Z</time>
      </trkpt>
      <trkpt lat="62.636173807136" lon="18.001344284396">
        <ele>53.2</ele>
        <time>2018-02-17T13:46:43Z</time>
      </trkpt>
      <trkpt lat="62.636160647553" lon="18.001387535">
        <ele>53.2</ele>
        <time>2018-02-17T13:46:44Z</time>
      </trkpt>
      <trkpt lat="62.636145141038" lon="18.001430366509">
        <ele>53.2</ele>
        <time>2018-02-17T13:46:45Z</time>
      </trkpt>
      <trkpt lat="62.636128461057" lon="18.001471102543">
        <ele>53.2</ele>
        <time>2018-02-17T13:46:46Z</time>
      </trkpt>
      <trkpt lat="62.636113289818" lon="18.001509659283">
        <ele>53.2</ele>
        <time>2018-02-17T13:46:47Z</time>
      </trkpt>
      <trkpt lat="62.636101806615" lon="18.001554083353">
        <ele>53.2</ele>
        <time>2018-02-17T13:46:48Z</time>
      </trkpt>
      <trkpt lat="62.636082276788" lon="18.00160211164">
        <ele>53.2</ele>
        <time>2018-02-17T13:46:49Z</time>
      </trkpt>
      <trkpt lat="62.636062663142" lon="18.001645865158">
        <ele>53.2</ele>
        <time>2018-02-17T13:46:50Z</time>
      </trkpt>
      <trkpt lat="62.636042630401" lon="18.001690875961">
        <ele>53.2</ele>
        <time>2018-02-17T13:46:51Z</time>
      </trkpt>
      <trkpt lat="62.636025196049" lon="18.001736641135">
        <ele>53.4</ele>
        <time>2018-02-17T13:46:52Z</time>
      </trkpt>
      <trkpt lat="62.636009354258" lon="18.001783076861">
        <ele>53.4</ele>
        <time>2018-02-17T13:46:53Z</time>
      </trkpt>
      <trkpt lat="62.635983873282" lon="18.001829596406">
        <ele>53.4</ele>
        <time>2018-02-17T13:46:54Z</time>
      </trkpt>
      <trkpt lat="62.635966690387" lon="18.001869075155">
        <ele>53.4</ele>
        <time>2018-02-17T13:46:55Z</time>
      </trkpt>
      <trkpt lat="62.63594883694" lon="18.001908134809">
        <ele>53.4</ele>
        <time>2018-02-17T13:46:56Z</time>
      </trkpt>
      <trkpt lat="62.635928636561" lon="18.001947529739">
        <ele>53.4</ele>
        <time>2018-02-17T13:46:57Z</time>
      </trkpt>
      <trkpt lat="62.63591195658" lon="18.001987511402">
        <ele>53.4</ele>
        <time>2018-02-17T13:46:58Z</time>
      </trkpt>
      <trkpt lat="62.635885805052" lon="18.002043334856">
        <ele>53.4</ele>
        <time>2018-02-17T13:46:59Z</time>
      </trkpt>
      <trkpt lat="62.635870717632" lon="18.002085914908">
        <ele>53.4</ele>
        <time>2018-02-17T13:47:00Z</time>
      </trkpt>
      <trkpt lat="62.635847164493" lon="18.002132434453">
        <ele>53.4</ele>
        <time>2018-02-17T13:47:01Z</time>
      </trkpt>
      <trkpt lat="62.635828640494" lon="18.002170823555">
        <ele>53.4</ele>
        <time>2018-02-17T13:47:02Z</time>
      </trkpt>
      <trkpt lat="62.63581388835" lon="18.002207787734">
        <ele>53.4</ele>
        <time>2018-02-17T13:47:03Z</time>
      </trkpt>
      <trkpt lat="62.635802069871" lon="18.002248439949">
        <ele>53.4</ele>
        <time>2018-02-17T13:47:04Z</time>
      </trkpt>
      <trkpt lat="62.635796034903" lon="18.002308538172">
        <ele>53.4</ele>
        <time>2018-02-17T13:47:05Z</time>
      </trkpt>
      <trkpt lat="62.635782288587" lon="18.002387663308">
        <ele>53.4</ele>
        <time>2018-02-17T13:47:06Z</time>
      </trkpt>
      <trkpt lat="62.635774074325" lon="18.002450862834">
        <ele>53.2</ele>
        <time>2018-02-17T13:47:07Z</time>
      </trkpt>
      <trkpt lat="62.635764938054" lon="18.002520348785">
        <ele>53.2</ele>
        <time>2018-02-17T13:47:08Z</time>
      </trkpt>
      <trkpt lat="62.635750102091" lon="18.002575753144">
        <ele>53</ele>
        <time>2018-02-17T13:47:09Z</time>
      </trkpt>
      <trkpt lat="62.635733086834" lon="18.002633504435">
        <ele>52.6</ele>
        <time>2018-02-17T13:47:10Z</time>
      </trkpt>
      <trkpt lat="62.635713892283" lon="18.002702738929">
        <ele>52.2</ele>
        <time>2018-02-17T13:47:11Z</time>
      </trkpt>
      <trkpt lat="62.635697966673" lon="18.002768201568">
        <ele>51.6</ele>
        <time>2018-02-17T13:47:12Z</time>
      </trkpt>
      <trkpt lat="62.635676509009" lon="18.002840285908">
        <ele>51</ele>
        <time>2018-02-17T13:47:13Z</time>
      </trkpt>
      <trkpt lat="62.635661840684" lon="18.002907760203">
        <ele>50.4</ele>
        <time>2018-02-17T13:47:14Z</time>
      </trkpt>
      <trkpt lat="62.635641053572" lon="18.002982275294">
        <ele>50.4</ele>
        <time>2018-02-17T13:47:15Z</time>
      </trkpt>
      <trkpt lat="62.635621356107" lon="18.003063663543">
        <ele>50.6</ele>
        <time>2018-02-17T13:47:16Z</time>
      </trkpt>
      <trkpt lat="62.635601071909" lon="18.003142034308">
        <ele>50.8</ele>
        <time>2018-02-17T13:47:17Z</time>
      </trkpt>
      <trkpt lat="62.635581961177" lon="18.003221997634">
        <ele>51</ele>
        <time>2018-02-17T13:47:18Z</time>
      </trkpt>
      <trkpt lat="62.635561509341" lon="18.003300368399">
        <ele>51.2</ele>
        <time>2018-02-17T13:47:19Z</time>
      </trkpt>
      <trkpt lat="62.635540806048" lon="18.003378990621">
        <ele>51.2</ele>
        <time>2018-02-17T13:47:20Z</time>
      </trkpt>
      <trkpt lat="62.63552303642" lon="18.003450655866">
        <ele>51</ele>
        <time>2018-02-17T13:47:21Z</time>
      </trkpt>
      <trkpt lat="62.63551381633" lon="18.003524500405">
        <ele>51</ele>
        <time>2018-02-17T13:47:22Z</time>
      </trkpt>
      <trkpt lat="62.635505853525" lon="18.003602116799">
        <ele>50.8</ele>
        <time>2018-02-17T13:47:23Z</time>
      </trkpt>
      <trkpt lat="62.635487580983" lon="18.003673614406">
        <ele>50.8</ele>
        <time>2018-02-17T13:47:24Z</time>
      </trkpt>
      <trkpt lat="62.63546939226" lon="18.003736646294">
        <ele>50.8</ele>
        <time>2018-02-17T13:47:25Z</time>
      </trkpt>
      <trkpt lat="62.635449946252" lon="18.003806299883">
        <ele>50.6</ele>
        <time>2018-02-17T13:47:26Z</time>
      </trkpt>
      <trkpt lat="62.635429662054" lon="18.003880647336">
        <ele>50.4</ele>
        <time>2018-02-17T13:47:27Z</time>
      </trkpt>
      <trkpt lat="62.635406695648" lon="18.003946109975">
        <ele>50.2</ele>
        <time>2018-02-17T13:47:28Z</time>
      </trkpt>
      <trkpt lat="62.635386914364" lon="18.004020038333">
        <ele>50.2</ele>
        <time>2018-02-17T13:47:29Z</time>
      </trkpt>
      <trkpt lat="62.635371994582" lon="18.004072760484">
        <ele>50</ele>
        <time>2018-02-17T13:47:30Z</time>
      </trkpt>
      <trkpt lat="62.63535204566" lon="18.004145599195">
        <ele>49.8</ele>
        <time>2018-02-17T13:47:31Z</time>
      </trkpt>
      <trkpt lat="62.635338550801" lon="18.004205865056">
        <ele>49.8</ele>
        <time>2018-02-17T13:47:32Z</time>
      </trkpt>
      <trkpt lat="62.635317931327" lon="18.004264454537">
        <ele>49.8</ele>
        <time>2018-02-17T13:47:33Z</time>
      </trkpt>
      <trkpt lat="62.635295132559" lon="18.004323966027">
        <ele>49.8</ele>
        <time>2018-02-17T13:47:34Z</time>
      </trkpt>
      <trkpt lat="62.635271160325" lon="18.004380962947">
        <ele>49.6</ele>
        <time>2018-02-17T13:47:35Z</time>
      </trkpt>
      <trkpt lat="62.635244673521" lon="18.004442989007">
        <ele>49.6</ele>
        <time>2018-02-17T13:47:36Z</time>
      </trkpt>
      <trkpt lat="62.635227322988" lon="18.004485569059">
        <ele>49.6</ele>
        <time>2018-02-17T13:47:37Z</time>
      </trkpt>
      <trkpt lat="62.635208212256" lon="18.004546002558">
        <ele>49.6</ele>
        <time>2018-02-17T13:47:38Z</time>
      </trkpt>
      <trkpt lat="62.635185413488" lon="18.004595455768">
        <ele>49.6</ele>
        <time>2018-02-17T13:47:39Z</time>
      </trkpt>
      <trkpt lat="62.635160519245" lon="18.00464138858">
        <ele>49.6</ele>
        <time>2018-02-17T13:47:40Z</time>
      </trkpt>
      <trkpt lat="62.635133361889" lon="18.004691260885">
        <ele>49.6</ele>
        <time>2018-02-17T13:47:41Z</time>
      </trkpt>
      <trkpt lat="62.635110730759" lon="18.004731661643">
        <ele>49.8</ele>
        <time>2018-02-17T13:47:42Z</time>
      </trkpt>
      <trkpt lat="62.635082735213" lon="18.004778265007">
        <ele>49.8</ele>
        <time>2018-02-17T13:47:43Z</time>
      </trkpt>
      <trkpt lat="62.635057338056" lon="18.004824197819">
        <ele>49.6</ele>
        <time>2018-02-17T13:47:44Z</time>
      </trkpt>
      <trkpt lat="62.635035377478" lon="18.004865269129">
        <ele>49.4</ele>
        <time>2018-02-17T13:47:45Z</time>
      </trkpt>
      <trkpt lat="62.635010567054" lon="18.004910196113">
        <ele>49.6</ele>
        <time>2018-02-17T13:47:46Z</time>
      </trkpt>
      <trkpt lat="62.634983912612" lon="18.004955626011">
        <ele>49.6</ele>
        <time>2018-02-17T13:47:47Z</time>
      </trkpt>
      <trkpt lat="62.634957341989" lon="18.005005079221">
        <ele>49.6</ele>
        <time>2018-02-17T13:47:48Z</time>
      </trkpt>
      <trkpt lat="62.634935968144" lon="18.005051012033">
        <ele>49.6</ele>
        <time>2018-02-17T13:47:49Z</time>
      </trkpt>
      <trkpt lat="62.634915181032" lon="18.005099710872">
        <ele>49.8</ele>
        <time>2018-02-17T13:47:50Z</time>
      </trkpt>
      <trkpt lat="62.634890873522" lon="18.005146733331">
        <ele>50</ele>
        <time>2018-02-17T13:47:51Z</time>
      </trkpt>
      <trkpt lat="62.634868577668" lon="18.005185541528">
        <ele>50</ele>
        <time>2018-02-17T13:47:52Z</time>
      </trkpt>
      <trkpt lat="62.634845527443" lon="18.00523315072">
        <ele>50</ele>
        <time>2018-02-17T13:47:53Z</time>
      </trkpt>
      <trkpt lat="62.634824488874" lon="18.00527086927">
        <ele>50</ele>
        <time>2018-02-17T13:47:54Z</time>
      </trkpt>
      <trkpt lat="62.634799343174" lon="18.005307330535">
        <ele>49.8</ele>
        <time>2018-02-17T13:47:55Z</time>
      </trkpt>
      <trkpt lat="62.634774281293" lon="18.005337840651">
        <ele>49.6</ele>
        <time>2018-02-17T13:47:56Z</time>
      </trkpt>
      <trkpt lat="62.634754919104" lon="18.005370530061">
        <ele>49.6</ele>
        <time>2018-02-17T13:47:57Z</time>
      </trkpt>
      <trkpt lat="62.634732790888" lon="18.005394753752">
        <ele>49.4</ele>
        <time>2018-02-17T13:47:58Z</time>
      </trkpt>
      <trkpt lat="62.634706723179" lon="18.005416462873">
        <ele>49.6</ele>
        <time>2018-02-17T13:47:59Z</time>
      </trkpt>
      <trkpt lat="62.634687109533" lon="18.005434819234">
        <ele>49.6</ele>
        <time>2018-02-17T13:48:00Z</time>
      </trkpt>
      <trkpt lat="62.634670848647" lon="18.005454265242">
        <ele>49.8</ele>
        <time>2018-02-17T13:48:01Z</time>
      </trkpt>
      <trkpt lat="62.634652911381" lon="18.005475974363">
        <ele>49.8</ele>
        <time>2018-02-17T13:48:02Z</time>
      </trkpt>
      <trkpt lat="62.63463455502" lon="18.005508328497">
        <ele>50</ele>
        <time>2018-02-17T13:48:03Z</time>
      </trkpt>
      <trkpt lat="62.634618880867" lon="18.005540263536">
        <ele>50</ele>
        <time>2018-02-17T13:48:04Z</time>
      </trkpt>
      <trkpt lat="62.634617288306" lon="18.005545208857">
        <ele>50.2</ele>
        <time>2018-02-17T13:48:05Z</time>
      </trkpt>
      <trkpt lat="62.634592394063" lon="18.005605977632">
        <ele>50.2</ele>
        <time>2018-02-17T13:48:06Z</time>
      </trkpt>
      <trkpt lat="62.634577641919" lon="18.005636068653">
        <ele>50.4</ele>
        <time>2018-02-17T13:48:07Z</time>
      </trkpt>
      <trkpt lat="62.634566158716" lon="18.005670434443">
        <ele>50.6</ele>
        <time>2018-02-17T13:48:08Z</time>
      </trkpt>
      <trkpt lat="62.634548640545" lon="18.005711086658">
        <ele>50.6</ele>
        <time>2018-02-17T13:48:09Z</time>
      </trkpt>
      <trkpt lat="62.634532631116" lon="18.005740926222">
        <ele>50.8</ele>
        <time>2018-02-17T13:48:10Z</time>
      </trkpt>
      <trkpt lat="62.634517795153" lon="18.005789792699">
        <ele>50.8</ele>
        <time>2018-02-17T13:48:11Z</time>
      </trkpt>
      <trkpt lat="62.634501366629" lon="18.005833378579">
        <ele>51</ele>
        <time>2018-02-17T13:48:12Z</time>
      </trkpt>
      <trkpt lat="62.634479573689" lon="18.00588358616">
        <ele>51.2</ele>
        <time>2018-02-17T13:48:13Z</time>
      </trkpt>
      <trkpt lat="62.634462390794" lon="18.005921556167">
        <ele>51.2</ele>
        <time>2018-02-17T13:48:14Z</time>
      </trkpt>
      <trkpt lat="62.634444369709" lon="18.005953072111">
        <ele>51.2</ele>
        <time>2018-02-17T13:48:15Z</time>
      </trkpt>
      <trkpt lat="62.634419643104" lon="18.005995652163">
        <ele>51.2</ele>
        <time>2018-02-17T13:48:16Z</time>
      </trkpt>
      <trkpt lat="62.634400783829" lon="18.006032951618">
        <ele>51.2</ele>
        <time>2018-02-17T13:48:17Z</time>
      </trkpt>
      <trkpt lat="62.634374883758" lon="18.006074358204">
        <ele>51.2</ele>
        <time>2018-02-17T13:48:18Z</time>
      </trkpt>
      <trkpt lat="62.634349654239" lon="18.006120710111">
        <ele>51.2</ele>
        <time>2018-02-17T13:48:19Z</time>
      </trkpt>
      <trkpt lat="62.634322832159" lon="18.006165553276">
        <ele>51.4</ele>
        <time>2018-02-17T13:48:20Z</time>
      </trkpt>
      <trkpt lat="62.634303721427" lon="18.006203355645">
        <ele>51.2</ele>
        <time>2018-02-17T13:48:21Z</time>
      </trkpt>
      <trkpt lat="62.634286622351" lon="18.006238727263">
        <ele>51.2</ele>
        <time>2018-02-17T13:48:22Z</time>
      </trkpt>
      <trkpt lat="62.63426575142" lon="18.006285749722">
        <ele>51.2</ele>
        <time>2018-02-17T13:48:23Z</time>
      </trkpt>
      <trkpt lat="62.634246975964" lon="18.006329084145">
        <ele>51.2</ele>
        <time>2018-02-17T13:48:24Z</time>
      </trkpt>
      <trkpt lat="62.634226021214" lon="18.006372670025">
        <ele>51.2</ele>
        <time>2018-02-17T13:48:25Z</time>
      </trkpt>
      <trkpt lat="62.634206491387" lon="18.006415082439">
        <ele>51.2</ele>
        <time>2018-02-17T13:48:26Z</time>
      </trkpt>
      <trkpt lat="62.634191068691" lon="18.006449615867">
        <ele>51.2</ele>
        <time>2018-02-17T13:48:27Z</time>
      </trkpt>
      <trkpt lat="62.634168689018" lon="18.006491944462">
        <ele>51.2</ele>
        <time>2018-02-17T13:48:28Z</time>
      </trkpt>
      <trkpt lat="62.634145806431" lon="18.006543744604">
        <ele>51.2</ele>
        <time>2018-02-17T13:48:29Z</time>
      </trkpt>
      <trkpt lat="62.634124851681" lon="18.006586408475">
        <ele>51</ele>
        <time>2018-02-17T13:48:30Z</time>
      </trkpt>
      <trkpt lat="62.634102807284" lon="18.006636364599">
        <ele>51</ele>
        <time>2018-02-17T13:48:31Z</time>
      </trkpt>
      <trkpt lat="62.634088725692" lon="18.006676346262">
        <ele>51</ele>
        <time>2018-02-17T13:48:32Z</time>
      </trkpt>
      <trkpt lat="62.634066765114" lon="18.006729236051">
        <ele>51</ele>
        <time>2018-02-17T13:48:33Z</time>
      </trkpt>
      <trkpt lat="62.634045558907" lon="18.006780281822">
        <ele>51.2</ele>
        <time>2018-02-17T13:48:34Z</time>
      </trkpt>
      <trkpt lat="62.634037009369" lon="18.006810540481">
        <ele>51.2</ele>
        <time>2018-02-17T13:48:35Z</time>
      </trkpt>
      <trkpt lat="62.6340243527" lon="18.006858820225">
        <ele>51.4</ele>
        <time>2018-02-17T13:48:36Z</time>
      </trkpt>
      <trkpt lat="62.634012701859" lon="18.006899723897">
        <ele>51.4</ele>
        <time>2018-02-17T13:48:37Z</time>
      </trkpt>
      <trkpt lat="62.633996440973" lon="18.006951691677">
        <ele>51.4</ele>
        <time>2018-02-17T13:48:38Z</time>
      </trkpt>
      <trkpt lat="62.63397992863" lon="18.007004916742">
        <ele>51.4</ele>
        <time>2018-02-17T13:48:39Z</time>
      </trkpt>
      <trkpt lat="62.633970959997" lon="18.007055627237">
        <ele>51.4</ele>
        <time>2018-02-17T13:48:40Z</time>
      </trkpt>
      <trkpt lat="62.633953525645" lon="18.007109774311">
        <ele>51.4</ele>
        <time>2018-02-17T13:48:41Z</time>
      </trkpt>
      <trkpt lat="62.633936761845" lon="18.007162077367">
        <ele>51.2</ele>
        <time>2018-02-17T13:48:42Z</time>
      </trkpt>
      <trkpt lat="62.633919411312" lon="18.007208177817">
        <ele>51.2</ele>
        <time>2018-02-17T13:48:43Z</time>
      </trkpt>
      <trkpt lat="62.63389778601" lon="18.007256373742">
        <ele>51</ele>
        <time>2018-02-17T13:48:44Z</time>
      </trkpt>
      <trkpt lat="62.633877082717" lon="18.007297277414">
        <ele>51</ele>
        <time>2018-02-17T13:48:45Z</time>
      </trkpt>
      <trkpt lat="62.633852439931" lon="18.007342791131">
        <ele>51</ele>
        <time>2018-02-17T13:48:46Z</time>
      </trkpt>
      <trkpt lat="62.63383492176" lon="18.007377911292">
        <ele>51</ele>
        <time>2018-02-17T13:48:47Z</time>
      </trkpt>
      <trkpt lat="62.633812625906" lon="18.007412779996">
        <ele>51</ele>
        <time>2018-02-17T13:48:48Z</time>
      </trkpt>
      <trkpt lat="62.633784127446" lon="18.007432728918">
        <ele>51</ele>
        <time>2018-02-17T13:48:49Z</time>
      </trkpt>
      <trkpt lat="62.633757724461" lon="18.007450247089">
        <ele>51</ele>
        <time>2018-02-17T13:48:50Z</time>
      </trkpt>
      <trkpt lat="62.633730315648" lon="18.007441949008">
        <ele>51</ele>
        <time>2018-02-17T13:48:51Z</time>
      </trkpt>
      <trkpt lat="62.633706091957" lon="18.007426191036">
        <ele>51</ele>
        <time>2018-02-17T13:48:52Z</time>
      </trkpt>
      <trkpt lat="62.633678431687" lon="18.007404649553">
        <ele>51</ele>
        <time>2018-02-17T13:48:53Z</time>
      </trkpt>
      <trkpt lat="62.633658398946" lon="18.007385538821">
        <ele>51</ele>
        <time>2018-02-17T13:48:54Z</time>
      </trkpt>
      <trkpt lat="62.63363794711" lon="18.007359471112">
        <ele>51</ele>
        <time>2018-02-17T13:48:55Z</time>
      </trkpt>
      <trkpt lat="62.633619339292" lon="18.007341952941">
        <ele>51</ele>
        <time>2018-02-17T13:48:56Z</time>
      </trkpt>
      <trkpt lat="62.633605006243" lon="18.007328877177">
        <ele>51.4</ele>
        <time>2018-02-17T13:48:57Z</time>
      </trkpt>
      <trkpt lat="62.633586398425" lon="18.007309431169">
        <ele>51.4</ele>
        <time>2018-02-17T13:48:58Z</time>
      </trkpt>
      <trkpt lat="62.63356837734" lon="18.007287470591">
        <ele>51.6</ele>
        <time>2018-02-17T13:48:59Z</time>
      </trkpt>
      <trkpt lat="62.633551194445" lon="18.00727749613">
        <ele>51.8</ele>
        <time>2018-02-17T13:49:00Z</time>
      </trkpt>
      <trkpt lat="62.633532418989" lon="18.007259726502">
        <ele>51.8</ele>
        <time>2018-02-17T13:49:01Z</time>
      </trkpt>
      <trkpt lat="62.633514900818" lon="18.007240951046">
        <ele>51.8</ele>
        <time>2018-02-17T13:49:02Z</time>
      </trkpt>
      <trkpt lat="62.633494868077" lon="18.007227372368">
        <ele>52</ele>
        <time>2018-02-17T13:49:03Z</time>
      </trkpt>
      <trkpt lat="62.633477098449" lon="18.007219577201">
        <ele>52</ele>
        <time>2018-02-17T13:49:04Z</time>
      </trkpt>
      <trkpt lat="62.633472488404" lon="18.007197448985">
        <ele>52</ele>
        <time>2018-02-17T13:49:05Z</time>
      </trkpt>
      <trkpt lat="62.633436194777" lon="18.007164005204">
        <ele>52.2</ele>
        <time>2018-02-17T13:49:06Z</time>
      </trkpt>
      <trkpt lat="62.633419850072" lon="18.00714254754">
        <ele>52.2</ele>
        <time>2018-02-17T13:49:07Z</time>
      </trkpt>
      <trkpt lat="62.633400404064" lon="18.007120838419">
        <ele>52.4</ele>
        <time>2018-02-17T13:49:08Z</time>
      </trkpt>
      <trkpt lat="62.633382382979" lon="18.007086640267">
        <ele>52.4</ele>
        <time>2018-02-17T13:49:09Z</time>
      </trkpt>
      <trkpt lat="62.633363691342" lon="18.007055543418">
        <ele>52.4</ele>
        <time>2018-02-17T13:49:10Z</time>
      </trkpt>
      <trkpt lat="62.633345083524" lon="18.007013550099">
        <ele>52.6</ele>
        <time>2018-02-17T13:49:11Z</time>
      </trkpt>
      <trkpt lat="62.633331840122" lon="18.006971221504">
        <ele>52.6</ele>
        <time>2018-02-17T13:49:12Z</time>
      </trkpt>
      <trkpt lat="62.633319015815" lon="18.006936436619">
        <ele>52.8</ele>
        <time>2018-02-17T13:49:13Z</time>
      </trkpt>
      <trkpt lat="62.633308789897" lon="18.006894108024">
        <ele>52.8</ele>
        <time>2018-02-17T13:49:14Z</time>
      </trkpt>
      <trkpt lat="62.633301162368" lon="18.006855299827">
        <ele>53</ele>
        <time>2018-02-17T13:49:15Z</time>
      </trkpt>
      <trkpt lat="62.633294037753" lon="18.006813222689">
        <ele>53</ele>
        <time>2018-02-17T13:49:16Z</time>
      </trkpt>
      <trkpt lat="62.633288086604" lon="18.006764607669">
        <ele>53.2</ele>
        <time>2018-02-17T13:49:17Z</time>
      </trkpt>
      <trkpt lat="62.633284147111" lon="18.006713561898">
        <ele>53.2</ele>
        <time>2018-02-17T13:49:18Z</time>
      </trkpt>
      <trkpt lat="62.633278698876" lon="18.006671987674">
        <ele>53.2</ele>
        <time>2018-02-17T13:49:19Z</time>
      </trkpt>
      <trkpt lat="62.633275765211" lon="18.006621360998">
        <ele>53.4</ele>
        <time>2018-02-17T13:49:20Z</time>
      </trkpt>
      <trkpt lat="62.633272077175" lon="18.006576517833">
        <ele>53.4</ele>
        <time>2018-02-17T13:49:21Z</time>
      </trkpt>
      <trkpt lat="62.633269059691" lon="18.006540224206">
        <ele>53.4</ele>
        <time>2018-02-17T13:49:22Z</time>
      </trkpt>
      <trkpt lat="62.633268389139" lon="18.006492279738">
        <ele>53.6</ele>
        <time>2018-02-17T13:49:23Z</time>
      </trkpt>
      <trkpt lat="62.633268724415" lon="18.006451459885">
        <ele>53.6</ele>
        <time>2018-02-17T13:49:24Z</time>
      </trkpt>
      <trkpt lat="62.63326662894" lon="18.006406868177">
        <ele>53.8</ele>
        <time>2018-02-17T13:49:25Z</time>
      </trkpt>
      <trkpt lat="62.633267215673" lon="18.006356744415">
        <ele>54</ele>
        <time>2018-02-17T13:49:26Z</time>
      </trkpt>
      <trkpt lat="62.633266461302" lon="18.006310643965">
        <ele>54.2</ele>
        <time>2018-02-17T13:49:27Z</time>
      </trkpt>
      <trkpt lat="62.633265623112" lon="18.006262950954">
        <ele>54.2</ele>
        <time>2018-02-17T13:49:28Z</time>
      </trkpt>
      <trkpt lat="62.633259420506" lon="18.006215844676">
        <ele>54.4</ele>
        <time>2018-02-17T13:49:29Z</time>
      </trkpt>
      <trkpt lat="62.633254978099" lon="18.006178712859">
        <ele>54.4</ele>
        <time>2018-02-17T13:49:30Z</time>
      </trkpt>
      <trkpt lat="62.633253469357" lon="18.006134121151">
        <ele>54.6</ele>
        <time>2018-02-17T13:49:31Z</time>
      </trkpt>
      <trkpt lat="62.633251290063" lon="18.006096234963">
        <ele>54.8</ele>
        <time>2018-02-17T13:49:32Z</time>
      </trkpt>
      <trkpt lat="62.633251709158" lon="18.006056001843">
        <ele>55</ele>
        <time>2018-02-17T13:49:33Z</time>
      </trkpt>
      <trkpt lat="62.633247685846" lon="18.006023731528">
        <ele>55</ele>
        <time>2018-02-17T13:49:34Z</time>
      </trkpt>
      <trkpt lat="62.63324651238" lon="18.005978804544">
        <ele>55.2</ele>
        <time>2018-02-17T13:49:35Z</time>
      </trkpt>
      <trkpt lat="62.633247434389" lon="18.005934380474">
        <ele>55.4</ele>
        <time>2018-02-17T13:49:36Z</time>
      </trkpt>
      <trkpt lat="62.633245255095" lon="18.005903115987">
        <ele>55.6</ele>
        <time>2018-02-17T13:49:37Z</time>
      </trkpt>
      <trkpt lat="62.633244668362" lon="18.005873611699">
        <ele>55.6</ele>
        <time>2018-02-17T13:49:38Z</time>
      </trkpt>
      <trkpt lat="62.633242405249" lon="18.005858691917">
        <ele>56</ele>
        <time>2018-02-17T13:49:39Z</time>
      </trkpt>
      <trkpt lat="62.633239052489" lon="18.005845951429">
        <ele>56.4</ele>
        <time>2018-02-17T13:49:40Z</time>
      </trkpt>
      <trkpt lat="62.633242824344" lon="18.005824745222">
        <ele>56.6</ele>
        <time>2018-02-17T13:49:41Z</time>
      </trkpt>
      <trkpt lat="62.633247015294" lon="18.005810076897">
        <ele>56.8</ele>
        <time>2018-02-17T13:49:42Z</time>
      </trkpt>
      <trkpt lat="62.633249529864" lon="18.00578635612">
        <ele>57</ele>
        <time>2018-02-17T13:49:43Z</time>
      </trkpt>
      <trkpt lat="62.633244836" lon="18.005767161569">
        <ele>57.2</ele>
        <time>2018-02-17T13:49:44Z</time>
      </trkpt>
      <trkpt lat="62.633244919819" lon="18.005759701678">
        <ele>57.4</ele>
        <time>2018-02-17T13:49:45Z</time>
      </trkpt>
      <trkpt lat="62.633246680018" lon="18.005746542095">
        <ele>57.6</ele>
        <time>2018-02-17T13:49:46Z</time>
      </trkpt>
      <trkpt lat="62.633247182932" lon="18.005731622313">
        <ele>57.8</ele>
        <time>2018-02-17T13:49:47Z</time>
      </trkpt>
      <trkpt lat="62.633247853484" lon="18.005707314803">
        <ele>58.2</ele>
        <time>2018-02-17T13:49:48Z</time>
      </trkpt>
      <trkpt lat="62.633249697502" lon="18.005680827999">
        <ele>58.4</ele>
        <time>2018-02-17T13:49:49Z</time>
      </trkpt>
      <trkpt lat="62.633250200416" lon="18.005661298172">
        <ele>58.6</ele>
        <time>2018-02-17T13:49:50Z</time>
      </trkpt>
      <trkpt lat="62.63325154152" lon="18.005645959295">
        <ele>58.8</ele>
        <time>2018-02-17T13:49:51Z</time>
      </trkpt>
      <trkpt lat="62.633253804633" lon="18.005632632074">
        <ele>59</ele>
        <time>2018-02-17T13:49:52Z</time>
      </trkpt>
      <trkpt lat="62.633251792977" lon="18.005607067279">
        <ele>59.4</ele>
        <time>2018-02-17T13:49:53Z</time>
      </trkpt>
      <trkpt lat="62.633250368054" lon="18.005582759769">
        <ele>59.4</ele>
        <time>2018-02-17T13:49:54Z</time>
      </trkpt>
      <trkpt lat="62.633250535692" lon="18.005558871354">
        <ele>60</ele>
        <time>2018-02-17T13:49:55Z</time>
      </trkpt>
      <trkpt lat="62.633249613683" lon="18.005540934088">
        <ele>60.4</ele>
        <time>2018-02-17T13:49:56Z</time>
      </trkpt>
      <trkpt lat="62.633251960615" lon="18.005527690686">
        <ele>60.6</ele>
        <time>2018-02-17T13:49:57Z</time>
      </trkpt>
      <trkpt lat="62.633251876796" lon="18.00550807704">
        <ele>60.8</ele>
        <time>2018-02-17T13:49:58Z</time>
      </trkpt>
      <trkpt lat="62.633253134081" lon="18.005475722906">
        <ele>61.2</ele>
        <time>2018-02-17T13:49:59Z</time>
      </trkpt>
      <trkpt lat="62.633254642823" lon="18.005457282726">
        <ele>61.2</ele>
        <time>2018-02-17T13:50:00Z</time>
      </trkpt>
      <trkpt lat="62.633254978099" lon="18.005443452591">
        <ele>61.4</ele>
        <time>2018-02-17T13:50:01Z</time>
      </trkpt>
      <trkpt lat="62.63325489428" lon="18.005429790094">
        <ele>61.6</ele>
        <time>2018-02-17T13:50:02Z</time>
      </trkpt>
      <trkpt lat="62.633255816289" lon="18.00540330329">
        <ele>61.8</ele>
        <time>2018-02-17T13:50:03Z</time>
      </trkpt>
      <trkpt lat="62.633261851257" lon="18.005378576685">
        <ele>62</ele>
        <time>2018-02-17T13:50:04Z</time>
      </trkpt>
      <trkpt lat="62.633262270352" lon="18.005350413501">
        <ele>62</ele>
        <time>2018-02-17T13:50:05Z</time>
      </trkpt>
      <trkpt lat="62.633257241212" lon="18.005331135131">
        <ele>62.2</ele>
        <time>2018-02-17T13:50:06Z</time>
      </trkpt>
      <trkpt lat="62.633254223728" lon="18.005321663584">
        <ele>62.4</ele>
        <time>2018-02-17T13:50:07Z</time>
      </trkpt>
      <trkpt lat="62.633249529864" lon="18.005303223404">
        <ele>62.6</ele>
        <time>2018-02-17T13:50:08Z</time>
      </trkpt>
      <trkpt lat="62.633245758009" lon="18.005281933378">
        <ele>62.8</ele>
        <time>2018-02-17T13:50:09Z</time>
      </trkpt>
      <trkpt lat="62.633246680018" lon="18.005260056619">
        <ele>63</ele>
        <time>2018-02-17T13:50:10Z</time>
      </trkpt>
      <trkpt lat="62.633243746353" lon="18.005235413833">
        <ele>63.2</ele>
        <time>2018-02-17T13:50:11Z</time>
      </trkpt>
      <trkpt lat="62.633243746353" lon="18.005216470739">
        <ele>63.4</ele>
        <time>2018-02-17T13:50:12Z</time>
      </trkpt>
      <trkpt lat="62.633243913991" lon="18.005195599808">
        <ele>63.6</ele>
        <time>2018-02-17T13:50:13Z</time>
      </trkpt>
      <trkpt lat="62.633242153792" lon="18.005179841836">
        <ele>63.8</ele>
        <time>2018-02-17T13:50:14Z</time>
      </trkpt>
      <trkpt lat="62.633243913991" lon="18.005162491303">
        <ele>64</ele>
        <time>2018-02-17T13:50:15Z</time>
      </trkpt>
      <trkpt lat="62.63324567419" lon="18.005145643684">
        <ele>64.2</ele>
        <time>2018-02-17T13:50:16Z</time>
      </trkpt>
      <trkpt lat="62.633244919819" lon="18.005126449133">
        <ele>64.2</ele>
        <time>2018-02-17T13:50:17Z</time>
      </trkpt>
      <trkpt lat="62.633244836" lon="18.005101135795">
        <ele>64.4</ele>
        <time>2018-02-17T13:50:18Z</time>
      </trkpt>
      <trkpt lat="62.633244165448" lon="18.005078001751">
        <ele>64.6</ele>
        <time>2018-02-17T13:50:19Z</time>
      </trkpt>
      <trkpt lat="62.633240561231" lon="18.005055286802">
        <ele>64.8</ele>
        <time>2018-02-17T13:50:20Z</time>
      </trkpt>
      <trkpt lat="62.633234274806" lon="18.00503785245">
        <ele>65</ele>
        <time>2018-02-17T13:50:21Z</time>
      </trkpt>
      <trkpt lat="62.633231089684" lon="18.005020501917">
        <ele>65.2</ele>
        <time>2018-02-17T13:50:22Z</time>
      </trkpt>
      <trkpt lat="62.633229413304" lon="18.005001558823">
        <ele>65.4</ele>
        <time>2018-02-17T13:50:23Z</time>
      </trkpt>
      <trkpt lat="62.633228239838" lon="18.004980771711">
        <ele>65.6</ele>
        <time>2018-02-17T13:50:24Z</time>
      </trkpt>
      <trkpt lat="62.633223462155" lon="18.004959816961">
        <ele>65.8</ele>
        <time>2018-02-17T13:50:25Z</time>
      </trkpt>
      <trkpt lat="62.633217511006" lon="18.004940287134">
        <ele>66</ele>
        <time>2018-02-17T13:50:26Z</time>
      </trkpt>
      <trkpt lat="62.6332113084" lon="18.004926289361">
        <ele>66.2</ele>
        <time>2018-02-17T13:50:27Z</time>
      </trkpt>
      <trkpt lat="62.633206698355" lon="18.004913465054">
        <ele>66.2</ele>
        <time>2018-02-17T13:50:28Z</time>
      </trkpt>
      <trkpt lat="62.633198400274" lon="18.00489536015">
        <ele>66.4</ele>
        <time>2018-02-17T13:50:29Z</time>
      </trkpt>
      <trkpt lat="62.633191108021" lon="18.004880943282">
        <ele>66.6</ele>
        <time>2018-02-17T13:50:30Z</time>
      </trkpt>
      <trkpt lat="62.633182139388" lon="18.004868789527">
        <ele>67</ele>
        <time>2018-02-17T13:50:31Z</time>
      </trkpt>
      <trkpt lat="62.633171662013" lon="18.004860072351">
        <ele>67.2</ele>
        <time>2018-02-17T13:50:32Z</time>
      </trkpt>
      <trkpt lat="62.633162190466" lon="18.00485093608">
        <ele>67.4</ele>
        <time>2018-02-17T13:50:33Z</time>
      </trkpt>
      <trkpt lat="62.633152551281" lon="18.004840123429">
        <ele>67.6</ele>
        <time>2018-02-17T13:50:34Z</time>
      </trkpt>
      <trkpt lat="62.633141403354" lon="18.004838195592">
        <ele>68</ele>
        <time>2018-02-17T13:50:35Z</time>
      </trkpt>
      <trkpt lat="62.633132267083" lon="18.004833585547">
        <ele>68.2</ele>
        <time>2018-02-17T13:50:36Z</time>
      </trkpt>
      <trkpt lat="62.633115838559" lon="18.004831573891">
        <ele>68.4</ele>
        <time>2018-02-17T13:50:37Z</time>
      </trkpt>
      <trkpt lat="62.633095554361" lon="18.00483584866">
        <ele>68.6</ele>
        <time>2018-02-17T13:50:38Z</time>
      </trkpt>
      <trkpt lat="62.633079964027" lon="18.004841380714">
        <ele>69</ele>
        <time>2018-02-17T13:50:39Z</time>
      </trkpt>
      <trkpt lat="62.633060601838" lon="18.004845739302">
        <ele>69</ele>
        <time>2018-02-17T13:50:40Z</time>
      </trkpt>
      <trkpt lat="62.633039311812" lon="18.004865352948">
        <ele>69.2</ele>
        <time>2018-02-17T13:50:41Z</time>
      </trkpt>
      <trkpt lat="62.633023218564" lon="18.004881865291">
        <ele>69.4</ele>
        <time>2018-02-17T13:50:42Z</time>
      </trkpt>
      <trkpt lat="62.633004024013" lon="18.004903993507">
        <ele>69.6</ele>
        <time>2018-02-17T13:50:43Z</time>
      </trkpt>
      <trkpt lat="62.6329849971" lon="18.00493559327">
        <ele>69.6</ele>
        <time>2018-02-17T13:50:44Z</time>
      </trkpt>
      <trkpt lat="62.632975693191" lon="18.004968869413">
        <ele>69.8</ele>
        <time>2018-02-17T13:50:45Z</time>
      </trkpt>
      <trkpt lat="62.632962114513" lon="18.005003319022">
        <ele>70</ele>
        <time>2018-02-17T13:50:46Z</time>
      </trkpt>
      <trkpt lat="62.632948284378" lon="18.005043049228">
        <ele>70</ele>
        <time>2018-02-17T13:50:47Z</time>
      </trkpt>
      <trkpt lat="62.632938142279" lon="18.005094178818">
        <ele>70.2</ele>
        <time>2018-02-17T13:50:48Z</time>
      </trkpt>
      <trkpt lat="62.632920875565" lon="18.005145811322">
        <ele>70.4</ele>
        <time>2018-02-17T13:50:49Z</time>
      </trkpt>
      <trkpt lat="62.632903022118" lon="18.005191157401">
        <ele>70.6</ele>
        <time>2018-02-17T13:50:50Z</time>
      </trkpt>
      <trkpt lat="62.63288944344" lon="18.005234491824">
        <ele>70.8</ele>
        <time>2018-02-17T13:50:51Z</time>
      </trkpt>
      <trkpt lat="62.632876367676" lon="18.005276233686">
        <ele>70.6</ele>
        <time>2018-02-17T13:50:52Z</time>
      </trkpt>
      <trkpt lat="62.632843426809" lon="18.005316550625">
        <ele>70.8</ele>
        <time>2018-02-17T13:50:53Z</time>
      </trkpt>
      <trkpt lat="62.632821214774" lon="18.005354017718">
        <ele>70.6</ele>
        <time>2018-02-17T13:50:54Z</time>
      </trkpt>
      <trkpt lat="62.632793638323" lon="18.005376145934">
        <ele>70.6</ele>
        <time>2018-02-17T13:50:55Z</time>
      </trkpt>
      <trkpt lat="62.632770923374" lon="18.005390227526">
        <ele>70.4</ele>
        <time>2018-02-17T13:50:56Z</time>
      </trkpt>
      <trkpt lat="62.632757763791" lon="18.005406572231">
        <ele>70.2</ele>
        <time>2018-02-17T13:50:57Z</time>
      </trkpt>
      <trkpt lat="62.632743682199" lon="18.005409841172">
        <ele>70.2</ele>
        <time>2018-02-17T13:50:58Z</time>
      </trkpt>
      <trkpt lat="62.6327251582" lon="18.005417133425">
        <ele>70.2</ele>
        <time>2018-02-17T13:50:59Z</time>
      </trkpt>
      <trkpt lat="62.632706215106" lon="18.005414283579">
        <ele>70.2</ele>
        <time>2018-02-17T13:51:00Z</time>
      </trkpt>
      <trkpt lat="62.632683583976" lon="18.005413780665">
        <ele>70.2</ele>
        <time>2018-02-17T13:51:01Z</time>
      </trkpt>
      <trkpt lat="62.632664724701" lon="18.005410763181">
        <ele>70.6</ele>
        <time>2018-02-17T13:51:02Z</time>
      </trkpt>
      <trkpt lat="62.632642764123" lon="18.005402884195">
        <ele>70.8</ele>
        <time>2018-02-17T13:51:03Z</time>
      </trkpt>
      <trkpt lat="62.632621557916" lon="18.00539995053">
        <ele>71.2</ele>
        <time>2018-02-17T13:51:04Z</time>
      </trkpt>
      <trkpt lat="62.632603285374" lon="18.005400537263">
        <ele>71.6</ele>
        <time>2018-02-17T13:51:05Z</time>
      </trkpt>
      <trkpt lat="62.632580067511" lon="18.005396765408">
        <ele>71.8</ele>
        <time>2018-02-17T13:51:06Z</time>
      </trkpt>
      <trkpt lat="62.63255919658" lon="18.005402632738">
        <ele>71.8</ele>
        <time>2018-02-17T13:51:07Z</time>
      </trkpt>
      <trkpt lat="62.632533380328" lon="18.005399196159">
        <ele>72</ele>
        <time>2018-02-17T13:51:08Z</time>
      </trkpt>
      <trkpt lat="62.632510413922" lon="18.00539995053">
        <ele>72</ele>
        <time>2018-02-17T13:51:09Z</time>
      </trkpt>
      <trkpt lat="62.632488537163" lon="18.005391484811">
        <ele>72</ele>
        <time>2018-02-17T13:51:10Z</time>
      </trkpt>
      <trkpt lat="62.632468420603" lon="18.005381007436">
        <ele>72.2</ele>
        <time>2018-02-17T13:51:11Z</time>
      </trkpt>
      <trkpt lat="62.632448890776" lon="18.005395927218">
        <ele>72.2</ele>
        <time>2018-02-17T13:51:12Z</time>
      </trkpt>
      <trkpt lat="62.632426678741" lon="18.005410679362">
        <ele>72.2</ele>
        <time>2018-02-17T13:51:13Z</time>
      </trkpt>
      <trkpt lat="62.632407148914" lon="18.005412355742">
        <ele>72.4</ele>
        <time>2018-02-17T13:51:14Z</time>
      </trkpt>
      <trkpt lat="62.632387032354" lon="18.00542509623">
        <ele>72.4</ele>
        <time>2018-02-17T13:51:15Z</time>
      </trkpt>
      <trkpt lat="62.632367670165" lon="18.00543180175">
        <ele>72.4</ele>
        <time>2018-02-17T13:51:16Z</time>
      </trkpt>
      <trkpt lat="62.632347469786" lon="18.005436998528">
        <ele>72.6</ele>
        <time>2018-02-17T13:51:17Z</time>
      </trkpt>
      <trkpt lat="62.632328526692" lon="18.005452672681">
        <ele>72.8</ele>
        <time>2018-02-17T13:51:18Z</time>
      </trkpt>
      <trkpt lat="62.632305979381" lon="18.005460635486">
        <ele>72.8</ele>
        <time>2018-02-17T13:51:19Z</time>
      </trkpt>
      <trkpt lat="62.632281839509" lon="18.005466754273">
        <ele>73</ele>
        <time>2018-02-17T13:51:20Z</time>
      </trkpt>
      <trkpt lat="62.632261052397" lon="18.005474297983">
        <ele>73</ele>
        <time>2018-02-17T13:51:21Z</time>
      </trkpt>
      <trkpt lat="62.632240432923" lon="18.005479243304">
        <ele>72.8</ele>
        <time>2018-02-17T13:51:22Z</time>
      </trkpt>
      <trkpt lat="62.632219561992" lon="18.00549550419">
        <ele>72.8</ele>
        <time>2018-02-17T13:51:23Z</time>
      </trkpt>
      <trkpt lat="62.632197601414" lon="18.00549550419">
        <ele>72.8</ele>
        <time>2018-02-17T13:51:24Z</time>
      </trkpt>
      <trkpt lat="62.632178742139" lon="18.005515285474">
        <ele>73</ele>
        <time>2018-02-17T13:51:25Z</time>
      </trkpt>
      <trkpt lat="62.632156446285" lon="18.005526601039">
        <ele>73</ele>
        <time>2018-02-17T13:51:26Z</time>
      </trkpt>
      <trkpt lat="62.632134569526" lon="18.005535821129">
        <ele>73.2</ele>
        <time>2018-02-17T13:51:27Z</time>
      </trkpt>
      <trkpt lat="62.632111100206" lon="18.005553004024">
        <ele>73.2</ele>
        <time>2018-02-17T13:51:28Z</time>
      </trkpt>
      <trkpt lat="62.632085200135" lon="18.00555836844">
        <ele>73.4</ele>
        <time>2018-02-17T13:51:29Z</time>
      </trkpt>
      <trkpt lat="62.632061982272" lon="18.005565576874">
        <ele>73.4</ele>
        <time>2018-02-17T13:51:30Z</time>
      </trkpt>
      <trkpt lat="62.632039686418" lon="18.005575383697">
        <ele>73.4</ele>
        <time>2018-02-17T13:51:31Z</time>
      </trkpt>
      <trkpt lat="62.632014875994" lon="18.005577311534">
        <ele>73.6</ele>
        <time>2018-02-17T13:51:32Z</time>
      </trkpt>
      <trkpt lat="62.631993334511" lon="18.005591644583">
        <ele>73.6</ele>
        <time>2018-02-17T13:51:33Z</time>
      </trkpt>
      <trkpt lat="62.631967015345" lon="18.005591393126">
        <ele>73.6</ele>
        <time>2018-02-17T13:51:34Z</time>
      </trkpt>
      <trkpt lat="62.631943797482" lon="18.005595500257">
        <ele>73.6</ele>
        <time>2018-02-17T13:51:35Z</time>
      </trkpt>
      <trkpt lat="62.631921753085" lon="18.005598182465">
        <ele>73.6</ele>
        <time>2018-02-17T13:51:36Z</time>
      </trkpt>
      <trkpt lat="62.631899373412" lon="18.005591309307">
        <ele>73.6</ele>
        <time>2018-02-17T13:51:37Z</time>
      </trkpt>
      <trkpt lat="62.631875987911" lon="18.005595584076">
        <ele>73.4</ele>
        <time>2018-02-17T13:51:38Z</time>
      </trkpt>
      <trkpt lat="62.631849920202" lon="18.00557932319">
        <ele>73.6</ele>
        <time>2018-02-17T13:51:39Z</time>
      </trkpt>
      <trkpt lat="62.631826786158" lon="18.005563732856">
        <ele>73.4</ele>
        <time>2018-02-17T13:51:40Z</time>
      </trkpt>
      <trkpt lat="62.631805160856" lon="18.0055533393">
        <ele>73.6</ele>
        <time>2018-02-17T13:51:41Z</time>
      </trkpt>
      <trkpt lat="62.631783535554" lon="18.005528445057">
        <ele>73.6</ele>
        <time>2018-02-17T13:51:42Z</time>
      </trkpt>
      <trkpt lat="62.631757300207" lon="18.005493073439">
        <ele>73.6</ele>
        <time>2018-02-17T13:51:43Z</time>
      </trkpt>
      <trkpt lat="62.631734836715" lon="18.005457618002">
        <ele>73.8</ele>
        <time>2018-02-17T13:51:44Z</time>
      </trkpt>
      <trkpt lat="62.631719749295" lon="18.005410176448">
        <ele>73.8</ele>
        <time>2018-02-17T13:51:45Z</time>
      </trkpt>
      <trkpt lat="62.631705332427" lon="18.005359465953">
        <ele>74</ele>
        <time>2018-02-17T13:51:46Z</time>
      </trkpt>
      <trkpt lat="62.631689239179" lon="18.005330883674">
        <ele>74</ele>
        <time>2018-02-17T13:51:47Z</time>
      </trkpt>
      <trkpt lat="62.631675995777" lon="18.005287549251">
        <ele>74</ele>
        <time>2018-02-17T13:51:48Z</time>
      </trkpt>
      <trkpt lat="62.631661998004" lon="18.005250417434">
        <ele>74</ele>
        <time>2018-02-17T13:51:49Z</time>
      </trkpt>
      <trkpt lat="62.631643222548" lon="18.005216303101">
        <ele>74</ele>
        <time>2018-02-17T13:51:50Z</time>
      </trkpt>
      <trkpt lat="62.631624530911" lon="18.005172633402">
        <ele>74</ele>
        <time>2018-02-17T13:51:51Z</time>
      </trkpt>
      <trkpt lat="62.631611874242" lon="18.005136926508">
        <ele>74.2</ele>
        <time>2018-02-17T13:51:52Z</time>
      </trkpt>
      <trkpt lat="62.631591590044" lon="18.005094933189">
        <ele>74.2</ele>
        <time>2018-02-17T13:51:53Z</time>
      </trkpt>
      <trkpt lat="62.63156677962" lon="18.005063752521">
        <ele>74.4</ele>
        <time>2018-02-17T13:51:54Z</time>
      </trkpt>
      <trkpt lat="62.631551859838" lon="18.005033745319">
        <ele>74.4</ele>
        <time>2018-02-17T13:51:55Z</time>
      </trkpt>
      <trkpt lat="62.631536520961" lon="18.005008264343">
        <ele>74.6</ele>
        <time>2018-02-17T13:51:56Z</time>
      </trkpt>
      <trkpt lat="62.631520511532" lon="18.004980939349">
        <ele>74.6</ele>
        <time>2018-02-17T13:51:57Z</time>
      </trkpt>
      <trkpt lat="62.631500394972" lon="18.004955290735">
        <ele>74.8</ele>
        <time>2018-02-17T13:51:58Z</time>
      </trkpt>
      <trkpt lat="62.631483631172" lon="18.004938778392">
        <ele>75</ele>
        <time>2018-02-17T13:51:59Z</time>
      </trkpt>
      <trkpt lat="62.631467957019" lon="18.004921008764">
        <ele>75</ele>
        <time>2018-02-17T13:52:00Z</time>
      </trkpt>
      <trkpt lat="62.631452366685" lon="18.00490458024">
        <ele>75.2</ele>
        <time>2018-02-17T13:52:01Z</time>
      </trkpt>
      <trkpt lat="62.631435602885" lon="18.004872561382">
        <ele>75.4</ele>
        <time>2018-02-17T13:52:02Z</time>
      </trkpt>
      <trkpt lat="62.631415821601" lon="18.00484339237">
        <ele>75.4</ele>
        <time>2018-02-17T13:52:03Z</time>
      </trkpt>
      <trkpt lat="62.631399644534" lon="18.004834926651">
        <ele>75.6</ele>
        <time>2018-02-17T13:52:04Z</time>
      </trkpt>
      <trkpt lat="62.631372738635" lon="18.004811960245">
        <ele>75.6</ele>
        <time>2018-02-17T13:52:05Z</time>
      </trkpt>
      <trkpt lat="62.631356980663" lon="18.004803578345">
        <ele>75.6</ele>
        <time>2018-02-17T13:52:06Z</time>
      </trkpt>
      <trkpt lat="62.631336612646" lon="18.004787988011">
        <ele>75.8</ele>
        <time>2018-02-17T13:52:07Z</time>
      </trkpt>
      <trkpt lat="62.631313394783" lon="18.004780779577">
        <ele>76</ele>
        <time>2018-02-17T13:52:08Z</time>
      </trkpt>
      <trkpt lat="62.631294032594" lon="18.004758651361">
        <ele>76</ele>
        <time>2018-02-17T13:52:09Z</time>
      </trkpt>
      <trkpt lat="62.631281459744" lon="18.004741468466">
        <ele>76.2</ele>
        <time>2018-02-17T13:52:10Z</time>
      </trkpt>
      <trkpt lat="62.631263522478" lon="18.004727805969">
        <ele>76.2</ele>
        <time>2018-02-17T13:52:11Z</time>
      </trkpt>
      <trkpt lat="62.631242316271" lon="18.004711293626">
        <ele>76.4</ele>
        <time>2018-02-17T13:52:12Z</time>
      </trkpt>
      <trkpt lat="62.631223792272" lon="18.004695451835">
        <ele>76.6</ele>
        <time>2018-02-17T13:52:13Z</time>
      </trkpt>
      <trkpt lat="62.631204346264" lon="18.004671479601">
        <ele>76.6</ele>
        <time>2018-02-17T13:52:14Z</time>
      </trkpt>
      <trkpt lat="62.631184732618" lon="18.004663684434">
        <ele>76.8</ele>
        <time>2018-02-17T13:52:15Z</time>
      </trkpt>
      <trkpt lat="62.631163191135" lon="18.004647591186">
        <ele>76.8</ele>
        <time>2018-02-17T13:52:16Z</time>
      </trkpt>
      <trkpt lat="62.63114265548" lon="18.004630156834">
        <ele>76.8</ele>
        <time>2018-02-17T13:52:17Z</time>
      </trkpt>
      <trkpt lat="62.631128154793" lon="18.00461037555">
        <ele>76.8</ele>
        <time>2018-02-17T13:52:18Z</time>
      </trkpt>
      <trkpt lat="62.631105523663" lon="18.004586403316">
        <ele>76.8</ele>
        <time>2018-02-17T13:52:19Z</time>
      </trkpt>
      <trkpt lat="62.631082892533" lon="18.004570310068">
        <ele>76.8</ele>
        <time>2018-02-17T13:52:20Z</time>
      </trkpt>
      <trkpt lat="62.631064200896" lon="18.004555138829">
        <ele>76.8</ele>
        <time>2018-02-17T13:52:21Z</time>
      </trkpt>
      <trkpt lat="62.631048107648" lon="18.004534603174">
        <ele>77</ele>
        <time>2018-02-17T13:52:22Z</time>
      </trkpt>
      <trkpt lat="62.631026817622" lon="18.00452068922">
        <ele>77.2</ele>
        <time>2018-02-17T13:52:23Z</time>
      </trkpt>
      <trkpt lat="62.631010892012" lon="18.004488083629">
        <ele>77.4</ele>
        <time>2018-02-17T13:52:24Z</time>
      </trkpt>
      <trkpt lat="62.630992200375" lon="18.004472828571">
        <ele>77.4</ele>
        <time>2018-02-17T13:52:25Z</time>
      </trkpt>
      <trkpt lat="62.630970910349" lon="18.004447599052">
        <ele>77.6</ele>
        <time>2018-02-17T13:52:26Z</time>
      </trkpt>
      <trkpt lat="62.630954314187" lon="18.004421447524">
        <ele>77.8</ele>
        <time>2018-02-17T13:52:27Z</time>
      </trkpt>
      <trkpt lat="62.630939562043" lon="18.004389261028">
        <ele>77.8</ele>
        <time>2018-02-17T13:52:28Z</time>
      </trkpt>
      <trkpt lat="62.630920618949" lon="18.004353805591">
        <ele>78</ele>
        <time>2018-02-17T13:52:29Z</time>
      </trkpt>
      <trkpt lat="62.630903603692" lon="18.004321954371">
        <ele>78.2</ele>
        <time>2018-02-17T13:52:30Z</time>
      </trkpt>
      <trkpt lat="62.630889438281" lon="18.004285493106">
        <ele>78.2</ele>
        <time>2018-02-17T13:52:31Z</time>
      </trkpt>
      <trkpt lat="62.630871501015" lon="18.004260347406">
        <ele>78.4</ele>
        <time>2018-02-17T13:52:32Z</time>
      </trkpt>
      <trkpt lat="62.630857922337" lon="18.004229082919">
        <ele>78.4</ele>
        <time>2018-02-17T13:52:33Z</time>
      </trkpt>
      <trkpt lat="62.630847947876" lon="18.004199159536">
        <ele>78.6</ele>
        <time>2018-02-17T13:52:34Z</time>
      </trkpt>
      <trkpt lat="62.630832022266" lon="18.004154567828">
        <ele>78.6</ele>
        <time>2018-02-17T13:52:35Z</time>
      </trkpt>
      <trkpt lat="62.630820287606" lon="18.004103438238">
        <ele>79</ele>
        <time>2018-02-17T13:52:36Z</time>
      </trkpt>
      <trkpt lat="62.630801763607" lon="18.004073431036">
        <ele>79</ele>
        <time>2018-02-17T13:52:37Z</time>
      </trkpt>
      <trkpt lat="62.630788855481" lon="18.004036885952">
        <ele>79.2</ele>
        <time>2018-02-17T13:52:38Z</time>
      </trkpt>
      <trkpt lat="62.630774606251" lon="18.003993886805">
        <ele>79.4</ele>
        <time>2018-02-17T13:52:39Z</time>
      </trkpt>
      <trkpt lat="62.630768655102" lon="18.003947702536">
        <ele>79.4</ele>
        <time>2018-02-17T13:52:40Z</time>
      </trkpt>
      <trkpt lat="62.630756166071" lon="18.003901015353">
        <ele>79.6</ele>
        <time>2018-02-17T13:52:41Z</time>
      </trkpt>
      <trkpt lat="62.630750466379" lon="18.003851897419">
        <ele>79.6</ele>
        <time>2018-02-17T13:52:42Z</time>
      </trkpt>
      <trkpt lat="62.63076044084" lon="18.003766821134">
        <ele>80</ele>
        <time>2018-02-17T13:52:43Z</time>
      </trkpt>
      <trkpt lat="62.630763625962" lon="18.003704878893">
        <ele>80.2</ele>
        <time>2018-02-17T13:52:44Z</time>
      </trkpt>
      <trkpt lat="62.630773516604" lon="18.003650899457">
        <ele>80.2</ele>
        <time>2018-02-17T13:52:45Z</time>
      </trkpt>
      <trkpt lat="62.630775444441" lon="18.003605553378">
        <ele>80.2</ele>
        <time>2018-02-17T13:52:46Z</time>
      </trkpt>
      <trkpt lat="62.630776534088" lon="18.003560039661">
        <ele>80.2</ele>
        <time>2018-02-17T13:52:47Z</time>
      </trkpt>
      <trkpt lat="62.63077720464" lon="18.003518800713">
        <ele>80.2</ele>
        <time>2018-02-17T13:52:48Z</time>
      </trkpt>
      <trkpt lat="62.630778126649" lon="18.00347127534">
        <ele>80.2</ele>
        <time>2018-02-17T13:52:49Z</time>
      </trkpt>
      <trkpt lat="62.630778629563" lon="18.003423833786">
        <ele>80.2</ele>
        <time>2018-02-17T13:52:50Z</time>
      </trkpt>
      <trkpt lat="62.630783826341" lon="18.003375302585">
        <ele>80.4</ele>
        <time>2018-02-17T13:52:51Z</time>
      </trkpt>
      <trkpt lat="62.630785083626" lon="18.003338170768">
        <ele>80.6</ele>
        <time>2018-02-17T13:52:52Z</time>
      </trkpt>
      <trkpt lat="62.630792962612" lon="18.003287963187">
        <ele>80.8</ele>
        <time>2018-02-17T13:52:53Z</time>
      </trkpt>
      <trkpt lat="62.6307973212" lon="18.003241695099">
        <ele>80.8</ele>
        <time>2018-02-17T13:52:54Z</time>
      </trkpt>
      <trkpt lat="62.630798829942" lon="18.003199115047">
        <ele>81</ele>
        <time>2018-02-17T13:52:55Z</time>
      </trkpt>
      <trkpt lat="62.630795141906" lon="18.003157959918">
        <ele>81</ele>
        <time>2018-02-17T13:52:56Z</time>
      </trkpt>
      <trkpt lat="62.630797405019" lon="18.003115212228">
        <ele>81</ele>
        <time>2018-02-17T13:52:57Z</time>
      </trkpt>
      <trkpt lat="62.630797237381" lon="18.003066094294">
        <ele>81.2</ele>
        <time>2018-02-17T13:52:58Z</time>
      </trkpt>
      <trkpt lat="62.630796315372" lon="18.003022424595">
        <ele>81.2</ele>
        <time>2018-02-17T13:52:59Z</time>
      </trkpt>
      <trkpt lat="62.630791202413" lon="18.002982359113">
        <ele>81.4</ele>
        <time>2018-02-17T13:53:00Z</time>
      </trkpt>
      <trkpt lat="62.630785921816" lon="18.002941706898">
        <ele>81.6</ele>
        <time>2018-02-17T13:53:01Z</time>
      </trkpt>
      <trkpt lat="62.630779132477" lon="18.002898623932">
        <ele>81.6</ele>
        <time>2018-02-17T13:53:02Z</time>
      </trkpt>
      <trkpt lat="62.630770247663" lon="18.002858893726">
        <ele>81.6</ele>
        <time>2018-02-17T13:53:03Z</time>
      </trkpt>
      <trkpt lat="62.630767900731" lon="18.002815894579">
        <ele>81.8</ele>
        <time>2018-02-17T13:53:04Z</time>
      </trkpt>
      <trkpt lat="62.630758010089" lon="18.002776248192">
        <ele>82</ele>
        <time>2018-02-17T13:53:05Z</time>
      </trkpt>
      <trkpt lat="62.630755160243" lon="18.002727716991">
        <ele>82</ele>
        <time>2018-02-17T13:53:06Z</time>
      </trkpt>
      <trkpt lat="62.630753986777" lon="18.002688154423">
        <ele>82</ele>
        <time>2018-02-17T13:53:07Z</time>
      </trkpt>
      <trkpt lat="62.630752729492" lon="18.00263308534">
        <ele>82.4</ele>
        <time>2018-02-17T13:53:08Z</time>
      </trkpt>
      <trkpt lat="62.630749795827" lon="18.002582123388">
        <ele>82.4</ele>
        <time>2018-02-17T13:53:09Z</time>
      </trkpt>
      <trkpt lat="62.630747197438" lon="18.002539543336">
        <ele>82.6</ele>
        <time>2018-02-17T13:53:10Z</time>
      </trkpt>
      <trkpt lat="62.630740575737" lon="18.00249310761">
        <ele>82.6</ele>
        <time>2018-02-17T13:53:11Z</time>
      </trkpt>
      <trkpt lat="62.630737390615" lon="18.002459496191">
        <ele>82.8</ele>
        <time>2018-02-17T13:53:12Z</time>
      </trkpt>
      <trkpt lat="62.630729008715" lon="18.002416161768">
        <ele>82.8</ele>
        <time>2018-02-17T13:53:13Z</time>
      </trkpt>
      <trkpt lat="62.630716519684" lon="18.002380454874">
        <ele>82.8</ele>
        <time>2018-02-17T13:53:14Z</time>
      </trkpt>
      <trkpt lat="62.630711239087" lon="18.00233636608">
        <ele>83</ele>
        <time>2018-02-17T13:53:15Z</time>
      </trkpt>
      <trkpt lat="62.630708640698" lon="18.00228691287">
        <ele>83.2</ele>
        <time>2018-02-17T13:53:16Z</time>
      </trkpt>
      <trkpt lat="62.630700258798" lon="18.002248104673">
        <ele>83.2</ele>
        <time>2018-02-17T13:53:17Z</time>
      </trkpt>
      <trkpt lat="62.630690116699" lon="18.002202674775">
        <ele>83.4</ele>
        <time>2018-02-17T13:53:18Z</time>
      </trkpt>
      <trkpt lat="62.630679723143" lon="18.002159172714">
        <ele>83.4</ele>
        <time>2018-02-17T13:53:19Z</time>
      </trkpt>
      <trkpt lat="62.630669245768" lon="18.002110641513">
        <ele>83.6</ele>
        <time>2018-02-17T13:53:20Z</time>
      </trkpt>
      <trkpt lat="62.630661953515" lon="18.002060769208">
        <ele>83.6</ele>
        <time>2018-02-17T13:53:21Z</time>
      </trkpt>
      <trkpt lat="62.630654661262" lon="18.002021709554">
        <ele>83.6</ele>
        <time>2018-02-17T13:53:22Z</time>
      </trkpt>
      <trkpt lat="62.630645357353" lon="18.001960605503">
        <ele>83.6</ele>
        <time>2018-02-17T13:53:23Z</time>
      </trkpt>
      <trkpt lat="62.630641082584" lon="18.001909559732">
        <ele>83.8</ele>
        <time>2018-02-17T13:53:24Z</time>
      </trkpt>
      <trkpt lat="62.630643764792" lon="18.001847198396">
        <ele>84</ele>
        <time>2018-02-17T13:53:25Z</time>
      </trkpt>
      <trkpt lat="62.630636891634" lon="18.001794140969">
        <ele>84</ele>
        <time>2018-02-17T13:53:26Z</time>
      </trkpt>
      <trkpt lat="62.630632281589" lon="18.001750555089">
        <ele>84</ele>
        <time>2018-02-17T13:53:27Z</time>
      </trkpt>
      <trkpt lat="62.630628509734" lon="18.001701604793">
        <ele>84.2</ele>
        <time>2018-02-17T13:53:28Z</time>
      </trkpt>
      <trkpt lat="62.630619960196" lon="18.001642680036">
        <ele>84.2</ele>
        <time>2018-02-17T13:53:29Z</time>
      </trkpt>
      <trkpt lat="62.630614009047" lon="18.001590209342">
        <ele>84.2</ele>
        <time>2018-02-17T13:53:30Z</time>
      </trkpt>
      <trkpt lat="62.630603280215" lon="18.001539163571">
        <ele>84.2</ele>
        <time>2018-02-17T13:53:31Z</time>
      </trkpt>
      <trkpt lat="62.630592886659" lon="18.00149901427">
        <ele>84.2</ele>
        <time>2018-02-17T13:53:32Z</time>
      </trkpt>
      <trkpt lat="62.6305877737" lon="18.001439586599">
        <ele>84.2</ele>
        <time>2018-02-17T13:53:33Z</time>
      </trkpt>
      <trkpt lat="62.630587522243" lon="18.001390384846">
        <ele>84.2</ele>
        <time>2018-02-17T13:53:34Z</time>
      </trkpt>
      <trkpt lat="62.630583834207" lon="18.00134394912">
        <ele>84.4</ele>
        <time>2018-02-17T13:53:35Z</time>
      </trkpt>
      <trkpt lat="62.6305877737" lon="18.001300614697">
        <ele>84.4</ele>
        <time>2018-02-17T13:53:36Z</time>
      </trkpt>
      <trkpt lat="62.630584672397" lon="18.001260213939">
        <ele>84.6</ele>
        <time>2018-02-17T13:53:37Z</time>
      </trkpt>
      <trkpt lat="62.630577296325" lon="18.001213359118">
        <ele>84.6</ele>
        <time>2018-02-17T13:53:38Z</time>
      </trkpt>
      <trkpt lat="62.630574865574" lon="18.001167342487">
        <ele>84.6</ele>
        <time>2018-02-17T13:53:39Z</time>
      </trkpt>
      <trkpt lat="62.630570758443" lon="18.001127779919">
        <ele>84.8</ele>
        <time>2018-02-17T13:53:40Z</time>
      </trkpt>
      <trkpt lat="62.630566567493" lon="18.001072962293">
        <ele>84.8</ele>
        <time>2018-02-17T13:53:41Z</time>
      </trkpt>
      <trkpt lat="62.630562208905" lon="18.001022503255">
        <ele>84.8</ele>
        <time>2018-02-17T13:53:42Z</time>
      </trkpt>
      <trkpt lat="62.630558688507" lon="18.000966176887">
        <ele>84.8</ele>
        <time>2018-02-17T13:53:43Z</time>
      </trkpt>
      <trkpt lat="62.630547121485" lon="18.000915717849">
        <ele>84.8</ele>
        <time>2018-02-17T13:53:44Z</time>
      </trkpt>
      <trkpt lat="62.630536141196" lon="18.000873473073">
        <ele>85</ele>
        <time>2018-02-17T13:53:45Z</time>
      </trkpt>
      <trkpt lat="62.630526334373" lon="18.000822092026">
        <ele>85</ele>
        <time>2018-02-17T13:53:46Z</time>
      </trkpt>
      <trkpt lat="62.630516443731" lon="18.00077733268">
        <ele>85.2</ele>
        <time>2018-02-17T13:53:47Z</time>
      </trkpt>
      <trkpt lat="62.630508229469" lon="18.000728466203">
        <ele>85.2</ele>
        <time>2018-02-17T13:53:48Z</time>
      </trkpt>
      <trkpt lat="62.630500685759" lon="18.000677336613">
        <ele>85.2</ele>
        <time>2018-02-17T13:53:49Z</time>
      </trkpt>
      <trkpt lat="62.630492722954" lon="18.000635343294">
        <ele>85.4</ele>
        <time>2018-02-17T13:53:50Z</time>
      </trkpt>
      <trkpt lat="62.630480988294" lon="18.000586392998">
        <ele>85.6</ele>
        <time>2018-02-17T13:53:51Z</time>
      </trkpt>
      <trkpt lat="62.630466571426" lon="18.000538197073">
        <ele>85.6</ele>
        <time>2018-02-17T13:53:52Z</time>
      </trkpt>
      <trkpt lat="62.63045869244" lon="18.000513889563">
        <ele>85.6</ele>
        <time>2018-02-17T13:53:53Z</time>
      </trkpt>
      <trkpt lat="62.630453914757" lon="18.000470387502">
        <ele>85.6</ele>
        <time>2018-02-17T13:53:54Z</time>
      </trkpt>
      <trkpt lat="62.630444024115" lon="18.000424706147">
        <ele>85.8</ele>
        <time>2018-02-17T13:53:55Z</time>
      </trkpt>
      <trkpt lat="62.630425500116" lon="18.000371145806">
        <ele>85.8</ele>
        <time>2018-02-17T13:53:56Z</time>
      </trkpt>
      <trkpt lat="62.6304117538" lon="18.000329487763">
        <ele>85.8</ele>
        <time>2018-02-17T13:53:57Z</time>
      </trkpt>
      <trkpt lat="62.63040923923" lon="18.000276430336">
        <ele>86</ele>
        <time>2018-02-17T13:53:58Z</time>
      </trkpt>
      <trkpt lat="62.630402617529" lon="18.00022831823">
        <ele>86</ele>
        <time>2018-02-17T13:53:59Z</time>
      </trkpt>
      <trkpt lat="62.630398091303" lon="18.000186911644">
        <ele>86.2</ele>
        <time>2018-02-17T13:54:00Z</time>
      </trkpt>
      <trkpt lat="62.630393565077" lon="18.000141230289">
        <ele>86.2</ele>
        <time>2018-02-17T13:54:01Z</time>
      </trkpt>
      <trkpt lat="62.630382333331" lon="18.00010091335">
        <ele>86.4</ele>
        <time>2018-02-17T13:54:02Z</time>
      </trkpt>
      <trkpt lat="62.630376298363" lon="18.000048526475">
        <ele>86.6</ele>
        <time>2018-02-17T13:54:03Z</time>
      </trkpt>
      <trkpt lat="62.630371604499" lon="18.000002174568">
        <ele>86.8</ele>
        <time>2018-02-17T13:54:04Z</time>
      </trkpt>
      <trkpt lat="62.630362887323" lon="17.999964120742">
        <ele>87</ele>
        <time>2018-02-17T13:54:05Z</time>
      </trkpt>
      <trkpt lat="62.630354673061" lon="17.999910811858">
        <ele>87</ele>
        <time>2018-02-17T13:54:06Z</time>
      </trkpt>
      <trkpt lat="62.63034553679" lon="17.999868567082">
        <ele>87.2</ele>
        <time>2018-02-17T13:54:07Z</time>
      </trkpt>
      <trkpt lat="62.630338244537" lon="17.999821628442">
        <ele>87.2</ele>
        <time>2018-02-17T13:54:08Z</time>
      </trkpt>
      <trkpt lat="62.630326426058" lon="17.999780054218">
        <ele>87</ele>
        <time>2018-02-17T13:54:09Z</time>
      </trkpt>
      <trkpt lat="62.630315781045" lon="17.999749460283">
        <ele>87.2</ele>
        <time>2018-02-17T13:54:10Z</time>
      </trkpt>
      <trkpt lat="62.630305387489" lon="17.999701431996">
        <ele>87.2</ele>
        <time>2018-02-17T13:54:11Z</time>
      </trkpt>
      <trkpt lat="62.63029524539" lon="17.999660612143">
        <ele>87.4</ele>
        <time>2018-02-17T13:54:12Z</time>
      </trkpt>
      <trkpt lat="62.630284013644" lon="17.999617361539">
        <ele>87.6</ele>
        <time>2018-02-17T13:54:13Z</time>
      </trkpt>
      <trkpt lat="62.630272781898" lon="17.999568495062">
        <ele>87.8</ele>
        <time>2018-02-17T13:54:14Z</time>
      </trkpt>
      <trkpt lat="62.630261550152" lon="17.99952842958">
        <ele>88</ele>
        <time>2018-02-17T13:54:15Z</time>
      </trkpt>
      <trkpt lat="62.630251743329" lon="17.999475707429">
        <ele>88</ele>
        <time>2018-02-17T13:54:16Z</time>
      </trkpt>
      <trkpt lat="62.630237829375" lon="17.999422063269">
        <ele>88</ele>
        <time>2018-02-17T13:54:17Z</time>
      </trkpt>
      <trkpt lat="62.630229279837" lon="17.999369089661">
        <ele>88</ele>
        <time>2018-02-17T13:54:18Z</time>
      </trkpt>
      <trkpt lat="62.630218802462" lon="17.999314104397">
        <ele>88</ele>
        <time>2018-02-17T13:54:19Z</time>
      </trkpt>
      <trkpt lat="62.630205391422" lon="17.999265405558">
        <ele>88</ele>
        <time>2018-02-17T13:54:20Z</time>
      </trkpt>
      <trkpt lat="62.630198937359" lon="17.999208408638">
        <ele>88</ele>
        <time>2018-02-17T13:54:21Z</time>
      </trkpt>
      <trkpt lat="62.630192734753" lon="17.999159123066">
        <ele>87.8</ele>
        <time>2018-02-17T13:54:22Z</time>
      </trkpt>
      <trkpt lat="62.6301770606" lon="17.999103886345">
        <ele>88</ele>
        <time>2018-02-17T13:54:23Z</time>
      </trkpt>
      <trkpt lat="62.630167924329" lon="17.999049990728">
        <ele>88</ele>
        <time>2018-02-17T13:54:24Z</time>
      </trkpt>
      <trkpt lat="62.630155686755" lon="17.999004141735">
        <ele>88.2</ele>
        <time>2018-02-17T13:54:25Z</time>
      </trkpt>
      <trkpt lat="62.630155183841" lon="17.998945803711">
        <ele>88.4</ele>
        <time>2018-02-17T13:54:26Z</time>
      </trkpt>
      <trkpt lat="62.630147388674" lon="17.998896015225">
        <ele>88.2</ele>
        <time>2018-02-17T13:54:27Z</time>
      </trkpt>
      <trkpt lat="62.630142191896" lon="17.998838263934">
        <ele>88.4</ele>
        <time>2018-02-17T13:54:28Z</time>
      </trkpt>
      <trkpt lat="62.630132301254" lon="17.998782189023">
        <ele>88.6</ele>
        <time>2018-02-17T13:54:29Z</time>
      </trkpt>
      <trkpt lat="62.630126266286" lon="17.998735585659">
        <ele>88.6</ele>
        <time>2018-02-17T13:54:30Z</time>
      </trkpt>
      <trkpt lat="62.630125847191" lon="17.9986717994">
        <ele>88.6</ele>
        <time>2018-02-17T13:54:31Z</time>
      </trkpt>
      <trkpt lat="62.630119644585" lon="17.998620585991">
        <ele>88.6</ele>
        <time>2018-02-17T13:54:32Z</time>
      </trkpt>
      <trkpt lat="62.630123835535" lon="17.998553195515">
        <ele>88.6</ele>
        <time>2018-02-17T13:54:33Z</time>
      </trkpt>
      <trkpt lat="62.630126853019" lon="17.99849242674">
        <ele>88.6</ele>
        <time>2018-02-17T13:54:34Z</time>
      </trkpt>
      <trkpt lat="62.630126685381" lon="17.998424617169">
        <ele>88.6</ele>
        <time>2018-02-17T13:54:35Z</time>
      </trkpt>
      <trkpt lat="62.630119728404" lon="17.998366782059">
        <ele>88.8</ele>
        <time>2018-02-17T13:54:36Z</time>
      </trkpt>
      <trkpt lat="62.630120985689" lon="17.998305007456">
        <ele>88.8</ele>
        <time>2018-02-17T13:54:37Z</time>
      </trkpt>
      <trkpt lat="62.630113944893" lon="17.998235689143">
        <ele>89</ele>
        <time>2018-02-17T13:54:38Z</time>
      </trkpt>
      <trkpt lat="62.630116291825" lon="17.998172321979">
        <ele>89</ele>
        <time>2018-02-17T13:54:39Z</time>
      </trkpt>
      <trkpt lat="62.630122159155" lon="17.998109709186">
        <ele>88.8</ele>
        <time>2018-02-17T13:54:40Z</time>
      </trkpt>
      <trkpt lat="62.630131043969" lon="17.998049610963">
        <ele>88.6</ele>
        <time>2018-02-17T13:54:41Z</time>
      </trkpt>
      <trkpt lat="62.630142359534" lon="17.997998816649">
        <ele>88.6</ele>
        <time>2018-02-17T13:54:42Z</time>
      </trkpt>
      <trkpt lat="62.630147807769" lon="17.997951123638">
        <ele>88.6</ele>
        <time>2018-02-17T13:54:43Z</time>
      </trkpt>
      <trkpt lat="62.630148478321" lon="17.997899910229">
        <ele>88.8</ele>
        <time>2018-02-17T13:54:44Z</time>
      </trkpt>
      <trkpt lat="62.630155351479" lon="17.997840063463">
        <ele>88.8</ele>
        <time>2018-02-17T13:54:45Z</time>
      </trkpt>
      <trkpt lat="62.630165828854" lon="17.997785162018">
        <ele>89</ele>
        <time>2018-02-17T13:54:46Z</time>
      </trkpt>
      <trkpt lat="62.630179826627" lon="17.997727075451">
        <ele>89</ele>
        <time>2018-02-17T13:54:47Z</time>
      </trkpt>
      <trkpt lat="62.630186029233" lon="17.997672928377">
        <ele>89.2</ele>
        <time>2018-02-17T13:54:48Z</time>
      </trkpt>
      <trkpt lat="62.630199775549" lon="17.997597407458">
        <ele>89.2</ele>
        <time>2018-02-17T13:54:49Z</time>
      </trkpt>
      <trkpt lat="62.630219053919" lon="17.997534124113">
        <ele>89.4</ele>
        <time>2018-02-17T13:54:50Z</time>
      </trkpt>
      <trkpt lat="62.630232800235" lon="17.997477965383">
        <ele>89.4</ele>
        <time>2018-02-17T13:54:51Z</time>
      </trkpt>
      <trkpt lat="62.630246798008" lon="17.997425913784">
        <ele>89.4</ele>
        <time>2018-02-17T13:54:52Z</time>
      </trkpt>
      <trkpt lat="62.630260376686" lon="17.997360199688">
        <ele>89.6</ele>
        <time>2018-02-17T13:54:53Z</time>
      </trkpt>
      <trkpt lat="62.630282504902" lon="17.997301526388">
        <ele>89.6</ele>
        <time>2018-02-17T13:54:54Z</time>
      </trkpt>
      <trkpt lat="62.630305890403" lon="17.997257437594">
        <ele>89.6</ele>
        <time>2018-02-17T13:54:55Z</time>
      </trkpt>
      <trkpt lat="62.630327850981" lon="17.997212007696">
        <ele>89.6</ele>
        <time>2018-02-17T13:54:56Z</time>
      </trkpt>
      <trkpt lat="62.630351068844" lon="17.997160375192">
        <ele>89.6</ele>
        <time>2018-02-17T13:54:57Z</time>
      </trkpt>
      <trkpt lat="62.630370850128" lon="17.997112682181">
        <ele>89.6</ele>
        <time>2018-02-17T13:54:58Z</time>
      </trkpt>
      <trkpt lat="62.630389541765" lon="17.997059708573">
        <ele>89.6</ele>
        <time>2018-02-17T13:54:59Z</time>
      </trkpt>
      <trkpt lat="62.630412005257" lon="17.997010255363">
        <ele>89.6</ele>
        <time>2018-02-17T13:55:00Z</time>
      </trkpt>
      <trkpt lat="62.630425332478" lon="17.99695686266">
        <ele>89.6</ele>
        <time>2018-02-17T13:55:01Z</time>
      </trkpt>
      <trkpt lat="62.630442096278" lon="17.996906319803">
        <ele>89.6</ele>
        <time>2018-02-17T13:55:02Z</time>
      </trkpt>
      <trkpt lat="62.630458608621" lon="17.996848484693">
        <ele>89.6</ele>
        <time>2018-02-17T13:55:03Z</time>
      </trkpt>
      <trkpt lat="62.630470762376" lon="17.996793834705">
        <ele>89.6</ele>
        <time>2018-02-17T13:55:04Z</time>
      </trkpt>
      <trkpt lat="62.630493225868" lon="17.99673306593">
        <ele>89.6</ele>
        <time>2018-02-17T13:55:05Z</time>
      </trkpt>
      <trkpt lat="62.630514599713" lon="17.99666098159">
        <ele>89.6</ele>
        <time>2018-02-17T13:55:06Z</time>
      </trkpt>
      <trkpt lat="62.63053412954" lon="17.996603062661">
        <ele>89.8</ele>
        <time>2018-02-17T13:55:07Z</time>
      </trkpt>
      <trkpt lat="62.630549803693" lon="17.996537516203">
        <ele>89.8</ele>
        <time>2018-02-17T13:55:08Z</time>
      </trkpt>
      <trkpt lat="62.63055759886" lon="17.996489320278">
        <ele>89.8</ele>
        <time>2018-02-17T13:55:09Z</time>
      </trkpt>
      <trkpt lat="62.630568243873" lon="17.996439783249">
        <ele>89.8</ele>
        <time>2018-02-17T13:55:10Z</time>
      </trkpt>
      <trkpt lat="62.630574195022" lon="17.99639276079">
        <ele>90</ele>
        <time>2018-02-17T13:55:11Z</time>
      </trkpt>
      <trkpt lat="62.630581990189" lon="17.996338613716">
        <ele>89.8</ele>
        <time>2018-02-17T13:55:12Z</time>
      </trkpt>
      <trkpt lat="62.630590204451" lon="17.996278264036">
        <ele>90</ele>
        <time>2018-02-17T13:55:13Z</time>
      </trkpt>
      <trkpt lat="62.630607554984" lon="17.996212885216">
        <ele>90</ele>
        <time>2018-02-17T13:55:14Z</time>
      </trkpt>
      <trkpt lat="62.630629934657" lon="17.99615890578">
        <ele>90</ele>
        <time>2018-02-17T13:55:15Z</time>
      </trkpt>
      <trkpt lat="62.630651559959" lon="17.996118588841">
        <ele>90</ele>
        <time>2018-02-17T13:55:16Z</time>
      </trkpt>
      <trkpt lat="62.63068248917" lon="17.996078523359">
        <ele>90</ele>
        <time>2018-02-17T13:55:17Z</time>
      </trkpt>
      <trkpt lat="62.630708053965" lon="17.996041642999">
        <ele>90</ele>
        <time>2018-02-17T13:55:18Z</time>
      </trkpt>
      <trkpt lat="62.630745688696" lon="17.996008283037">
        <ele>90</ele>
        <time>2018-02-17T13:55:19Z</time>
      </trkpt>
      <trkpt lat="62.63077720464" lon="17.995976934731">
        <ele>90</ele>
        <time>2018-02-17T13:55:20Z</time>
      </trkpt>
      <trkpt lat="62.63080235034" lon="17.995939551457">
        <ele>90</ele>
        <time>2018-02-17T13:55:21Z</time>
      </trkpt>
      <trkpt lat="62.630824227099" lon="17.995910130988">
        <ele>90</ele>
        <time>2018-02-17T13:55:22Z</time>
      </trkpt>
      <trkpt lat="62.630855910681" lon="17.995880878157">
        <ele>90</ele>
        <time>2018-02-17T13:55:23Z</time>
      </trkpt>
      <trkpt lat="62.630890192652" lon="17.995835532078">
        <ele>89.8</ele>
        <time>2018-02-17T13:55:24Z</time>
      </trkpt>
      <trkpt lat="62.63091550599" lon="17.995802842668">
        <ele>90</ele>
        <time>2018-02-17T13:55:25Z</time>
      </trkpt>
      <trkpt lat="62.630934532903" lon="17.995774930941">
        <ele>90</ele>
        <time>2018-02-17T13:55:26Z</time>
      </trkpt>
      <trkpt lat="62.630957247852" lon="17.995741403341">
        <ele>90</ele>
        <time>2018-02-17T13:55:27Z</time>
      </trkpt>
      <trkpt lat="62.630982225914" lon="17.995708043379">
        <ele>90</ele>
        <time>2018-02-17T13:55:28Z</time>
      </trkpt>
      <trkpt lat="62.631008964175" lon="17.995672671761">
        <ele>90.2</ele>
        <time>2018-02-17T13:55:29Z</time>
      </trkpt>
      <trkpt lat="62.631028913097" lon="17.995632438641">
        <ele>90.2</ele>
        <time>2018-02-17T13:55:30Z</time>
      </trkpt>
      <trkpt lat="62.631056992462" lon="17.995605616561">
        <ele>90.2</ele>
        <time>2018-02-17T13:55:31Z</time>
      </trkpt>
      <trkpt lat="62.631087502578" lon="17.995576950463">
        <ele>90.4</ele>
        <time>2018-02-17T13:55:32Z</time>
      </trkpt>
      <trkpt lat="62.631117677418" lon="17.995547697632">
        <ele>90.4</ele>
        <time>2018-02-17T13:55:33Z</time>
      </trkpt>
      <trkpt lat="62.631148690448" lon="17.99552271957">
        <ele>90.2</ele>
        <time>2018-02-17T13:55:34Z</time>
      </trkpt>
      <trkpt lat="62.631180290211" lon="17.995493885834">
        <ele>90.4</ele>
        <time>2018-02-17T13:55:35Z</time>
      </trkpt>
      <trkpt lat="62.631203675712" lon="17.995460442053">
        <ele>90.4</ele>
        <time>2018-02-17T13:55:36Z</time>
      </trkpt>
      <trkpt lat="62.631224211367" lon="17.995434877258">
        <ele>90.4</ele>
        <time>2018-02-17T13:55:37Z</time>
      </trkpt>
      <trkpt lat="62.631246674859" lon="17.995402355486">
        <ele>90.4</ele>
        <time>2018-02-17T13:55:38Z</time>
      </trkpt>
      <trkpt lat="62.631265785591" lon="17.995372096827">
        <ele>90.4</ele>
        <time>2018-02-17T13:55:39Z</time>
      </trkpt>
      <trkpt lat="62.631280621554" lon="17.995334545915">
        <ele>90.6</ele>
        <time>2018-02-17T13:55:40Z</time>
      </trkpt>
      <trkpt lat="62.631305851073" lon="17.995288780741">
        <ele>90.6</ele>
        <time>2018-02-17T13:55:41Z</time>
      </trkpt>
      <trkpt lat="62.631327308737" lon="17.995247625612">
        <ele>90.6</ele>
        <time>2018-02-17T13:55:42Z</time>
      </trkpt>
      <trkpt lat="62.631344407813" lon="17.995218540419">
        <ele>90.6</ele>
        <time>2018-02-17T13:55:43Z</time>
      </trkpt>
      <trkpt lat="62.631355220464" lon="17.995176044186">
        <ele>90.6</ele>
        <time>2018-02-17T13:55:44Z</time>
      </trkpt>
      <trkpt lat="62.63137148135" lon="17.995124830777">
        <ele>90.6</ele>
        <time>2018-02-17T13:55:45Z</time>
      </trkpt>
      <trkpt lat="62.631386736408" lon="17.995080658164">
        <ele>90.8</ele>
        <time>2018-02-17T13:55:46Z</time>
      </trkpt>
      <trkpt lat="62.631398722525" lon="17.995045957098">
        <ele>90.8</ele>
        <time>2018-02-17T13:55:47Z</time>
      </trkpt>
      <trkpt lat="62.631416659791" lon="17.994994827508">
        <ele>91</ele>
        <time>2018-02-17T13:55:48Z</time>
      </trkpt>
      <trkpt lat="62.631424454958" lon="17.994949900524">
        <ele>91</ele>
        <time>2018-02-17T13:55:49Z</time>
      </trkpt>
      <trkpt lat="62.631436692532" lon="17.994890305215">
        <ele>91.2</ele>
        <time>2018-02-17T13:55:50Z</time>
      </trkpt>
      <trkpt lat="62.631449516839" lon="17.994813778468">
        <ele>91.2</ele>
        <time>2018-02-17T13:55:51Z</time>
      </trkpt>
      <trkpt lat="62.631457731101" lon="17.994751500951">
        <ele>91.2</ele>
        <time>2018-02-17T13:55:52Z</time>
      </trkpt>
      <trkpt lat="62.631465526268" lon="17.994651085789">
        <ele>91</ele>
        <time>2018-02-17T13:55:53Z</time>
      </trkpt>
      <trkpt lat="62.631469130485" lon="17.994574223766">
        <ele>91</ele>
        <time>2018-02-17T13:55:54Z</time>
      </trkpt>
      <trkpt lat="62.631472818521" lon="17.994515047552">
        <ele>90.8</ele>
        <time>2018-02-17T13:55:55Z</time>
      </trkpt>
      <trkpt lat="62.631482457706" lon="17.994446399791">
        <ele>90.8</ele>
        <time>2018-02-17T13:55:56Z</time>
      </trkpt>
      <trkpt lat="62.631479021127" lon="17.994399628789">
        <ele>90.6</ele>
        <time>2018-02-17T13:55:57Z</time>
      </trkpt>
      <trkpt lat="62.631470136313" lon="17.994315306875">
        <ele>90.6</ele>
        <time>2018-02-17T13:55:58Z</time>
      </trkpt>
      <trkpt lat="62.631466280639" lon="17.99423358335">
        <ele>90.6</ele>
        <time>2018-02-17T13:55:59Z</time>
      </trkpt>
      <trkpt lat="62.631462927879" lon="17.994153284748">
        <ele>90.4</ele>
        <time>2018-02-17T13:56:00Z</time>
      </trkpt>
      <trkpt lat="62.631448762468" lon="17.994088911756">
        <ele>90.4</ele>
        <time>2018-02-17T13:56:01Z</time>
      </trkpt>
      <trkpt lat="62.631442476043" lon="17.994028394438">
        <ele>90.2</ele>
        <time>2018-02-17T13:56:02Z</time>
      </trkpt>
      <trkpt lat="62.631434597057" lon="17.993966955111">
        <ele>90</ele>
        <time>2018-02-17T13:56:03Z</time>
      </trkpt>
      <trkpt lat="62.631424790234" lon="17.993914400598">
        <ele>89.8</ele>
        <time>2018-02-17T13:56:04Z</time>
      </trkpt>
      <trkpt lat="62.631418922904" lon="17.993836029833">
        <ele>89.8</ele>
        <time>2018-02-17T13:56:05Z</time>
      </trkpt>
      <trkpt lat="62.631405260407" lon="17.993768806995">
        <ele>89.8</ele>
        <time>2018-02-17T13:56:06Z</time>
      </trkpt>
      <trkpt lat="62.631397381421" lon="17.993706445659">
        <ele>89.8</ele>
        <time>2018-02-17T13:56:07Z</time>
      </trkpt>
      <trkpt lat="62.631393022833" lon="17.993614663854">
        <ele>89.8</ele>
        <time>2018-02-17T13:56:08Z</time>
      </trkpt>
      <trkpt lat="62.631392268462" lon="17.993539645849">
        <ele>89.8</ele>
        <time>2018-02-17T13:56:09Z</time>
      </trkpt>
      <trkpt lat="62.631395285946" lon="17.993455994487">
        <ele>89.6</ele>
        <time>2018-02-17T13:56:10Z</time>
      </trkpt>
      <trkpt lat="62.631393106652" lon="17.993373097496">
        <ele>89.6</ele>
        <time>2018-02-17T13:56:11Z</time>
      </trkpt>
      <trkpt lat="62.631401740009" lon="17.993295062007">
        <ele>89.4</ele>
        <time>2018-02-17T13:56:12Z</time>
      </trkpt>
      <trkpt lat="62.631417833257" lon="17.993205878591">
        <ele>89.4</ele>
        <time>2018-02-17T13:56:13Z</time>
      </trkpt>
      <trkpt lat="62.631428813546" lon="17.993132788423">
        <ele>89.2</ele>
        <time>2018-02-17T13:56:14Z</time>
      </trkpt>
      <trkpt lat="62.631445158251" lon="17.993051903088">
        <ele>89</ele>
        <time>2018-02-17T13:56:15Z</time>
      </trkpt>
      <trkpt lat="62.631446750812" lon="17.992964312233">
        <ele>89</ele>
        <time>2018-02-17T13:56:16Z</time>
      </trkpt>
      <trkpt lat="62.631444739156" lon="17.992882840165">
        <ele>88.8</ele>
        <time>2018-02-17T13:56:17Z</time>
      </trkpt>
      <trkpt lat="62.631451193219" lon="17.992802960658">
        <ele>88.8</ele>
        <time>2018-02-17T13:56:18Z</time>
      </trkpt>
      <trkpt lat="62.631463514612" lon="17.992742694797">
        <ele>88.6</ele>
        <time>2018-02-17T13:56:19Z</time>
      </trkpt>
      <trkpt lat="62.631475919824" lon="17.992685614058">
        <ele>88.6</ele>
        <time>2018-02-17T13:56:20Z</time>
      </trkpt>
      <trkpt lat="62.631484050267" lon="17.992641692902">
        <ele>88.6</ele>
        <time>2018-02-17T13:56:21Z</time>
      </trkpt>
      <trkpt lat="62.631494611461" lon="17.992590898588">
        <ele>88.6</ele>
        <time>2018-02-17T13:56:22Z</time>
      </trkpt>
      <trkpt lat="62.631507016673" lon="17.992512108728">
        <ele>88.8</ele>
        <time>2018-02-17T13:56:23Z</time>
      </trkpt>
      <trkpt lat="62.631532078554" lon="17.992455195627">
        <ele>88.8</ele>
        <time>2018-02-17T13:56:24Z</time>
      </trkpt>
      <trkpt lat="62.631557056616" lon="17.992400629458">
        <ele>88.8</ele>
        <time>2018-02-17T13:56:25Z</time>
      </trkpt>
      <trkpt lat="62.631580358298" lon="17.992360815433">
        <ele>88.8</ele>
        <time>2018-02-17T13:56:26Z</time>
      </trkpt>
      <trkpt lat="62.631608605301" lon="17.992338938674">
        <ele>88.8</ele>
        <time>2018-02-17T13:56:27Z</time>
      </trkpt>
      <trkpt lat="62.631637774313" lon="17.992306668359">
        <ele>88.8</ele>
        <time>2018-02-17T13:56:28Z</time>
      </trkpt>
      <trkpt lat="62.631668954981" lon="17.992282947582">
        <ele>88.6</ele>
        <time>2018-02-17T13:56:29Z</time>
      </trkpt>
      <trkpt lat="62.63169837545" lon="17.992272134931">
        <ele>88.6</ele>
        <time>2018-02-17T13:56:30Z</time>
      </trkpt>
      <trkpt lat="62.631727041548" lon="17.992265429411">
        <ele>88.6</ele>
        <time>2018-02-17T13:56:31Z</time>
      </trkpt>
      <trkpt lat="62.631752103429" lon="17.992256796054">
        <ele>88.4</ele>
        <time>2018-02-17T13:56:32Z</time>
      </trkpt>
      <trkpt lat="62.631775908025" lon="17.99224958762">
        <ele>88.4</ele>
        <time>2018-02-17T13:56:33Z</time>
      </trkpt>
      <trkpt lat="62.631798203879" lon="17.992246570136">
        <ele>88.6</ele>
        <time>2018-02-17T13:56:34Z</time>
      </trkpt>
      <trkpt lat="62.631822343751" lon="17.992242798281">
        <ele>88.6</ele>
        <time>2018-02-17T13:56:35Z</time>
      </trkpt>
      <trkpt lat="62.631841203026" lon="17.992237685322">
        <ele>88.8</ele>
        <time>2018-02-17T13:56:36Z</time>
      </trkpt>
      <trkpt lat="62.631860062301" lon="17.992233997286">
        <ele>89</ele>
        <time>2018-02-17T13:56:37Z</time>
      </trkpt>
      <trkpt lat="62.63188529182" lon="17.992223352273">
        <ele>89.2</ele>
        <time>2018-02-17T13:56:38Z</time>
      </trkpt>
      <trkpt lat="62.631900630697" lon="17.992215808563">
        <ele>89</ele>
        <time>2018-02-17T13:56:39Z</time>
      </trkpt>
      <trkpt lat="62.631919741429" lon="17.992199715315">
        <ele>89.2</ele>
        <time>2018-02-17T13:56:40Z</time>
      </trkpt>
      <trkpt lat="62.631944132758" lon="17.992185968999">
        <ele>89.4</ele>
        <time>2018-02-17T13:56:41Z</time>
      </trkpt>
      <trkpt lat="62.631964668413" lon="17.992174318158">
        <ele>89.4</ele>
        <time>2018-02-17T13:56:42Z</time>
      </trkpt>
      <trkpt lat="62.631996603452" lon="17.992158141091">
        <ele>89.6</ele>
        <time>2018-02-17T13:56:43Z</time>
      </trkpt>
      <trkpt lat="62.63202359317" lon="17.992146657888">
        <ele>89.6</ele>
        <time>2018-02-17T13:56:44Z</time>
      </trkpt>
      <trkpt lat="62.632051588716" lon="17.992130983735">
        <ele>89.8</ele>
        <time>2018-02-17T13:56:45Z</time>
      </trkpt>
      <trkpt lat="62.632072962561" lon="17.992114471392">
        <ele>90</ele>
        <time>2018-02-17T13:56:46Z</time>
      </trkpt>
      <trkpt lat="62.632098443537" lon="17.992102401456">
        <ele>90</ele>
        <time>2018-02-17T13:56:47Z</time>
      </trkpt>
      <trkpt lat="62.632124259789" lon="17.992070801693">
        <ele>90.2</ele>
        <time>2018-02-17T13:56:48Z</time>
      </trkpt>
      <trkpt lat="62.632152255335" lon="17.992053032065">
        <ele>90.4</ele>
        <time>2018-02-17T13:56:49Z</time>
      </trkpt>
      <trkpt lat="62.632177903949" lon="17.992048170563">
        <ele>90.6</ele>
        <time>2018-02-17T13:56:50Z</time>
      </trkpt>
      <trkpt lat="62.632213527024" lon="17.992035262437">
        <ele>90.6</ele>
        <time>2018-02-17T13:56:51Z</time>
      </trkpt>
      <trkpt lat="62.632245881158" lon="17.992026126166">
        <ele>90.8</ele>
        <time>2018-02-17T13:56:52Z</time>
      </trkpt>
      <trkpt lat="62.632277816197" lon="17.992009110909">
        <ele>90.6</ele>
        <time>2018-02-17T13:56:53Z</time>
      </trkpt>
      <trkpt lat="62.632315450928" lon="17.991982121191">
        <ele>90.6</ele>
        <time>2018-02-17T13:56:54Z</time>
      </trkpt>
      <trkpt lat="62.632342356827" lon="17.991949850876">
        <ele>90.6</ele>
        <time>2018-02-17T13:56:55Z</time>
      </trkpt>
      <trkpt lat="62.632376554979" lon="17.991923028796">
        <ele>90.4</ele>
        <time>2018-02-17T13:56:56Z</time>
      </trkpt>
      <trkpt lat="62.632402622688" lon="17.991909533937">
        <ele>90.2</ele>
        <time>2018-02-17T13:56:57Z</time>
      </trkpt>
      <trkpt lat="62.632427181655" lon="17.991906935548">
        <ele>90.2</ele>
        <time>2018-02-17T13:56:58Z</time>
      </trkpt>
      <trkpt lat="62.632461631264" lon="17.991892434861">
        <ele>90.2</ele>
        <time>2018-02-17T13:56:59Z</time>
      </trkpt>
      <trkpt lat="62.632494069217" lon="17.991878604726">
        <ele>90.2</ele>
        <time>2018-02-17T13:57:00Z</time>
      </trkpt>
      <trkpt lat="62.632523657324" lon="17.991863768763">
        <ele>90</ele>
        <time>2018-02-17T13:57:01Z</time>
      </trkpt>
      <trkpt lat="62.632552071965" lon="17.99186234384">
        <ele>90</ele>
        <time>2018-02-17T13:57:02Z</time>
      </trkpt>
      <trkpt lat="62.6325826659" lon="17.991855554501">
        <ele>90</ele>
        <time>2018-02-17T13:57:03Z</time>
      </trkpt>
      <trkpt lat="62.632601692813" lon="17.991836276131">
        <ele>90</ele>
        <time>2018-02-17T13:57:04Z</time>
      </trkpt>
      <trkpt lat="62.63261451712" lon="17.991804844006">
        <ele>89.8</ele>
        <time>2018-02-17T13:57:05Z</time>
      </trkpt>
      <trkpt lat="62.632625665047" lon="17.991761090488">
        <ele>90</ele>
        <time>2018-02-17T13:57:06Z</time>
      </trkpt>
      <trkpt lat="62.632632873481" lon="17.991714151848">
        <ele>90</ele>
        <time>2018-02-17T13:57:07Z</time>
      </trkpt>
      <trkpt lat="62.632641423019" lon="17.991660172412">
        <ele>90</ele>
        <time>2018-02-17T13:57:08Z</time>
      </trkpt>
      <trkpt lat="62.632655420792" lon="17.991614155781">
        <ele>90</ele>
        <time>2018-02-17T13:57:09Z</time>
      </trkpt>
      <trkpt lat="62.632669753841" lon="17.991567133322">
        <ele>90</ele>
        <time>2018-02-17T13:57:10Z</time>
      </trkpt>
      <trkpt lat="62.632686098546" lon="17.99152790603">
        <ele>89.8</ele>
        <time>2018-02-17T13:57:11Z</time>
      </trkpt>
      <trkpt lat="62.632704119631" lon="17.991491444765">
        <ele>89.6</ele>
        <time>2018-02-17T13:57:12Z</time>
      </trkpt>
      <trkpt lat="62.6327167763" lon="17.99144995436">
        <ele>89.8</ele>
        <time>2018-02-17T13:57:13Z</time>
      </trkpt>
      <trkpt lat="62.632734043014" lon="17.99141223581">
        <ele>89.6</ele>
        <time>2018-02-17T13:57:14Z</time>
      </trkpt>
      <trkpt lat="62.632749046615" lon="17.991371415957">
        <ele>89.8</ele>
        <time>2018-02-17T13:57:15Z</time>
      </trkpt>
      <trkpt lat="62.632767989709" lon="17.991332523941">
        <ele>89.8</ele>
        <time>2018-02-17T13:57:16Z</time>
      </trkpt>
      <trkpt lat="62.632785088785" lon="17.9912957274">
        <ele>89.8</ele>
        <time>2018-02-17T13:57:17Z</time>
      </trkpt>
      <trkpt lat="62.632801768766" lon="17.991259266135">
        <ele>89.8</ele>
        <time>2018-02-17T13:57:18Z</time>
      </trkpt>
      <trkpt lat="62.632815934177" lon="17.991210064382">
        <ele>89.8</ele>
        <time>2018-02-17T13:57:19Z</time>
      </trkpt>
      <trkpt lat="62.632821801507" lon="17.991164718303">
        <ele>89.8</ele>
        <time>2018-02-17T13:57:20Z</time>
      </trkpt>
      <trkpt lat="62.632830434864" lon="17.991125826287">
        <ele>89.8</ele>
        <time>2018-02-17T13:57:21Z</time>
      </trkpt>
      <trkpt lat="62.632842588619" lon="17.99109120904">
        <ele>89.8</ele>
        <time>2018-02-17T13:57:22Z</time>
      </trkpt>
      <trkpt lat="62.632866309396" lon="17.991034715034">
        <ele>89.8</ele>
        <time>2018-02-17T13:57:23Z</time>
      </trkpt>
      <trkpt lat="62.632885755404" lon="17.99098308253">
        <ele>89.8</ele>
        <time>2018-02-17T13:57:24Z</time>
      </trkpt>
      <trkpt lat="62.63289614896" lon="17.9909436876">
        <ele>89.8</ele>
        <time>2018-02-17T13:57:25Z</time>
      </trkpt>
      <trkpt lat="62.632908973267" lon="17.990895156399">
        <ele>89.8</ele>
        <time>2018-02-17T13:57:26Z</time>
      </trkpt>
      <trkpt lat="62.632924563601" lon="17.990851151424">
        <ele>89.8</ele>
        <time>2018-02-17T13:57:27Z</time>
      </trkpt>
      <trkpt lat="62.632938393736" lon="17.990795579427">
        <ele>89.6</ele>
        <time>2018-02-17T13:57:28Z</time>
      </trkpt>
      <trkpt lat="62.632948535835" lon="17.990725842019">
        <ele>89.6</ele>
        <time>2018-02-17T13:57:29Z</time>
      </trkpt>
      <trkpt lat="62.632967730386" lon="17.990677226999">
        <ele>89.6</ele>
        <time>2018-02-17T13:57:30Z</time>
      </trkpt>
      <trkpt lat="62.63298834986" lon="17.990626600323">
        <ele>89.6</ele>
        <time>2018-02-17T13:57:31Z</time>
      </trkpt>
      <trkpt lat="62.633009807524" lon="17.990570022498">
        <ele>89.8</ele>
        <time>2018-02-17T13:57:32Z</time>
      </trkpt>
      <trkpt lat="62.633031768102" lon="17.990521826573">
        <ele>89.8</ele>
        <time>2018-02-17T13:57:33Z</time>
      </trkpt>
      <trkpt lat="62.63304953773" lon="17.990469691155">
        <ele>89.6</ele>
        <time>2018-02-17T13:57:34Z</time>
      </trkpt>
      <trkpt lat="62.633077784733" lon="17.990421746687">
        <ele>89.6</ele>
        <time>2018-02-17T13:57:35Z</time>
      </trkpt>
      <trkpt lat="62.633109635953" lon="17.990375646237">
        <ele>89.6</ele>
        <time>2018-02-17T13:57:36Z</time>
      </trkpt>
      <trkpt lat="62.633137212404" lon="17.990345722854">
        <ele>89.6</ele>
        <time>2018-02-17T13:57:37Z</time>
      </trkpt>
      <trkpt lat="62.633167219606" lon="17.990320241878">
        <ele>89.6</ele>
        <time>2018-02-17T13:57:38Z</time>
      </trkpt>
      <trkpt lat="62.633193874048" lon="17.990301131146">
        <ele>89.6</ele>
        <time>2018-02-17T13:57:39Z</time>
      </trkpt>
      <trkpt lat="62.633211895133" lon="17.990289145029">
        <ele>89.8</ele>
        <time>2018-02-17T13:57:40Z</time>
      </trkpt>
      <trkpt lat="62.633237795204" lon="17.990276739817">
        <ele>89.8</ele>
        <time>2018-02-17T13:57:41Z</time>
      </trkpt>
      <trkpt lat="62.633262018895" lon="17.990268609374">
        <ele>89.8</ele>
        <time>2018-02-17T13:57:42Z</time>
      </trkpt>
      <trkpt lat="62.633288840975" lon="17.990253354316">
        <ele>89.8</ele>
        <time>2018-02-17T13:57:43Z</time>
      </trkpt>
      <trkpt lat="62.633323206765" lon="17.990243547493">
        <ele>89.8</ele>
        <time>2018-02-17T13:57:44Z</time>
      </trkpt>
      <trkpt lat="62.633356734365" lon="17.99022368239">
        <ele>89.8</ele>
        <time>2018-02-17T13:57:45Z</time>
      </trkpt>
      <trkpt lat="62.633381125694" lon="17.990206415676">
        <ele>89.8</ele>
        <time>2018-02-17T13:57:46Z</time>
      </trkpt>
      <trkpt lat="62.633405265566" lon="17.990184706555">
        <ele>89.8</ele>
        <time>2018-02-17T13:57:47Z</time>
      </trkpt>
      <trkpt lat="62.633433344931" lon="17.990151849507">
        <ele>90</ele>
        <time>2018-02-17T13:57:48Z</time>
      </trkpt>
      <trkpt lat="62.633452790939" lon="17.990109353274">
        <ele>90</ele>
        <time>2018-02-17T13:57:49Z</time>
      </trkpt>
      <trkpt lat="62.633484390702" lon="17.99005688258">
        <ele>90</ele>
        <time>2018-02-17T13:57:50Z</time>
      </trkpt>
      <trkpt lat="62.633512721524" lon="17.990002148773">
        <ele>90</ele>
        <time>2018-02-17T13:57:51Z</time>
      </trkpt>
      <trkpt lat="62.633535352654" lon="17.989949929536">
        <ele>90</ele>
        <time>2018-02-17T13:57:52Z</time>
      </trkpt>
      <trkpt lat="62.633561923277" lon="17.989873654246">
        <ele>90</ele>
        <time>2018-02-17T13:57:53Z</time>
      </trkpt>
      <trkpt lat="62.633580782552" lon="17.989812214919">
        <ele>89.8</ele>
        <time>2018-02-17T13:57:54Z</time>
      </trkpt>
      <trkpt lat="62.633596121429" lon="17.989750691773">
        <ele>89.6</ele>
        <time>2018-02-17T13:57:55Z</time>
      </trkpt>
      <trkpt lat="62.633612214677" lon="17.989694700681">
        <ele>89.6</ele>
        <time>2018-02-17T13:57:56Z</time>
      </trkpt>
      <trkpt lat="62.633638030929" lon="17.989646840032">
        <ele>89.4</ele>
        <time>2018-02-17T13:57:57Z</time>
      </trkpt>
      <trkpt lat="62.633659991507" lon="17.989602415962">
        <ele>89.2</ele>
        <time>2018-02-17T13:57:58Z</time>
      </trkpt>
      <trkpt lat="62.633679102239" lon="17.989554890589">
        <ele>89</ele>
        <time>2018-02-17T13:57:59Z</time>
      </trkpt>
      <trkpt lat="62.633716317875" lon="17.989524296654">
        <ele>89</ele>
        <time>2018-02-17T13:58:00Z</time>
      </trkpt>
      <trkpt lat="62.633749174923" lon="17.989488338303">
        <ele>88.8</ele>
        <time>2018-02-17T13:58:01Z</time>
      </trkpt>
      <trkpt lat="62.633777002831" lon="17.989458079644">
        <ele>89</ele>
        <time>2018-02-17T13:58:02Z</time>
      </trkpt>
      <trkpt lat="62.633813212639" lon="17.989419103809">
        <ele>89</ele>
        <time>2018-02-17T13:58:03Z</time>
      </trkpt>
      <trkpt lat="62.633845650592" lon="17.98940057981">
        <ele>89</ele>
        <time>2018-02-17T13:58:04Z</time>
      </trkpt>
      <trkpt lat="62.633882614771" lon="17.989369985875">
        <ele>89</ele>
        <time>2018-02-17T13:58:05Z</time>
      </trkpt>
      <trkpt lat="62.633912621973" lon="17.989330423307">
        <ele>89</ele>
        <time>2018-02-17T13:58:06Z</time>
      </trkpt>
      <trkpt lat="62.633948496505" lon="17.989289603454">
        <ele>88.8</ele>
        <time>2018-02-17T13:58:07Z</time>
      </trkpt>
      <trkpt lat="62.633985125408" lon="17.989243083909">
        <ele>88.6</ele>
        <time>2018-02-17T13:58:08Z</time>
      </trkpt>
      <trkpt lat="62.634011696031" lon="17.989204610988">
        <ele>88.6</ele>
        <time>2018-02-17T13:58:09Z</time>
      </trkpt>
      <trkpt lat="62.634054443721" lon="17.989155409235">
        <ele>88.4</ele>
        <time>2018-02-17T13:58:10Z</time>
      </trkpt>
      <trkpt lat="62.634095263574" lon="17.989111990993">
        <ele>88</ele>
        <time>2018-02-17T13:58:11Z</time>
      </trkpt>
      <trkpt lat="62.634132646848" lon="17.98905943648">
        <ele>87.8</ele>
        <time>2018-02-17T13:58:12Z</time>
      </trkpt>
      <trkpt lat="62.634167431733" lon="17.98898651395">
        <ele>87.8</ele>
        <time>2018-02-17T13:58:13Z</time>
      </trkpt>
      <trkpt lat="62.634190146682" lon="17.988929936125">
        <ele>87.6</ele>
        <time>2018-02-17T13:58:14Z</time>
      </trkpt>
      <trkpt lat="62.634215543839" lon="17.988876291965">
        <ele>87.4</ele>
        <time>2018-02-17T13:58:15Z</time>
      </trkpt>
      <trkpt lat="62.634229373974" lon="17.988822647805">
        <ele>87.2</ele>
        <time>2018-02-17T13:58:16Z</time>
      </trkpt>
      <trkpt lat="62.634257537158" lon="17.988764058324">
        <ele>87.2</ele>
        <time>2018-02-17T13:58:17Z</time>
      </trkpt>
      <trkpt lat="62.634287460541" lon="17.988703289549">
        <ele>87.2</ele>
        <time>2018-02-17T13:58:18Z</time>
      </trkpt>
      <trkpt lat="62.634313109155" lon="17.988647047">
        <ele>87</ele>
        <time>2018-02-17T13:58:19Z</time>
      </trkpt>
      <trkpt lat="62.634350743886" lon="17.988583763655">
        <ele>87</ele>
        <time>2018-02-17T13:58:20Z</time>
      </trkpt>
      <trkpt lat="62.634384271486" lon="17.988529113667">
        <ele>87</ele>
        <time>2018-02-17T13:58:21Z</time>
      </trkpt>
      <trkpt lat="62.634421906217" lon="17.988489802556">
        <ele>86.8</ele>
        <time>2018-02-17T13:58:22Z</time>
      </trkpt>
      <trkpt lat="62.634466246468" lon="17.988464237761">
        <ele>86.6</ele>
        <time>2018-02-17T13:58:23Z</time>
      </trkpt>
      <trkpt lat="62.634501953362" lon="17.988445546124">
        <ele>86.4</ele>
        <time>2018-02-17T13:58:24Z</time>
      </trkpt>
      <trkpt lat="62.634533050211" lon="17.98842995579">
        <ele>86.4</ele>
        <time>2018-02-17T13:58:25Z</time>
      </trkpt>
      <trkpt lat="62.634582251964" lon="17.988419646053">
        <ele>85.8</ele>
        <time>2018-02-17T13:58:26Z</time>
      </trkpt>
      <trkpt lat="62.63462617312" lon="17.988414365456">
        <ele>85.2</ele>
        <time>2018-02-17T13:58:27Z</time>
      </trkpt>
      <trkpt lat="62.634672692665" lon="17.988386034634">
        <ele>84.8</ele>
        <time>2018-02-17T13:58:28Z</time>
      </trkpt>
      <trkpt lat="62.63471837402" lon="17.988362816771">
        <ele>84.4</ele>
        <time>2018-02-17T13:58:29Z</time>
      </trkpt>
      <trkpt lat="62.634757266036" lon="17.988337251976">
        <ele>84.2</ele>
        <time>2018-02-17T13:58:30Z</time>
      </trkpt>
      <trkpt lat="62.634793475844" lon="17.988301796539">
        <ele>84.2</ele>
        <time>2018-02-17T13:58:31Z</time>
      </trkpt>
      <trkpt lat="62.634827422539" lon="17.988268939491">
        <ele>84.2</ele>
        <time>2018-02-17T13:58:32Z</time>
      </trkpt>
      <trkpt lat="62.63486086632" lon="17.988245218714">
        <ele>84.4</ele>
        <time>2018-02-17T13:58:33Z</time>
      </trkpt>
      <trkpt lat="62.634888442771" lon="17.988209008906">
        <ele>84.6</ele>
        <time>2018-02-17T13:58:34Z</time>
      </trkpt>
      <trkpt lat="62.634916605955" lon="17.98817263146">
        <ele>84.4</ele>
        <time>2018-02-17T13:58:35Z</time>
      </trkpt>
      <trkpt lat="62.634943344216" lon="17.988128961761">
        <ele>84.2</ele>
        <time>2018-02-17T13:58:36Z</time>
      </trkpt>
      <trkpt lat="62.634962622586" lon="17.988080011465">
        <ele>84.2</ele>
        <time>2018-02-17T13:58:37Z</time>
      </trkpt>
      <trkpt lat="62.634984666983" lon="17.988012118075">
        <ele>84</ele>
        <time>2018-02-17T13:58:38Z</time>
      </trkpt>
      <trkpt lat="62.634994641444" lon="17.987950762567">
        <ele>83.8</ele>
        <time>2018-02-17T13:58:39Z</time>
      </trkpt>
      <trkpt lat="62.635003693896" lon="17.987892843638">
        <ele>83.4</ele>
        <time>2018-02-17T13:58:40Z</time>
      </trkpt>
      <trkpt lat="62.635013333081" lon="17.987830566121">
        <ele>83.4</ele>
        <time>2018-02-17T13:58:41Z</time>
      </trkpt>
      <trkpt lat="62.635019954782" lon="17.987782370196">
        <ele>83.2</ele>
        <time>2018-02-17T13:58:42Z</time>
      </trkpt>
      <trkpt lat="62.635030851252" lon="17.987725373276">
        <ele>83.2</ele>
        <time>2018-02-17T13:58:43Z</time>
      </trkpt>
      <trkpt lat="62.635034455469" lon="17.987675333333">
        <ele>83</ele>
        <time>2018-02-17T13:58:44Z</time>
      </trkpt>
      <trkpt lat="62.635029593967" lon="17.987631412177">
        <ele>83.2</ele>
        <time>2018-02-17T13:58:45Z</time>
      </trkpt>
      <trkpt lat="62.635019200411" lon="17.987605595925">
        <ele>83</ele>
        <time>2018-02-17T13:58:46Z</time>
      </trkpt>
      <trkpt lat="62.635002688068" lon="17.98761439692">
        <ele>83</ele>
        <time>2018-02-17T13:58:47Z</time>
      </trkpt>
      <trkpt lat="62.634996066367" lon="17.987647756882">
        <ele>83</ele>
        <time>2018-02-17T13:58:48Z</time>
      </trkpt>
      <trkpt lat="62.63498910939" lon="17.987688828192">
        <ele>82.8</ele>
        <time>2018-02-17T13:58:49Z</time>
      </trkpt>
      <trkpt lat="62.634972429409" lon="17.987719422127">
        <ele>82.6</ele>
        <time>2018-02-17T13:58:50Z</time>
      </trkpt>
      <trkpt lat="62.63496731645" lon="17.987758733238">
        <ele>82.6</ele>
        <time>2018-02-17T13:58:51Z</time>
      </trkpt>
      <trkpt lat="62.634956336161" lon="17.987786812603">
        <ele>82.6</ele>
        <time>2018-02-17T13:58:52Z</time>
      </trkpt>
      <trkpt lat="62.634937812162" lon="17.987826291352">
        <ele>82.6</ele>
        <time>2018-02-17T13:58:53Z</time>
      </trkpt>
      <trkpt lat="62.634928256796" lon="17.987849257758">
        <ele>82.6</ele>
        <time>2018-02-17T13:58:54Z</time>
      </trkpt>
      <trkpt lat="62.63491367229" lon="17.987874487277">
        <ele>82.6</ele>
        <time>2018-02-17T13:58:55Z</time>
      </trkpt>
      <trkpt lat="62.634901686173" lon="17.987904326841">
        <ele>82.8</ele>
        <time>2018-02-17T13:58:56Z</time>
      </trkpt>
      <trkpt lat="62.634885676744" lon="17.987928634351">
        <ele>82.8</ele>
        <time>2018-02-17T13:58:57Z</time>
      </trkpt>
      <trkpt lat="62.634872936256" lon="17.987957468087">
        <ele>83</ele>
        <time>2018-02-17T13:58:58Z</time>
      </trkpt>
      <trkpt lat="62.634857345922" lon="17.987977752285">
        <ele>83</ele>
        <time>2018-02-17T13:58:59Z</time>
      </trkpt>
      <trkpt lat="62.634838989561" lon="17.98799828794">
        <ele>83</ele>
        <time>2018-02-17T13:59:00Z</time>
      </trkpt>
      <trkpt lat="62.634825494702" lon="17.988023517459">
        <ele>83.2</ele>
        <time>2018-02-17T13:59:01Z</time>
      </trkpt>
      <trkpt lat="62.63480889854" lon="17.988039526888">
        <ele>83.2</ele>
        <time>2018-02-17T13:59:02Z</time>
      </trkpt>
      <trkpt lat="62.63477956189" lon="17.988067438615">
        <ele>83.2</ele>
        <time>2018-02-17T13:59:03Z</time>
      </trkpt>
      <trkpt lat="62.634762211357" lon="17.98807791599">
        <ele>83.4</ele>
        <time>2018-02-17T13:59:04Z</time>
      </trkpt>
      <trkpt lat="62.634738993494" lon="17.988082693673">
        <ele>83.6</ele>
        <time>2018-02-17T13:59:05Z</time>
      </trkpt>
      <trkpt lat="62.634725163359" lon="17.988089734469">
        <ele>83.6</ele>
        <time>2018-02-17T13:59:06Z</time>
      </trkpt>
      <trkpt lat="62.634717116735" lon="17.988090069745">
        <ele>83.8</ele>
        <time>2018-02-17T13:59:07Z</time>
      </trkpt>
      <trkpt lat="62.634704543885" lon="17.988101050034">
        <ele>84</ele>
        <time>2018-02-17T13:59:08Z</time>
      </trkpt>
      <trkpt lat="62.634679733461" lon="17.98810054712">
        <ele>84</ele>
        <time>2018-02-17T13:59:09Z</time>
      </trkpt>
      <trkpt lat="62.634657102331" lon="17.988115131626">
        <ele>84</ele>
        <time>2018-02-17T13:59:10Z</time>
      </trkpt>
      <trkpt lat="62.634632375726" lon="17.98812234006">
        <ele>84.2</ele>
        <time>2018-02-17T13:59:11Z</time>
      </trkpt>
      <trkpt lat="62.634605805103" lon="17.988133320349">
        <ele>84.4</ele>
        <time>2018-02-17T13:59:12Z</time>
      </trkpt>
      <trkpt lat="62.634581497593" lon="17.988145222647">
        <ele>84.6</ele>
        <time>2018-02-17T13:59:13Z</time>
      </trkpt>
      <trkpt lat="62.63455995611" lon="17.98814497119">
        <ele>84.6</ele>
        <time>2018-02-17T13:59:14Z</time>
      </trkpt>
      <trkpt lat="62.634547634717" lon="17.988161483533">
        <ele>84.8</ele>
        <time>2018-02-17T13:59:15Z</time>
      </trkpt>
      <trkpt lat="62.634527601976" lon="17.988165506845">
        <ele>84.8</ele>
        <time>2018-02-17T13:59:16Z</time>
      </trkpt>
      <trkpt lat="62.634500863715" lon="17.988180761903">
        <ele>84.8</ele>
        <time>2018-02-17T13:59:17Z</time>
      </trkpt>
      <trkpt lat="62.634480076603" lon="17.988193250934">
        <ele>85</ele>
        <time>2018-02-17T13:59:18Z</time>
      </trkpt>
      <trkpt lat="62.634459205672" lon="17.988193921486">
        <ele>85</ele>
        <time>2018-02-17T13:59:19Z</time>
      </trkpt>
      <trkpt lat="62.634442441872" lon="17.988206494336">
        <ele>85.2</ele>
        <time>2018-02-17T13:59:20Z</time>
      </trkpt>
      <trkpt lat="62.634423498778" lon="17.988208589811">
        <ele>85.4</ele>
        <time>2018-02-17T13:59:21Z</time>
      </trkpt>
      <trkpt lat="62.634407824625" lon="17.988216971711">
        <ele>85.6</ele>
        <time>2018-02-17T13:59:22Z</time>
      </trkpt>
      <trkpt lat="62.634379326165" lon="17.988224934516">
        <ele>85.6</ele>
        <time>2018-02-17T13:59:23Z</time>
      </trkpt>
      <trkpt lat="62.634356862673" lon="17.988231975312">
        <ele>85.6</ele>
        <time>2018-02-17T13:59:24Z</time>
      </trkpt>
      <trkpt lat="62.634335405009" lon="17.988235914805">
        <ele>85.6</ele>
        <time>2018-02-17T13:59:25Z</time>
      </trkpt>
      <trkpt lat="62.634305816902" lon="17.988253852071">
        <ele>85.6</ele>
        <time>2018-02-17T13:59:26Z</time>
      </trkpt>
      <trkpt lat="62.634281593211" lon="17.988260222315">
        <ele>85.8</ele>
        <time>2018-02-17T13:59:27Z</time>
      </trkpt>
      <trkpt lat="62.634255106407" lon="17.988257037193">
        <ele>85.8</ele>
        <time>2018-02-17T13:59:28Z</time>
      </trkpt>
      <trkpt lat="62.634234067838" lon="17.988258210659">
        <ele>86</ele>
        <time>2018-02-17T13:59:29Z</time>
      </trkpt>
      <trkpt lat="62.634211771984" lon="17.988244045248">
        <ele>86</ele>
        <time>2018-02-17T13:59:30Z</time>
      </trkpt>
      <trkpt lat="62.634188218845" lon="17.988240776307">
        <ele>86</ele>
        <time>2018-02-17T13:59:31Z</time>
      </trkpt>
      <trkpt lat="62.634162821688" lon="17.988231472398">
        <ele>85.8</ele>
        <time>2018-02-17T13:59:32Z</time>
      </trkpt>
      <trkpt lat="62.634139771463" lon="17.988240692488">
        <ele>86</ele>
        <time>2018-02-17T13:59:33Z</time>
      </trkpt>
      <trkpt lat="62.634116972695" lon="17.988231137122">
        <ele>86</ele>
        <time>2018-02-17T13:59:34Z</time>
      </trkpt>
      <trkpt lat="62.634094090108" lon="17.988231053303">
        <ele>85.8</ele>
        <time>2018-02-17T13:59:35Z</time>
      </trkpt>
      <trkpt lat="62.634068441494" lon="17.988221078842">
        <ele>85.8</ele>
        <time>2018-02-17T13:59:36Z</time>
      </trkpt>
      <trkpt lat="62.634044888355" lon="17.988203728309">
        <ele>86</ele>
        <time>2018-02-17T13:59:37Z</time>
      </trkpt>
      <trkpt lat="62.634018653008" lon="17.98819023345">
        <ele>86</ele>
        <time>2018-02-17T13:59:38Z</time>
      </trkpt>
      <trkpt lat="62.633996273335" lon="17.98816760232">
        <ele>86</ele>
        <time>2018-02-17T13:59:39Z</time>
      </trkpt>
      <trkpt lat="62.633975989137" lon="17.988158466049">
        <ele>86</ele>
        <time>2018-02-17T13:59:40Z</time>
      </trkpt>
      <trkpt lat="62.633951178713" lon="17.988142708077">
        <ele>86</ele>
        <time>2018-02-17T13:59:41Z</time>
      </trkpt>
      <trkpt lat="62.633928296126" lon="17.988132230702">
        <ele>86.2</ele>
        <time>2018-02-17T13:59:42Z</time>
      </trkpt>
      <trkpt lat="62.633906335548" lon="17.988116891825">
        <ele>86.2</ele>
        <time>2018-02-17T13:59:43Z</time>
      </trkpt>
      <trkpt lat="62.633888230644" lon="17.988087387537">
        <ele>86.4</ele>
        <time>2018-02-17T13:59:44Z</time>
      </trkpt>
      <trkpt lat="62.63386844936" lon="17.988075820515">
        <ele>86.6</ele>
        <time>2018-02-17T13:59:45Z</time>
      </trkpt>
      <trkpt lat="62.63384330366" lon="17.988049585168">
        <ele>86.8</ele>
        <time>2018-02-17T13:59:46Z</time>
      </trkpt>
      <trkpt lat="62.633811787716" lon="17.988015135559">
        <ele>87</ele>
        <time>2018-02-17T13:59:47Z</time>
      </trkpt>
      <trkpt lat="62.633791754975" lon="17.987997198293">
        <ele>87</ele>
        <time>2018-02-17T13:59:48Z</time>
      </trkpt>
      <trkpt lat="62.633769040026" lon="17.987974650982">
        <ele>87.2</ele>
        <time>2018-02-17T13:59:49Z</time>
      </trkpt>
      <trkpt lat="62.633747498543" lon="17.987959395924">
        <ele>87.2</ele>
        <time>2018-02-17T13:59:50Z</time>
      </trkpt>
      <trkpt lat="62.63372763344" lon="17.987926538876">
        <ele>87.4</ele>
        <time>2018-02-17T13:59:51Z</time>
      </trkpt>
      <trkpt lat="62.633704918491" lon="17.987912876379">
        <ele>87.4</ele>
        <time>2018-02-17T13:59:52Z</time>
      </trkpt>
      <trkpt lat="62.633676922945" lon="17.987879348779">
        <ele>87.4</ele>
        <time>2018-02-17T13:59:53Z</time>
      </trkpt>
      <trkpt lat="62.633660494421" lon="17.987866356834">
        <ele>87.4</ele>
        <time>2018-02-17T13:59:54Z</time>
      </trkpt>
      <trkpt lat="62.633639036757" lon="17.987841714048">
        <ele>87.4</ele>
        <time>2018-02-17T13:59:55Z</time>
      </trkpt>
      <trkpt lat="62.633621015672" lon="17.987820675479">
        <ele>87.4</ele>
        <time>2018-02-17T13:59:56Z</time>
      </trkpt>
      <trkpt lat="62.633604084234" lon="17.987800810376">
        <ele>87.6</ele>
        <time>2018-02-17T13:59:57Z</time>
      </trkpt>
      <trkpt lat="62.633585644054" lon="17.987786393508">
        <ele>87.8</ele>
        <time>2018-02-17T13:59:58Z</time>
      </trkpt>
      <trkpt lat="62.633561252725" lon="17.987752195356">
        <ele>88</ele>
        <time>2018-02-17T13:59:59Z</time>
      </trkpt>
      <trkpt lat="62.633541219984" lon="17.987722607249">
        <ele>88.2</ele>
        <time>2018-02-17T14:00:00Z</time>
      </trkpt>
      <trkpt lat="62.633521941614" lon="17.987696371902">
        <ele>88.4</ele>
        <time>2018-02-17T14:00:01Z</time>
      </trkpt>
      <trkpt lat="62.633502327968" lon="17.987664269225">
        <ele>88.6</ele>
        <time>2018-02-17T14:00:02Z</time>
      </trkpt>
      <trkpt lat="62.633476427897" lon="17.987646331959">
        <ele>88.8</ele>
        <time>2018-02-17T14:00:03Z</time>
      </trkpt>
      <trkpt lat="62.633458825907" lon="17.987618168775">
        <ele>88.8</ele>
        <time>2018-02-17T14:00:04Z</time>
      </trkpt>
      <trkpt lat="62.633443989944" lon="17.987586904288">
        <ele>89</ele>
        <time>2018-02-17T14:00:05Z</time>
      </trkpt>
      <trkpt lat="62.633427896696" lon="17.987569889031">
        <ele>89</ele>
        <time>2018-02-17T14:00:06Z</time>
      </trkpt>
      <trkpt lat="62.633414653294" lon="17.987547844634">
        <ele>89</ele>
        <time>2018-02-17T14:00:07Z</time>
      </trkpt>
      <trkpt lat="62.633399817331" lon="17.987514987586">
        <ele>89</ele>
        <time>2018-02-17T14:00:08Z</time>
      </trkpt>
      <trkpt lat="62.633387747395" lon="17.987493529922">
        <ele>89.6</ele>
        <time>2018-02-17T14:00:09Z</time>
      </trkpt>
      <trkpt lat="62.633373665803" lon="17.98745094987">
        <ele>89.6</ele>
        <time>2018-02-17T14:00:10Z</time>
      </trkpt>
      <trkpt lat="62.633360254763" lon="17.987403759773">
        <ele>89.8</ele>
        <time>2018-02-17T14:00:11Z</time>
      </trkpt>
      <trkpt lat="62.63333787509" lon="17.987382637385">
        <ele>89.8</ele>
        <time>2018-02-17T14:00:12Z</time>
      </trkpt>
      <trkpt lat="62.63331021482" lon="17.987322958257">
        <ele>90</ele>
        <time>2018-02-17T14:00:13Z</time>
      </trkpt>
      <trkpt lat="62.633289511527" lon="17.987274427056">
        <ele>90.2</ele>
        <time>2018-02-17T14:00:14Z</time>
      </trkpt>
      <trkpt lat="62.633276854858" lon="17.98719278735">
        <ele>90.2</ele>
        <time>2018-02-17T14:00:15Z</time>
      </trkpt>
      <trkpt lat="62.633254726642" lon="17.987086169582">
        <ele>89.8</ele>
        <time>2018-02-17T14:00:16Z</time>
      </trkpt>
      <trkpt lat="62.63323393953" lon="17.986982653117">
        <ele>89.2</ele>
        <time>2018-02-17T14:00:17Z</time>
      </trkpt>
      <trkpt lat="62.633220947585" lon="17.986883579059">
        <ele>88.4</ele>
        <time>2018-02-17T14:00:18Z</time>
      </trkpt>
      <trkpt lat="62.633204519061" lon="17.986794228005">
        <ele>87.4</ele>
        <time>2018-02-17T14:00:19Z</time>
      </trkpt>
      <trkpt lat="62.633200076654" lon="17.986702278562">
        <ele>86.6</ele>
        <time>2018-02-17T14:00:20Z</time>
      </trkpt>
      <trkpt lat="62.63319538279" lon="17.986618543381">
        <ele>85.8</ele>
        <time>2018-02-17T14:00:21Z</time>
      </trkpt>
      <trkpt lat="62.633195634247" lon="17.986556433502">
        <ele>85.6</ele>
        <time>2018-02-17T14:00:22Z</time>
      </trkpt>
      <trkpt lat="62.63319873555" lon="17.986438500169">
        <ele>85.6</ele>
        <time>2018-02-17T14:00:23Z</time>
      </trkpt>
      <trkpt lat="62.633199741378" lon="17.986338755559">
        <ele>85.6</ele>
        <time>2018-02-17T14:00:24Z</time>
      </trkpt>
      <trkpt lat="62.633195634247" lon="17.986238256578">
        <ele>85.6</ele>
        <time>2018-02-17T14:00:25Z</time>
      </trkpt>
      <trkpt lat="62.633199909016" lon="17.986120993797">
        <ele>85.8</ele>
        <time>2018-02-17T14:00:26Z</time>
      </trkpt>
      <trkpt lat="62.633199992835" lon="17.986008592518">
        <ele>85.6</ele>
        <time>2018-02-17T14:00:27Z</time>
      </trkpt>
      <trkpt lat="62.633201082482" lon="17.985901807112">
        <ele>85.4</ele>
        <time>2018-02-17T14:00:28Z</time>
      </trkpt>
      <trkpt lat="62.633202004491" lon="17.985786136892">
        <ele>85</ele>
        <time>2018-02-17T14:00:29Z</time>
      </trkpt>
      <trkpt lat="62.633201753034" lon="17.985692846345">
        <ele>84.4</ele>
        <time>2018-02-17T14:00:30Z</time>
      </trkpt>
      <trkpt lat="62.633205021975" lon="17.985606596594">
        <ele>83.8</ele>
        <time>2018-02-17T14:00:31Z</time>
      </trkpt>
      <trkpt lat="62.633212062771" lon="17.985531830046">
        <ele>83.6</ele>
        <time>2018-02-17T14:00:32Z</time>
      </trkpt>
      <trkpt lat="62.633212733323" lon="17.985438958594">
        <ele>83.4</ele>
        <time>2018-02-17T14:00:33Z</time>
      </trkpt>
      <trkpt lat="62.633226731096" lon="17.985320689985">
        <ele>83.8</ele>
        <time>2018-02-17T14:00:34Z</time>
      </trkpt>
      <trkpt lat="62.633240309774" lon="17.985180209341">
        <ele>84</ele>
        <time>2018-02-17T14:00:35Z</time>
      </trkpt>
      <trkpt lat="62.633252714986" lon="17.985054229384">
        <ele>84</ele>
        <time>2018-02-17T14:00:36Z</time>
      </trkpt>
      <trkpt lat="62.633269311148" lon="17.984945516141">
        <ele>83.6</ele>
        <time>2018-02-17T14:00:37Z</time>
      </trkpt>
      <trkpt lat="62.633291858459" lon="17.984821883116">
        <ele>83.2</ele>
        <time>2018-02-17T14:00:38Z</time>
      </trkpt>
      <trkpt lat="62.633312561752" lon="17.984717863737">
        <ele>82.6</ele>
        <time>2018-02-17T14:00:39Z</time>
      </trkpt>
      <trkpt lat="62.633331923941" lon="17.98462876414">
        <ele>81.4</ele>
        <time>2018-02-17T14:00:40Z</time>
      </trkpt>
      <trkpt lat="62.633356902003" lon="17.984550644832">
        <ele>80.6</ele>
        <time>2018-02-17T14:00:41Z</time>
      </trkpt>
      <trkpt lat="62.63336804993" lon="17.984503287097">
        <ele>80.4</ele>
        <time>2018-02-17T14:00:42Z</time>
      </trkpt>
      <trkpt lat="62.633390848698" lon="17.984410750921">
        <ele>80.6</ele>
        <time>2018-02-17T14:00:43Z</time>
      </trkpt>
      <trkpt lat="62.633393530906" lon="17.984316286908">
        <ele>81</ele>
        <time>2018-02-17T14:00:44Z</time>
      </trkpt>
      <trkpt lat="62.633398560046" lon="17.984245124577">
        <ele>81.2</ele>
        <time>2018-02-17T14:00:45Z</time>
      </trkpt>
      <trkpt lat="62.633400990797" lon="17.984154851514">
        <ele>81.6</ele>
        <time>2018-02-17T14:00:46Z</time>
      </trkpt>
      <trkpt lat="62.633403002453" lon="17.984072960351">
        <ele>81.8</ele>
        <time>2018-02-17T14:00:47Z</time>
      </trkpt>
      <trkpt lat="62.633404175919" lon="17.984000037821">
        <ele>81.8</ele>
        <time>2018-02-17T14:00:48Z</time>
      </trkpt>
      <trkpt lat="62.633405014109" lon="17.983933820811">
        <ele>81.8</ele>
        <time>2018-02-17T14:00:49Z</time>
      </trkpt>
      <trkpt lat="62.633408785964" lon="17.98386014391">
        <ele>82</ele>
        <time>2018-02-17T14:00:50Z</time>
      </trkpt>
      <trkpt lat="62.633414234199" lon="17.983798620764">
        <ele>82</ele>
        <time>2018-02-17T14:00:51Z</time>
      </trkpt>
      <trkpt lat="62.633425549764" lon="17.983731984659">
        <ele>82</ele>
        <time>2018-02-17T14:00:52Z</time>
      </trkpt>
      <trkpt lat="62.633428902524" lon="17.983670629151">
        <ele>82</ele>
        <time>2018-02-17T14:00:53Z</time>
      </trkpt>
      <trkpt lat="62.63343845789" lon="17.983609944195">
        <ele>82</ele>
        <time>2018-02-17T14:00:54Z</time>
      </trkpt>
      <trkpt lat="62.63345019255" lon="17.983549510696">
        <ele>82</ele>
        <time>2018-02-17T14:00:55Z</time>
      </trkpt>
      <trkpt lat="62.633455054052" lon="17.983484886247">
        <ele>82</ele>
        <time>2018-02-17T14:00:56Z</time>
      </trkpt>
      <trkpt lat="62.633459161183" lon="17.983433756657">
        <ele>82</ele>
        <time>2018-02-17T14:00:57Z</time>
      </trkpt>
      <trkpt lat="62.63346863273" lon="17.98335387715">
        <ele>82.2</ele>
        <time>2018-02-17T14:00:58Z</time>
      </trkpt>
      <trkpt lat="62.63347450006" lon="17.983284642656">
        <ele>82.2</ele>
        <time>2018-02-17T14:00:59Z</time>
      </trkpt>
      <trkpt lat="62.63348623472" lon="17.983226053175">
        <ele>82.2</ele>
        <time>2018-02-17T14:01:00Z</time>
      </trkpt>
      <trkpt lat="62.633502076511" lon="17.983161009631">
        <ele>82.2</ele>
        <time>2018-02-17T14:01:01Z</time>
      </trkpt>
      <trkpt lat="62.633502830882" lon="17.983099989399">
        <ele>82.2</ele>
        <time>2018-02-17T14:01:02Z</time>
      </trkpt>
      <trkpt lat="62.633510039316" lon="17.983028324154">
        <ele>82.2</ele>
        <time>2018-02-17T14:01:03Z</time>
      </trkpt>
      <trkpt lat="62.633513643533" lon="17.982980966419">
        <ele>82</ele>
        <time>2018-02-17T14:01:04Z</time>
      </trkpt>
      <trkpt lat="62.633529652962" lon="17.982912234839">
        <ele>82.2</ele>
        <time>2018-02-17T14:01:05Z</time>
      </trkpt>
      <trkpt lat="62.633542644907" lon="17.982849454408">
        <ele>82.2</ele>
        <time>2018-02-17T14:01:06Z</time>
      </trkpt>
      <trkpt lat="62.633552284092" lon="17.98279480442">
        <ele>82.2</ele>
        <time>2018-02-17T14:01:07Z</time>
      </trkpt>
      <trkpt lat="62.633572316833" lon="17.982725318469">
        <ele>82.2</ele>
        <time>2018-02-17T14:01:08Z</time>
      </trkpt>
      <trkpt lat="62.633577345973" lon="17.982677206363">
        <ele>82.2</ele>
        <time>2018-02-17T14:01:09Z</time>
      </trkpt>
      <trkpt lat="62.633593020126" lon="17.982600260521">
        <ele>82.2</ele>
        <time>2018-02-17T14:01:10Z</time>
      </trkpt>
      <trkpt lat="62.63360441951" lon="17.982540329936">
        <ele>82.2</ele>
        <time>2018-02-17T14:01:11Z</time>
      </trkpt>
      <trkpt lat="62.633615483618" lon="17.982476962772">
        <ele>82.2</ele>
        <time>2018-02-17T14:01:12Z</time>
      </trkpt>
      <trkpt lat="62.633623530242" lon="17.982397669998">
        <ele>82.2</ele>
        <time>2018-02-17T14:01:13Z</time>
      </trkpt>
      <trkpt lat="62.633629146115" lon="17.98232290345">
        <ele>82.2</ele>
        <time>2018-02-17T14:01:14Z</time>
      </trkpt>
      <trkpt lat="62.633630487219" lon="17.982252411671">
        <ele>82.2</ele>
        <time>2018-02-17T14:01:15Z</time>
      </trkpt>
      <trkpt lat="62.6336471672" lon="17.982188709231">
        <ele>82.2</ele>
        <time>2018-02-17T14:01:16Z</time>
      </trkpt>
      <trkpt lat="62.633653202168" lon="17.982119474737">
        <ele>82.2</ele>
        <time>2018-02-17T14:01:17Z</time>
      </trkpt>
      <trkpt lat="62.633657728394" lon="17.982052419537">
        <ele>82.2</ele>
        <time>2018-02-17T14:01:18Z</time>
      </trkpt>
      <trkpt lat="62.633663595724" lon="17.981995003522">
        <ele>82.2</ele>
        <time>2018-02-17T14:01:19Z</time>
      </trkpt>
      <trkpt lat="62.633660745878" lon="17.981937922783">
        <ele>82.2</ele>
        <time>2018-02-17T14:01:20Z</time>
      </trkpt>
      <trkpt lat="62.63365303453" lon="17.981881847872">
        <ele>82.6</ele>
        <time>2018-02-17T14:01:21Z</time>
      </trkpt>
      <trkpt lat="62.633657979851" lon="17.981833149033">
        <ele>82.6</ele>
        <time>2018-02-17T14:01:22Z</time>
      </trkpt>
      <trkpt lat="62.633670468882" lon="17.981743295065">
        <ele>82.6</ele>
        <time>2018-02-17T14:01:23Z</time>
      </trkpt>
      <trkpt lat="62.633672229081" lon="17.981669282888">
        <ele>82.6</ele>
        <time>2018-02-17T14:01:24Z</time>
      </trkpt>
      <trkpt lat="62.633666780846" lon="17.981596025082">
        <ele>82.6</ele>
        <time>2018-02-17T14:01:25Z</time>
      </trkpt>
      <trkpt lat="62.633665858837" lon="17.981538692886">
        <ele>82.6</ele>
        <time>2018-02-17T14:01:26Z</time>
      </trkpt>
      <trkpt lat="62.633683963741" lon="17.981488652943">
        <ele>82.4</ele>
        <time>2018-02-17T14:01:27Z</time>
      </trkpt>
      <trkpt lat="62.633690417804" lon="17.98141765825">
        <ele>82.6</ele>
        <time>2018-02-17T14:01:28Z</time>
      </trkpt>
      <trkpt lat="62.633707768337" lon="17.981353788172">
        <ele>82.6</ele>
        <time>2018-02-17T14:01:29Z</time>
      </trkpt>
      <trkpt lat="62.633733752227" lon="17.981299054365">
        <ele>82.6</ele>
        <time>2018-02-17T14:01:30Z</time>
      </trkpt>
      <trkpt lat="62.633756802452" lon="17.981233424088">
        <ele>82.6</ele>
        <time>2018-02-17T14:01:31Z</time>
      </trkpt>
      <trkpt lat="62.633771470777" lon="17.981199058298">
        <ele>82.8</ele>
        <time>2018-02-17T14:01:32Z</time>
      </trkpt>
      <trkpt lat="62.633787731663" lon="17.98114608469">
        <ele>82.8</ele>
        <time>2018-02-17T14:01:33Z</time>
      </trkpt>
      <trkpt lat="62.633811703897" lon="17.981095541833">
        <ele>83</ele>
        <time>2018-02-17T14:01:34Z</time>
      </trkpt>
      <trkpt lat="62.633836179045" lon="17.981021697294">
        <ele>83</ele>
        <time>2018-02-17T14:01:35Z</time>
      </trkpt>
      <trkpt lat="62.633863671677" lon="17.980970316247">
        <ele>83.2</ele>
        <time>2018-02-17T14:01:36Z</time>
      </trkpt>
      <trkpt lat="62.633886721902" lon="17.980917426458">
        <ele>83.4</ele>
        <time>2018-02-17T14:01:37Z</time>
      </trkpt>
      <trkpt lat="62.633909017756" lon="17.980852466733">
        <ele>83.4</ele>
        <time>2018-02-17T14:01:38Z</time>
      </trkpt>
      <trkpt lat="62.633937767673" lon="17.9808099705">
        <ele>83.4</ele>
        <time>2018-02-17T14:01:39Z</time>
      </trkpt>
      <trkpt lat="62.633960734079" lon="17.980734868676">
        <ele>83.4</ele>
        <time>2018-02-17T14:01:40Z</time>
      </trkpt>
      <trkpt lat="62.633967439599" lon="17.980671166236">
        <ele>83.6</ele>
        <time>2018-02-17T14:01:41Z</time>
      </trkpt>
      <trkpt lat="62.633979593354" lon="17.980625149605">
        <ele>83.6</ele>
        <time>2018-02-17T14:01:42Z</time>
      </trkpt>
      <trkpt lat="62.633988226711" lon="17.980571505445">
        <ele>83.6</ele>
        <time>2018-02-17T14:01:43Z</time>
      </trkpt>
      <trkpt lat="62.63400255976" lon="17.980507719186">
        <ele>83.8</ele>
        <time>2018-02-17T14:01:44Z</time>
      </trkpt>
      <trkpt lat="62.634018233913" lon="17.980452817741">
        <ele>83.6</ele>
        <time>2018-02-17T14:01:45Z</time>
      </trkpt>
      <trkpt lat="62.634032650781" lon="17.980406046739">
        <ele>83.8</ele>
        <time>2018-02-17T14:01:46Z</time>
      </trkpt>
      <trkpt lat="62.634057461205" lon="17.980359694832">
        <ele>83.6</ele>
        <time>2018-02-17T14:01:47Z</time>
      </trkpt>
      <trkpt lat="62.634082439267" lon="17.980309822527">
        <ele>83.8</ele>
        <time>2018-02-17T14:01:48Z</time>
      </trkpt>
      <trkpt lat="62.634107501148" lon="17.980258273842">
        <ele>83.6</ele>
        <time>2018-02-17T14:01:49Z</time>
      </trkpt>
      <trkpt lat="62.634136753979" lon="17.980215945247">
        <ele>83.8</ele>
        <time>2018-02-17T14:01:50Z</time>
      </trkpt>
      <trkpt lat="62.63416768319" lon="17.980163558372">
        <ele>83.8</ele>
        <time>2018-02-17T14:01:51Z</time>
      </trkpt>
      <trkpt lat="62.634189643768" lon="17.980107064366">
        <ele>83.8</ele>
        <time>2018-02-17T14:01:52Z</time>
      </trkpt>
      <trkpt lat="62.634218393685" lon="17.980034728569">
        <ele>83.8</ele>
        <time>2018-02-17T14:01:53Z</time>
      </trkpt>
      <trkpt lat="62.634241276272" lon="17.979991477965">
        <ele>83.8</ele>
        <time>2018-02-17T14:01:54Z</time>
      </trkpt>
      <trkpt lat="62.634264745592" lon="17.979927943163">
        <ele>83.8</ele>
        <time>2018-02-17T14:01:55Z</time>
      </trkpt>
      <trkpt lat="62.634280503564" lon="17.979861558515">
        <ele>83.8</ele>
        <time>2018-02-17T14:01:56Z</time>
      </trkpt>
      <trkpt lat="62.634294417518" lon="17.979809423097">
        <ele>84</ele>
        <time>2018-02-17T14:01:57Z</time>
      </trkpt>
      <trkpt lat="62.634311097499" lon="17.979741194431">
        <ele>84</ele>
        <time>2018-02-17T14:01:58Z</time>
      </trkpt>
      <trkpt lat="62.634327274566" lon="17.979688723737">
        <ele>84</ele>
        <time>2018-02-17T14:01:59Z</time>
      </trkpt>
      <trkpt lat="62.634336746113" lon="17.979613202818">
        <ele>84</ele>
        <time>2018-02-17T14:02:00Z</time>
      </trkpt>
      <trkpt lat="62.634355856845" lon="17.979530724922">
        <ele>84</ele>
        <time>2018-02-17T14:02:01Z</time>
      </trkpt>
      <trkpt lat="62.634367675324" lon="17.97945629365">
        <ele>84</ele>
        <time>2018-02-17T14:02:02Z</time>
      </trkpt>
      <trkpt lat="62.634385864047" lon="17.979383706396">
        <ele>83.8</ele>
        <time>2018-02-17T14:02:03Z</time>
      </trkpt>
      <trkpt lat="62.63440070001" lon="17.979317237929">
        <ele>83.8</ele>
        <time>2018-02-17T14:02:04Z</time>
      </trkpt>
      <trkpt lat="62.63441578743" lon="17.979237777517">
        <ele>83.8</ele>
        <time>2018-02-17T14:02:05Z</time>
      </trkpt>
      <trkpt lat="62.634434395248" lon="17.979174997086">
        <ele>83.6</ele>
        <time>2018-02-17T14:02:06Z</time>
      </trkpt>
      <trkpt lat="62.634439927302" lon="17.979112719569">
        <ele>83.8</ele>
        <time>2018-02-17T14:02:07Z</time>
      </trkpt>
      <trkpt lat="62.634435820171" lon="17.979045245274">
        <ele>83.8</ele>
        <time>2018-02-17T14:02:08Z</time>
      </trkpt>
      <trkpt lat="62.634426348624" lon="17.978972238925">
        <ele>83.8</ele>
        <time>2018-02-17T14:02:09Z</time>
      </trkpt>
      <trkpt lat="62.634456607283" lon="17.978895879816">
        <ele>84</ele>
        <time>2018-02-17T14:02:10Z</time>
      </trkpt>
      <trkpt lat="62.634475047463" lon="17.978809378608">
        <ele>83.8</ele>
        <time>2018-02-17T14:02:11Z</time>
      </trkpt>
      <trkpt lat="62.634489799607" lon="17.978739138286">
        <ele>83.8</ele>
        <time>2018-02-17T14:02:12Z</time>
      </trkpt>
      <trkpt lat="62.634503965018" lon="17.978666467213">
        <ele>83.8</ele>
        <time>2018-02-17T14:02:13Z</time>
      </trkpt>
      <trkpt lat="62.634514526212" lon="17.978599244375">
        <ele>83.8</ele>
        <time>2018-02-17T14:02:14Z</time>
      </trkpt>
      <trkpt lat="62.634518633343" lon="17.978506121466">
        <ele>83.8</ele>
        <time>2018-02-17T14:02:15Z</time>
      </trkpt>
      <trkpt lat="62.634525506501" lon="17.978423224475">
        <ele>83.8</ele>
        <time>2018-02-17T14:02:16Z</time>
      </trkpt>
      <trkpt lat="62.634536989704" lon="17.978354744352">
        <ele>83.6</ele>
        <time>2018-02-17T14:02:17Z</time>
      </trkpt>
      <trkpt lat="62.634543108491" lon="17.978269919524">
        <ele>83.4</ele>
        <time>2018-02-17T14:02:18Z</time>
      </trkpt>
      <trkpt lat="62.634541935025" lon="17.978214012251">
        <ele>83.4</ele>
        <time>2018-02-17T14:02:19Z</time>
      </trkpt>
      <trkpt lat="62.634556854807" lon="17.978108819406">
        <ele>83.4</ele>
        <time>2018-02-17T14:02:20Z</time>
      </trkpt>
      <trkpt lat="62.634559369377" lon="17.978019719809">
        <ele>83</ele>
        <time>2018-02-17T14:02:21Z</time>
      </trkpt>
      <trkpt lat="62.634559788472" lon="17.977972026798">
        <ele>83</ele>
        <time>2018-02-17T14:02:22Z</time>
      </trkpt>
      <trkpt lat="62.634572864236" lon="17.977889045988">
        <ele>82.8</ele>
        <time>2018-02-17T14:02:23Z</time>
      </trkpt>
      <trkpt lat="62.634588789846" lon="17.977810423766">
        <ele>82.6</ele>
        <time>2018-02-17T14:02:24Z</time>
      </trkpt>
      <trkpt lat="62.634608152035" lon="17.977735741037">
        <ele>82.6</ele>
        <time>2018-02-17T14:02:25Z</time>
      </trkpt>
      <trkpt lat="62.634631705174" lon="17.977656867358">
        <ele>82.4</ele>
        <time>2018-02-17T14:02:26Z</time>
      </trkpt>
      <trkpt lat="62.634646205861" lon="17.977581011163">
        <ele>82.4</ele>
        <time>2018-02-17T14:02:27Z</time>
      </trkpt>
      <trkpt lat="62.634649726259" lon="17.977512363402">
        <ele>82.4</ele>
        <time>2018-02-17T14:02:28Z</time>
      </trkpt>
      <trkpt lat="62.634668836991" lon="17.977425275461">
        <ele>82.2</ele>
        <time>2018-02-17T14:02:29Z</time>
      </trkpt>
      <trkpt lat="62.634687109533" lon="17.977359645184">
        <ele>82.2</ele>
        <time>2018-02-17T14:02:30Z</time>
      </trkpt>
      <trkpt lat="62.634697251632" lon="17.977291165061">
        <ele>82</ele>
        <time>2018-02-17T14:02:31Z</time>
      </trkpt>
      <trkpt lat="62.634707393731" lon="17.97720742988">
        <ele>82</ele>
        <time>2018-02-17T14:02:32Z</time>
      </trkpt>
      <trkpt lat="62.634718960753" lon="17.977126209269">
        <ele>82</ele>
        <time>2018-02-17T14:02:33Z</time>
      </trkpt>
      <trkpt lat="62.634734383449" lon="17.977040210975">
        <ele>82</ele>
        <time>2018-02-17T14:02:34Z</time>
      </trkpt>
      <trkpt lat="62.634740753693" lon="17.976962426943">
        <ele>82</ele>
        <time>2018-02-17T14:02:35Z</time>
      </trkpt>
      <trkpt lat="62.634753661819" lon="17.976894365915">
        <ele>82</ele>
        <time>2018-02-17T14:02:36Z</time>
      </trkpt>
      <trkpt lat="62.634767324316" lon="17.976831334027">
        <ele>81.8</ele>
        <time>2018-02-17T14:02:37Z</time>
      </trkpt>
      <trkpt lat="62.634786854143" lon="17.976737792023">
        <ele>81.8</ele>
        <time>2018-02-17T14:02:38Z</time>
      </trkpt>
      <trkpt lat="62.634802109201" lon="17.976661935828">
        <ele>81.8</ele>
        <time>2018-02-17T14:02:39Z</time>
      </trkpt>
      <trkpt lat="62.634824153598" lon="17.976595299723">
        <ele>81.8</ele>
        <time>2018-02-17T14:02:40Z</time>
      </trkpt>
      <trkpt lat="62.63482817691" lon="17.976561688304">
        <ele>81.6</ele>
        <time>2018-02-17T14:02:41Z</time>
      </trkpt>
      <trkpt lat="62.634841001217" lon="17.976495974208">
        <ele>81.6</ele>
        <time>2018-02-17T14:02:42Z</time>
      </trkpt>
      <trkpt lat="62.634864554356" lon="17.976419363642">
        <ele>81.6</ele>
        <time>2018-02-17T14:02:43Z</time>
      </trkpt>
      <trkpt lat="62.63488601202" lon="17.976361025618">
        <ele>81.4</ele>
        <time>2018-02-17T14:02:44Z</time>
      </trkpt>
      <trkpt lat="62.634901769992" lon="17.976292377857">
        <ele>81.4</ele>
        <time>2018-02-17T14:02:45Z</time>
      </trkpt>
      <trkpt lat="62.63492205419" lon="17.976210319056">
        <ele>81.2</ele>
        <time>2018-02-17T14:02:46Z</time>
      </trkpt>
      <trkpt lat="62.634945691148" lon="17.976122057649">
        <ele>81.2</ele>
        <time>2018-02-17T14:02:47Z</time>
      </trkpt>
      <trkpt lat="62.634955162695" lon="17.976045279445">
        <ele>81</ele>
        <time>2018-02-17T14:02:48Z</time>
      </trkpt>
      <trkpt lat="62.634964550423" lon="17.975963472101">
        <ele>80.8</ele>
        <time>2018-02-17T14:02:49Z</time>
      </trkpt>
      <trkpt lat="62.634983661155" lon="17.975863140758">
        <ele>80.6</ele>
        <time>2018-02-17T14:02:50Z</time>
      </trkpt>
      <trkpt lat="62.635005202638" lon="17.975761300673">
        <ele>80.2</ele>
        <time>2018-02-17T14:02:51Z</time>
      </trkpt>
      <trkpt lat="62.635019870963" lon="17.975693491102">
        <ele>80</ele>
        <time>2018-02-17T14:02:52Z</time>
      </trkpt>
      <trkpt lat="62.63503269527" lon="17.975601374021">
        <ele>80</ele>
        <time>2018-02-17T14:02:53Z</time>
      </trkpt>
      <trkpt lat="62.635038311143" lon="17.975513112614">
        <ele>80</ele>
        <time>2018-02-17T14:02:54Z</time>
      </trkpt>
      <trkpt lat="62.63504526812" lon="17.975442453197">
        <ele>79.8</ele>
        <time>2018-02-17T14:02:55Z</time>
      </trkpt>
      <trkpt lat="62.635054907305" lon="17.975324436045">
        <ele>80</ele>
        <time>2018-02-17T14:02:56Z</time>
      </trkpt>
      <trkpt lat="62.635069827087" lon="17.975232738059">
        <ele>79.8</ele>
        <time>2018-02-17T14:02:57Z</time>
      </trkpt>
      <trkpt lat="62.635072676933" lon="17.975122180798">
        <ele>79.8</ele>
        <time>2018-02-17T14:02:58Z</time>
      </trkpt>
      <trkpt lat="62.635052728011" lon="17.975026208043">
        <ele>79.8</ele>
        <time>2018-02-17T14:02:59Z</time>
      </trkpt>
      <trkpt lat="62.635030096881" lon="17.974936940808">
        <ele>79.2</ele>
        <time>2018-02-17T14:03:00Z</time>
      </trkpt>
      <trkpt lat="62.635006543742" lon="17.974850188143">
        <ele>78.6</ele>
        <time>2018-02-17T14:03:01Z</time>
      </trkpt>
      <trkpt lat="62.634989360847" lon="17.974778187622">
        <ele>78</ele>
        <time>2018-02-17T14:03:02Z</time>
      </trkpt>
      <trkpt lat="62.63498156568" lon="17.974668803827">
        <ele>77.6</ele>
        <time>2018-02-17T14:03:03Z</time>
      </trkpt>
      <trkpt lat="62.634964382785" lon="17.974561934602">
        <ele>77.2</ele>
        <time>2018-02-17T14:03:04Z</time>
      </trkpt>
      <trkpt lat="62.634943176578" lon="17.974466380942">
        <ele>76.8</ele>
        <time>2018-02-17T14:03:05Z</time>
      </trkpt>
      <trkpt lat="62.634914175204" lon="17.974384908874">
        <ele>76.8</ele>
        <time>2018-02-17T14:03:06Z</time>
      </trkpt>
      <trkpt lat="62.634892968997" lon="17.974312237801">
        <ele>76.8</ele>
        <time>2018-02-17T14:03:07Z</time>
      </trkpt>
      <trkpt lat="62.63487511555" lon="17.974226910059">
        <ele>77</ele>
        <time>2018-02-17T14:03:08Z</time>
      </trkpt>
      <trkpt lat="62.634853741705" lon="17.974141247041">
        <ele>77.2</ele>
        <time>2018-02-17T14:03:09Z</time>
      </trkpt>
      <trkpt lat="62.634830188566" lon="17.974062121905">
        <ele>77.2</ele>
        <time>2018-02-17T14:03:10Z</time>
      </trkpt>
      <trkpt lat="62.634805797237" lon="17.973981404208">
        <ele>77.2</ele>
        <time>2018-02-17T14:03:11Z</time>
      </trkpt>
      <trkpt lat="62.634783249926" lon="17.973918959053">
        <ele>76.8</ele>
        <time>2018-02-17T14:03:12Z</time>
      </trkpt>
      <trkpt lat="62.634763552461" lon="17.973843186677">
        <ele>76.6</ele>
        <time>2018-02-17T14:03:13Z</time>
      </trkpt>
      <trkpt lat="62.634738406761" lon="17.97376665993">
        <ele>76.4</ele>
        <time>2018-02-17T14:03:14Z</time>
      </trkpt>
      <trkpt lat="62.634724744264" lon="17.973693485943">
        <ele>76.2</ele>
        <time>2018-02-17T14:03:15Z</time>
      </trkpt>
      <trkpt lat="62.634707226093" lon="17.973621150146">
        <ele>76</ele>
        <time>2018-02-17T14:03:16Z</time>
      </trkpt>
      <trkpt lat="62.634702029315" lon="17.97354118682">
        <ele>76.2</ele>
        <time>2018-02-17T14:03:17Z</time>
      </trkpt>
      <trkpt lat="62.634705298256" lon="17.973450410843">
        <ele>76</ele>
        <time>2018-02-17T14:03:18Z</time>
      </trkpt>
      <trkpt lat="62.634699598564" lon="17.973371956259">
        <ele>76.2</ele>
        <time>2018-02-17T14:03:19Z</time>
      </trkpt>
      <trkpt lat="62.634691803397" lon="17.97328553887">
        <ele>76</ele>
        <time>2018-02-17T14:03:20Z</time>
      </trkpt>
      <trkpt lat="62.634701274944" lon="17.973198953843">
        <ele>76</ele>
        <time>2018-02-17T14:03:21Z</time>
      </trkpt>
      <trkpt lat="62.634707980464" lon="17.973123684381">
        <ele>76</ele>
        <time>2018-02-17T14:03:22Z</time>
      </trkpt>
      <trkpt lat="62.634708818654" lon="17.973030058558">
        <ele>75.8</ele>
        <time>2018-02-17T14:03:23Z</time>
      </trkpt>
      <trkpt lat="62.634714937441" lon="17.972932074147">
        <ele>75.6</ele>
        <time>2018-02-17T14:03:24Z</time>
      </trkpt>
      <trkpt lat="62.634734131992" lon="17.972848506604">
        <ele>75.6</ele>
        <time>2018-02-17T14:03:25Z</time>
      </trkpt>
      <trkpt lat="62.634755086742" lon="17.97277256659">
        <ele>75.4</ele>
        <time>2018-02-17T14:03:26Z</time>
      </trkpt>
      <trkpt lat="62.634773443103" lon="17.972702745363">
        <ele>75.4</ele>
        <time>2018-02-17T14:03:27Z</time>
      </trkpt>
      <trkpt lat="62.6347954875" lon="17.972617333802">
        <ele>75.4</ele>
        <time>2018-02-17T14:03:28Z</time>
      </trkpt>
      <trkpt lat="62.634819124458" lon="17.97255044624">
        <ele>75.4</ele>
        <time>2018-02-17T14:03:29Z</time>
      </trkpt>
      <trkpt lat="62.634833541326" lon="17.972484983601">
        <ele>75</ele>
        <time>2018-02-17T14:03:30Z</time>
      </trkpt>
      <trkpt lat="62.634864889632" lon="17.972415916745">
        <ele>75</ele>
        <time>2018-02-17T14:03:31Z</time>
      </trkpt>
      <trkpt lat="62.634886431115" lon="17.972353974504">
        <ele>74.8</ele>
        <time>2018-02-17T14:03:32Z</time>
      </trkpt>
      <trkpt lat="62.634921048362" lon="17.972261438328">
        <ele>74.8</ele>
        <time>2018-02-17T14:03:33Z</time>
      </trkpt>
      <trkpt lat="62.634940913465" lon="17.972176278224">
        <ele>74.6</ele>
        <time>2018-02-17T14:03:34Z</time>
      </trkpt>
      <trkpt lat="62.634964215147" lon="17.972095811984">
        <ele>74.6</ele>
        <time>2018-02-17T14:03:35Z</time>
      </trkpt>
      <trkpt lat="62.634996485462" lon="17.972012914993">
        <ele>74.4</ele>
        <time>2018-02-17T14:03:36Z</time>
      </trkpt>
      <trkpt lat="62.635019619506" lon="17.971908308881">
        <ele>74.2</ele>
        <time>2018-02-17T14:03:37Z</time>
      </trkpt>
      <trkpt lat="62.635051889821" lon="17.971790124091">
        <ele>73.4</ele>
        <time>2018-02-17T14:03:38Z</time>
      </trkpt>
      <trkpt lat="62.63506706106" lon="17.971668586541">
        <ele>72.8</ele>
        <time>2018-02-17T14:03:39Z</time>
      </trkpt>
      <trkpt lat="62.635081394109" lon="17.971553754511">
        <ele>72</ele>
        <time>2018-02-17T14:03:40Z</time>
      </trkpt>
      <trkpt lat="62.635094553692" lon="17.971436156454">
        <ele>71</ele>
        <time>2018-02-17T14:03:41Z</time>
      </trkpt>
      <trkpt lat="62.635105366343" lon="17.971329622505">
        <ele>70.4</ele>
        <time>2018-02-17T14:03:42Z</time>
      </trkpt>
      <trkpt lat="62.635118945021" lon="17.971205402747">
        <ele>70</ele>
        <time>2018-02-17T14:03:43Z</time>
      </trkpt>
      <trkpt lat="62.635132272242" lon="17.971095180762">
        <ele>70</ele>
        <time>2018-02-17T14:03:44Z</time>
      </trkpt>
      <trkpt lat="62.635141492332" lon="17.970985713148">
        <ele>70.2</ele>
        <time>2018-02-17T14:03:45Z</time>
      </trkpt>
      <trkpt lat="62.635158675227" lon="17.970893009334">
        <ele>70.2</ele>
        <time>2018-02-17T14:03:46Z</time>
      </trkpt>
      <trkpt lat="62.635171583353" lon="17.97077935077">
        <ele>70.4</ele>
        <time>2018-02-17T14:03:47Z</time>
      </trkpt>
      <trkpt lat="62.635187592782" lon="17.970669799337">
        <ele>70.4</ele>
        <time>2018-02-17T14:03:48Z</time>
      </trkpt>
      <trkpt lat="62.635201925831" lon="17.970564355035">
        <ele>70.6</ele>
        <time>2018-02-17T14:03:49Z</time>
      </trkpt>
      <trkpt lat="62.635212738482" lon="17.970461341484">
        <ele>70.4</ele>
        <time>2018-02-17T14:03:50Z</time>
      </trkpt>
      <trkpt lat="62.635226233341" lon="17.970360171951">
        <ele>70.2</ele>
        <time>2018-02-17T14:03:51Z</time>
      </trkpt>
      <trkpt lat="62.635236962173" lon="17.970270485621">
        <ele>69.6</ele>
        <time>2018-02-17T14:03:52Z</time>
      </trkpt>
      <trkpt lat="62.635258252199" lon="17.97015154646">
        <ele>69.2</ele>
        <time>2018-02-17T14:03:53Z</time>
      </trkpt>
      <trkpt lat="62.63528079951" lon="17.970047694719">
        <ele>68.8</ele>
        <time>2018-02-17T14:03:54Z</time>
      </trkpt>
      <trkpt lat="62.635307705409" lon="17.969948201566">
        <ele>68.2</ele>
        <time>2018-02-17T14:03:55Z</time>
      </trkpt>
      <trkpt lat="62.635330504177" lon="17.969846026205">
        <ele>68</ele>
        <time>2018-02-17T14:03:56Z</time>
      </trkpt>
      <trkpt lat="62.635353219126" lon="17.969757764798">
        <ele>67.6</ele>
        <time>2018-02-17T14:03:57Z</time>
      </trkpt>
      <trkpt lat="62.635377526636" lon="17.969651817582">
        <ele>67.2</ele>
        <time>2018-02-17T14:03:58Z</time>
      </trkpt>
      <trkpt lat="62.63540149887" lon="17.969550480411">
        <ele>66.8</ele>
        <time>2018-02-17T14:03:59Z</time>
      </trkpt>
      <trkpt lat="62.635425387285" lon="17.969454088561">
        <ele>66.4</ele>
        <time>2018-02-17T14:04:00Z</time>
      </trkpt>
      <trkpt lat="62.635451371175" lon="17.96935107501">
        <ele>66</ele>
        <time>2018-02-17T14:04:01Z</time>
      </trkpt>
      <trkpt lat="62.635477187427" lon="17.969254766979">
        <ele>65.4</ele>
        <time>2018-02-17T14:04:02Z</time>
      </trkpt>
      <trkpt lat="62.635505853525" lon="17.969139264397">
        <ele>65</ele>
        <time>2018-02-17T14:04:03Z</time>
      </trkpt>
      <trkpt lat="62.635537034193" lon="17.969039435968">
        <ele>64.6</ele>
        <time>2018-02-17T14:04:04Z</time>
      </trkpt>
      <trkpt lat="62.635571567621" lon="17.968933237295">
        <ele>64</ele>
        <time>2018-02-17T14:04:05Z</time>
      </trkpt>
      <trkpt lat="62.635606436325" lon="17.968838018911">
        <ele>63.4</ele>
        <time>2018-02-17T14:04:06Z</time>
      </trkpt>
      <trkpt lat="62.635637700812" lon="17.968757887947">
        <ele>63</ele>
        <time>2018-02-17T14:04:07Z</time>
      </trkpt>
      <trkpt lat="62.635681119054" lon="17.968662837201">
        <ele>62.6</ele>
        <time>2018-02-17T14:04:08Z</time>
      </trkpt>
      <trkpt lat="62.635725207848" lon="17.968596536372">
        <ele>62.2</ele>
        <time>2018-02-17T14:04:09Z</time>
      </trkpt>
      <trkpt lat="62.635768374633" lon="17.968537360158">
        <ele>61.4</ele>
        <time>2018-02-17T14:04:10Z</time>
      </trkpt>
      <trkpt lat="62.635821264422" lon="17.968498887237">
        <ele>61</ele>
        <time>2018-02-17T14:04:11Z</time>
      </trkpt>
      <trkpt lat="62.635867197234" lon="17.968472400433">
        <ele>60.2</ele>
        <time>2018-02-17T14:04:12Z</time>
      </trkpt>
      <trkpt lat="62.635916482806" lon="17.968454295529">
        <ele>59.6</ele>
        <time>2018-02-17T14:04:13Z</time>
      </trkpt>
      <trkpt lat="62.635955291003" lon="17.968441135946">
        <ele>59</ele>
        <time>2018-02-17T14:04:14Z</time>
      </trkpt>
      <trkpt lat="62.635991500811" lon="17.96843074239">
        <ele>58.8</ele>
        <time>2018-02-17T14:04:15Z</time>
      </trkpt>
      <trkpt lat="62.636024776954" lon="17.968423701594">
        <ele>58.6</ele>
        <time>2018-02-17T14:04:16Z</time>
      </trkpt>
      <trkpt lat="62.636065429169" lon="17.968418588635">
        <ele>58.6</ele>
        <time>2018-02-17T14:04:18Z</time>
      </trkpt>
      <trkpt lat="62.636075235992" lon="17.968410793468">
        <ele>58.6</ele>
        <time>2018-02-17T14:04:19Z</time>
      </trkpt>
      <trkpt lat="62.636070877404" lon="17.96842403687">
        <ele>58.8</ele>
        <time>2018-02-17T14:04:20Z</time>
      </trkpt>
      <trkpt lat="62.636075906544" lon="17.968424707422">
        <ele>58.8</ele>
        <time>2018-02-17T14:04:21Z</time>
      </trkpt>
      <trkpt lat="62.636068614291" lon="17.96840811126">
        <ele>59</ele>
        <time>2018-02-17T14:04:23Z</time>
      </trkpt>
      <trkpt lat="62.636063166056" lon="17.968397550066">
        <ele>59</ele>
        <time>2018-02-17T14:04:24Z</time>
      </trkpt>
      <trkpt lat="62.63605193431" lon="17.968370308891">
        <ele>59</ele>
        <time>2018-02-17T14:04:25Z</time>
      </trkpt>
      <trkpt lat="62.636037014528" lon="17.968345330829">
        <ele>59</ele>
        <time>2018-02-17T14:04:26Z</time>
      </trkpt>
      <trkpt lat="62.636025698963" lon="17.968321190957">
        <ele>59</ele>
        <time>2018-02-17T14:04:27Z</time>
      </trkpt>
      <trkpt lat="62.636012287923" lon="17.968288166271">
        <ele>58.8</ele>
        <time>2018-02-17T14:04:28Z</time>
      </trkpt>
      <trkpt lat="62.6360024811" lon="17.968260170725">
        <ele>58.8</ele>
        <time>2018-02-17T14:04:29Z</time>
      </trkpt>
    </trkseg>
  </trk>
</gpx>